<?xml version="1.0" encoding="UTF-8"?>
<gpx version="1.1" creator="https://www.youtrack.es" xsi:schemaLocation="http://www.topografix.com/GPX/1/1 http://www.topografix.com/GPX/1/1/gpx.xsd http://www.garmin.com/xmlschemas/GpxExtensions/v3 http://www.garmin.com/xmlschemas/GpxExtensionsv3.xsd http://www.garmin.com/xmlschemas/TrackPointExtension/v1 http://www.garmin.com/xmlschemas/TrackPointExtensionv1.xsd" xmlns:gpxtpx="http://www.garmin.com/xmlschemas/TrackPointExtension/v1" xmlns:gpxx="http://www.garmin.com/xmlschemas/GpxExtensions/v3" xmlns:xsi="http://www.w3.org/2001/XMLSchema-instance">
  <metadata>
    <link href="https://www.youtrack.es">
      <text>YouTrack.es</text>
    </link>
    <time>2026-05-08T08:19:21Z</time>
  </metadata>
  <trk>
    <src>https://www.youtrack.es</src>
    <link href="https://www.youtrack.es/ruta/17935-duatlon-fast-club-entrenamientos-elche">
      <text>YouTrack.es</text>
    </link>
    <trkseg>
      <trkpt lat="38.2801930" lon="-0.6692820">
        <ele>86.6</ele>
        <time>2020-12-06T07:36:50Z</time>
      </trkpt>
      <trkpt lat="38.2801930" lon="-0.6692820">
        <ele>86.6</ele>
        <time>2020-12-06T07:36:51Z</time>
      </trkpt>
      <trkpt lat="38.2801920" lon="-0.6693000">
        <ele>86.6</ele>
        <time>2020-12-06T07:36:52Z</time>
      </trkpt>
      <trkpt lat="38.2801880" lon="-0.6693180">
        <ele>86.6</ele>
        <time>2020-12-06T07:36:53Z</time>
      </trkpt>
      <trkpt lat="38.2801850" lon="-0.6693350">
        <ele>86.6</ele>
        <time>2020-12-06T07:36:54Z</time>
      </trkpt>
      <trkpt lat="38.2801830" lon="-0.6693580">
        <ele>86.6</ele>
        <time>2020-12-06T07:36:55Z</time>
      </trkpt>
      <trkpt lat="38.2801820" lon="-0.6693880">
        <ele>85.5</ele>
        <time>2020-12-06T07:36:56Z</time>
      </trkpt>
      <trkpt lat="38.2801800" lon="-0.6694180">
        <ele>85.5</ele>
        <time>2020-12-06T07:36:57Z</time>
      </trkpt>
      <trkpt lat="38.2801770" lon="-0.6694500">
        <ele>85.5</ele>
        <time>2020-12-06T07:36:58Z</time>
      </trkpt>
      <trkpt lat="38.2801700" lon="-0.6694780">
        <ele>85.5</ele>
        <time>2020-12-06T07:36:59Z</time>
      </trkpt>
      <trkpt lat="38.2801630" lon="-0.6695080">
        <ele>85.5</ele>
        <time>2020-12-06T07:37:00Z</time>
      </trkpt>
      <trkpt lat="38.2801600" lon="-0.6695430">
        <ele>85.5</ele>
        <time>2020-12-06T07:37:01Z</time>
      </trkpt>
      <trkpt lat="38.2801570" lon="-0.6695820">
        <ele>84.6</ele>
        <time>2020-12-06T07:37:02Z</time>
      </trkpt>
      <trkpt lat="38.2801520" lon="-0.6696200">
        <ele>84.6</ele>
        <time>2020-12-06T07:37:03Z</time>
      </trkpt>
      <trkpt lat="38.2801470" lon="-0.6696600">
        <ele>84.6</ele>
        <time>2020-12-06T07:37:04Z</time>
      </trkpt>
      <trkpt lat="38.2801380" lon="-0.6697030">
        <ele>84.6</ele>
        <time>2020-12-06T07:37:05Z</time>
      </trkpt>
      <trkpt lat="38.2801280" lon="-0.6697450">
        <ele>84.6</ele>
        <time>2020-12-06T07:37:06Z</time>
      </trkpt>
      <trkpt lat="38.2801200" lon="-0.6697880">
        <ele>84.6</ele>
        <time>2020-12-06T07:37:07Z</time>
      </trkpt>
      <trkpt lat="38.2801130" lon="-0.6698320">
        <ele>86.6</ele>
        <time>2020-12-06T07:37:08Z</time>
      </trkpt>
      <trkpt lat="38.2801070" lon="-0.6698770">
        <ele>86.6</ele>
        <time>2020-12-06T07:37:09Z</time>
      </trkpt>
      <trkpt lat="38.2801000" lon="-0.6699270">
        <ele>87.6</ele>
        <time>2020-12-06T07:37:10Z</time>
      </trkpt>
      <trkpt lat="38.2800930" lon="-0.6699820">
        <ele>87.6</ele>
        <time>2020-12-06T07:37:11Z</time>
      </trkpt>
      <trkpt lat="38.2800820" lon="-0.6700370">
        <ele>88.5</ele>
        <time>2020-12-06T07:37:12Z</time>
      </trkpt>
      <trkpt lat="38.2800720" lon="-0.6700920">
        <ele>88.5</ele>
        <time>2020-12-06T07:37:13Z</time>
      </trkpt>
      <trkpt lat="38.2800630" lon="-0.6701480">
        <ele>88.5</ele>
        <time>2020-12-06T07:37:14Z</time>
      </trkpt>
      <trkpt lat="38.2800530" lon="-0.6702030">
        <ele>88.5</ele>
        <time>2020-12-06T07:37:15Z</time>
      </trkpt>
      <trkpt lat="38.2800480" lon="-0.6702580">
        <ele>88.5</ele>
        <time>2020-12-06T07:37:16Z</time>
      </trkpt>
      <trkpt lat="38.2800420" lon="-0.6703120">
        <ele>88.5</ele>
        <time>2020-12-06T07:37:17Z</time>
      </trkpt>
      <trkpt lat="38.2800350" lon="-0.6703650">
        <ele>85.5</ele>
        <time>2020-12-06T07:37:18Z</time>
      </trkpt>
      <trkpt lat="38.2800280" lon="-0.6704150">
        <ele>85.5</ele>
        <time>2020-12-06T07:37:19Z</time>
      </trkpt>
      <trkpt lat="38.2800230" lon="-0.6704670">
        <ele>86.6</ele>
        <time>2020-12-06T07:37:20Z</time>
      </trkpt>
      <trkpt lat="38.2800150" lon="-0.6705170">
        <ele>86.6</ele>
        <time>2020-12-06T07:37:21Z</time>
      </trkpt>
      <trkpt lat="38.2800030" lon="-0.6705680">
        <ele>86.6</ele>
        <time>2020-12-06T07:37:22Z</time>
      </trkpt>
      <trkpt lat="38.2799870" lon="-0.6706170">
        <ele>86.6</ele>
        <time>2020-12-06T07:37:23Z</time>
      </trkpt>
      <trkpt lat="38.2799680" lon="-0.6706700">
        <ele>86.6</ele>
        <time>2020-12-06T07:37:24Z</time>
      </trkpt>
      <trkpt lat="38.2799470" lon="-0.6707200">
        <ele>85.5</ele>
        <time>2020-12-06T07:37:25Z</time>
      </trkpt>
      <trkpt lat="38.2799230" lon="-0.6707700">
        <ele>85.5</ele>
        <time>2020-12-06T07:37:26Z</time>
      </trkpt>
      <trkpt lat="38.2799020" lon="-0.6708170">
        <ele>85.5</ele>
        <time>2020-12-06T07:37:27Z</time>
      </trkpt>
      <trkpt lat="38.2798780" lon="-0.6708630">
        <ele>85.5</ele>
        <time>2020-12-06T07:37:28Z</time>
      </trkpt>
      <trkpt lat="38.2798570" lon="-0.6709080">
        <ele>85.5</ele>
        <time>2020-12-06T07:37:29Z</time>
      </trkpt>
      <trkpt lat="38.2798370" lon="-0.6709520">
        <ele>85.5</ele>
        <time>2020-12-06T07:37:30Z</time>
      </trkpt>
      <trkpt lat="38.2798170" lon="-0.6709950">
        <ele>85.5</ele>
        <time>2020-12-06T07:37:31Z</time>
      </trkpt>
      <trkpt lat="38.2798020" lon="-0.6710400">
        <ele>85.5</ele>
        <time>2020-12-06T07:37:32Z</time>
      </trkpt>
      <trkpt lat="38.2797900" lon="-0.6710870">
        <ele>85.5</ele>
        <time>2020-12-06T07:37:33Z</time>
      </trkpt>
      <trkpt lat="38.2797850" lon="-0.6711230">
        <ele>85.5</ele>
        <time>2020-12-06T07:37:34Z</time>
      </trkpt>
      <trkpt lat="38.2797900" lon="-0.6711550">
        <ele>85.5</ele>
        <time>2020-12-06T07:37:35Z</time>
      </trkpt>
      <trkpt lat="38.2797980" lon="-0.6711820">
        <ele>85.5</ele>
        <time>2020-12-06T07:37:36Z</time>
      </trkpt>
      <trkpt lat="38.2798120" lon="-0.6711900">
        <ele>85.5</ele>
        <time>2020-12-06T07:37:37Z</time>
      </trkpt>
      <trkpt lat="38.2798280" lon="-0.6711780">
        <ele>85.5</ele>
        <time>2020-12-06T07:37:38Z</time>
      </trkpt>
      <trkpt lat="38.2798500" lon="-0.6711530">
        <ele>86.6</ele>
        <time>2020-12-06T07:37:39Z</time>
      </trkpt>
      <trkpt lat="38.2798750" lon="-0.6711180">
        <ele>86.6</ele>
        <time>2020-12-06T07:37:40Z</time>
      </trkpt>
      <trkpt lat="38.2798970" lon="-0.6710770">
        <ele>86.6</ele>
        <time>2020-12-06T07:37:41Z</time>
      </trkpt>
      <trkpt lat="38.2799220" lon="-0.6710330">
        <ele>86.6</ele>
        <time>2020-12-06T07:37:42Z</time>
      </trkpt>
      <trkpt lat="38.2799500" lon="-0.6709950">
        <ele>86.6</ele>
        <time>2020-12-06T07:37:43Z</time>
      </trkpt>
      <trkpt lat="38.2799800" lon="-0.6709580">
        <ele>86.6</ele>
        <time>2020-12-06T07:37:44Z</time>
      </trkpt>
      <trkpt lat="38.2800100" lon="-0.6709230">
        <ele>86.6</ele>
        <time>2020-12-06T07:37:45Z</time>
      </trkpt>
      <trkpt lat="38.2800420" lon="-0.6708880">
        <ele>86.6</ele>
        <time>2020-12-06T07:37:46Z</time>
      </trkpt>
      <trkpt lat="38.2800720" lon="-0.6708550">
        <ele>86.6</ele>
        <time>2020-12-06T07:37:47Z</time>
      </trkpt>
      <trkpt lat="38.2801030" lon="-0.6708180">
        <ele>86.6</ele>
        <time>2020-12-06T07:37:48Z</time>
      </trkpt>
      <trkpt lat="38.2801370" lon="-0.6707830">
        <ele>86.6</ele>
        <time>2020-12-06T07:37:49Z</time>
      </trkpt>
      <trkpt lat="38.2801700" lon="-0.6707500">
        <ele>86.6</ele>
        <time>2020-12-06T07:37:50Z</time>
      </trkpt>
      <trkpt lat="38.2802030" lon="-0.6707180">
        <ele>86.6</ele>
        <time>2020-12-06T07:37:51Z</time>
      </trkpt>
      <trkpt lat="38.2802370" lon="-0.6706850">
        <ele>86.6</ele>
        <time>2020-12-06T07:37:52Z</time>
      </trkpt>
      <trkpt lat="38.2802670" lon="-0.6706550">
        <ele>86.6</ele>
        <time>2020-12-06T07:37:53Z</time>
      </trkpt>
      <trkpt lat="38.2802950" lon="-0.6706250">
        <ele>86.6</ele>
        <time>2020-12-06T07:37:54Z</time>
      </trkpt>
      <trkpt lat="38.2803230" lon="-0.6705970">
        <ele>86.6</ele>
        <time>2020-12-06T07:37:55Z</time>
      </trkpt>
      <trkpt lat="38.2803520" lon="-0.6705670">
        <ele>86.6</ele>
        <time>2020-12-06T07:37:56Z</time>
      </trkpt>
      <trkpt lat="38.2803780" lon="-0.6705380">
        <ele>86.6</ele>
        <time>2020-12-06T07:37:57Z</time>
      </trkpt>
      <trkpt lat="38.2804070" lon="-0.6705120">
        <ele>86.6</ele>
        <time>2020-12-06T07:37:58Z</time>
      </trkpt>
      <trkpt lat="38.2804370" lon="-0.6704870">
        <ele>86.6</ele>
        <time>2020-12-06T07:37:59Z</time>
      </trkpt>
      <trkpt lat="38.2804650" lon="-0.6704600">
        <ele>86.6</ele>
        <time>2020-12-06T07:38:00Z</time>
      </trkpt>
      <trkpt lat="38.2804930" lon="-0.6704330">
        <ele>86.6</ele>
        <time>2020-12-06T07:38:01Z</time>
      </trkpt>
      <trkpt lat="38.2805230" lon="-0.6704070">
        <ele>86.6</ele>
        <time>2020-12-06T07:38:02Z</time>
      </trkpt>
      <trkpt lat="38.2805530" lon="-0.6703800">
        <ele>87.6</ele>
        <time>2020-12-06T07:38:03Z</time>
      </trkpt>
      <trkpt lat="38.2805850" lon="-0.6703550">
        <ele>87.6</ele>
        <time>2020-12-06T07:38:04Z</time>
      </trkpt>
      <trkpt lat="38.2806180" lon="-0.6703330">
        <ele>87.6</ele>
        <time>2020-12-06T07:38:05Z</time>
      </trkpt>
      <trkpt lat="38.2806520" lon="-0.6703120">
        <ele>87.6</ele>
        <time>2020-12-06T07:38:06Z</time>
      </trkpt>
      <trkpt lat="38.2806830" lon="-0.6702880">
        <ele>87.6</ele>
        <time>2020-12-06T07:38:07Z</time>
      </trkpt>
      <trkpt lat="38.2807150" lon="-0.6702630">
        <ele>87.6</ele>
        <time>2020-12-06T07:38:08Z</time>
      </trkpt>
      <trkpt lat="38.2807450" lon="-0.6702380">
        <ele>87.6</ele>
        <time>2020-12-06T07:38:09Z</time>
      </trkpt>
      <trkpt lat="38.2807750" lon="-0.6702170">
        <ele>87.6</ele>
        <time>2020-12-06T07:38:10Z</time>
      </trkpt>
      <trkpt lat="38.2808050" lon="-0.6701950">
        <ele>87.6</ele>
        <time>2020-12-06T07:38:11Z</time>
      </trkpt>
      <trkpt lat="38.2808330" lon="-0.6701720">
        <ele>87.6</ele>
        <time>2020-12-06T07:38:12Z</time>
      </trkpt>
      <trkpt lat="38.2808630" lon="-0.6701480">
        <ele>88.5</ele>
        <time>2020-12-06T07:38:13Z</time>
      </trkpt>
      <trkpt lat="38.2808920" lon="-0.6701270">
        <ele>88.5</ele>
        <time>2020-12-06T07:38:14Z</time>
      </trkpt>
      <trkpt lat="38.2809180" lon="-0.6701030">
        <ele>88.5</ele>
        <time>2020-12-06T07:38:15Z</time>
      </trkpt>
      <trkpt lat="38.2809450" lon="-0.6700820">
        <ele>88.5</ele>
        <time>2020-12-06T07:38:16Z</time>
      </trkpt>
      <trkpt lat="38.2809700" lon="-0.6700580">
        <ele>88.5</ele>
        <time>2020-12-06T07:38:17Z</time>
      </trkpt>
      <trkpt lat="38.2809950" lon="-0.6700350">
        <ele>88.5</ele>
        <time>2020-12-06T07:38:18Z</time>
      </trkpt>
      <trkpt lat="38.2810220" lon="-0.6700150">
        <ele>87.6</ele>
        <time>2020-12-06T07:38:19Z</time>
      </trkpt>
      <trkpt lat="38.2810480" lon="-0.6699930">
        <ele>87.6</ele>
        <time>2020-12-06T07:38:20Z</time>
      </trkpt>
      <trkpt lat="38.2810750" lon="-0.6699700">
        <ele>87.6</ele>
        <time>2020-12-06T07:38:21Z</time>
      </trkpt>
      <trkpt lat="38.2811000" lon="-0.6699450">
        <ele>87.6</ele>
        <time>2020-12-06T07:38:22Z</time>
      </trkpt>
      <trkpt lat="38.2811270" lon="-0.6699200">
        <ele>87.6</ele>
        <time>2020-12-06T07:38:23Z</time>
      </trkpt>
      <trkpt lat="38.2811520" lon="-0.6698970">
        <ele>87.6</ele>
        <time>2020-12-06T07:38:24Z</time>
      </trkpt>
      <trkpt lat="38.2811780" lon="-0.6698730">
        <ele>88.5</ele>
        <time>2020-12-06T07:38:25Z</time>
      </trkpt>
      <trkpt lat="38.2812070" lon="-0.6698500">
        <ele>88.5</ele>
        <time>2020-12-06T07:38:26Z</time>
      </trkpt>
      <trkpt lat="38.2812370" lon="-0.6698280">
        <ele>88.5</ele>
        <time>2020-12-06T07:38:27Z</time>
      </trkpt>
      <trkpt lat="38.2812650" lon="-0.6698020">
        <ele>88.5</ele>
        <time>2020-12-06T07:38:28Z</time>
      </trkpt>
      <trkpt lat="38.2812900" lon="-0.6697720">
        <ele>88.5</ele>
        <time>2020-12-06T07:38:29Z</time>
      </trkpt>
      <trkpt lat="38.2813170" lon="-0.6697430">
        <ele>88.5</ele>
        <time>2020-12-06T07:38:30Z</time>
      </trkpt>
      <trkpt lat="38.2813420" lon="-0.6697130">
        <ele>88.5</ele>
        <time>2020-12-06T07:38:31Z</time>
      </trkpt>
      <trkpt lat="38.2813680" lon="-0.6696800">
        <ele>88.5</ele>
        <time>2020-12-06T07:38:32Z</time>
      </trkpt>
      <trkpt lat="38.2813930" lon="-0.6696480">
        <ele>88.5</ele>
        <time>2020-12-06T07:38:33Z</time>
      </trkpt>
      <trkpt lat="38.2814220" lon="-0.6696170">
        <ele>88.5</ele>
        <time>2020-12-06T07:38:34Z</time>
      </trkpt>
      <trkpt lat="38.2814480" lon="-0.6695830">
        <ele>88.5</ele>
        <time>2020-12-06T07:38:35Z</time>
      </trkpt>
      <trkpt lat="38.2814750" lon="-0.6695500">
        <ele>88.5</ele>
        <time>2020-12-06T07:38:36Z</time>
      </trkpt>
      <trkpt lat="38.2815000" lon="-0.6695150">
        <ele>88.5</ele>
        <time>2020-12-06T07:38:37Z</time>
      </trkpt>
      <trkpt lat="38.2815250" lon="-0.6694770">
        <ele>88.5</ele>
        <time>2020-12-06T07:38:38Z</time>
      </trkpt>
      <trkpt lat="38.2815500" lon="-0.6694380">
        <ele>88.5</ele>
        <time>2020-12-06T07:38:39Z</time>
      </trkpt>
      <trkpt lat="38.2815750" lon="-0.6694020">
        <ele>88.5</ele>
        <time>2020-12-06T07:38:40Z</time>
      </trkpt>
      <trkpt lat="38.2816020" lon="-0.6693630">
        <ele>88.5</ele>
        <time>2020-12-06T07:38:41Z</time>
      </trkpt>
      <trkpt lat="38.2816280" lon="-0.6693250">
        <ele>88.5</ele>
        <time>2020-12-06T07:38:42Z</time>
      </trkpt>
      <trkpt lat="38.2816530" lon="-0.6692870">
        <ele>88.5</ele>
        <time>2020-12-06T07:38:43Z</time>
      </trkpt>
      <trkpt lat="38.2816800" lon="-0.6692480">
        <ele>88.5</ele>
        <time>2020-12-06T07:38:44Z</time>
      </trkpt>
      <trkpt lat="38.2817100" lon="-0.6692080">
        <ele>88.5</ele>
        <time>2020-12-06T07:38:45Z</time>
      </trkpt>
      <trkpt lat="38.2817420" lon="-0.6691680">
        <ele>88.5</ele>
        <time>2020-12-06T07:38:46Z</time>
      </trkpt>
      <trkpt lat="38.2817750" lon="-0.6691270">
        <ele>87.6</ele>
        <time>2020-12-06T07:38:47Z</time>
      </trkpt>
      <trkpt lat="38.2818120" lon="-0.6690820">
        <ele>87.6</ele>
        <time>2020-12-06T07:38:48Z</time>
      </trkpt>
      <trkpt lat="38.2818500" lon="-0.6690350">
        <ele>87.6</ele>
        <time>2020-12-06T07:38:49Z</time>
      </trkpt>
      <trkpt lat="38.2818900" lon="-0.6689870">
        <ele>87.6</ele>
        <time>2020-12-06T07:38:50Z</time>
      </trkpt>
      <trkpt lat="38.2819350" lon="-0.6689400">
        <ele>86.6</ele>
        <time>2020-12-06T07:38:51Z</time>
      </trkpt>
      <trkpt lat="38.2819780" lon="-0.6688980">
        <ele>86.6</ele>
        <time>2020-12-06T07:38:52Z</time>
      </trkpt>
      <trkpt lat="38.2820200" lon="-0.6688620">
        <ele>86.6</ele>
        <time>2020-12-06T07:38:53Z</time>
      </trkpt>
      <trkpt lat="38.2820630" lon="-0.6688280">
        <ele>86.6</ele>
        <time>2020-12-06T07:38:54Z</time>
      </trkpt>
      <trkpt lat="38.2821080" lon="-0.6687980">
        <ele>86.6</ele>
        <time>2020-12-06T07:38:55Z</time>
      </trkpt>
      <trkpt lat="38.2821530" lon="-0.6687730">
        <ele>86.6</ele>
        <time>2020-12-06T07:38:56Z</time>
      </trkpt>
      <trkpt lat="38.2821980" lon="-0.6687550">
        <ele>85.5</ele>
        <time>2020-12-06T07:38:57Z</time>
      </trkpt>
      <trkpt lat="38.2822430" lon="-0.6687430">
        <ele>85.5</ele>
        <time>2020-12-06T07:38:58Z</time>
      </trkpt>
      <trkpt lat="38.2822880" lon="-0.6687380">
        <ele>85.5</ele>
        <time>2020-12-06T07:38:59Z</time>
      </trkpt>
      <trkpt lat="38.2823320" lon="-0.6687320">
        <ele>85.5</ele>
        <time>2020-12-06T07:39:00Z</time>
      </trkpt>
      <trkpt lat="38.2823730" lon="-0.6687230">
        <ele>85.5</ele>
        <time>2020-12-06T07:39:01Z</time>
      </trkpt>
      <trkpt lat="38.2824170" lon="-0.6687180">
        <ele>85.5</ele>
        <time>2020-12-06T07:39:02Z</time>
      </trkpt>
      <trkpt lat="38.2824630" lon="-0.6687120">
        <ele>85.5</ele>
        <time>2020-12-06T07:39:03Z</time>
      </trkpt>
      <trkpt lat="38.2825130" lon="-0.6687050">
        <ele>85.5</ele>
        <time>2020-12-06T07:39:04Z</time>
      </trkpt>
      <trkpt lat="38.2825630" lon="-0.6686970">
        <ele>84.6</ele>
        <time>2020-12-06T07:39:05Z</time>
      </trkpt>
      <trkpt lat="38.2826200" lon="-0.6686870">
        <ele>84.6</ele>
        <time>2020-12-06T07:39:06Z</time>
      </trkpt>
      <trkpt lat="38.2826800" lon="-0.6686730">
        <ele>83.5</ele>
        <time>2020-12-06T07:39:07Z</time>
      </trkpt>
      <trkpt lat="38.2827400" lon="-0.6686600">
        <ele>83.5</ele>
        <time>2020-12-06T07:39:08Z</time>
      </trkpt>
      <trkpt lat="38.2827980" lon="-0.6686480">
        <ele>83.5</ele>
        <time>2020-12-06T07:39:09Z</time>
      </trkpt>
      <trkpt lat="38.2828530" lon="-0.6686380">
        <ele>83.5</ele>
        <time>2020-12-06T07:39:10Z</time>
      </trkpt>
      <trkpt lat="38.2829020" lon="-0.6686320">
        <ele>82.6</ele>
        <time>2020-12-06T07:39:11Z</time>
      </trkpt>
      <trkpt lat="38.2829430" lon="-0.6686230">
        <ele>82.6</ele>
        <time>2020-12-06T07:39:12Z</time>
      </trkpt>
      <trkpt lat="38.2829770" lon="-0.6686170">
        <ele>83.5</ele>
        <time>2020-12-06T07:39:13Z</time>
      </trkpt>
      <trkpt lat="38.2830050" lon="-0.6686100">
        <ele>83.5</ele>
        <time>2020-12-06T07:39:14Z</time>
      </trkpt>
      <trkpt lat="38.2830320" lon="-0.6686020">
        <ele>84.6</ele>
        <time>2020-12-06T07:39:15Z</time>
      </trkpt>
      <trkpt lat="38.2830570" lon="-0.6685930">
        <ele>84.6</ele>
        <time>2020-12-06T07:39:16Z</time>
      </trkpt>
      <trkpt lat="38.2830800" lon="-0.6685830">
        <ele>85.5</ele>
        <time>2020-12-06T07:39:17Z</time>
      </trkpt>
      <trkpt lat="38.2831030" lon="-0.6685750">
        <ele>85.5</ele>
        <time>2020-12-06T07:39:18Z</time>
      </trkpt>
      <trkpt lat="38.2831280" lon="-0.6685680">
        <ele>85.5</ele>
        <time>2020-12-06T07:39:19Z</time>
      </trkpt>
      <trkpt lat="38.2831550" lon="-0.6685650">
        <ele>85.5</ele>
        <time>2020-12-06T07:39:20Z</time>
      </trkpt>
      <trkpt lat="38.2831830" lon="-0.6685570">
        <ele>85.5</ele>
        <time>2020-12-06T07:39:21Z</time>
      </trkpt>
      <trkpt lat="38.2832120" lon="-0.6685470">
        <ele>85.5</ele>
        <time>2020-12-06T07:39:22Z</time>
      </trkpt>
      <trkpt lat="38.2832450" lon="-0.6685350">
        <ele>85.5</ele>
        <time>2020-12-06T07:39:23Z</time>
      </trkpt>
      <trkpt lat="38.2832770" lon="-0.6685230">
        <ele>85.5</ele>
        <time>2020-12-06T07:39:24Z</time>
      </trkpt>
      <trkpt lat="38.2833070" lon="-0.6685170">
        <ele>86.6</ele>
        <time>2020-12-06T07:39:25Z</time>
      </trkpt>
      <trkpt lat="38.2833370" lon="-0.6685080">
        <ele>86.6</ele>
        <time>2020-12-06T07:39:26Z</time>
      </trkpt>
      <trkpt lat="38.2833680" lon="-0.6684980">
        <ele>86.6</ele>
        <time>2020-12-06T07:39:27Z</time>
      </trkpt>
      <trkpt lat="38.2833980" lon="-0.6684880">
        <ele>86.6</ele>
        <time>2020-12-06T07:39:28Z</time>
      </trkpt>
      <trkpt lat="38.2834280" lon="-0.6684750">
        <ele>86.6</ele>
        <time>2020-12-06T07:39:29Z</time>
      </trkpt>
      <trkpt lat="38.2834580" lon="-0.6684630">
        <ele>86.6</ele>
        <time>2020-12-06T07:39:30Z</time>
      </trkpt>
      <trkpt lat="38.2834880" lon="-0.6684520">
        <ele>86.6</ele>
        <time>2020-12-06T07:39:31Z</time>
      </trkpt>
      <trkpt lat="38.2835170" lon="-0.6684400">
        <ele>86.6</ele>
        <time>2020-12-06T07:39:32Z</time>
      </trkpt>
      <trkpt lat="38.2835450" lon="-0.6684280">
        <ele>87.6</ele>
        <time>2020-12-06T07:39:33Z</time>
      </trkpt>
      <trkpt lat="38.2835750" lon="-0.6684180">
        <ele>87.6</ele>
        <time>2020-12-06T07:39:34Z</time>
      </trkpt>
      <trkpt lat="38.2836030" lon="-0.6684130">
        <ele>87.6</ele>
        <time>2020-12-06T07:39:35Z</time>
      </trkpt>
      <trkpt lat="38.2836330" lon="-0.6684050">
        <ele>87.6</ele>
        <time>2020-12-06T07:39:36Z</time>
      </trkpt>
      <trkpt lat="38.2836600" lon="-0.6683950">
        <ele>88.5</ele>
        <time>2020-12-06T07:39:37Z</time>
      </trkpt>
      <trkpt lat="38.2836880" lon="-0.6683880">
        <ele>88.5</ele>
        <time>2020-12-06T07:39:38Z</time>
      </trkpt>
      <trkpt lat="38.2837180" lon="-0.6683820">
        <ele>88.5</ele>
        <time>2020-12-06T07:39:39Z</time>
      </trkpt>
      <trkpt lat="38.2837450" lon="-0.6683770">
        <ele>88.5</ele>
        <time>2020-12-06T07:39:40Z</time>
      </trkpt>
      <trkpt lat="38.2837750" lon="-0.6683730">
        <ele>88.5</ele>
        <time>2020-12-06T07:39:41Z</time>
      </trkpt>
      <trkpt lat="38.2838030" lon="-0.6683750">
        <ele>88.5</ele>
        <time>2020-12-06T07:39:42Z</time>
      </trkpt>
      <trkpt lat="38.2838330" lon="-0.6683780">
        <ele>89.6</ele>
        <time>2020-12-06T07:39:43Z</time>
      </trkpt>
      <trkpt lat="38.2838620" lon="-0.6683830">
        <ele>89.6</ele>
        <time>2020-12-06T07:39:44Z</time>
      </trkpt>
      <trkpt lat="38.2838930" lon="-0.6683930">
        <ele>89.6</ele>
        <time>2020-12-06T07:39:45Z</time>
      </trkpt>
      <trkpt lat="38.2839230" lon="-0.6684000">
        <ele>89.6</ele>
        <time>2020-12-06T07:39:46Z</time>
      </trkpt>
      <trkpt lat="38.2839550" lon="-0.6684020">
        <ele>89.6</ele>
        <time>2020-12-06T07:39:47Z</time>
      </trkpt>
      <trkpt lat="38.2839870" lon="-0.6684030">
        <ele>89.6</ele>
        <time>2020-12-06T07:39:48Z</time>
      </trkpt>
      <trkpt lat="38.2840220" lon="-0.6684070">
        <ele>90.5</ele>
        <time>2020-12-06T07:39:49Z</time>
      </trkpt>
      <trkpt lat="38.2840530" lon="-0.6684100">
        <ele>90.5</ele>
        <time>2020-12-06T07:39:50Z</time>
      </trkpt>
      <trkpt lat="38.2840870" lon="-0.6684170">
        <ele>90.5</ele>
        <time>2020-12-06T07:39:51Z</time>
      </trkpt>
      <trkpt lat="38.2841170" lon="-0.6684230">
        <ele>90.5</ele>
        <time>2020-12-06T07:39:52Z</time>
      </trkpt>
      <trkpt lat="38.2841470" lon="-0.6684270">
        <ele>90.5</ele>
        <time>2020-12-06T07:39:53Z</time>
      </trkpt>
      <trkpt lat="38.2841770" lon="-0.6684280">
        <ele>90.5</ele>
        <time>2020-12-06T07:39:54Z</time>
      </trkpt>
      <trkpt lat="38.2842080" lon="-0.6684280">
        <ele>90.5</ele>
        <time>2020-12-06T07:39:55Z</time>
      </trkpt>
      <trkpt lat="38.2842380" lon="-0.6684300">
        <ele>90.5</ele>
        <time>2020-12-06T07:39:56Z</time>
      </trkpt>
      <trkpt lat="38.2842700" lon="-0.6684330">
        <ele>91.6</ele>
        <time>2020-12-06T07:39:57Z</time>
      </trkpt>
      <trkpt lat="38.2843000" lon="-0.6684350">
        <ele>91.6</ele>
        <time>2020-12-06T07:39:58Z</time>
      </trkpt>
      <trkpt lat="38.2843300" lon="-0.6684370">
        <ele>91.6</ele>
        <time>2020-12-06T07:39:59Z</time>
      </trkpt>
      <trkpt lat="38.2843600" lon="-0.6684350">
        <ele>91.6</ele>
        <time>2020-12-06T07:40:00Z</time>
      </trkpt>
      <trkpt lat="38.2843880" lon="-0.6684320">
        <ele>91.6</ele>
        <time>2020-12-06T07:40:01Z</time>
      </trkpt>
      <trkpt lat="38.2844200" lon="-0.6684220">
        <ele>91.6</ele>
        <time>2020-12-06T07:40:02Z</time>
      </trkpt>
      <trkpt lat="38.2844500" lon="-0.6684080">
        <ele>92.5</ele>
        <time>2020-12-06T07:40:03Z</time>
      </trkpt>
      <trkpt lat="38.2844800" lon="-0.6683950">
        <ele>92.5</ele>
        <time>2020-12-06T07:40:04Z</time>
      </trkpt>
      <trkpt lat="38.2845100" lon="-0.6683780">
        <ele>92.5</ele>
        <time>2020-12-06T07:40:05Z</time>
      </trkpt>
      <trkpt lat="38.2845400" lon="-0.6683580">
        <ele>92.5</ele>
        <time>2020-12-06T07:40:06Z</time>
      </trkpt>
      <trkpt lat="38.2845700" lon="-0.6683420">
        <ele>92.5</ele>
        <time>2020-12-06T07:40:07Z</time>
      </trkpt>
      <trkpt lat="38.2845980" lon="-0.6683220">
        <ele>92.5</ele>
        <time>2020-12-06T07:40:08Z</time>
      </trkpt>
      <trkpt lat="38.2846280" lon="-0.6683030">
        <ele>92.5</ele>
        <time>2020-12-06T07:40:09Z</time>
      </trkpt>
      <trkpt lat="38.2846580" lon="-0.6682830">
        <ele>92.5</ele>
        <time>2020-12-06T07:40:10Z</time>
      </trkpt>
      <trkpt lat="38.2846870" lon="-0.6682650">
        <ele>92.5</ele>
        <time>2020-12-06T07:40:11Z</time>
      </trkpt>
      <trkpt lat="38.2847150" lon="-0.6682470">
        <ele>92.5</ele>
        <time>2020-12-06T07:40:12Z</time>
      </trkpt>
      <trkpt lat="38.2847450" lon="-0.6682300">
        <ele>92.5</ele>
        <time>2020-12-06T07:40:13Z</time>
      </trkpt>
      <trkpt lat="38.2847720" lon="-0.6682150">
        <ele>93.6</ele>
        <time>2020-12-06T07:40:14Z</time>
      </trkpt>
      <trkpt lat="38.2847970" lon="-0.6682000">
        <ele>93.6</ele>
        <time>2020-12-06T07:40:15Z</time>
      </trkpt>
      <trkpt lat="38.2848230" lon="-0.6681850">
        <ele>93.6</ele>
        <time>2020-12-06T07:40:16Z</time>
      </trkpt>
      <trkpt lat="38.2848450" lon="-0.6681720">
        <ele>93.6</ele>
        <time>2020-12-06T07:40:17Z</time>
      </trkpt>
      <trkpt lat="38.2848670" lon="-0.6681580">
        <ele>93.6</ele>
        <time>2020-12-06T07:40:18Z</time>
      </trkpt>
      <trkpt lat="38.2848870" lon="-0.6681470">
        <ele>93.6</ele>
        <time>2020-12-06T07:40:19Z</time>
      </trkpt>
      <trkpt lat="38.2849100" lon="-0.6681350">
        <ele>94.5</ele>
        <time>2020-12-06T07:40:20Z</time>
      </trkpt>
      <trkpt lat="38.2849330" lon="-0.6681250">
        <ele>94.5</ele>
        <time>2020-12-06T07:40:21Z</time>
      </trkpt>
      <trkpt lat="38.2849600" lon="-0.6681150">
        <ele>94.5</ele>
        <time>2020-12-06T07:40:22Z</time>
      </trkpt>
      <trkpt lat="38.2849870" lon="-0.6681050">
        <ele>94.5</ele>
        <time>2020-12-06T07:40:23Z</time>
      </trkpt>
      <trkpt lat="38.2850150" lon="-0.6680950">
        <ele>94.5</ele>
        <time>2020-12-06T07:40:24Z</time>
      </trkpt>
      <trkpt lat="38.2850450" lon="-0.6680900">
        <ele>94.5</ele>
        <time>2020-12-06T07:40:25Z</time>
      </trkpt>
      <trkpt lat="38.2850730" lon="-0.6680870">
        <ele>94.5</ele>
        <time>2020-12-06T07:40:26Z</time>
      </trkpt>
      <trkpt lat="38.2851030" lon="-0.6680820">
        <ele>94.5</ele>
        <time>2020-12-06T07:40:27Z</time>
      </trkpt>
      <trkpt lat="38.2851350" lon="-0.6680780">
        <ele>94.5</ele>
        <time>2020-12-06T07:40:28Z</time>
      </trkpt>
      <trkpt lat="38.2851650" lon="-0.6680730">
        <ele>94.5</ele>
        <time>2020-12-06T07:40:29Z</time>
      </trkpt>
      <trkpt lat="38.2851950" lon="-0.6680720">
        <ele>95.6</ele>
        <time>2020-12-06T07:40:30Z</time>
      </trkpt>
      <trkpt lat="38.2852250" lon="-0.6680670">
        <ele>95.6</ele>
        <time>2020-12-06T07:40:31Z</time>
      </trkpt>
      <trkpt lat="38.2852550" lon="-0.6680630">
        <ele>95.6</ele>
        <time>2020-12-06T07:40:32Z</time>
      </trkpt>
      <trkpt lat="38.2852870" lon="-0.6680600">
        <ele>95.6</ele>
        <time>2020-12-06T07:40:33Z</time>
      </trkpt>
      <trkpt lat="38.2853180" lon="-0.6680580">
        <ele>96.6</ele>
        <time>2020-12-06T07:40:34Z</time>
      </trkpt>
      <trkpt lat="38.2853500" lon="-0.6680550">
        <ele>96.6</ele>
        <time>2020-12-06T07:40:35Z</time>
      </trkpt>
      <trkpt lat="38.2853820" lon="-0.6680500">
        <ele>95.6</ele>
        <time>2020-12-06T07:40:36Z</time>
      </trkpt>
      <trkpt lat="38.2854150" lon="-0.6680450">
        <ele>95.6</ele>
        <time>2020-12-06T07:40:37Z</time>
      </trkpt>
      <trkpt lat="38.2854480" lon="-0.6680420">
        <ele>95.6</ele>
        <time>2020-12-06T07:40:38Z</time>
      </trkpt>
      <trkpt lat="38.2854820" lon="-0.6680380">
        <ele>95.6</ele>
        <time>2020-12-06T07:40:39Z</time>
      </trkpt>
      <trkpt lat="38.2855130" lon="-0.6680330">
        <ele>96.6</ele>
        <time>2020-12-06T07:40:40Z</time>
      </trkpt>
      <trkpt lat="38.2855470" lon="-0.6680280">
        <ele>96.6</ele>
        <time>2020-12-06T07:40:41Z</time>
      </trkpt>
      <trkpt lat="38.2855800" lon="-0.6680270">
        <ele>96.6</ele>
        <time>2020-12-06T07:40:42Z</time>
      </trkpt>
      <trkpt lat="38.2856120" lon="-0.6680230">
        <ele>96.6</ele>
        <time>2020-12-06T07:40:43Z</time>
      </trkpt>
      <trkpt lat="38.2856450" lon="-0.6680220">
        <ele>96.6</ele>
        <time>2020-12-06T07:40:44Z</time>
      </trkpt>
      <trkpt lat="38.2856780" lon="-0.6680200">
        <ele>96.6</ele>
        <time>2020-12-06T07:40:45Z</time>
      </trkpt>
      <trkpt lat="38.2857100" lon="-0.6680150">
        <ele>96.6</ele>
        <time>2020-12-06T07:40:46Z</time>
      </trkpt>
      <trkpt lat="38.2857430" lon="-0.6680100">
        <ele>96.6</ele>
        <time>2020-12-06T07:40:47Z</time>
      </trkpt>
      <trkpt lat="38.2857750" lon="-0.6680050">
        <ele>96.6</ele>
        <time>2020-12-06T07:40:48Z</time>
      </trkpt>
      <trkpt lat="38.2858070" lon="-0.6680020">
        <ele>96.6</ele>
        <time>2020-12-06T07:40:49Z</time>
      </trkpt>
      <trkpt lat="38.2858380" lon="-0.6680000">
        <ele>96.6</ele>
        <time>2020-12-06T07:40:50Z</time>
      </trkpt>
      <trkpt lat="38.2858700" lon="-0.6680000">
        <ele>96.6</ele>
        <time>2020-12-06T07:40:51Z</time>
      </trkpt>
      <trkpt lat="38.2859000" lon="-0.6679980">
        <ele>96.6</ele>
        <time>2020-12-06T07:40:52Z</time>
      </trkpt>
      <trkpt lat="38.2859270" lon="-0.6680080">
        <ele>96.6</ele>
        <time>2020-12-06T07:40:53Z</time>
      </trkpt>
      <trkpt lat="38.2859500" lon="-0.6680230">
        <ele>96.6</ele>
        <time>2020-12-06T07:40:54Z</time>
      </trkpt>
      <trkpt lat="38.2859670" lon="-0.6680450">
        <ele>96.6</ele>
        <time>2020-12-06T07:40:55Z</time>
      </trkpt>
      <trkpt lat="38.2859750" lon="-0.6680720">
        <ele>96.6</ele>
        <time>2020-12-06T07:40:56Z</time>
      </trkpt>
      <trkpt lat="38.2859720" lon="-0.6681020">
        <ele>96.6</ele>
        <time>2020-12-06T07:40:57Z</time>
      </trkpt>
      <trkpt lat="38.2859630" lon="-0.6681320">
        <ele>96.6</ele>
        <time>2020-12-06T07:40:58Z</time>
      </trkpt>
      <trkpt lat="38.2859530" lon="-0.6681630">
        <ele>96.6</ele>
        <time>2020-12-06T07:40:59Z</time>
      </trkpt>
      <trkpt lat="38.2859430" lon="-0.6681980">
        <ele>96.6</ele>
        <time>2020-12-06T07:41:00Z</time>
      </trkpt>
      <trkpt lat="38.2859320" lon="-0.6682330">
        <ele>96.6</ele>
        <time>2020-12-06T07:41:01Z</time>
      </trkpt>
      <trkpt lat="38.2859180" lon="-0.6682700">
        <ele>96.6</ele>
        <time>2020-12-06T07:41:02Z</time>
      </trkpt>
      <trkpt lat="38.2859080" lon="-0.6683070">
        <ele>96.6</ele>
        <time>2020-12-06T07:41:03Z</time>
      </trkpt>
      <trkpt lat="38.2858980" lon="-0.6683430">
        <ele>96.6</ele>
        <time>2020-12-06T07:41:04Z</time>
      </trkpt>
      <trkpt lat="38.2858870" lon="-0.6683820">
        <ele>96.6</ele>
        <time>2020-12-06T07:41:05Z</time>
      </trkpt>
      <trkpt lat="38.2858730" lon="-0.6684200">
        <ele>96.6</ele>
        <time>2020-12-06T07:41:06Z</time>
      </trkpt>
      <trkpt lat="38.2858600" lon="-0.6684620">
        <ele>96.6</ele>
        <time>2020-12-06T07:41:07Z</time>
      </trkpt>
      <trkpt lat="38.2858470" lon="-0.6685020">
        <ele>96.6</ele>
        <time>2020-12-06T07:41:08Z</time>
      </trkpt>
      <trkpt lat="38.2858330" lon="-0.6685420">
        <ele>96.6</ele>
        <time>2020-12-06T07:41:09Z</time>
      </trkpt>
      <trkpt lat="38.2858200" lon="-0.6685830">
        <ele>96.6</ele>
        <time>2020-12-06T07:41:10Z</time>
      </trkpt>
      <trkpt lat="38.2858070" lon="-0.6686230">
        <ele>96.6</ele>
        <time>2020-12-06T07:41:11Z</time>
      </trkpt>
      <trkpt lat="38.2857920" lon="-0.6686620">
        <ele>96.6</ele>
        <time>2020-12-06T07:41:12Z</time>
      </trkpt>
      <trkpt lat="38.2857770" lon="-0.6687000">
        <ele>96.6</ele>
        <time>2020-12-06T07:41:13Z</time>
      </trkpt>
      <trkpt lat="38.2857600" lon="-0.6687400">
        <ele>96.6</ele>
        <time>2020-12-06T07:41:14Z</time>
      </trkpt>
      <trkpt lat="38.2857430" lon="-0.6687780">
        <ele>96.6</ele>
        <time>2020-12-06T07:41:15Z</time>
      </trkpt>
      <trkpt lat="38.2857250" lon="-0.6688180">
        <ele>96.6</ele>
        <time>2020-12-06T07:41:16Z</time>
      </trkpt>
      <trkpt lat="38.2857080" lon="-0.6688600">
        <ele>96.6</ele>
        <time>2020-12-06T07:41:17Z</time>
      </trkpt>
      <trkpt lat="38.2856920" lon="-0.6689030">
        <ele>96.6</ele>
        <time>2020-12-06T07:41:18Z</time>
      </trkpt>
      <trkpt lat="38.2856730" lon="-0.6689450">
        <ele>96.6</ele>
        <time>2020-12-06T07:41:19Z</time>
      </trkpt>
      <trkpt lat="38.2856550" lon="-0.6689870">
        <ele>95.6</ele>
        <time>2020-12-06T07:41:20Z</time>
      </trkpt>
      <trkpt lat="38.2856370" lon="-0.6690270">
        <ele>95.6</ele>
        <time>2020-12-06T07:41:21Z</time>
      </trkpt>
      <trkpt lat="38.2856200" lon="-0.6690650">
        <ele>95.6</ele>
        <time>2020-12-06T07:41:22Z</time>
      </trkpt>
      <trkpt lat="38.2856030" lon="-0.6691030">
        <ele>95.6</ele>
        <time>2020-12-06T07:41:23Z</time>
      </trkpt>
      <trkpt lat="38.2855850" lon="-0.6691400">
        <ele>95.6</ele>
        <time>2020-12-06T07:41:24Z</time>
      </trkpt>
      <trkpt lat="38.2855670" lon="-0.6691770">
        <ele>95.6</ele>
        <time>2020-12-06T07:41:25Z</time>
      </trkpt>
      <trkpt lat="38.2855450" lon="-0.6692150">
        <ele>95.6</ele>
        <time>2020-12-06T07:41:26Z</time>
      </trkpt>
      <trkpt lat="38.2855250" lon="-0.6692530">
        <ele>95.6</ele>
        <time>2020-12-06T07:41:27Z</time>
      </trkpt>
      <trkpt lat="38.2855050" lon="-0.6692950">
        <ele>95.6</ele>
        <time>2020-12-06T07:41:28Z</time>
      </trkpt>
      <trkpt lat="38.2854830" lon="-0.6693350">
        <ele>95.6</ele>
        <time>2020-12-06T07:41:29Z</time>
      </trkpt>
      <trkpt lat="38.2854620" lon="-0.6693770">
        <ele>95.6</ele>
        <time>2020-12-06T07:41:30Z</time>
      </trkpt>
      <trkpt lat="38.2854400" lon="-0.6694170">
        <ele>95.6</ele>
        <time>2020-12-06T07:41:31Z</time>
      </trkpt>
      <trkpt lat="38.2854200" lon="-0.6694580">
        <ele>95.6</ele>
        <time>2020-12-06T07:41:32Z</time>
      </trkpt>
      <trkpt lat="38.2854000" lon="-0.6694980">
        <ele>95.6</ele>
        <time>2020-12-06T07:41:33Z</time>
      </trkpt>
      <trkpt lat="38.2853770" lon="-0.6695370">
        <ele>95.6</ele>
        <time>2020-12-06T07:41:34Z</time>
      </trkpt>
      <trkpt lat="38.2853530" lon="-0.6695770">
        <ele>95.6</ele>
        <time>2020-12-06T07:41:35Z</time>
      </trkpt>
      <trkpt lat="38.2853320" lon="-0.6696200">
        <ele>94.5</ele>
        <time>2020-12-06T07:41:36Z</time>
      </trkpt>
      <trkpt lat="38.2853080" lon="-0.6696620">
        <ele>94.5</ele>
        <time>2020-12-06T07:41:37Z</time>
      </trkpt>
      <trkpt lat="38.2852850" lon="-0.6697050">
        <ele>94.5</ele>
        <time>2020-12-06T07:41:38Z</time>
      </trkpt>
      <trkpt lat="38.2852630" lon="-0.6697480">
        <ele>94.5</ele>
        <time>2020-12-06T07:41:39Z</time>
      </trkpt>
      <trkpt lat="38.2852420" lon="-0.6697900">
        <ele>94.5</ele>
        <time>2020-12-06T07:41:40Z</time>
      </trkpt>
      <trkpt lat="38.2852200" lon="-0.6698320">
        <ele>94.5</ele>
        <time>2020-12-06T07:41:41Z</time>
      </trkpt>
      <trkpt lat="38.2852000" lon="-0.6698720">
        <ele>94.5</ele>
        <time>2020-12-06T07:41:42Z</time>
      </trkpt>
      <trkpt lat="38.2851800" lon="-0.6699130">
        <ele>94.5</ele>
        <time>2020-12-06T07:41:43Z</time>
      </trkpt>
      <trkpt lat="38.2851580" lon="-0.6699530">
        <ele>94.5</ele>
        <time>2020-12-06T07:41:44Z</time>
      </trkpt>
      <trkpt lat="38.2851370" lon="-0.6699950">
        <ele>94.5</ele>
        <time>2020-12-06T07:41:45Z</time>
      </trkpt>
      <trkpt lat="38.2851170" lon="-0.6700350">
        <ele>94.5</ele>
        <time>2020-12-06T07:41:46Z</time>
      </trkpt>
      <trkpt lat="38.2850970" lon="-0.6700750">
        <ele>94.5</ele>
        <time>2020-12-06T07:41:47Z</time>
      </trkpt>
      <trkpt lat="38.2850770" lon="-0.6701130">
        <ele>94.5</ele>
        <time>2020-12-06T07:41:48Z</time>
      </trkpt>
      <trkpt lat="38.2850580" lon="-0.6701530">
        <ele>94.5</ele>
        <time>2020-12-06T07:41:49Z</time>
      </trkpt>
      <trkpt lat="38.2850380" lon="-0.6701930">
        <ele>94.5</ele>
        <time>2020-12-06T07:41:50Z</time>
      </trkpt>
      <trkpt lat="38.2850170" lon="-0.6702320">
        <ele>94.5</ele>
        <time>2020-12-06T07:41:51Z</time>
      </trkpt>
      <trkpt lat="38.2849950" lon="-0.6702720">
        <ele>94.5</ele>
        <time>2020-12-06T07:41:52Z</time>
      </trkpt>
      <trkpt lat="38.2849730" lon="-0.6703120">
        <ele>94.5</ele>
        <time>2020-12-06T07:41:53Z</time>
      </trkpt>
      <trkpt lat="38.2849530" lon="-0.6703520">
        <ele>94.5</ele>
        <time>2020-12-06T07:41:54Z</time>
      </trkpt>
      <trkpt lat="38.2849330" lon="-0.6703920">
        <ele>94.5</ele>
        <time>2020-12-06T07:41:55Z</time>
      </trkpt>
      <trkpt lat="38.2849150" lon="-0.6704320">
        <ele>94.5</ele>
        <time>2020-12-06T07:41:56Z</time>
      </trkpt>
      <trkpt lat="38.2848930" lon="-0.6704730">
        <ele>94.5</ele>
        <time>2020-12-06T07:41:57Z</time>
      </trkpt>
      <trkpt lat="38.2848730" lon="-0.6705130">
        <ele>94.5</ele>
        <time>2020-12-06T07:41:58Z</time>
      </trkpt>
      <trkpt lat="38.2848520" lon="-0.6705570">
        <ele>94.5</ele>
        <time>2020-12-06T07:41:59Z</time>
      </trkpt>
      <trkpt lat="38.2848320" lon="-0.6705980">
        <ele>94.5</ele>
        <time>2020-12-06T07:42:00Z</time>
      </trkpt>
      <trkpt lat="38.2848120" lon="-0.6706420">
        <ele>94.5</ele>
        <time>2020-12-06T07:42:01Z</time>
      </trkpt>
      <trkpt lat="38.2847930" lon="-0.6706850">
        <ele>94.5</ele>
        <time>2020-12-06T07:42:02Z</time>
      </trkpt>
      <trkpt lat="38.2847770" lon="-0.6707270">
        <ele>94.5</ele>
        <time>2020-12-06T07:42:03Z</time>
      </trkpt>
      <trkpt lat="38.2847580" lon="-0.6707680">
        <ele>93.6</ele>
        <time>2020-12-06T07:42:04Z</time>
      </trkpt>
      <trkpt lat="38.2847370" lon="-0.6708100">
        <ele>93.6</ele>
        <time>2020-12-06T07:42:05Z</time>
      </trkpt>
      <trkpt lat="38.2847170" lon="-0.6708520">
        <ele>93.6</ele>
        <time>2020-12-06T07:42:06Z</time>
      </trkpt>
      <trkpt lat="38.2846970" lon="-0.6708920">
        <ele>93.6</ele>
        <time>2020-12-06T07:42:07Z</time>
      </trkpt>
      <trkpt lat="38.2846780" lon="-0.6709320">
        <ele>93.6</ele>
        <time>2020-12-06T07:42:08Z</time>
      </trkpt>
      <trkpt lat="38.2846620" lon="-0.6709720">
        <ele>93.6</ele>
        <time>2020-12-06T07:42:09Z</time>
      </trkpt>
      <trkpt lat="38.2846450" lon="-0.6710100">
        <ele>93.6</ele>
        <time>2020-12-06T07:42:10Z</time>
      </trkpt>
      <trkpt lat="38.2846270" lon="-0.6710470">
        <ele>93.6</ele>
        <time>2020-12-06T07:42:11Z</time>
      </trkpt>
      <trkpt lat="38.2846080" lon="-0.6710850">
        <ele>93.6</ele>
        <time>2020-12-06T07:42:12Z</time>
      </trkpt>
      <trkpt lat="38.2845880" lon="-0.6711220">
        <ele>93.6</ele>
        <time>2020-12-06T07:42:13Z</time>
      </trkpt>
      <trkpt lat="38.2845680" lon="-0.6711580">
        <ele>93.6</ele>
        <time>2020-12-06T07:42:14Z</time>
      </trkpt>
      <trkpt lat="38.2845480" lon="-0.6711970">
        <ele>93.6</ele>
        <time>2020-12-06T07:42:15Z</time>
      </trkpt>
      <trkpt lat="38.2845300" lon="-0.6712350">
        <ele>93.6</ele>
        <time>2020-12-06T07:42:16Z</time>
      </trkpt>
      <trkpt lat="38.2845080" lon="-0.6712720">
        <ele>93.6</ele>
        <time>2020-12-06T07:42:17Z</time>
      </trkpt>
      <trkpt lat="38.2844870" lon="-0.6713070">
        <ele>93.6</ele>
        <time>2020-12-06T07:42:18Z</time>
      </trkpt>
      <trkpt lat="38.2844680" lon="-0.6713420">
        <ele>93.6</ele>
        <time>2020-12-06T07:42:19Z</time>
      </trkpt>
      <trkpt lat="38.2844500" lon="-0.6713780">
        <ele>93.6</ele>
        <time>2020-12-06T07:42:20Z</time>
      </trkpt>
      <trkpt lat="38.2844320" lon="-0.6714170">
        <ele>93.6</ele>
        <time>2020-12-06T07:42:21Z</time>
      </trkpt>
      <trkpt lat="38.2844120" lon="-0.6714570">
        <ele>93.6</ele>
        <time>2020-12-06T07:42:22Z</time>
      </trkpt>
      <trkpt lat="38.2843880" lon="-0.6714950">
        <ele>93.6</ele>
        <time>2020-12-06T07:42:23Z</time>
      </trkpt>
      <trkpt lat="38.2843630" lon="-0.6715320">
        <ele>93.6</ele>
        <time>2020-12-06T07:42:24Z</time>
      </trkpt>
      <trkpt lat="38.2843420" lon="-0.6715700">
        <ele>93.6</ele>
        <time>2020-12-06T07:42:25Z</time>
      </trkpt>
      <trkpt lat="38.2843180" lon="-0.6716100">
        <ele>93.6</ele>
        <time>2020-12-06T07:42:26Z</time>
      </trkpt>
      <trkpt lat="38.2842980" lon="-0.6716500">
        <ele>93.6</ele>
        <time>2020-12-06T07:42:27Z</time>
      </trkpt>
      <trkpt lat="38.2842780" lon="-0.6716920">
        <ele>93.6</ele>
        <time>2020-12-06T07:42:28Z</time>
      </trkpt>
      <trkpt lat="38.2842570" lon="-0.6717330">
        <ele>93.6</ele>
        <time>2020-12-06T07:42:29Z</time>
      </trkpt>
      <trkpt lat="38.2842380" lon="-0.6717750">
        <ele>93.6</ele>
        <time>2020-12-06T07:42:30Z</time>
      </trkpt>
      <trkpt lat="38.2842200" lon="-0.6718120">
        <ele>93.6</ele>
        <time>2020-12-06T07:42:31Z</time>
      </trkpt>
      <trkpt lat="38.2842020" lon="-0.6718500">
        <ele>93.6</ele>
        <time>2020-12-06T07:42:32Z</time>
      </trkpt>
      <trkpt lat="38.2841820" lon="-0.6718870">
        <ele>93.6</ele>
        <time>2020-12-06T07:42:33Z</time>
      </trkpt>
      <trkpt lat="38.2841600" lon="-0.6719200">
        <ele>93.6</ele>
        <time>2020-12-06T07:42:34Z</time>
      </trkpt>
      <trkpt lat="38.2841420" lon="-0.6719530">
        <ele>93.6</ele>
        <time>2020-12-06T07:42:35Z</time>
      </trkpt>
      <trkpt lat="38.2841230" lon="-0.6719880">
        <ele>93.6</ele>
        <time>2020-12-06T07:42:36Z</time>
      </trkpt>
      <trkpt lat="38.2841030" lon="-0.6720250">
        <ele>93.6</ele>
        <time>2020-12-06T07:42:37Z</time>
      </trkpt>
      <trkpt lat="38.2840850" lon="-0.6720620">
        <ele>93.6</ele>
        <time>2020-12-06T07:42:38Z</time>
      </trkpt>
      <trkpt lat="38.2840670" lon="-0.6720980">
        <ele>93.6</ele>
        <time>2020-12-06T07:42:39Z</time>
      </trkpt>
      <trkpt lat="38.2840480" lon="-0.6721370">
        <ele>93.6</ele>
        <time>2020-12-06T07:42:40Z</time>
      </trkpt>
      <trkpt lat="38.2840280" lon="-0.6721730">
        <ele>93.6</ele>
        <time>2020-12-06T07:42:41Z</time>
      </trkpt>
      <trkpt lat="38.2840070" lon="-0.6722120">
        <ele>93.6</ele>
        <time>2020-12-06T07:42:42Z</time>
      </trkpt>
      <trkpt lat="38.2839870" lon="-0.6722520">
        <ele>93.6</ele>
        <time>2020-12-06T07:42:43Z</time>
      </trkpt>
      <trkpt lat="38.2839680" lon="-0.6722920">
        <ele>93.6</ele>
        <time>2020-12-06T07:42:44Z</time>
      </trkpt>
      <trkpt lat="38.2839480" lon="-0.6723320">
        <ele>93.6</ele>
        <time>2020-12-06T07:42:45Z</time>
      </trkpt>
      <trkpt lat="38.2839280" lon="-0.6723700">
        <ele>93.6</ele>
        <time>2020-12-06T07:42:46Z</time>
      </trkpt>
      <trkpt lat="38.2839100" lon="-0.6724070">
        <ele>93.6</ele>
        <time>2020-12-06T07:42:47Z</time>
      </trkpt>
      <trkpt lat="38.2838920" lon="-0.6724420">
        <ele>93.6</ele>
        <time>2020-12-06T07:42:48Z</time>
      </trkpt>
      <trkpt lat="38.2838720" lon="-0.6724770">
        <ele>93.6</ele>
        <time>2020-12-06T07:42:49Z</time>
      </trkpt>
      <trkpt lat="38.2838550" lon="-0.6725100">
        <ele>93.6</ele>
        <time>2020-12-06T07:42:50Z</time>
      </trkpt>
      <trkpt lat="38.2838350" lon="-0.6725400">
        <ele>93.6</ele>
        <time>2020-12-06T07:42:51Z</time>
      </trkpt>
      <trkpt lat="38.2838150" lon="-0.6725680">
        <ele>93.6</ele>
        <time>2020-12-06T07:42:52Z</time>
      </trkpt>
      <trkpt lat="38.2837900" lon="-0.6725950">
        <ele>93.6</ele>
        <time>2020-12-06T07:42:53Z</time>
      </trkpt>
      <trkpt lat="38.2837650" lon="-0.6726220">
        <ele>94.5</ele>
        <time>2020-12-06T07:42:54Z</time>
      </trkpt>
      <trkpt lat="38.2837370" lon="-0.6726450">
        <ele>94.5</ele>
        <time>2020-12-06T07:42:55Z</time>
      </trkpt>
      <trkpt lat="38.2837070" lon="-0.6726620">
        <ele>94.5</ele>
        <time>2020-12-06T07:42:56Z</time>
      </trkpt>
      <trkpt lat="38.2836750" lon="-0.6726750">
        <ele>94.5</ele>
        <time>2020-12-06T07:42:57Z</time>
      </trkpt>
      <trkpt lat="38.2836420" lon="-0.6726850">
        <ele>94.5</ele>
        <time>2020-12-06T07:42:58Z</time>
      </trkpt>
      <trkpt lat="38.2836070" lon="-0.6726930">
        <ele>94.5</ele>
        <time>2020-12-06T07:42:59Z</time>
      </trkpt>
      <trkpt lat="38.2835730" lon="-0.6727050">
        <ele>94.5</ele>
        <time>2020-12-06T07:43:00Z</time>
      </trkpt>
      <trkpt lat="38.2835380" lon="-0.6727180">
        <ele>94.5</ele>
        <time>2020-12-06T07:43:01Z</time>
      </trkpt>
      <trkpt lat="38.2835030" lon="-0.6727320">
        <ele>94.5</ele>
        <time>2020-12-06T07:43:02Z</time>
      </trkpt>
      <trkpt lat="38.2834700" lon="-0.6727480">
        <ele>94.5</ele>
        <time>2020-12-06T07:43:03Z</time>
      </trkpt>
      <trkpt lat="38.2834400" lon="-0.6727680">
        <ele>94.5</ele>
        <time>2020-12-06T07:43:04Z</time>
      </trkpt>
      <trkpt lat="38.2834100" lon="-0.6727900">
        <ele>94.5</ele>
        <time>2020-12-06T07:43:05Z</time>
      </trkpt>
      <trkpt lat="38.2833820" lon="-0.6728150">
        <ele>94.5</ele>
        <time>2020-12-06T07:43:06Z</time>
      </trkpt>
      <trkpt lat="38.2833550" lon="-0.6728430">
        <ele>94.5</ele>
        <time>2020-12-06T07:43:07Z</time>
      </trkpt>
      <trkpt lat="38.2833320" lon="-0.6728720">
        <ele>93.6</ele>
        <time>2020-12-06T07:43:08Z</time>
      </trkpt>
      <trkpt lat="38.2833120" lon="-0.6729000">
        <ele>93.6</ele>
        <time>2020-12-06T07:43:09Z</time>
      </trkpt>
      <trkpt lat="38.2832950" lon="-0.6729270">
        <ele>93.6</ele>
        <time>2020-12-06T07:43:10Z</time>
      </trkpt>
      <trkpt lat="38.2832770" lon="-0.6729520">
        <ele>93.6</ele>
        <time>2020-12-06T07:43:11Z</time>
      </trkpt>
      <trkpt lat="38.2832600" lon="-0.6729820">
        <ele>93.6</ele>
        <time>2020-12-06T07:43:12Z</time>
      </trkpt>
      <trkpt lat="38.2832450" lon="-0.6730130">
        <ele>93.6</ele>
        <time>2020-12-06T07:43:13Z</time>
      </trkpt>
      <trkpt lat="38.2832330" lon="-0.6730470">
        <ele>92.5</ele>
        <time>2020-12-06T07:43:14Z</time>
      </trkpt>
      <trkpt lat="38.2832250" lon="-0.6730780">
        <ele>92.5</ele>
        <time>2020-12-06T07:43:15Z</time>
      </trkpt>
      <trkpt lat="38.2832170" lon="-0.6731100">
        <ele>92.5</ele>
        <time>2020-12-06T07:43:16Z</time>
      </trkpt>
      <trkpt lat="38.2832100" lon="-0.6731420">
        <ele>92.5</ele>
        <time>2020-12-06T07:43:17Z</time>
      </trkpt>
      <trkpt lat="38.2832070" lon="-0.6731780">
        <ele>92.5</ele>
        <time>2020-12-06T07:43:18Z</time>
      </trkpt>
      <trkpt lat="38.2832030" lon="-0.6732170">
        <ele>92.5</ele>
        <time>2020-12-06T07:43:19Z</time>
      </trkpt>
      <trkpt lat="38.2832000" lon="-0.6732570">
        <ele>92.5</ele>
        <time>2020-12-06T07:43:20Z</time>
      </trkpt>
      <trkpt lat="38.2832000" lon="-0.6732950">
        <ele>92.5</ele>
        <time>2020-12-06T07:43:21Z</time>
      </trkpt>
      <trkpt lat="38.2832050" lon="-0.6733330">
        <ele>92.5</ele>
        <time>2020-12-06T07:43:22Z</time>
      </trkpt>
      <trkpt lat="38.2832120" lon="-0.6733720">
        <ele>92.5</ele>
        <time>2020-12-06T07:43:23Z</time>
      </trkpt>
      <trkpt lat="38.2832200" lon="-0.6734100">
        <ele>92.5</ele>
        <time>2020-12-06T07:43:24Z</time>
      </trkpt>
      <trkpt lat="38.2832270" lon="-0.6734480">
        <ele>92.5</ele>
        <time>2020-12-06T07:43:25Z</time>
      </trkpt>
      <trkpt lat="38.2832330" lon="-0.6734870">
        <ele>92.5</ele>
        <time>2020-12-06T07:43:26Z</time>
      </trkpt>
      <trkpt lat="38.2832380" lon="-0.6735270">
        <ele>92.5</ele>
        <time>2020-12-06T07:43:27Z</time>
      </trkpt>
      <trkpt lat="38.2832400" lon="-0.6735680">
        <ele>93.6</ele>
        <time>2020-12-06T07:43:28Z</time>
      </trkpt>
      <trkpt lat="38.2832370" lon="-0.6736100">
        <ele>93.6</ele>
        <time>2020-12-06T07:43:29Z</time>
      </trkpt>
      <trkpt lat="38.2832280" lon="-0.6736500">
        <ele>93.6</ele>
        <time>2020-12-06T07:43:30Z</time>
      </trkpt>
      <trkpt lat="38.2832170" lon="-0.6736900">
        <ele>93.6</ele>
        <time>2020-12-06T07:43:31Z</time>
      </trkpt>
      <trkpt lat="38.2832020" lon="-0.6737270">
        <ele>93.6</ele>
        <time>2020-12-06T07:43:32Z</time>
      </trkpt>
      <trkpt lat="38.2831850" lon="-0.6737620">
        <ele>93.6</ele>
        <time>2020-12-06T07:43:33Z</time>
      </trkpt>
      <trkpt lat="38.2831670" lon="-0.6737970">
        <ele>93.6</ele>
        <time>2020-12-06T07:43:34Z</time>
      </trkpt>
      <trkpt lat="38.2831500" lon="-0.6738350">
        <ele>93.6</ele>
        <time>2020-12-06T07:43:35Z</time>
      </trkpt>
      <trkpt lat="38.2831330" lon="-0.6738700">
        <ele>93.6</ele>
        <time>2020-12-06T07:43:36Z</time>
      </trkpt>
      <trkpt lat="38.2831170" lon="-0.6739070">
        <ele>93.6</ele>
        <time>2020-12-06T07:43:37Z</time>
      </trkpt>
      <trkpt lat="38.2831000" lon="-0.6739430">
        <ele>93.6</ele>
        <time>2020-12-06T07:43:38Z</time>
      </trkpt>
      <trkpt lat="38.2830830" lon="-0.6739780">
        <ele>93.6</ele>
        <time>2020-12-06T07:43:39Z</time>
      </trkpt>
      <trkpt lat="38.2830670" lon="-0.6740150">
        <ele>93.6</ele>
        <time>2020-12-06T07:43:40Z</time>
      </trkpt>
      <trkpt lat="38.2830480" lon="-0.6740500">
        <ele>93.6</ele>
        <time>2020-12-06T07:43:41Z</time>
      </trkpt>
      <trkpt lat="38.2830300" lon="-0.6740850">
        <ele>93.6</ele>
        <time>2020-12-06T07:43:42Z</time>
      </trkpt>
      <trkpt lat="38.2830130" lon="-0.6741200">
        <ele>93.6</ele>
        <time>2020-12-06T07:43:43Z</time>
      </trkpt>
      <trkpt lat="38.2829980" lon="-0.6741570">
        <ele>93.6</ele>
        <time>2020-12-06T07:43:44Z</time>
      </trkpt>
      <trkpt lat="38.2829830" lon="-0.6741920">
        <ele>93.6</ele>
        <time>2020-12-06T07:43:45Z</time>
      </trkpt>
      <trkpt lat="38.2829680" lon="-0.6742280">
        <ele>92.5</ele>
        <time>2020-12-06T07:43:46Z</time>
      </trkpt>
      <trkpt lat="38.2829520" lon="-0.6742650">
        <ele>92.5</ele>
        <time>2020-12-06T07:43:47Z</time>
      </trkpt>
      <trkpt lat="38.2829350" lon="-0.6743030">
        <ele>92.5</ele>
        <time>2020-12-06T07:43:48Z</time>
      </trkpt>
      <trkpt lat="38.2829180" lon="-0.6743400">
        <ele>92.5</ele>
        <time>2020-12-06T07:43:49Z</time>
      </trkpt>
      <trkpt lat="38.2829030" lon="-0.6743780">
        <ele>92.5</ele>
        <time>2020-12-06T07:43:50Z</time>
      </trkpt>
      <trkpt lat="38.2828870" lon="-0.6744170">
        <ele>92.5</ele>
        <time>2020-12-06T07:43:51Z</time>
      </trkpt>
      <trkpt lat="38.2828720" lon="-0.6744550">
        <ele>92.5</ele>
        <time>2020-12-06T07:43:52Z</time>
      </trkpt>
      <trkpt lat="38.2828580" lon="-0.6744930">
        <ele>92.5</ele>
        <time>2020-12-06T07:43:53Z</time>
      </trkpt>
      <trkpt lat="38.2828420" lon="-0.6745300">
        <ele>92.5</ele>
        <time>2020-12-06T07:43:54Z</time>
      </trkpt>
      <trkpt lat="38.2828270" lon="-0.6745670">
        <ele>92.5</ele>
        <time>2020-12-06T07:43:55Z</time>
      </trkpt>
      <trkpt lat="38.2828120" lon="-0.6746070">
        <ele>92.5</ele>
        <time>2020-12-06T07:43:56Z</time>
      </trkpt>
      <trkpt lat="38.2827970" lon="-0.6746470">
        <ele>92.5</ele>
        <time>2020-12-06T07:43:57Z</time>
      </trkpt>
      <trkpt lat="38.2827830" lon="-0.6746850">
        <ele>92.5</ele>
        <time>2020-12-06T07:43:58Z</time>
      </trkpt>
      <trkpt lat="38.2827700" lon="-0.6747220">
        <ele>92.5</ele>
        <time>2020-12-06T07:43:59Z</time>
      </trkpt>
      <trkpt lat="38.2827570" lon="-0.6747580">
        <ele>92.5</ele>
        <time>2020-12-06T07:44:00Z</time>
      </trkpt>
      <trkpt lat="38.2827450" lon="-0.6747950">
        <ele>92.5</ele>
        <time>2020-12-06T07:44:01Z</time>
      </trkpt>
      <trkpt lat="38.2827320" lon="-0.6748300">
        <ele>92.5</ele>
        <time>2020-12-06T07:44:02Z</time>
      </trkpt>
      <trkpt lat="38.2827180" lon="-0.6748670">
        <ele>92.5</ele>
        <time>2020-12-06T07:44:03Z</time>
      </trkpt>
      <trkpt lat="38.2827070" lon="-0.6749050">
        <ele>92.5</ele>
        <time>2020-12-06T07:44:04Z</time>
      </trkpt>
      <trkpt lat="38.2826950" lon="-0.6749430">
        <ele>92.5</ele>
        <time>2020-12-06T07:44:05Z</time>
      </trkpt>
      <trkpt lat="38.2826830" lon="-0.6749820">
        <ele>92.5</ele>
        <time>2020-12-06T07:44:06Z</time>
      </trkpt>
      <trkpt lat="38.2826700" lon="-0.6750200">
        <ele>92.5</ele>
        <time>2020-12-06T07:44:07Z</time>
      </trkpt>
      <trkpt lat="38.2826580" lon="-0.6750600">
        <ele>92.5</ele>
        <time>2020-12-06T07:44:08Z</time>
      </trkpt>
      <trkpt lat="38.2826470" lon="-0.6751000">
        <ele>92.5</ele>
        <time>2020-12-06T07:44:09Z</time>
      </trkpt>
      <trkpt lat="38.2826350" lon="-0.6751380">
        <ele>92.5</ele>
        <time>2020-12-06T07:44:10Z</time>
      </trkpt>
      <trkpt lat="38.2826230" lon="-0.6751780">
        <ele>92.5</ele>
        <time>2020-12-06T07:44:11Z</time>
      </trkpt>
      <trkpt lat="38.2826100" lon="-0.6752170">
        <ele>92.5</ele>
        <time>2020-12-06T07:44:12Z</time>
      </trkpt>
      <trkpt lat="38.2825980" lon="-0.6752550">
        <ele>92.5</ele>
        <time>2020-12-06T07:44:13Z</time>
      </trkpt>
      <trkpt lat="38.2825870" lon="-0.6752950">
        <ele>91.6</ele>
        <time>2020-12-06T07:44:14Z</time>
      </trkpt>
      <trkpt lat="38.2825770" lon="-0.6753350">
        <ele>91.6</ele>
        <time>2020-12-06T07:44:15Z</time>
      </trkpt>
      <trkpt lat="38.2825670" lon="-0.6753770">
        <ele>91.6</ele>
        <time>2020-12-06T07:44:16Z</time>
      </trkpt>
      <trkpt lat="38.2825570" lon="-0.6754180">
        <ele>91.6</ele>
        <time>2020-12-06T07:44:17Z</time>
      </trkpt>
      <trkpt lat="38.2825470" lon="-0.6754600">
        <ele>91.6</ele>
        <time>2020-12-06T07:44:18Z</time>
      </trkpt>
      <trkpt lat="38.2825350" lon="-0.6755030">
        <ele>91.6</ele>
        <time>2020-12-06T07:44:19Z</time>
      </trkpt>
      <trkpt lat="38.2825270" lon="-0.6755450">
        <ele>92.5</ele>
        <time>2020-12-06T07:44:20Z</time>
      </trkpt>
      <trkpt lat="38.2825150" lon="-0.6755880">
        <ele>92.5</ele>
        <time>2020-12-06T07:44:21Z</time>
      </trkpt>
      <trkpt lat="38.2825050" lon="-0.6756280">
        <ele>92.5</ele>
        <time>2020-12-06T07:44:22Z</time>
      </trkpt>
      <trkpt lat="38.2824930" lon="-0.6756700">
        <ele>92.5</ele>
        <time>2020-12-06T07:44:23Z</time>
      </trkpt>
      <trkpt lat="38.2824830" lon="-0.6757080">
        <ele>92.5</ele>
        <time>2020-12-06T07:44:24Z</time>
      </trkpt>
      <trkpt lat="38.2824770" lon="-0.6757470">
        <ele>92.5</ele>
        <time>2020-12-06T07:44:25Z</time>
      </trkpt>
      <trkpt lat="38.2824700" lon="-0.6757850">
        <ele>92.5</ele>
        <time>2020-12-06T07:44:26Z</time>
      </trkpt>
      <trkpt lat="38.2824650" lon="-0.6758230">
        <ele>92.5</ele>
        <time>2020-12-06T07:44:27Z</time>
      </trkpt>
      <trkpt lat="38.2824570" lon="-0.6758620">
        <ele>91.6</ele>
        <time>2020-12-06T07:44:28Z</time>
      </trkpt>
      <trkpt lat="38.2824480" lon="-0.6759000">
        <ele>91.6</ele>
        <time>2020-12-06T07:44:29Z</time>
      </trkpt>
      <trkpt lat="38.2824400" lon="-0.6759370">
        <ele>91.6</ele>
        <time>2020-12-06T07:44:30Z</time>
      </trkpt>
      <trkpt lat="38.2824330" lon="-0.6759750">
        <ele>91.6</ele>
        <time>2020-12-06T07:44:31Z</time>
      </trkpt>
      <trkpt lat="38.2824270" lon="-0.6760150">
        <ele>91.6</ele>
        <time>2020-12-06T07:44:32Z</time>
      </trkpt>
      <trkpt lat="38.2824200" lon="-0.6760550">
        <ele>91.6</ele>
        <time>2020-12-06T07:44:33Z</time>
      </trkpt>
      <trkpt lat="38.2824100" lon="-0.6760950">
        <ele>91.6</ele>
        <time>2020-12-06T07:44:34Z</time>
      </trkpt>
      <trkpt lat="38.2824020" lon="-0.6761330">
        <ele>91.6</ele>
        <time>2020-12-06T07:44:35Z</time>
      </trkpt>
      <trkpt lat="38.2823930" lon="-0.6761700">
        <ele>91.6</ele>
        <time>2020-12-06T07:44:36Z</time>
      </trkpt>
      <trkpt lat="38.2823880" lon="-0.6762080">
        <ele>91.6</ele>
        <time>2020-12-06T07:44:37Z</time>
      </trkpt>
      <trkpt lat="38.2823850" lon="-0.6762470">
        <ele>92.5</ele>
        <time>2020-12-06T07:44:38Z</time>
      </trkpt>
      <trkpt lat="38.2823800" lon="-0.6762850">
        <ele>92.5</ele>
        <time>2020-12-06T07:44:39Z</time>
      </trkpt>
      <trkpt lat="38.2823730" lon="-0.6763230">
        <ele>92.5</ele>
        <time>2020-12-06T07:44:40Z</time>
      </trkpt>
      <trkpt lat="38.2823700" lon="-0.6763630">
        <ele>92.5</ele>
        <time>2020-12-06T07:44:41Z</time>
      </trkpt>
      <trkpt lat="38.2823650" lon="-0.6764050">
        <ele>92.5</ele>
        <time>2020-12-06T07:44:42Z</time>
      </trkpt>
      <trkpt lat="38.2823580" lon="-0.6764450">
        <ele>92.5</ele>
        <time>2020-12-06T07:44:43Z</time>
      </trkpt>
      <trkpt lat="38.2823550" lon="-0.6764870">
        <ele>92.5</ele>
        <time>2020-12-06T07:44:44Z</time>
      </trkpt>
      <trkpt lat="38.2823500" lon="-0.6765270">
        <ele>92.5</ele>
        <time>2020-12-06T07:44:45Z</time>
      </trkpt>
      <trkpt lat="38.2823450" lon="-0.6765670">
        <ele>92.5</ele>
        <time>2020-12-06T07:44:46Z</time>
      </trkpt>
      <trkpt lat="38.2823420" lon="-0.6766080">
        <ele>92.5</ele>
        <time>2020-12-06T07:44:47Z</time>
      </trkpt>
      <trkpt lat="38.2823380" lon="-0.6766500">
        <ele>92.5</ele>
        <time>2020-12-06T07:44:48Z</time>
      </trkpt>
      <trkpt lat="38.2823330" lon="-0.6766930">
        <ele>92.5</ele>
        <time>2020-12-06T07:44:49Z</time>
      </trkpt>
      <trkpt lat="38.2823280" lon="-0.6767350">
        <ele>92.5</ele>
        <time>2020-12-06T07:44:50Z</time>
      </trkpt>
      <trkpt lat="38.2823230" lon="-0.6767770">
        <ele>92.5</ele>
        <time>2020-12-06T07:44:51Z</time>
      </trkpt>
      <trkpt lat="38.2823180" lon="-0.6768180">
        <ele>92.5</ele>
        <time>2020-12-06T07:44:52Z</time>
      </trkpt>
      <trkpt lat="38.2823150" lon="-0.6768600">
        <ele>92.5</ele>
        <time>2020-12-06T07:44:53Z</time>
      </trkpt>
      <trkpt lat="38.2823120" lon="-0.6769000">
        <ele>92.5</ele>
        <time>2020-12-06T07:44:54Z</time>
      </trkpt>
      <trkpt lat="38.2823070" lon="-0.6769420">
        <ele>92.5</ele>
        <time>2020-12-06T07:44:55Z</time>
      </trkpt>
      <trkpt lat="38.2823020" lon="-0.6769820">
        <ele>92.5</ele>
        <time>2020-12-06T07:44:56Z</time>
      </trkpt>
      <trkpt lat="38.2822980" lon="-0.6770220">
        <ele>92.5</ele>
        <time>2020-12-06T07:44:57Z</time>
      </trkpt>
      <trkpt lat="38.2822930" lon="-0.6770630">
        <ele>92.5</ele>
        <time>2020-12-06T07:44:58Z</time>
      </trkpt>
      <trkpt lat="38.2822900" lon="-0.6771030">
        <ele>92.5</ele>
        <time>2020-12-06T07:44:59Z</time>
      </trkpt>
      <trkpt lat="38.2822870" lon="-0.6771430">
        <ele>92.5</ele>
        <time>2020-12-06T07:45:00Z</time>
      </trkpt>
      <trkpt lat="38.2822820" lon="-0.6771850">
        <ele>92.5</ele>
        <time>2020-12-06T07:45:01Z</time>
      </trkpt>
      <trkpt lat="38.2822770" lon="-0.6772250">
        <ele>91.6</ele>
        <time>2020-12-06T07:45:02Z</time>
      </trkpt>
      <trkpt lat="38.2822730" lon="-0.6772670">
        <ele>91.6</ele>
        <time>2020-12-06T07:45:03Z</time>
      </trkpt>
      <trkpt lat="38.2822700" lon="-0.6773080">
        <ele>91.6</ele>
        <time>2020-12-06T07:45:04Z</time>
      </trkpt>
      <trkpt lat="38.2822670" lon="-0.6773500">
        <ele>91.6</ele>
        <time>2020-12-06T07:45:05Z</time>
      </trkpt>
      <trkpt lat="38.2822620" lon="-0.6773930">
        <ele>91.6</ele>
        <time>2020-12-06T07:45:06Z</time>
      </trkpt>
      <trkpt lat="38.2822580" lon="-0.6774350">
        <ele>91.6</ele>
        <time>2020-12-06T07:45:07Z</time>
      </trkpt>
      <trkpt lat="38.2822530" lon="-0.6774770">
        <ele>91.6</ele>
        <time>2020-12-06T07:45:08Z</time>
      </trkpt>
      <trkpt lat="38.2822480" lon="-0.6775180">
        <ele>91.6</ele>
        <time>2020-12-06T07:45:09Z</time>
      </trkpt>
      <trkpt lat="38.2822450" lon="-0.6775600">
        <ele>91.6</ele>
        <time>2020-12-06T07:45:10Z</time>
      </trkpt>
      <trkpt lat="38.2822400" lon="-0.6775980">
        <ele>91.6</ele>
        <time>2020-12-06T07:45:11Z</time>
      </trkpt>
      <trkpt lat="38.2822370" lon="-0.6776370">
        <ele>91.6</ele>
        <time>2020-12-06T07:45:12Z</time>
      </trkpt>
      <trkpt lat="38.2822330" lon="-0.6776770">
        <ele>91.6</ele>
        <time>2020-12-06T07:45:13Z</time>
      </trkpt>
      <trkpt lat="38.2822300" lon="-0.6777180">
        <ele>91.6</ele>
        <time>2020-12-06T07:45:14Z</time>
      </trkpt>
      <trkpt lat="38.2822250" lon="-0.6777580">
        <ele>91.6</ele>
        <time>2020-12-06T07:45:15Z</time>
      </trkpt>
      <trkpt lat="38.2822220" lon="-0.6778000">
        <ele>91.6</ele>
        <time>2020-12-06T07:45:16Z</time>
      </trkpt>
      <trkpt lat="38.2822200" lon="-0.6778420">
        <ele>91.6</ele>
        <time>2020-12-06T07:45:17Z</time>
      </trkpt>
      <trkpt lat="38.2822170" lon="-0.6778830">
        <ele>91.6</ele>
        <time>2020-12-06T07:45:18Z</time>
      </trkpt>
      <trkpt lat="38.2822120" lon="-0.6779250">
        <ele>91.6</ele>
        <time>2020-12-06T07:45:19Z</time>
      </trkpt>
      <trkpt lat="38.2822080" lon="-0.6779680">
        <ele>91.6</ele>
        <time>2020-12-06T07:45:20Z</time>
      </trkpt>
      <trkpt lat="38.2822070" lon="-0.6780100">
        <ele>91.6</ele>
        <time>2020-12-06T07:45:21Z</time>
      </trkpt>
      <trkpt lat="38.2822050" lon="-0.6780520">
        <ele>91.6</ele>
        <time>2020-12-06T07:45:22Z</time>
      </trkpt>
      <trkpt lat="38.2822020" lon="-0.6780950">
        <ele>91.6</ele>
        <time>2020-12-06T07:45:23Z</time>
      </trkpt>
      <trkpt lat="38.2822000" lon="-0.6781380">
        <ele>91.6</ele>
        <time>2020-12-06T07:45:24Z</time>
      </trkpt>
      <trkpt lat="38.2821970" lon="-0.6781800">
        <ele>91.6</ele>
        <time>2020-12-06T07:45:25Z</time>
      </trkpt>
      <trkpt lat="38.2821930" lon="-0.6782220">
        <ele>91.6</ele>
        <time>2020-12-06T07:45:26Z</time>
      </trkpt>
      <trkpt lat="38.2821900" lon="-0.6782630">
        <ele>91.6</ele>
        <time>2020-12-06T07:45:27Z</time>
      </trkpt>
      <trkpt lat="38.2821870" lon="-0.6783050">
        <ele>91.6</ele>
        <time>2020-12-06T07:45:28Z</time>
      </trkpt>
      <trkpt lat="38.2821830" lon="-0.6783450">
        <ele>91.6</ele>
        <time>2020-12-06T07:45:29Z</time>
      </trkpt>
      <trkpt lat="38.2821800" lon="-0.6783880">
        <ele>91.6</ele>
        <time>2020-12-06T07:45:30Z</time>
      </trkpt>
      <trkpt lat="38.2821770" lon="-0.6784320">
        <ele>91.6</ele>
        <time>2020-12-06T07:45:31Z</time>
      </trkpt>
      <trkpt lat="38.2821730" lon="-0.6784750">
        <ele>91.6</ele>
        <time>2020-12-06T07:45:32Z</time>
      </trkpt>
      <trkpt lat="38.2821700" lon="-0.6785170">
        <ele>91.6</ele>
        <time>2020-12-06T07:45:33Z</time>
      </trkpt>
      <trkpt lat="38.2821670" lon="-0.6785580">
        <ele>91.6</ele>
        <time>2020-12-06T07:45:34Z</time>
      </trkpt>
      <trkpt lat="38.2821650" lon="-0.6786000">
        <ele>91.6</ele>
        <time>2020-12-06T07:45:35Z</time>
      </trkpt>
      <trkpt lat="38.2821650" lon="-0.6786430">
        <ele>91.6</ele>
        <time>2020-12-06T07:45:36Z</time>
      </trkpt>
      <trkpt lat="38.2821670" lon="-0.6786870">
        <ele>91.6</ele>
        <time>2020-12-06T07:45:37Z</time>
      </trkpt>
      <trkpt lat="38.2821680" lon="-0.6787280">
        <ele>91.6</ele>
        <time>2020-12-06T07:45:38Z</time>
      </trkpt>
      <trkpt lat="38.2821700" lon="-0.6787730">
        <ele>91.6</ele>
        <time>2020-12-06T07:45:39Z</time>
      </trkpt>
      <trkpt lat="38.2821720" lon="-0.6788170">
        <ele>91.6</ele>
        <time>2020-12-06T07:45:40Z</time>
      </trkpt>
      <trkpt lat="38.2821730" lon="-0.6788620">
        <ele>91.6</ele>
        <time>2020-12-06T07:45:41Z</time>
      </trkpt>
      <trkpt lat="38.2821730" lon="-0.6789030">
        <ele>91.6</ele>
        <time>2020-12-06T07:45:42Z</time>
      </trkpt>
      <trkpt lat="38.2821750" lon="-0.6789470">
        <ele>91.6</ele>
        <time>2020-12-06T07:45:43Z</time>
      </trkpt>
      <trkpt lat="38.2821770" lon="-0.6789920">
        <ele>91.6</ele>
        <time>2020-12-06T07:45:44Z</time>
      </trkpt>
      <trkpt lat="38.2821770" lon="-0.6790350">
        <ele>91.6</ele>
        <time>2020-12-06T07:45:45Z</time>
      </trkpt>
      <trkpt lat="38.2821770" lon="-0.6790800">
        <ele>91.6</ele>
        <time>2020-12-06T07:45:46Z</time>
      </trkpt>
      <trkpt lat="38.2821770" lon="-0.6791270">
        <ele>91.6</ele>
        <time>2020-12-06T07:45:47Z</time>
      </trkpt>
      <trkpt lat="38.2821770" lon="-0.6791700">
        <ele>91.6</ele>
        <time>2020-12-06T07:45:48Z</time>
      </trkpt>
      <trkpt lat="38.2821780" lon="-0.6792170">
        <ele>91.6</ele>
        <time>2020-12-06T07:45:49Z</time>
      </trkpt>
      <trkpt lat="38.2821780" lon="-0.6792620">
        <ele>91.6</ele>
        <time>2020-12-06T07:45:50Z</time>
      </trkpt>
      <trkpt lat="38.2821800" lon="-0.6793070">
        <ele>91.6</ele>
        <time>2020-12-06T07:45:51Z</time>
      </trkpt>
      <trkpt lat="38.2821820" lon="-0.6793520">
        <ele>90.5</ele>
        <time>2020-12-06T07:45:52Z</time>
      </trkpt>
      <trkpt lat="38.2821830" lon="-0.6793950">
        <ele>90.5</ele>
        <time>2020-12-06T07:45:53Z</time>
      </trkpt>
      <trkpt lat="38.2821830" lon="-0.6794400">
        <ele>90.5</ele>
        <time>2020-12-06T07:45:54Z</time>
      </trkpt>
      <trkpt lat="38.2821830" lon="-0.6794850">
        <ele>90.5</ele>
        <time>2020-12-06T07:45:55Z</time>
      </trkpt>
      <trkpt lat="38.2821850" lon="-0.6795300">
        <ele>90.5</ele>
        <time>2020-12-06T07:45:56Z</time>
      </trkpt>
      <trkpt lat="38.2821870" lon="-0.6795750">
        <ele>90.5</ele>
        <time>2020-12-06T07:45:57Z</time>
      </trkpt>
      <trkpt lat="38.2821870" lon="-0.6796200">
        <ele>90.5</ele>
        <time>2020-12-06T07:45:58Z</time>
      </trkpt>
      <trkpt lat="38.2821880" lon="-0.6796650">
        <ele>90.5</ele>
        <time>2020-12-06T07:45:59Z</time>
      </trkpt>
      <trkpt lat="38.2821920" lon="-0.6797100">
        <ele>90.5</ele>
        <time>2020-12-06T07:46:00Z</time>
      </trkpt>
      <trkpt lat="38.2821950" lon="-0.6797530">
        <ele>90.5</ele>
        <time>2020-12-06T07:46:01Z</time>
      </trkpt>
      <trkpt lat="38.2821980" lon="-0.6797970">
        <ele>90.5</ele>
        <time>2020-12-06T07:46:02Z</time>
      </trkpt>
      <trkpt lat="38.2822000" lon="-0.6798420">
        <ele>90.5</ele>
        <time>2020-12-06T07:46:03Z</time>
      </trkpt>
      <trkpt lat="38.2822030" lon="-0.6798870">
        <ele>90.5</ele>
        <time>2020-12-06T07:46:04Z</time>
      </trkpt>
      <trkpt lat="38.2822050" lon="-0.6799300">
        <ele>90.5</ele>
        <time>2020-12-06T07:46:05Z</time>
      </trkpt>
      <trkpt lat="38.2822080" lon="-0.6799720">
        <ele>90.5</ele>
        <time>2020-12-06T07:46:06Z</time>
      </trkpt>
      <trkpt lat="38.2822120" lon="-0.6800170">
        <ele>90.5</ele>
        <time>2020-12-06T07:46:07Z</time>
      </trkpt>
      <trkpt lat="38.2822150" lon="-0.6800620">
        <ele>90.5</ele>
        <time>2020-12-06T07:46:08Z</time>
      </trkpt>
      <trkpt lat="38.2822180" lon="-0.6801080">
        <ele>90.5</ele>
        <time>2020-12-06T07:46:09Z</time>
      </trkpt>
      <trkpt lat="38.2822220" lon="-0.6801530">
        <ele>90.5</ele>
        <time>2020-12-06T07:46:10Z</time>
      </trkpt>
      <trkpt lat="38.2822270" lon="-0.6801970">
        <ele>90.5</ele>
        <time>2020-12-06T07:46:11Z</time>
      </trkpt>
      <trkpt lat="38.2822320" lon="-0.6802420">
        <ele>90.5</ele>
        <time>2020-12-06T07:46:12Z</time>
      </trkpt>
      <trkpt lat="38.2822330" lon="-0.6802870">
        <ele>90.5</ele>
        <time>2020-12-06T07:46:13Z</time>
      </trkpt>
      <trkpt lat="38.2822370" lon="-0.6803330">
        <ele>90.5</ele>
        <time>2020-12-06T07:46:14Z</time>
      </trkpt>
      <trkpt lat="38.2822420" lon="-0.6803780">
        <ele>90.5</ele>
        <time>2020-12-06T07:46:15Z</time>
      </trkpt>
      <trkpt lat="38.2822470" lon="-0.6804250">
        <ele>90.5</ele>
        <time>2020-12-06T07:46:16Z</time>
      </trkpt>
      <trkpt lat="38.2822530" lon="-0.6804730">
        <ele>90.5</ele>
        <time>2020-12-06T07:46:17Z</time>
      </trkpt>
      <trkpt lat="38.2822580" lon="-0.6805200">
        <ele>89.6</ele>
        <time>2020-12-06T07:46:18Z</time>
      </trkpt>
      <trkpt lat="38.2822630" lon="-0.6805680">
        <ele>89.6</ele>
        <time>2020-12-06T07:46:19Z</time>
      </trkpt>
      <trkpt lat="38.2822680" lon="-0.6806150">
        <ele>89.6</ele>
        <time>2020-12-06T07:46:20Z</time>
      </trkpt>
      <trkpt lat="38.2822750" lon="-0.6806620">
        <ele>89.6</ele>
        <time>2020-12-06T07:46:21Z</time>
      </trkpt>
      <trkpt lat="38.2822800" lon="-0.6807100">
        <ele>89.6</ele>
        <time>2020-12-06T07:46:22Z</time>
      </trkpt>
      <trkpt lat="38.2822850" lon="-0.6807580">
        <ele>89.6</ele>
        <time>2020-12-06T07:46:23Z</time>
      </trkpt>
      <trkpt lat="38.2822900" lon="-0.6808030">
        <ele>89.6</ele>
        <time>2020-12-06T07:46:24Z</time>
      </trkpt>
      <trkpt lat="38.2822950" lon="-0.6808500">
        <ele>89.6</ele>
        <time>2020-12-06T07:46:25Z</time>
      </trkpt>
      <trkpt lat="38.2822980" lon="-0.6808970">
        <ele>89.6</ele>
        <time>2020-12-06T07:46:26Z</time>
      </trkpt>
      <trkpt lat="38.2823020" lon="-0.6809450">
        <ele>89.6</ele>
        <time>2020-12-06T07:46:27Z</time>
      </trkpt>
      <trkpt lat="38.2823070" lon="-0.6809920">
        <ele>89.6</ele>
        <time>2020-12-06T07:46:28Z</time>
      </trkpt>
      <trkpt lat="38.2823100" lon="-0.6810400">
        <ele>89.6</ele>
        <time>2020-12-06T07:46:29Z</time>
      </trkpt>
      <trkpt lat="38.2823130" lon="-0.6810870">
        <ele>89.6</ele>
        <time>2020-12-06T07:46:30Z</time>
      </trkpt>
      <trkpt lat="38.2823180" lon="-0.6811330">
        <ele>89.6</ele>
        <time>2020-12-06T07:46:31Z</time>
      </trkpt>
      <trkpt lat="38.2823230" lon="-0.6811800">
        <ele>89.6</ele>
        <time>2020-12-06T07:46:32Z</time>
      </trkpt>
      <trkpt lat="38.2823280" lon="-0.6812230">
        <ele>89.6</ele>
        <time>2020-12-06T07:46:33Z</time>
      </trkpt>
      <trkpt lat="38.2823330" lon="-0.6812670">
        <ele>89.6</ele>
        <time>2020-12-06T07:46:34Z</time>
      </trkpt>
      <trkpt lat="38.2823370" lon="-0.6813120">
        <ele>89.6</ele>
        <time>2020-12-06T07:46:35Z</time>
      </trkpt>
      <trkpt lat="38.2823380" lon="-0.6813550">
        <ele>89.6</ele>
        <time>2020-12-06T07:46:36Z</time>
      </trkpt>
      <trkpt lat="38.2823400" lon="-0.6813970">
        <ele>89.6</ele>
        <time>2020-12-06T07:46:37Z</time>
      </trkpt>
      <trkpt lat="38.2823450" lon="-0.6814400">
        <ele>89.6</ele>
        <time>2020-12-06T07:46:38Z</time>
      </trkpt>
      <trkpt lat="38.2823480" lon="-0.6814830">
        <ele>89.6</ele>
        <time>2020-12-06T07:46:39Z</time>
      </trkpt>
      <trkpt lat="38.2823470" lon="-0.6815250">
        <ele>88.5</ele>
        <time>2020-12-06T07:46:40Z</time>
      </trkpt>
      <trkpt lat="38.2823430" lon="-0.6815670">
        <ele>88.5</ele>
        <time>2020-12-06T07:46:41Z</time>
      </trkpt>
      <trkpt lat="38.2823380" lon="-0.6816070">
        <ele>88.5</ele>
        <time>2020-12-06T07:46:42Z</time>
      </trkpt>
      <trkpt lat="38.2823330" lon="-0.6816470">
        <ele>88.5</ele>
        <time>2020-12-06T07:46:43Z</time>
      </trkpt>
      <trkpt lat="38.2823270" lon="-0.6816870">
        <ele>88.5</ele>
        <time>2020-12-06T07:46:44Z</time>
      </trkpt>
      <trkpt lat="38.2823170" lon="-0.6817250">
        <ele>88.5</ele>
        <time>2020-12-06T07:46:45Z</time>
      </trkpt>
      <trkpt lat="38.2823030" lon="-0.6817630">
        <ele>88.5</ele>
        <time>2020-12-06T07:46:46Z</time>
      </trkpt>
      <trkpt lat="38.2822900" lon="-0.6817980">
        <ele>88.5</ele>
        <time>2020-12-06T07:46:47Z</time>
      </trkpt>
      <trkpt lat="38.2822750" lon="-0.6818350">
        <ele>87.6</ele>
        <time>2020-12-06T07:46:48Z</time>
      </trkpt>
      <trkpt lat="38.2822550" lon="-0.6818670">
        <ele>87.6</ele>
        <time>2020-12-06T07:46:49Z</time>
      </trkpt>
      <trkpt lat="38.2822330" lon="-0.6818980">
        <ele>87.6</ele>
        <time>2020-12-06T07:46:50Z</time>
      </trkpt>
      <trkpt lat="38.2822120" lon="-0.6819300">
        <ele>87.6</ele>
        <time>2020-12-06T07:46:51Z</time>
      </trkpt>
      <trkpt lat="38.2821880" lon="-0.6819620">
        <ele>87.6</ele>
        <time>2020-12-06T07:46:52Z</time>
      </trkpt>
      <trkpt lat="38.2821670" lon="-0.6819970">
        <ele>87.6</ele>
        <time>2020-12-06T07:46:53Z</time>
      </trkpt>
      <trkpt lat="38.2821470" lon="-0.6820330">
        <ele>87.6</ele>
        <time>2020-12-06T07:46:54Z</time>
      </trkpt>
      <trkpt lat="38.2821270" lon="-0.6820730">
        <ele>87.6</ele>
        <time>2020-12-06T07:46:55Z</time>
      </trkpt>
      <trkpt lat="38.2821080" lon="-0.6821150">
        <ele>87.6</ele>
        <time>2020-12-06T07:46:56Z</time>
      </trkpt>
      <trkpt lat="38.2820870" lon="-0.6821530">
        <ele>87.6</ele>
        <time>2020-12-06T07:46:57Z</time>
      </trkpt>
      <trkpt lat="38.2820620" lon="-0.6821870">
        <ele>87.6</ele>
        <time>2020-12-06T07:46:58Z</time>
      </trkpt>
      <trkpt lat="38.2820320" lon="-0.6822180">
        <ele>87.6</ele>
        <time>2020-12-06T07:46:59Z</time>
      </trkpt>
      <trkpt lat="38.2820020" lon="-0.6822420">
        <ele>87.6</ele>
        <time>2020-12-06T07:47:00Z</time>
      </trkpt>
      <trkpt lat="38.2819720" lon="-0.6822630">
        <ele>87.6</ele>
        <time>2020-12-06T07:47:01Z</time>
      </trkpt>
      <trkpt lat="38.2819380" lon="-0.6822800">
        <ele>86.6</ele>
        <time>2020-12-06T07:47:02Z</time>
      </trkpt>
      <trkpt lat="38.2819070" lon="-0.6822970">
        <ele>86.6</ele>
        <time>2020-12-06T07:47:03Z</time>
      </trkpt>
      <trkpt lat="38.2818730" lon="-0.6823150">
        <ele>86.6</ele>
        <time>2020-12-06T07:47:04Z</time>
      </trkpt>
      <trkpt lat="38.2818420" lon="-0.6823320">
        <ele>86.6</ele>
        <time>2020-12-06T07:47:05Z</time>
      </trkpt>
      <trkpt lat="38.2818080" lon="-0.6823480">
        <ele>86.6</ele>
        <time>2020-12-06T07:47:06Z</time>
      </trkpt>
      <trkpt lat="38.2817730" lon="-0.6823630">
        <ele>86.6</ele>
        <time>2020-12-06T07:47:07Z</time>
      </trkpt>
      <trkpt lat="38.2817370" lon="-0.6823800">
        <ele>86.6</ele>
        <time>2020-12-06T07:47:08Z</time>
      </trkpt>
      <trkpt lat="38.2817000" lon="-0.6823930">
        <ele>86.6</ele>
        <time>2020-12-06T07:47:09Z</time>
      </trkpt>
      <trkpt lat="38.2816620" lon="-0.6824070">
        <ele>86.6</ele>
        <time>2020-12-06T07:47:10Z</time>
      </trkpt>
      <trkpt lat="38.2816270" lon="-0.6824200">
        <ele>86.6</ele>
        <time>2020-12-06T07:47:11Z</time>
      </trkpt>
      <trkpt lat="38.2815900" lon="-0.6824320">
        <ele>85.5</ele>
        <time>2020-12-06T07:47:12Z</time>
      </trkpt>
      <trkpt lat="38.2815570" lon="-0.6824420">
        <ele>85.5</ele>
        <time>2020-12-06T07:47:13Z</time>
      </trkpt>
      <trkpt lat="38.2815230" lon="-0.6824530">
        <ele>85.5</ele>
        <time>2020-12-06T07:47:14Z</time>
      </trkpt>
      <trkpt lat="38.2814880" lon="-0.6824650">
        <ele>85.5</ele>
        <time>2020-12-06T07:47:15Z</time>
      </trkpt>
      <trkpt lat="38.2814570" lon="-0.6824750">
        <ele>85.5</ele>
        <time>2020-12-06T07:47:16Z</time>
      </trkpt>
      <trkpt lat="38.2814220" lon="-0.6824830">
        <ele>85.5</ele>
        <time>2020-12-06T07:47:17Z</time>
      </trkpt>
      <trkpt lat="38.2813870" lon="-0.6824880">
        <ele>85.5</ele>
        <time>2020-12-06T07:47:18Z</time>
      </trkpt>
      <trkpt lat="38.2813500" lon="-0.6824970">
        <ele>85.5</ele>
        <time>2020-12-06T07:47:19Z</time>
      </trkpt>
      <trkpt lat="38.2813120" lon="-0.6825030">
        <ele>85.5</ele>
        <time>2020-12-06T07:47:20Z</time>
      </trkpt>
      <trkpt lat="38.2812750" lon="-0.6825050">
        <ele>85.5</ele>
        <time>2020-12-06T07:47:21Z</time>
      </trkpt>
      <trkpt lat="38.2812370" lon="-0.6825070">
        <ele>85.5</ele>
        <time>2020-12-06T07:47:22Z</time>
      </trkpt>
      <trkpt lat="38.2811980" lon="-0.6825050">
        <ele>85.5</ele>
        <time>2020-12-06T07:47:23Z</time>
      </trkpt>
      <trkpt lat="38.2811600" lon="-0.6825000">
        <ele>85.5</ele>
        <time>2020-12-06T07:47:24Z</time>
      </trkpt>
      <trkpt lat="38.2811220" lon="-0.6824950">
        <ele>85.5</ele>
        <time>2020-12-06T07:47:25Z</time>
      </trkpt>
      <trkpt lat="38.2810830" lon="-0.6824920">
        <ele>85.5</ele>
        <time>2020-12-06T07:47:26Z</time>
      </trkpt>
      <trkpt lat="38.2810450" lon="-0.6824880">
        <ele>85.5</ele>
        <time>2020-12-06T07:47:27Z</time>
      </trkpt>
      <trkpt lat="38.2810050" lon="-0.6824850">
        <ele>85.5</ele>
        <time>2020-12-06T07:47:28Z</time>
      </trkpt>
      <trkpt lat="38.2809670" lon="-0.6824800">
        <ele>85.5</ele>
        <time>2020-12-06T07:47:29Z</time>
      </trkpt>
      <trkpt lat="38.2809270" lon="-0.6824730">
        <ele>85.5</ele>
        <time>2020-12-06T07:47:30Z</time>
      </trkpt>
      <trkpt lat="38.2808870" lon="-0.6824620">
        <ele>85.5</ele>
        <time>2020-12-06T07:47:31Z</time>
      </trkpt>
      <trkpt lat="38.2808500" lon="-0.6824530">
        <ele>84.6</ele>
        <time>2020-12-06T07:47:32Z</time>
      </trkpt>
      <trkpt lat="38.2808130" lon="-0.6824430">
        <ele>84.6</ele>
        <time>2020-12-06T07:47:33Z</time>
      </trkpt>
      <trkpt lat="38.2807780" lon="-0.6824320">
        <ele>84.6</ele>
        <time>2020-12-06T07:47:34Z</time>
      </trkpt>
      <trkpt lat="38.2807430" lon="-0.6824220">
        <ele>84.6</ele>
        <time>2020-12-06T07:47:35Z</time>
      </trkpt>
      <trkpt lat="38.2807080" lon="-0.6824120">
        <ele>84.6</ele>
        <time>2020-12-06T07:47:36Z</time>
      </trkpt>
      <trkpt lat="38.2806730" lon="-0.6823980">
        <ele>84.6</ele>
        <time>2020-12-06T07:47:37Z</time>
      </trkpt>
      <trkpt lat="38.2806370" lon="-0.6823850">
        <ele>84.6</ele>
        <time>2020-12-06T07:47:38Z</time>
      </trkpt>
      <trkpt lat="38.2806020" lon="-0.6823700">
        <ele>84.6</ele>
        <time>2020-12-06T07:47:39Z</time>
      </trkpt>
      <trkpt lat="38.2805670" lon="-0.6823570">
        <ele>84.6</ele>
        <time>2020-12-06T07:47:40Z</time>
      </trkpt>
      <trkpt lat="38.2805300" lon="-0.6823430">
        <ele>84.6</ele>
        <time>2020-12-06T07:47:41Z</time>
      </trkpt>
      <trkpt lat="38.2804950" lon="-0.6823300">
        <ele>84.6</ele>
        <time>2020-12-06T07:47:42Z</time>
      </trkpt>
      <trkpt lat="38.2804600" lon="-0.6823170">
        <ele>84.6</ele>
        <time>2020-12-06T07:47:43Z</time>
      </trkpt>
      <trkpt lat="38.2804250" lon="-0.6823020">
        <ele>84.6</ele>
        <time>2020-12-06T07:47:44Z</time>
      </trkpt>
      <trkpt lat="38.2803900" lon="-0.6822870">
        <ele>84.6</ele>
        <time>2020-12-06T07:47:45Z</time>
      </trkpt>
      <trkpt lat="38.2803570" lon="-0.6822720">
        <ele>84.6</ele>
        <time>2020-12-06T07:47:46Z</time>
      </trkpt>
      <trkpt lat="38.2803230" lon="-0.6822580">
        <ele>84.6</ele>
        <time>2020-12-06T07:47:47Z</time>
      </trkpt>
      <trkpt lat="38.2802900" lon="-0.6822450">
        <ele>84.6</ele>
        <time>2020-12-06T07:47:48Z</time>
      </trkpt>
      <trkpt lat="38.2802570" lon="-0.6822320">
        <ele>84.6</ele>
        <time>2020-12-06T07:47:49Z</time>
      </trkpt>
      <trkpt lat="38.2802230" lon="-0.6822200">
        <ele>84.6</ele>
        <time>2020-12-06T07:47:50Z</time>
      </trkpt>
      <trkpt lat="38.2801900" lon="-0.6822070">
        <ele>84.6</ele>
        <time>2020-12-06T07:47:51Z</time>
      </trkpt>
      <trkpt lat="38.2801570" lon="-0.6821930">
        <ele>84.6</ele>
        <time>2020-12-06T07:47:52Z</time>
      </trkpt>
      <trkpt lat="38.2801250" lon="-0.6821780">
        <ele>84.6</ele>
        <time>2020-12-06T07:47:53Z</time>
      </trkpt>
      <trkpt lat="38.2800920" lon="-0.6821670">
        <ele>83.5</ele>
        <time>2020-12-06T07:47:54Z</time>
      </trkpt>
      <trkpt lat="38.2800600" lon="-0.6821520">
        <ele>83.5</ele>
        <time>2020-12-06T07:47:55Z</time>
      </trkpt>
      <trkpt lat="38.2800300" lon="-0.6821380">
        <ele>83.5</ele>
        <time>2020-12-06T07:47:56Z</time>
      </trkpt>
      <trkpt lat="38.2799980" lon="-0.6821250">
        <ele>83.5</ele>
        <time>2020-12-06T07:47:57Z</time>
      </trkpt>
      <trkpt lat="38.2799670" lon="-0.6821130">
        <ele>83.5</ele>
        <time>2020-12-06T07:47:58Z</time>
      </trkpt>
      <trkpt lat="38.2799370" lon="-0.6821030">
        <ele>83.5</ele>
        <time>2020-12-06T07:47:59Z</time>
      </trkpt>
      <trkpt lat="38.2799070" lon="-0.6820920">
        <ele>83.5</ele>
        <time>2020-12-06T07:48:00Z</time>
      </trkpt>
      <trkpt lat="38.2798770" lon="-0.6820780">
        <ele>83.5</ele>
        <time>2020-12-06T07:48:01Z</time>
      </trkpt>
      <trkpt lat="38.2798470" lon="-0.6820670">
        <ele>83.5</ele>
        <time>2020-12-06T07:48:02Z</time>
      </trkpt>
      <trkpt lat="38.2798170" lon="-0.6820570">
        <ele>83.5</ele>
        <time>2020-12-06T07:48:03Z</time>
      </trkpt>
      <trkpt lat="38.2797870" lon="-0.6820430">
        <ele>83.5</ele>
        <time>2020-12-06T07:48:04Z</time>
      </trkpt>
      <trkpt lat="38.2797580" lon="-0.6820300">
        <ele>83.5</ele>
        <time>2020-12-06T07:48:05Z</time>
      </trkpt>
      <trkpt lat="38.2797320" lon="-0.6820180">
        <ele>83.5</ele>
        <time>2020-12-06T07:48:06Z</time>
      </trkpt>
      <trkpt lat="38.2797050" lon="-0.6820080">
        <ele>83.5</ele>
        <time>2020-12-06T07:48:07Z</time>
      </trkpt>
      <trkpt lat="38.2796800" lon="-0.6819970">
        <ele>83.5</ele>
        <time>2020-12-06T07:48:08Z</time>
      </trkpt>
      <trkpt lat="38.2796520" lon="-0.6819870">
        <ele>83.5</ele>
        <time>2020-12-06T07:48:09Z</time>
      </trkpt>
      <trkpt lat="38.2796220" lon="-0.6819770">
        <ele>83.5</ele>
        <time>2020-12-06T07:48:10Z</time>
      </trkpt>
      <trkpt lat="38.2795920" lon="-0.6819630">
        <ele>83.5</ele>
        <time>2020-12-06T07:48:11Z</time>
      </trkpt>
      <trkpt lat="38.2795620" lon="-0.6819480">
        <ele>83.5</ele>
        <time>2020-12-06T07:48:12Z</time>
      </trkpt>
      <trkpt lat="38.2795320" lon="-0.6819350">
        <ele>83.5</ele>
        <time>2020-12-06T07:48:13Z</time>
      </trkpt>
      <trkpt lat="38.2795020" lon="-0.6819230">
        <ele>83.5</ele>
        <time>2020-12-06T07:48:14Z</time>
      </trkpt>
      <trkpt lat="38.2794700" lon="-0.6819120">
        <ele>83.5</ele>
        <time>2020-12-06T07:48:15Z</time>
      </trkpt>
      <trkpt lat="38.2794370" lon="-0.6819000">
        <ele>83.5</ele>
        <time>2020-12-06T07:48:16Z</time>
      </trkpt>
      <trkpt lat="38.2793980" lon="-0.6818870">
        <ele>83.5</ele>
        <time>2020-12-06T07:48:17Z</time>
      </trkpt>
      <trkpt lat="38.2793550" lon="-0.6818750">
        <ele>83.5</ele>
        <time>2020-12-06T07:48:18Z</time>
      </trkpt>
      <trkpt lat="38.2793120" lon="-0.6818580">
        <ele>83.5</ele>
        <time>2020-12-06T07:48:19Z</time>
      </trkpt>
      <trkpt lat="38.2792720" lon="-0.6818370">
        <ele>83.5</ele>
        <time>2020-12-06T07:48:20Z</time>
      </trkpt>
      <trkpt lat="38.2792320" lon="-0.6818130">
        <ele>83.5</ele>
        <time>2020-12-06T07:48:21Z</time>
      </trkpt>
      <trkpt lat="38.2791920" lon="-0.6817930">
        <ele>83.5</ele>
        <time>2020-12-06T07:48:22Z</time>
      </trkpt>
      <trkpt lat="38.2791520" lon="-0.6817770">
        <ele>83.5</ele>
        <time>2020-12-06T07:48:23Z</time>
      </trkpt>
      <trkpt lat="38.2791120" lon="-0.6817620">
        <ele>83.5</ele>
        <time>2020-12-06T07:48:24Z</time>
      </trkpt>
      <trkpt lat="38.2790720" lon="-0.6817470">
        <ele>83.5</ele>
        <time>2020-12-06T07:48:25Z</time>
      </trkpt>
      <trkpt lat="38.2790330" lon="-0.6817320">
        <ele>83.5</ele>
        <time>2020-12-06T07:48:26Z</time>
      </trkpt>
      <trkpt lat="38.2789930" lon="-0.6817150">
        <ele>83.5</ele>
        <time>2020-12-06T07:48:27Z</time>
      </trkpt>
      <trkpt lat="38.2789550" lon="-0.6817000">
        <ele>83.5</ele>
        <time>2020-12-06T07:48:28Z</time>
      </trkpt>
      <trkpt lat="38.2789170" lon="-0.6816830">
        <ele>83.5</ele>
        <time>2020-12-06T07:48:29Z</time>
      </trkpt>
      <trkpt lat="38.2788800" lon="-0.6816670">
        <ele>83.5</ele>
        <time>2020-12-06T07:48:30Z</time>
      </trkpt>
      <trkpt lat="38.2788450" lon="-0.6816520">
        <ele>83.5</ele>
        <time>2020-12-06T07:48:31Z</time>
      </trkpt>
      <trkpt lat="38.2788100" lon="-0.6816380">
        <ele>83.5</ele>
        <time>2020-12-06T07:48:32Z</time>
      </trkpt>
      <trkpt lat="38.2787750" lon="-0.6816230">
        <ele>83.5</ele>
        <time>2020-12-06T07:48:33Z</time>
      </trkpt>
      <trkpt lat="38.2787400" lon="-0.6816100">
        <ele>83.5</ele>
        <time>2020-12-06T07:48:34Z</time>
      </trkpt>
      <trkpt lat="38.2787050" lon="-0.6815970">
        <ele>83.5</ele>
        <time>2020-12-06T07:48:35Z</time>
      </trkpt>
      <trkpt lat="38.2786700" lon="-0.6815830">
        <ele>83.5</ele>
        <time>2020-12-06T07:48:36Z</time>
      </trkpt>
      <trkpt lat="38.2786350" lon="-0.6815670">
        <ele>83.5</ele>
        <time>2020-12-06T07:48:37Z</time>
      </trkpt>
      <trkpt lat="38.2785980" lon="-0.6815550">
        <ele>83.5</ele>
        <time>2020-12-06T07:48:38Z</time>
      </trkpt>
      <trkpt lat="38.2785630" lon="-0.6815400">
        <ele>83.5</ele>
        <time>2020-12-06T07:48:39Z</time>
      </trkpt>
      <trkpt lat="38.2785270" lon="-0.6815270">
        <ele>83.5</ele>
        <time>2020-12-06T07:48:40Z</time>
      </trkpt>
      <trkpt lat="38.2784880" lon="-0.6815120">
        <ele>83.5</ele>
        <time>2020-12-06T07:48:41Z</time>
      </trkpt>
      <trkpt lat="38.2784500" lon="-0.6814950">
        <ele>83.5</ele>
        <time>2020-12-06T07:48:42Z</time>
      </trkpt>
      <trkpt lat="38.2784120" lon="-0.6814820">
        <ele>83.5</ele>
        <time>2020-12-06T07:48:43Z</time>
      </trkpt>
      <trkpt lat="38.2783750" lon="-0.6814670">
        <ele>83.5</ele>
        <time>2020-12-06T07:48:44Z</time>
      </trkpt>
      <trkpt lat="38.2783380" lon="-0.6814550">
        <ele>83.5</ele>
        <time>2020-12-06T07:48:45Z</time>
      </trkpt>
      <trkpt lat="38.2783000" lon="-0.6814430">
        <ele>83.5</ele>
        <time>2020-12-06T07:48:46Z</time>
      </trkpt>
      <trkpt lat="38.2782630" lon="-0.6814250">
        <ele>83.5</ele>
        <time>2020-12-06T07:48:47Z</time>
      </trkpt>
      <trkpt lat="38.2782320" lon="-0.6814000">
        <ele>83.5</ele>
        <time>2020-12-06T07:48:48Z</time>
      </trkpt>
      <trkpt lat="38.2782020" lon="-0.6813720">
        <ele>83.5</ele>
        <time>2020-12-06T07:48:49Z</time>
      </trkpt>
      <trkpt lat="38.2781770" lon="-0.6813350">
        <ele>83.5</ele>
        <time>2020-12-06T07:48:50Z</time>
      </trkpt>
      <trkpt lat="38.2781550" lon="-0.6812950">
        <ele>83.5</ele>
        <time>2020-12-06T07:48:51Z</time>
      </trkpt>
      <trkpt lat="38.2781330" lon="-0.6812530">
        <ele>83.5</ele>
        <time>2020-12-06T07:48:52Z</time>
      </trkpt>
      <trkpt lat="38.2781100" lon="-0.6812100">
        <ele>83.5</ele>
        <time>2020-12-06T07:48:53Z</time>
      </trkpt>
      <trkpt lat="38.2780880" lon="-0.6811650">
        <ele>81.5</ele>
        <time>2020-12-06T07:48:54Z</time>
      </trkpt>
      <trkpt lat="38.2780650" lon="-0.6811180">
        <ele>81.5</ele>
        <time>2020-12-06T07:48:55Z</time>
      </trkpt>
      <trkpt lat="38.2780420" lon="-0.6810780">
        <ele>81.5</ele>
        <time>2020-12-06T07:48:56Z</time>
      </trkpt>
      <trkpt lat="38.2780180" lon="-0.6810380">
        <ele>81.5</ele>
        <time>2020-12-06T07:48:57Z</time>
      </trkpt>
      <trkpt lat="38.2779970" lon="-0.6809970">
        <ele>81.5</ele>
        <time>2020-12-06T07:48:58Z</time>
      </trkpt>
      <trkpt lat="38.2779780" lon="-0.6809550">
        <ele>81.5</ele>
        <time>2020-12-06T07:48:59Z</time>
      </trkpt>
      <trkpt lat="38.2779670" lon="-0.6809170">
        <ele>81.5</ele>
        <time>2020-12-06T07:49:00Z</time>
      </trkpt>
      <trkpt lat="38.2779600" lon="-0.6808770">
        <ele>81.5</ele>
        <time>2020-12-06T07:49:01Z</time>
      </trkpt>
      <trkpt lat="38.2779620" lon="-0.6808350">
        <ele>81.5</ele>
        <time>2020-12-06T07:49:02Z</time>
      </trkpt>
      <trkpt lat="38.2779700" lon="-0.6807970">
        <ele>81.5</ele>
        <time>2020-12-06T07:49:03Z</time>
      </trkpt>
      <trkpt lat="38.2779770" lon="-0.6807580">
        <ele>80.6</ele>
        <time>2020-12-06T07:49:04Z</time>
      </trkpt>
      <trkpt lat="38.2779830" lon="-0.6807220">
        <ele>80.6</ele>
        <time>2020-12-06T07:49:05Z</time>
      </trkpt>
      <trkpt lat="38.2779900" lon="-0.6806870">
        <ele>80.6</ele>
        <time>2020-12-06T07:49:06Z</time>
      </trkpt>
      <trkpt lat="38.2779970" lon="-0.6806520">
        <ele>80.6</ele>
        <time>2020-12-06T07:49:07Z</time>
      </trkpt>
      <trkpt lat="38.2780070" lon="-0.6806180">
        <ele>80.6</ele>
        <time>2020-12-06T07:49:08Z</time>
      </trkpt>
      <trkpt lat="38.2780130" lon="-0.6805870">
        <ele>80.6</ele>
        <time>2020-12-06T07:49:09Z</time>
      </trkpt>
      <trkpt lat="38.2780170" lon="-0.6805520">
        <ele>80.6</ele>
        <time>2020-12-06T07:49:10Z</time>
      </trkpt>
      <trkpt lat="38.2780230" lon="-0.6805180">
        <ele>80.6</ele>
        <time>2020-12-06T07:49:11Z</time>
      </trkpt>
      <trkpt lat="38.2780320" lon="-0.6804850">
        <ele>80.6</ele>
        <time>2020-12-06T07:49:12Z</time>
      </trkpt>
      <trkpt lat="38.2780370" lon="-0.6804520">
        <ele>80.6</ele>
        <time>2020-12-06T07:49:13Z</time>
      </trkpt>
      <trkpt lat="38.2780420" lon="-0.6804170">
        <ele>80.6</ele>
        <time>2020-12-06T07:49:14Z</time>
      </trkpt>
      <trkpt lat="38.2780500" lon="-0.6803820">
        <ele>80.6</ele>
        <time>2020-12-06T07:49:15Z</time>
      </trkpt>
      <trkpt lat="38.2780580" lon="-0.6803450">
        <ele>80.6</ele>
        <time>2020-12-06T07:49:16Z</time>
      </trkpt>
      <trkpt lat="38.2780670" lon="-0.6803080">
        <ele>80.6</ele>
        <time>2020-12-06T07:49:17Z</time>
      </trkpt>
      <trkpt lat="38.2780750" lon="-0.6802720">
        <ele>80.6</ele>
        <time>2020-12-06T07:49:18Z</time>
      </trkpt>
      <trkpt lat="38.2780830" lon="-0.6802380">
        <ele>80.6</ele>
        <time>2020-12-06T07:49:19Z</time>
      </trkpt>
      <trkpt lat="38.2780920" lon="-0.6802030">
        <ele>80.6</ele>
        <time>2020-12-06T07:49:20Z</time>
      </trkpt>
      <trkpt lat="38.2781000" lon="-0.6801720">
        <ele>80.6</ele>
        <time>2020-12-06T07:49:21Z</time>
      </trkpt>
      <trkpt lat="38.2781050" lon="-0.6801400">
        <ele>80.6</ele>
        <time>2020-12-06T07:49:22Z</time>
      </trkpt>
      <trkpt lat="38.2781120" lon="-0.6801100">
        <ele>80.6</ele>
        <time>2020-12-06T07:49:23Z</time>
      </trkpt>
      <trkpt lat="38.2781150" lon="-0.6800780">
        <ele>81.5</ele>
        <time>2020-12-06T07:49:24Z</time>
      </trkpt>
      <trkpt lat="38.2781200" lon="-0.6800450">
        <ele>81.5</ele>
        <time>2020-12-06T07:49:25Z</time>
      </trkpt>
      <trkpt lat="38.2781280" lon="-0.6800120">
        <ele>81.5</ele>
        <time>2020-12-06T07:49:26Z</time>
      </trkpt>
      <trkpt lat="38.2781350" lon="-0.6799770">
        <ele>81.5</ele>
        <time>2020-12-06T07:49:27Z</time>
      </trkpt>
      <trkpt lat="38.2781430" lon="-0.6799420">
        <ele>81.5</ele>
        <time>2020-12-06T07:49:28Z</time>
      </trkpt>
      <trkpt lat="38.2781530" lon="-0.6799080">
        <ele>81.5</ele>
        <time>2020-12-06T07:49:29Z</time>
      </trkpt>
      <trkpt lat="38.2781580" lon="-0.6798730">
        <ele>81.5</ele>
        <time>2020-12-06T07:49:30Z</time>
      </trkpt>
      <trkpt lat="38.2781620" lon="-0.6798380">
        <ele>81.5</ele>
        <time>2020-12-06T07:49:31Z</time>
      </trkpt>
      <trkpt lat="38.2781650" lon="-0.6798020">
        <ele>81.5</ele>
        <time>2020-12-06T07:49:32Z</time>
      </trkpt>
      <trkpt lat="38.2781720" lon="-0.6797670">
        <ele>81.5</ele>
        <time>2020-12-06T07:49:33Z</time>
      </trkpt>
      <trkpt lat="38.2781770" lon="-0.6797320">
        <ele>81.5</ele>
        <time>2020-12-06T07:49:34Z</time>
      </trkpt>
      <trkpt lat="38.2781800" lon="-0.6796970">
        <ele>81.5</ele>
        <time>2020-12-06T07:49:35Z</time>
      </trkpt>
      <trkpt lat="38.2781870" lon="-0.6796600">
        <ele>81.5</ele>
        <time>2020-12-06T07:49:36Z</time>
      </trkpt>
      <trkpt lat="38.2781920" lon="-0.6796230">
        <ele>81.5</ele>
        <time>2020-12-06T07:49:37Z</time>
      </trkpt>
      <trkpt lat="38.2781970" lon="-0.6795870">
        <ele>81.5</ele>
        <time>2020-12-06T07:49:38Z</time>
      </trkpt>
      <trkpt lat="38.2782020" lon="-0.6795480">
        <ele>81.5</ele>
        <time>2020-12-06T07:49:39Z</time>
      </trkpt>
      <trkpt lat="38.2782100" lon="-0.6795100">
        <ele>81.5</ele>
        <time>2020-12-06T07:49:40Z</time>
      </trkpt>
      <trkpt lat="38.2782180" lon="-0.6794720">
        <ele>81.5</ele>
        <time>2020-12-06T07:49:41Z</time>
      </trkpt>
      <trkpt lat="38.2782250" lon="-0.6794350">
        <ele>81.5</ele>
        <time>2020-12-06T07:49:42Z</time>
      </trkpt>
      <trkpt lat="38.2782300" lon="-0.6793980">
        <ele>81.5</ele>
        <time>2020-12-06T07:49:43Z</time>
      </trkpt>
      <trkpt lat="38.2782370" lon="-0.6793600">
        <ele>81.5</ele>
        <time>2020-12-06T07:49:44Z</time>
      </trkpt>
      <trkpt lat="38.2782420" lon="-0.6793220">
        <ele>81.5</ele>
        <time>2020-12-06T07:49:45Z</time>
      </trkpt>
      <trkpt lat="38.2782480" lon="-0.6792870">
        <ele>81.5</ele>
        <time>2020-12-06T07:49:46Z</time>
      </trkpt>
      <trkpt lat="38.2782550" lon="-0.6792520">
        <ele>81.5</ele>
        <time>2020-12-06T07:49:47Z</time>
      </trkpt>
      <trkpt lat="38.2782630" lon="-0.6792180">
        <ele>81.5</ele>
        <time>2020-12-06T07:49:48Z</time>
      </trkpt>
      <trkpt lat="38.2782700" lon="-0.6791870">
        <ele>81.5</ele>
        <time>2020-12-06T07:49:49Z</time>
      </trkpt>
      <trkpt lat="38.2782770" lon="-0.6791520">
        <ele>81.5</ele>
        <time>2020-12-06T07:49:50Z</time>
      </trkpt>
      <trkpt lat="38.2782850" lon="-0.6791180">
        <ele>81.5</ele>
        <time>2020-12-06T07:49:51Z</time>
      </trkpt>
      <trkpt lat="38.2782950" lon="-0.6790820">
        <ele>81.5</ele>
        <time>2020-12-06T07:49:52Z</time>
      </trkpt>
      <trkpt lat="38.2783020" lon="-0.6790430">
        <ele>81.5</ele>
        <time>2020-12-06T07:49:53Z</time>
      </trkpt>
      <trkpt lat="38.2783100" lon="-0.6790050">
        <ele>81.5</ele>
        <time>2020-12-06T07:49:54Z</time>
      </trkpt>
      <trkpt lat="38.2783180" lon="-0.6789680">
        <ele>81.5</ele>
        <time>2020-12-06T07:49:55Z</time>
      </trkpt>
      <trkpt lat="38.2783250" lon="-0.6789320">
        <ele>81.5</ele>
        <time>2020-12-06T07:49:56Z</time>
      </trkpt>
      <trkpt lat="38.2783330" lon="-0.6788930">
        <ele>81.5</ele>
        <time>2020-12-06T07:49:57Z</time>
      </trkpt>
      <trkpt lat="38.2783430" lon="-0.6788550">
        <ele>81.5</ele>
        <time>2020-12-06T07:49:58Z</time>
      </trkpt>
      <trkpt lat="38.2783500" lon="-0.6788150">
        <ele>81.5</ele>
        <time>2020-12-06T07:49:59Z</time>
      </trkpt>
      <trkpt lat="38.2783570" lon="-0.6787750">
        <ele>81.5</ele>
        <time>2020-12-06T07:50:00Z</time>
      </trkpt>
      <trkpt lat="38.2783630" lon="-0.6787380">
        <ele>81.5</ele>
        <time>2020-12-06T07:50:01Z</time>
      </trkpt>
      <trkpt lat="38.2783700" lon="-0.6787020">
        <ele>81.5</ele>
        <time>2020-12-06T07:50:02Z</time>
      </trkpt>
      <trkpt lat="38.2783780" lon="-0.6786630">
        <ele>81.5</ele>
        <time>2020-12-06T07:50:03Z</time>
      </trkpt>
      <trkpt lat="38.2783870" lon="-0.6786230">
        <ele>81.5</ele>
        <time>2020-12-06T07:50:04Z</time>
      </trkpt>
      <trkpt lat="38.2783930" lon="-0.6785870">
        <ele>81.5</ele>
        <time>2020-12-06T07:50:05Z</time>
      </trkpt>
      <trkpt lat="38.2783980" lon="-0.6785500">
        <ele>81.5</ele>
        <time>2020-12-06T07:50:06Z</time>
      </trkpt>
      <trkpt lat="38.2784020" lon="-0.6785170">
        <ele>81.5</ele>
        <time>2020-12-06T07:50:07Z</time>
      </trkpt>
      <trkpt lat="38.2784070" lon="-0.6784850">
        <ele>81.5</ele>
        <time>2020-12-06T07:50:08Z</time>
      </trkpt>
      <trkpt lat="38.2784120" lon="-0.6784530">
        <ele>81.5</ele>
        <time>2020-12-06T07:50:09Z</time>
      </trkpt>
      <trkpt lat="38.2784170" lon="-0.6784180">
        <ele>81.5</ele>
        <time>2020-12-06T07:50:10Z</time>
      </trkpt>
      <trkpt lat="38.2784220" lon="-0.6783850">
        <ele>81.5</ele>
        <time>2020-12-06T07:50:11Z</time>
      </trkpt>
      <trkpt lat="38.2784280" lon="-0.6783520">
        <ele>81.5</ele>
        <time>2020-12-06T07:50:12Z</time>
      </trkpt>
      <trkpt lat="38.2784330" lon="-0.6783180">
        <ele>81.5</ele>
        <time>2020-12-06T07:50:13Z</time>
      </trkpt>
      <trkpt lat="38.2784400" lon="-0.6782880">
        <ele>81.5</ele>
        <time>2020-12-06T07:50:14Z</time>
      </trkpt>
      <trkpt lat="38.2784430" lon="-0.6782570">
        <ele>81.5</ele>
        <time>2020-12-06T07:50:15Z</time>
      </trkpt>
      <trkpt lat="38.2784480" lon="-0.6782220">
        <ele>81.5</ele>
        <time>2020-12-06T07:50:16Z</time>
      </trkpt>
      <trkpt lat="38.2784520" lon="-0.6781880">
        <ele>81.5</ele>
        <time>2020-12-06T07:50:17Z</time>
      </trkpt>
      <trkpt lat="38.2784530" lon="-0.6781520">
        <ele>81.5</ele>
        <time>2020-12-06T07:50:18Z</time>
      </trkpt>
      <trkpt lat="38.2784580" lon="-0.6781180">
        <ele>81.5</ele>
        <time>2020-12-06T07:50:19Z</time>
      </trkpt>
      <trkpt lat="38.2784630" lon="-0.6780830">
        <ele>81.5</ele>
        <time>2020-12-06T07:50:20Z</time>
      </trkpt>
      <trkpt lat="38.2784700" lon="-0.6780480">
        <ele>81.5</ele>
        <time>2020-12-06T07:50:21Z</time>
      </trkpt>
      <trkpt lat="38.2784770" lon="-0.6780130">
        <ele>81.5</ele>
        <time>2020-12-06T07:50:22Z</time>
      </trkpt>
      <trkpt lat="38.2784820" lon="-0.6779780">
        <ele>81.5</ele>
        <time>2020-12-06T07:50:23Z</time>
      </trkpt>
      <trkpt lat="38.2784870" lon="-0.6779430">
        <ele>81.5</ele>
        <time>2020-12-06T07:50:24Z</time>
      </trkpt>
      <trkpt lat="38.2784930" lon="-0.6779070">
        <ele>81.5</ele>
        <time>2020-12-06T07:50:25Z</time>
      </trkpt>
      <trkpt lat="38.2784980" lon="-0.6778700">
        <ele>81.5</ele>
        <time>2020-12-06T07:50:26Z</time>
      </trkpt>
      <trkpt lat="38.2785030" lon="-0.6778330">
        <ele>81.5</ele>
        <time>2020-12-06T07:50:27Z</time>
      </trkpt>
      <trkpt lat="38.2785100" lon="-0.6777950">
        <ele>81.5</ele>
        <time>2020-12-06T07:50:28Z</time>
      </trkpt>
      <trkpt lat="38.2785170" lon="-0.6777580">
        <ele>81.5</ele>
        <time>2020-12-06T07:50:29Z</time>
      </trkpt>
      <trkpt lat="38.2785230" lon="-0.6777230">
        <ele>81.5</ele>
        <time>2020-12-06T07:50:30Z</time>
      </trkpt>
      <trkpt lat="38.2785300" lon="-0.6776880">
        <ele>81.5</ele>
        <time>2020-12-06T07:50:31Z</time>
      </trkpt>
      <trkpt lat="38.2785370" lon="-0.6776520">
        <ele>81.5</ele>
        <time>2020-12-06T07:50:32Z</time>
      </trkpt>
      <trkpt lat="38.2785420" lon="-0.6776150">
        <ele>81.5</ele>
        <time>2020-12-06T07:50:33Z</time>
      </trkpt>
      <trkpt lat="38.2785470" lon="-0.6775800">
        <ele>81.5</ele>
        <time>2020-12-06T07:50:34Z</time>
      </trkpt>
      <trkpt lat="38.2785520" lon="-0.6775430">
        <ele>81.5</ele>
        <time>2020-12-06T07:50:35Z</time>
      </trkpt>
      <trkpt lat="38.2785580" lon="-0.6775070">
        <ele>81.5</ele>
        <time>2020-12-06T07:50:36Z</time>
      </trkpt>
      <trkpt lat="38.2785650" lon="-0.6774720">
        <ele>81.5</ele>
        <time>2020-12-06T07:50:37Z</time>
      </trkpt>
      <trkpt lat="38.2785730" lon="-0.6774370">
        <ele>81.5</ele>
        <time>2020-12-06T07:50:38Z</time>
      </trkpt>
      <trkpt lat="38.2785820" lon="-0.6774000">
        <ele>81.5</ele>
        <time>2020-12-06T07:50:39Z</time>
      </trkpt>
      <trkpt lat="38.2785880" lon="-0.6773630">
        <ele>81.5</ele>
        <time>2020-12-06T07:50:40Z</time>
      </trkpt>
      <trkpt lat="38.2785970" lon="-0.6773280">
        <ele>81.5</ele>
        <time>2020-12-06T07:50:41Z</time>
      </trkpt>
      <trkpt lat="38.2786030" lon="-0.6772930">
        <ele>81.5</ele>
        <time>2020-12-06T07:50:42Z</time>
      </trkpt>
      <trkpt lat="38.2786100" lon="-0.6772620">
        <ele>81.5</ele>
        <time>2020-12-06T07:50:43Z</time>
      </trkpt>
      <trkpt lat="38.2786150" lon="-0.6772300">
        <ele>82.6</ele>
        <time>2020-12-06T07:50:44Z</time>
      </trkpt>
      <trkpt lat="38.2786230" lon="-0.6772000">
        <ele>82.6</ele>
        <time>2020-12-06T07:50:45Z</time>
      </trkpt>
      <trkpt lat="38.2786280" lon="-0.6771670">
        <ele>82.6</ele>
        <time>2020-12-06T07:50:46Z</time>
      </trkpt>
      <trkpt lat="38.2786330" lon="-0.6771330">
        <ele>82.6</ele>
        <time>2020-12-06T07:50:47Z</time>
      </trkpt>
      <trkpt lat="38.2786370" lon="-0.6770980">
        <ele>82.6</ele>
        <time>2020-12-06T07:50:48Z</time>
      </trkpt>
      <trkpt lat="38.2786420" lon="-0.6770650">
        <ele>82.6</ele>
        <time>2020-12-06T07:50:49Z</time>
      </trkpt>
      <trkpt lat="38.2786470" lon="-0.6770280">
        <ele>82.6</ele>
        <time>2020-12-06T07:50:50Z</time>
      </trkpt>
      <trkpt lat="38.2786550" lon="-0.6769950">
        <ele>82.6</ele>
        <time>2020-12-06T07:50:51Z</time>
      </trkpt>
      <trkpt lat="38.2786620" lon="-0.6769620">
        <ele>82.6</ele>
        <time>2020-12-06T07:50:52Z</time>
      </trkpt>
      <trkpt lat="38.2786680" lon="-0.6769270">
        <ele>82.6</ele>
        <time>2020-12-06T07:50:53Z</time>
      </trkpt>
      <trkpt lat="38.2786750" lon="-0.6768900">
        <ele>82.6</ele>
        <time>2020-12-06T07:50:54Z</time>
      </trkpt>
      <trkpt lat="38.2786780" lon="-0.6768530">
        <ele>82.6</ele>
        <time>2020-12-06T07:50:55Z</time>
      </trkpt>
      <trkpt lat="38.2786830" lon="-0.6768180">
        <ele>82.6</ele>
        <time>2020-12-06T07:50:56Z</time>
      </trkpt>
      <trkpt lat="38.2786880" lon="-0.6767850">
        <ele>82.6</ele>
        <time>2020-12-06T07:50:57Z</time>
      </trkpt>
      <trkpt lat="38.2786930" lon="-0.6767520">
        <ele>82.6</ele>
        <time>2020-12-06T07:50:58Z</time>
      </trkpt>
      <trkpt lat="38.2786980" lon="-0.6767200">
        <ele>82.6</ele>
        <time>2020-12-06T07:50:59Z</time>
      </trkpt>
      <trkpt lat="38.2787050" lon="-0.6766900">
        <ele>82.6</ele>
        <time>2020-12-06T07:51:00Z</time>
      </trkpt>
      <trkpt lat="38.2787100" lon="-0.6766580">
        <ele>82.6</ele>
        <time>2020-12-06T07:51:01Z</time>
      </trkpt>
      <trkpt lat="38.2787150" lon="-0.6766280">
        <ele>82.6</ele>
        <time>2020-12-06T07:51:02Z</time>
      </trkpt>
      <trkpt lat="38.2787180" lon="-0.6765930">
        <ele>82.6</ele>
        <time>2020-12-06T07:51:03Z</time>
      </trkpt>
      <trkpt lat="38.2787230" lon="-0.6765600">
        <ele>82.6</ele>
        <time>2020-12-06T07:51:04Z</time>
      </trkpt>
      <trkpt lat="38.2787280" lon="-0.6765270">
        <ele>82.6</ele>
        <time>2020-12-06T07:51:05Z</time>
      </trkpt>
      <trkpt lat="38.2787330" lon="-0.6764930">
        <ele>83.5</ele>
        <time>2020-12-06T07:51:06Z</time>
      </trkpt>
      <trkpt lat="38.2787380" lon="-0.6764600">
        <ele>83.5</ele>
        <time>2020-12-06T07:51:07Z</time>
      </trkpt>
      <trkpt lat="38.2787450" lon="-0.6764250">
        <ele>83.5</ele>
        <time>2020-12-06T07:51:08Z</time>
      </trkpt>
      <trkpt lat="38.2787520" lon="-0.6763880">
        <ele>83.5</ele>
        <time>2020-12-06T07:51:09Z</time>
      </trkpt>
      <trkpt lat="38.2787580" lon="-0.6763550">
        <ele>83.5</ele>
        <time>2020-12-06T07:51:10Z</time>
      </trkpt>
      <trkpt lat="38.2787630" lon="-0.6763200">
        <ele>83.5</ele>
        <time>2020-12-06T07:51:11Z</time>
      </trkpt>
      <trkpt lat="38.2787700" lon="-0.6762870">
        <ele>83.5</ele>
        <time>2020-12-06T07:51:12Z</time>
      </trkpt>
      <trkpt lat="38.2787750" lon="-0.6762520">
        <ele>83.5</ele>
        <time>2020-12-06T07:51:13Z</time>
      </trkpt>
      <trkpt lat="38.2787800" lon="-0.6762150">
        <ele>83.5</ele>
        <time>2020-12-06T07:51:14Z</time>
      </trkpt>
      <trkpt lat="38.2787870" lon="-0.6761780">
        <ele>83.5</ele>
        <time>2020-12-06T07:51:15Z</time>
      </trkpt>
      <trkpt lat="38.2787930" lon="-0.6761470">
        <ele>83.5</ele>
        <time>2020-12-06T07:51:16Z</time>
      </trkpt>
      <trkpt lat="38.2788000" lon="-0.6761150">
        <ele>83.5</ele>
        <time>2020-12-06T07:51:17Z</time>
      </trkpt>
      <trkpt lat="38.2788080" lon="-0.6760830">
        <ele>83.5</ele>
        <time>2020-12-06T07:51:18Z</time>
      </trkpt>
      <trkpt lat="38.2788130" lon="-0.6760520">
        <ele>83.5</ele>
        <time>2020-12-06T07:51:19Z</time>
      </trkpt>
      <trkpt lat="38.2788200" lon="-0.6760180">
        <ele>83.5</ele>
        <time>2020-12-06T07:51:20Z</time>
      </trkpt>
      <trkpt lat="38.2788270" lon="-0.6759850">
        <ele>83.5</ele>
        <time>2020-12-06T07:51:21Z</time>
      </trkpt>
      <trkpt lat="38.2788330" lon="-0.6759520">
        <ele>83.5</ele>
        <time>2020-12-06T07:51:22Z</time>
      </trkpt>
      <trkpt lat="38.2788400" lon="-0.6759170">
        <ele>83.5</ele>
        <time>2020-12-06T07:51:23Z</time>
      </trkpt>
      <trkpt lat="38.2788480" lon="-0.6758830">
        <ele>83.5</ele>
        <time>2020-12-06T07:51:24Z</time>
      </trkpt>
      <trkpt lat="38.2788570" lon="-0.6758500">
        <ele>83.5</ele>
        <time>2020-12-06T07:51:25Z</time>
      </trkpt>
      <trkpt lat="38.2788650" lon="-0.6758180">
        <ele>83.5</ele>
        <time>2020-12-06T07:51:26Z</time>
      </trkpt>
      <trkpt lat="38.2788730" lon="-0.6757870">
        <ele>83.5</ele>
        <time>2020-12-06T07:51:27Z</time>
      </trkpt>
      <trkpt lat="38.2788800" lon="-0.6757550">
        <ele>83.5</ele>
        <time>2020-12-06T07:51:28Z</time>
      </trkpt>
      <trkpt lat="38.2788870" lon="-0.6757220">
        <ele>83.5</ele>
        <time>2020-12-06T07:51:29Z</time>
      </trkpt>
      <trkpt lat="38.2788950" lon="-0.6756880">
        <ele>83.5</ele>
        <time>2020-12-06T07:51:30Z</time>
      </trkpt>
      <trkpt lat="38.2789020" lon="-0.6756550">
        <ele>83.5</ele>
        <time>2020-12-06T07:51:31Z</time>
      </trkpt>
      <trkpt lat="38.2789070" lon="-0.6756180">
        <ele>83.5</ele>
        <time>2020-12-06T07:51:32Z</time>
      </trkpt>
      <trkpt lat="38.2789120" lon="-0.6755830">
        <ele>83.5</ele>
        <time>2020-12-06T07:51:33Z</time>
      </trkpt>
      <trkpt lat="38.2789180" lon="-0.6755470">
        <ele>83.5</ele>
        <time>2020-12-06T07:51:34Z</time>
      </trkpt>
      <trkpt lat="38.2789230" lon="-0.6755100">
        <ele>83.5</ele>
        <time>2020-12-06T07:51:35Z</time>
      </trkpt>
      <trkpt lat="38.2789300" lon="-0.6754750">
        <ele>83.5</ele>
        <time>2020-12-06T07:51:36Z</time>
      </trkpt>
      <trkpt lat="38.2789350" lon="-0.6754380">
        <ele>83.5</ele>
        <time>2020-12-06T07:51:37Z</time>
      </trkpt>
      <trkpt lat="38.2789380" lon="-0.6754020">
        <ele>83.5</ele>
        <time>2020-12-06T07:51:38Z</time>
      </trkpt>
      <trkpt lat="38.2789420" lon="-0.6753650">
        <ele>83.5</ele>
        <time>2020-12-06T07:51:39Z</time>
      </trkpt>
      <trkpt lat="38.2789480" lon="-0.6753280">
        <ele>83.5</ele>
        <time>2020-12-06T07:51:40Z</time>
      </trkpt>
      <trkpt lat="38.2789530" lon="-0.6752920">
        <ele>83.5</ele>
        <time>2020-12-06T07:51:41Z</time>
      </trkpt>
      <trkpt lat="38.2789600" lon="-0.6752550">
        <ele>83.5</ele>
        <time>2020-12-06T07:51:42Z</time>
      </trkpt>
      <trkpt lat="38.2789670" lon="-0.6752170">
        <ele>83.5</ele>
        <time>2020-12-06T07:51:43Z</time>
      </trkpt>
      <trkpt lat="38.2789730" lon="-0.6751800">
        <ele>83.5</ele>
        <time>2020-12-06T07:51:44Z</time>
      </trkpt>
      <trkpt lat="38.2789800" lon="-0.6751420">
        <ele>83.5</ele>
        <time>2020-12-06T07:51:45Z</time>
      </trkpt>
      <trkpt lat="38.2789870" lon="-0.6751030">
        <ele>83.5</ele>
        <time>2020-12-06T07:51:46Z</time>
      </trkpt>
      <trkpt lat="38.2789920" lon="-0.6750630">
        <ele>83.5</ele>
        <time>2020-12-06T07:51:47Z</time>
      </trkpt>
      <trkpt lat="38.2789970" lon="-0.6750230">
        <ele>83.5</ele>
        <time>2020-12-06T07:51:48Z</time>
      </trkpt>
      <trkpt lat="38.2790030" lon="-0.6749850">
        <ele>83.5</ele>
        <time>2020-12-06T07:51:49Z</time>
      </trkpt>
      <trkpt lat="38.2790100" lon="-0.6749450">
        <ele>83.5</ele>
        <time>2020-12-06T07:51:50Z</time>
      </trkpt>
      <trkpt lat="38.2790170" lon="-0.6749050">
        <ele>83.5</ele>
        <time>2020-12-06T07:51:51Z</time>
      </trkpt>
      <trkpt lat="38.2790230" lon="-0.6748680">
        <ele>83.5</ele>
        <time>2020-12-06T07:51:52Z</time>
      </trkpt>
      <trkpt lat="38.2790300" lon="-0.6748300">
        <ele>83.5</ele>
        <time>2020-12-06T07:51:53Z</time>
      </trkpt>
      <trkpt lat="38.2790350" lon="-0.6747950">
        <ele>83.5</ele>
        <time>2020-12-06T07:51:54Z</time>
      </trkpt>
      <trkpt lat="38.2790400" lon="-0.6747600">
        <ele>83.5</ele>
        <time>2020-12-06T07:51:55Z</time>
      </trkpt>
      <trkpt lat="38.2790450" lon="-0.6747270">
        <ele>84.6</ele>
        <time>2020-12-06T07:51:56Z</time>
      </trkpt>
      <trkpt lat="38.2790520" lon="-0.6746930">
        <ele>84.6</ele>
        <time>2020-12-06T07:51:57Z</time>
      </trkpt>
      <trkpt lat="38.2790570" lon="-0.6746580">
        <ele>84.6</ele>
        <time>2020-12-06T07:51:58Z</time>
      </trkpt>
      <trkpt lat="38.2790630" lon="-0.6746220">
        <ele>84.6</ele>
        <time>2020-12-06T07:51:59Z</time>
      </trkpt>
      <trkpt lat="38.2790720" lon="-0.6745850">
        <ele>84.6</ele>
        <time>2020-12-06T07:52:00Z</time>
      </trkpt>
      <trkpt lat="38.2790780" lon="-0.6745520">
        <ele>84.6</ele>
        <time>2020-12-06T07:52:01Z</time>
      </trkpt>
      <trkpt lat="38.2790850" lon="-0.6745150">
        <ele>84.6</ele>
        <time>2020-12-06T07:52:02Z</time>
      </trkpt>
      <trkpt lat="38.2790930" lon="-0.6744780">
        <ele>84.6</ele>
        <time>2020-12-06T07:52:03Z</time>
      </trkpt>
      <trkpt lat="38.2791020" lon="-0.6744430">
        <ele>84.6</ele>
        <time>2020-12-06T07:52:04Z</time>
      </trkpt>
      <trkpt lat="38.2791100" lon="-0.6744070">
        <ele>84.6</ele>
        <time>2020-12-06T07:52:05Z</time>
      </trkpt>
      <trkpt lat="38.2791180" lon="-0.6743720">
        <ele>84.6</ele>
        <time>2020-12-06T07:52:06Z</time>
      </trkpt>
      <trkpt lat="38.2791250" lon="-0.6743350">
        <ele>84.6</ele>
        <time>2020-12-06T07:52:07Z</time>
      </trkpt>
      <trkpt lat="38.2791320" lon="-0.6743020">
        <ele>84.6</ele>
        <time>2020-12-06T07:52:08Z</time>
      </trkpt>
      <trkpt lat="38.2791370" lon="-0.6742700">
        <ele>84.6</ele>
        <time>2020-12-06T07:52:09Z</time>
      </trkpt>
      <trkpt lat="38.2791380" lon="-0.6742380">
        <ele>84.6</ele>
        <time>2020-12-06T07:52:10Z</time>
      </trkpt>
      <trkpt lat="38.2791400" lon="-0.6742030">
        <ele>84.6</ele>
        <time>2020-12-06T07:52:11Z</time>
      </trkpt>
      <trkpt lat="38.2791450" lon="-0.6741700">
        <ele>84.6</ele>
        <time>2020-12-06T07:52:12Z</time>
      </trkpt>
      <trkpt lat="38.2791500" lon="-0.6741370">
        <ele>84.6</ele>
        <time>2020-12-06T07:52:13Z</time>
      </trkpt>
      <trkpt lat="38.2791550" lon="-0.6741000">
        <ele>84.6</ele>
        <time>2020-12-06T07:52:14Z</time>
      </trkpt>
      <trkpt lat="38.2791600" lon="-0.6740650">
        <ele>84.6</ele>
        <time>2020-12-06T07:52:15Z</time>
      </trkpt>
      <trkpt lat="38.2791630" lon="-0.6740300">
        <ele>84.6</ele>
        <time>2020-12-06T07:52:16Z</time>
      </trkpt>
      <trkpt lat="38.2791680" lon="-0.6739970">
        <ele>84.6</ele>
        <time>2020-12-06T07:52:17Z</time>
      </trkpt>
      <trkpt lat="38.2791730" lon="-0.6739630">
        <ele>84.6</ele>
        <time>2020-12-06T07:52:18Z</time>
      </trkpt>
      <trkpt lat="38.2791800" lon="-0.6739330">
        <ele>84.6</ele>
        <time>2020-12-06T07:52:19Z</time>
      </trkpt>
      <trkpt lat="38.2791870" lon="-0.6739020">
        <ele>84.6</ele>
        <time>2020-12-06T07:52:20Z</time>
      </trkpt>
      <trkpt lat="38.2791900" lon="-0.6738670">
        <ele>84.6</ele>
        <time>2020-12-06T07:52:21Z</time>
      </trkpt>
      <trkpt lat="38.2791930" lon="-0.6738330">
        <ele>84.6</ele>
        <time>2020-12-06T07:52:22Z</time>
      </trkpt>
      <trkpt lat="38.2792000" lon="-0.6737980">
        <ele>84.6</ele>
        <time>2020-12-06T07:52:23Z</time>
      </trkpt>
      <trkpt lat="38.2792070" lon="-0.6737630">
        <ele>84.6</ele>
        <time>2020-12-06T07:52:24Z</time>
      </trkpt>
      <trkpt lat="38.2792130" lon="-0.6737270">
        <ele>84.6</ele>
        <time>2020-12-06T07:52:25Z</time>
      </trkpt>
      <trkpt lat="38.2792200" lon="-0.6736880">
        <ele>84.6</ele>
        <time>2020-12-06T07:52:26Z</time>
      </trkpt>
      <trkpt lat="38.2792270" lon="-0.6736500">
        <ele>84.6</ele>
        <time>2020-12-06T07:52:27Z</time>
      </trkpt>
      <trkpt lat="38.2792320" lon="-0.6736100">
        <ele>84.6</ele>
        <time>2020-12-06T07:52:28Z</time>
      </trkpt>
      <trkpt lat="38.2792380" lon="-0.6735720">
        <ele>84.6</ele>
        <time>2020-12-06T07:52:29Z</time>
      </trkpt>
      <trkpt lat="38.2792470" lon="-0.6735330">
        <ele>84.6</ele>
        <time>2020-12-06T07:52:30Z</time>
      </trkpt>
      <trkpt lat="38.2792570" lon="-0.6734930">
        <ele>84.6</ele>
        <time>2020-12-06T07:52:31Z</time>
      </trkpt>
      <trkpt lat="38.2792630" lon="-0.6734520">
        <ele>85.5</ele>
        <time>2020-12-06T07:52:32Z</time>
      </trkpt>
      <trkpt lat="38.2792720" lon="-0.6734120">
        <ele>85.5</ele>
        <time>2020-12-06T07:52:33Z</time>
      </trkpt>
      <trkpt lat="38.2792820" lon="-0.6733700">
        <ele>85.5</ele>
        <time>2020-12-06T07:52:34Z</time>
      </trkpt>
      <trkpt lat="38.2792900" lon="-0.6733300">
        <ele>85.5</ele>
        <time>2020-12-06T07:52:35Z</time>
      </trkpt>
      <trkpt lat="38.2792970" lon="-0.6732880">
        <ele>85.5</ele>
        <time>2020-12-06T07:52:36Z</time>
      </trkpt>
      <trkpt lat="38.2793030" lon="-0.6732470">
        <ele>85.5</ele>
        <time>2020-12-06T07:52:37Z</time>
      </trkpt>
      <trkpt lat="38.2793100" lon="-0.6732050">
        <ele>85.5</ele>
        <time>2020-12-06T07:52:38Z</time>
      </trkpt>
      <trkpt lat="38.2793150" lon="-0.6731620">
        <ele>85.5</ele>
        <time>2020-12-06T07:52:39Z</time>
      </trkpt>
      <trkpt lat="38.2793220" lon="-0.6731200">
        <ele>83.5</ele>
        <time>2020-12-06T07:52:40Z</time>
      </trkpt>
      <trkpt lat="38.2793280" lon="-0.6730780">
        <ele>83.5</ele>
        <time>2020-12-06T07:52:41Z</time>
      </trkpt>
      <trkpt lat="38.2793350" lon="-0.6730350">
        <ele>83.5</ele>
        <time>2020-12-06T07:52:42Z</time>
      </trkpt>
      <trkpt lat="38.2793430" lon="-0.6729930">
        <ele>83.5</ele>
        <time>2020-12-06T07:52:43Z</time>
      </trkpt>
      <trkpt lat="38.2793480" lon="-0.6729520">
        <ele>83.5</ele>
        <time>2020-12-06T07:52:44Z</time>
      </trkpt>
      <trkpt lat="38.2793550" lon="-0.6729080">
        <ele>83.5</ele>
        <time>2020-12-06T07:52:45Z</time>
      </trkpt>
      <trkpt lat="38.2793630" lon="-0.6728670">
        <ele>83.5</ele>
        <time>2020-12-06T07:52:46Z</time>
      </trkpt>
      <trkpt lat="38.2793720" lon="-0.6728230">
        <ele>83.5</ele>
        <time>2020-12-06T07:52:47Z</time>
      </trkpt>
      <trkpt lat="38.2793800" lon="-0.6727820">
        <ele>83.5</ele>
        <time>2020-12-06T07:52:48Z</time>
      </trkpt>
      <trkpt lat="38.2793900" lon="-0.6727370">
        <ele>83.5</ele>
        <time>2020-12-06T07:52:49Z</time>
      </trkpt>
      <trkpt lat="38.2793970" lon="-0.6726950">
        <ele>83.5</ele>
        <time>2020-12-06T07:52:50Z</time>
      </trkpt>
      <trkpt lat="38.2794020" lon="-0.6726550">
        <ele>83.5</ele>
        <time>2020-12-06T07:52:51Z</time>
      </trkpt>
      <trkpt lat="38.2794070" lon="-0.6726150">
        <ele>83.5</ele>
        <time>2020-12-06T07:52:52Z</time>
      </trkpt>
      <trkpt lat="38.2794120" lon="-0.6725750">
        <ele>83.5</ele>
        <time>2020-12-06T07:52:53Z</time>
      </trkpt>
      <trkpt lat="38.2794180" lon="-0.6725330">
        <ele>83.5</ele>
        <time>2020-12-06T07:52:54Z</time>
      </trkpt>
      <trkpt lat="38.2794250" lon="-0.6724900">
        <ele>83.5</ele>
        <time>2020-12-06T07:52:55Z</time>
      </trkpt>
      <trkpt lat="38.2794330" lon="-0.6724480">
        <ele>83.5</ele>
        <time>2020-12-06T07:52:56Z</time>
      </trkpt>
      <trkpt lat="38.2794420" lon="-0.6724070">
        <ele>83.5</ele>
        <time>2020-12-06T07:52:57Z</time>
      </trkpt>
      <trkpt lat="38.2794500" lon="-0.6723630">
        <ele>83.5</ele>
        <time>2020-12-06T07:52:58Z</time>
      </trkpt>
      <trkpt lat="38.2794570" lon="-0.6723180">
        <ele>83.5</ele>
        <time>2020-12-06T07:52:59Z</time>
      </trkpt>
      <trkpt lat="38.2794630" lon="-0.6722730">
        <ele>83.5</ele>
        <time>2020-12-06T07:53:00Z</time>
      </trkpt>
      <trkpt lat="38.2794680" lon="-0.6722300">
        <ele>83.5</ele>
        <time>2020-12-06T07:53:01Z</time>
      </trkpt>
      <trkpt lat="38.2794750" lon="-0.6721850">
        <ele>83.5</ele>
        <time>2020-12-06T07:53:02Z</time>
      </trkpt>
      <trkpt lat="38.2794800" lon="-0.6721420">
        <ele>83.5</ele>
        <time>2020-12-06T07:53:03Z</time>
      </trkpt>
      <trkpt lat="38.2794870" lon="-0.6720980">
        <ele>83.5</ele>
        <time>2020-12-06T07:53:04Z</time>
      </trkpt>
      <trkpt lat="38.2794900" lon="-0.6720530">
        <ele>83.5</ele>
        <time>2020-12-06T07:53:05Z</time>
      </trkpt>
      <trkpt lat="38.2794950" lon="-0.6720120">
        <ele>83.5</ele>
        <time>2020-12-06T07:53:06Z</time>
      </trkpt>
      <trkpt lat="38.2795020" lon="-0.6719680">
        <ele>83.5</ele>
        <time>2020-12-06T07:53:07Z</time>
      </trkpt>
      <trkpt lat="38.2795080" lon="-0.6719270">
        <ele>83.5</ele>
        <time>2020-12-06T07:53:08Z</time>
      </trkpt>
      <trkpt lat="38.2795150" lon="-0.6718870">
        <ele>83.5</ele>
        <time>2020-12-06T07:53:09Z</time>
      </trkpt>
      <trkpt lat="38.2795220" lon="-0.6718470">
        <ele>83.5</ele>
        <time>2020-12-06T07:53:10Z</time>
      </trkpt>
      <trkpt lat="38.2795280" lon="-0.6718050">
        <ele>83.5</ele>
        <time>2020-12-06T07:53:11Z</time>
      </trkpt>
      <trkpt lat="38.2795350" lon="-0.6717650">
        <ele>83.5</ele>
        <time>2020-12-06T07:53:12Z</time>
      </trkpt>
      <trkpt lat="38.2795420" lon="-0.6717270">
        <ele>83.5</ele>
        <time>2020-12-06T07:53:13Z</time>
      </trkpt>
      <trkpt lat="38.2795480" lon="-0.6716880">
        <ele>83.5</ele>
        <time>2020-12-06T07:53:14Z</time>
      </trkpt>
      <trkpt lat="38.2795530" lon="-0.6716480">
        <ele>83.5</ele>
        <time>2020-12-06T07:53:15Z</time>
      </trkpt>
      <trkpt lat="38.2795600" lon="-0.6716100">
        <ele>83.5</ele>
        <time>2020-12-06T07:53:16Z</time>
      </trkpt>
      <trkpt lat="38.2795670" lon="-0.6715720">
        <ele>83.5</ele>
        <time>2020-12-06T07:53:17Z</time>
      </trkpt>
      <trkpt lat="38.2795730" lon="-0.6715330">
        <ele>83.5</ele>
        <time>2020-12-06T07:53:18Z</time>
      </trkpt>
      <trkpt lat="38.2795820" lon="-0.6714950">
        <ele>83.5</ele>
        <time>2020-12-06T07:53:19Z</time>
      </trkpt>
      <trkpt lat="38.2795880" lon="-0.6714570">
        <ele>83.5</ele>
        <time>2020-12-06T07:53:20Z</time>
      </trkpt>
      <trkpt lat="38.2795950" lon="-0.6714200">
        <ele>83.5</ele>
        <time>2020-12-06T07:53:21Z</time>
      </trkpt>
      <trkpt lat="38.2796020" lon="-0.6713820">
        <ele>83.5</ele>
        <time>2020-12-06T07:53:22Z</time>
      </trkpt>
      <trkpt lat="38.2796080" lon="-0.6713450">
        <ele>83.5</ele>
        <time>2020-12-06T07:53:23Z</time>
      </trkpt>
      <trkpt lat="38.2796150" lon="-0.6713080">
        <ele>83.5</ele>
        <time>2020-12-06T07:53:24Z</time>
      </trkpt>
      <trkpt lat="38.2796220" lon="-0.6712720">
        <ele>83.5</ele>
        <time>2020-12-06T07:53:25Z</time>
      </trkpt>
      <trkpt lat="38.2796300" lon="-0.6712370">
        <ele>83.5</ele>
        <time>2020-12-06T07:53:26Z</time>
      </trkpt>
      <trkpt lat="38.2796380" lon="-0.6711980">
        <ele>83.5</ele>
        <time>2020-12-06T07:53:27Z</time>
      </trkpt>
      <trkpt lat="38.2796470" lon="-0.6711580">
        <ele>83.5</ele>
        <time>2020-12-06T07:53:28Z</time>
      </trkpt>
      <trkpt lat="38.2796530" lon="-0.6711170">
        <ele>83.5</ele>
        <time>2020-12-06T07:53:29Z</time>
      </trkpt>
      <trkpt lat="38.2796600" lon="-0.6710730">
        <ele>83.5</ele>
        <time>2020-12-06T07:53:30Z</time>
      </trkpt>
      <trkpt lat="38.2796670" lon="-0.6710320">
        <ele>83.5</ele>
        <time>2020-12-06T07:53:31Z</time>
      </trkpt>
      <trkpt lat="38.2796720" lon="-0.6709920">
        <ele>83.5</ele>
        <time>2020-12-06T07:53:32Z</time>
      </trkpt>
      <trkpt lat="38.2796780" lon="-0.6709570">
        <ele>83.5</ele>
        <time>2020-12-06T07:53:33Z</time>
      </trkpt>
      <trkpt lat="38.2796830" lon="-0.6709200">
        <ele>83.5</ele>
        <time>2020-12-06T07:53:34Z</time>
      </trkpt>
      <trkpt lat="38.2796900" lon="-0.6708870">
        <ele>83.5</ele>
        <time>2020-12-06T07:53:35Z</time>
      </trkpt>
      <trkpt lat="38.2796950" lon="-0.6708520">
        <ele>83.5</ele>
        <time>2020-12-06T07:53:36Z</time>
      </trkpt>
      <trkpt lat="38.2797000" lon="-0.6708170">
        <ele>83.5</ele>
        <time>2020-12-06T07:53:37Z</time>
      </trkpt>
      <trkpt lat="38.2797050" lon="-0.6707800">
        <ele>83.5</ele>
        <time>2020-12-06T07:53:38Z</time>
      </trkpt>
      <trkpt lat="38.2797100" lon="-0.6707430">
        <ele>83.5</ele>
        <time>2020-12-06T07:53:39Z</time>
      </trkpt>
      <trkpt lat="38.2797170" lon="-0.6707050">
        <ele>83.5</ele>
        <time>2020-12-06T07:53:40Z</time>
      </trkpt>
      <trkpt lat="38.2797270" lon="-0.6706650">
        <ele>83.5</ele>
        <time>2020-12-06T07:53:41Z</time>
      </trkpt>
      <trkpt lat="38.2797350" lon="-0.6706250">
        <ele>83.5</ele>
        <time>2020-12-06T07:53:42Z</time>
      </trkpt>
      <trkpt lat="38.2797450" lon="-0.6705850">
        <ele>83.5</ele>
        <time>2020-12-06T07:53:43Z</time>
      </trkpt>
      <trkpt lat="38.2797550" lon="-0.6705470">
        <ele>83.5</ele>
        <time>2020-12-06T07:53:44Z</time>
      </trkpt>
      <trkpt lat="38.2797620" lon="-0.6705100">
        <ele>83.5</ele>
        <time>2020-12-06T07:53:45Z</time>
      </trkpt>
      <trkpt lat="38.2797700" lon="-0.6704720">
        <ele>83.5</ele>
        <time>2020-12-06T07:53:46Z</time>
      </trkpt>
      <trkpt lat="38.2797780" lon="-0.6704330">
        <ele>83.5</ele>
        <time>2020-12-06T07:53:47Z</time>
      </trkpt>
      <trkpt lat="38.2797870" lon="-0.6703970">
        <ele>83.5</ele>
        <time>2020-12-06T07:53:48Z</time>
      </trkpt>
      <trkpt lat="38.2797930" lon="-0.6703600">
        <ele>83.5</ele>
        <time>2020-12-06T07:53:49Z</time>
      </trkpt>
      <trkpt lat="38.2798020" lon="-0.6703230">
        <ele>83.5</ele>
        <time>2020-12-06T07:53:50Z</time>
      </trkpt>
      <trkpt lat="38.2798080" lon="-0.6702870">
        <ele>83.5</ele>
        <time>2020-12-06T07:53:51Z</time>
      </trkpt>
      <trkpt lat="38.2798150" lon="-0.6702520">
        <ele>83.5</ele>
        <time>2020-12-06T07:53:52Z</time>
      </trkpt>
      <trkpt lat="38.2798220" lon="-0.6702130">
        <ele>83.5</ele>
        <time>2020-12-06T07:53:53Z</time>
      </trkpt>
      <trkpt lat="38.2798300" lon="-0.6701750">
        <ele>83.5</ele>
        <time>2020-12-06T07:53:54Z</time>
      </trkpt>
      <trkpt lat="38.2798400" lon="-0.6701370">
        <ele>83.5</ele>
        <time>2020-12-06T07:53:55Z</time>
      </trkpt>
      <trkpt lat="38.2798480" lon="-0.6700970">
        <ele>83.5</ele>
        <time>2020-12-06T07:53:56Z</time>
      </trkpt>
      <trkpt lat="38.2798550" lon="-0.6700570">
        <ele>83.5</ele>
        <time>2020-12-06T07:53:57Z</time>
      </trkpt>
      <trkpt lat="38.2798600" lon="-0.6700170">
        <ele>83.5</ele>
        <time>2020-12-06T07:53:58Z</time>
      </trkpt>
      <trkpt lat="38.2798650" lon="-0.6699750">
        <ele>83.5</ele>
        <time>2020-12-06T07:53:59Z</time>
      </trkpt>
      <trkpt lat="38.2798700" lon="-0.6699330">
        <ele>83.5</ele>
        <time>2020-12-06T07:54:00Z</time>
      </trkpt>
      <trkpt lat="38.2798750" lon="-0.6698920">
        <ele>83.5</ele>
        <time>2020-12-06T07:54:01Z</time>
      </trkpt>
      <trkpt lat="38.2798800" lon="-0.6698500">
        <ele>83.5</ele>
        <time>2020-12-06T07:54:02Z</time>
      </trkpt>
      <trkpt lat="38.2798850" lon="-0.6698100">
        <ele>83.5</ele>
        <time>2020-12-06T07:54:03Z</time>
      </trkpt>
      <trkpt lat="38.2798880" lon="-0.6697720">
        <ele>83.5</ele>
        <time>2020-12-06T07:54:04Z</time>
      </trkpt>
      <trkpt lat="38.2798930" lon="-0.6697330">
        <ele>83.5</ele>
        <time>2020-12-06T07:54:05Z</time>
      </trkpt>
      <trkpt lat="38.2799000" lon="-0.6696970">
        <ele>83.5</ele>
        <time>2020-12-06T07:54:06Z</time>
      </trkpt>
      <trkpt lat="38.2799050" lon="-0.6696620">
        <ele>83.5</ele>
        <time>2020-12-06T07:54:07Z</time>
      </trkpt>
      <trkpt lat="38.2799080" lon="-0.6696280">
        <ele>83.5</ele>
        <time>2020-12-06T07:54:08Z</time>
      </trkpt>
      <trkpt lat="38.2799130" lon="-0.6695950">
        <ele>83.5</ele>
        <time>2020-12-06T07:54:09Z</time>
      </trkpt>
      <trkpt lat="38.2799150" lon="-0.6695600">
        <ele>83.5</ele>
        <time>2020-12-06T07:54:10Z</time>
      </trkpt>
      <trkpt lat="38.2799200" lon="-0.6695270">
        <ele>83.5</ele>
        <time>2020-12-06T07:54:11Z</time>
      </trkpt>
      <trkpt lat="38.2799250" lon="-0.6694930">
        <ele>83.5</ele>
        <time>2020-12-06T07:54:12Z</time>
      </trkpt>
      <trkpt lat="38.2799320" lon="-0.6694580">
        <ele>83.5</ele>
        <time>2020-12-06T07:54:13Z</time>
      </trkpt>
      <trkpt lat="38.2799380" lon="-0.6694250">
        <ele>83.5</ele>
        <time>2020-12-06T07:54:14Z</time>
      </trkpt>
      <trkpt lat="38.2799450" lon="-0.6693920">
        <ele>83.5</ele>
        <time>2020-12-06T07:54:15Z</time>
      </trkpt>
      <trkpt lat="38.2799500" lon="-0.6693580">
        <ele>83.5</ele>
        <time>2020-12-06T07:54:16Z</time>
      </trkpt>
      <trkpt lat="38.2799570" lon="-0.6693250">
        <ele>83.5</ele>
        <time>2020-12-06T07:54:17Z</time>
      </trkpt>
      <trkpt lat="38.2799600" lon="-0.6692920">
        <ele>83.5</ele>
        <time>2020-12-06T07:54:18Z</time>
      </trkpt>
      <trkpt lat="38.2799630" lon="-0.6692580">
        <ele>83.5</ele>
        <time>2020-12-06T07:54:19Z</time>
      </trkpt>
      <trkpt lat="38.2799670" lon="-0.6692250">
        <ele>83.5</ele>
        <time>2020-12-06T07:54:20Z</time>
      </trkpt>
      <trkpt lat="38.2799700" lon="-0.6691930">
        <ele>83.5</ele>
        <time>2020-12-06T07:54:21Z</time>
      </trkpt>
      <trkpt lat="38.2799720" lon="-0.6691750">
        <ele>83.5</ele>
        <time>2020-12-06T07:54:22Z</time>
      </trkpt>
      <trkpt lat="38.2799700" lon="-0.6691680">
        <ele>83.5</ele>
        <time>2020-12-06T07:54:23Z</time>
      </trkpt>
      <trkpt lat="38.2798900" lon="-0.6691650">
        <ele>94.0</ele>
        <time>2020-12-06T07:57:02Z</time>
      </trkpt>
      <trkpt lat="38.2798800" lon="-0.6692100">
        <ele>94.0</ele>
        <time>2020-12-06T07:57:03Z</time>
      </trkpt>
      <trkpt lat="38.2798750" lon="-0.6692620">
        <ele>94.0</ele>
        <time>2020-12-06T07:57:04Z</time>
      </trkpt>
      <trkpt lat="38.2798720" lon="-0.6693170">
        <ele>94.0</ele>
        <time>2020-12-06T07:57:05Z</time>
      </trkpt>
      <trkpt lat="38.2798650" lon="-0.6693770">
        <ele>94.0</ele>
        <time>2020-12-06T07:57:06Z</time>
      </trkpt>
      <trkpt lat="38.2798570" lon="-0.6694400">
        <ele>94.0</ele>
        <time>2020-12-06T07:57:07Z</time>
      </trkpt>
      <trkpt lat="38.2798470" lon="-0.6695020">
        <ele>94.0</ele>
        <time>2020-12-06T07:57:08Z</time>
      </trkpt>
      <trkpt lat="38.2798350" lon="-0.6695670">
        <ele>94.0</ele>
        <time>2020-12-06T07:57:09Z</time>
      </trkpt>
      <trkpt lat="38.2798250" lon="-0.6696350">
        <ele>93.1</ele>
        <time>2020-12-06T07:57:10Z</time>
      </trkpt>
      <trkpt lat="38.2798150" lon="-0.6697070">
        <ele>93.1</ele>
        <time>2020-12-06T07:57:11Z</time>
      </trkpt>
      <trkpt lat="38.2798030" lon="-0.6697780">
        <ele>93.1</ele>
        <time>2020-12-06T07:57:12Z</time>
      </trkpt>
      <trkpt lat="38.2797880" lon="-0.6698530">
        <ele>93.1</ele>
        <time>2020-12-06T07:57:13Z</time>
      </trkpt>
      <trkpt lat="38.2797770" lon="-0.6699270">
        <ele>93.1</ele>
        <time>2020-12-06T07:57:14Z</time>
      </trkpt>
      <trkpt lat="38.2797630" lon="-0.6700050">
        <ele>93.1</ele>
        <time>2020-12-06T07:57:15Z</time>
      </trkpt>
      <trkpt lat="38.2797520" lon="-0.6700820">
        <ele>93.1</ele>
        <time>2020-12-06T07:57:16Z</time>
      </trkpt>
      <trkpt lat="38.2797380" lon="-0.6701600">
        <ele>93.1</ele>
        <time>2020-12-06T07:57:17Z</time>
      </trkpt>
      <trkpt lat="38.2797270" lon="-0.6702400">
        <ele>92.1</ele>
        <time>2020-12-06T07:57:18Z</time>
      </trkpt>
      <trkpt lat="38.2797150" lon="-0.6703200">
        <ele>92.1</ele>
        <time>2020-12-06T07:57:19Z</time>
      </trkpt>
      <trkpt lat="38.2797020" lon="-0.6704020">
        <ele>92.1</ele>
        <time>2020-12-06T07:57:20Z</time>
      </trkpt>
      <trkpt lat="38.2796880" lon="-0.6704820">
        <ele>92.1</ele>
        <time>2020-12-06T07:57:21Z</time>
      </trkpt>
      <trkpt lat="38.2796750" lon="-0.6705630">
        <ele>92.1</ele>
        <time>2020-12-06T07:57:22Z</time>
      </trkpt>
      <trkpt lat="38.2796620" lon="-0.6706450">
        <ele>92.1</ele>
        <time>2020-12-06T07:57:23Z</time>
      </trkpt>
      <trkpt lat="38.2796480" lon="-0.6707250">
        <ele>92.1</ele>
        <time>2020-12-06T07:57:24Z</time>
      </trkpt>
      <trkpt lat="38.2796350" lon="-0.6708020">
        <ele>92.1</ele>
        <time>2020-12-06T07:57:25Z</time>
      </trkpt>
      <trkpt lat="38.2796150" lon="-0.6708820">
        <ele>92.1</ele>
        <time>2020-12-06T07:57:26Z</time>
      </trkpt>
      <trkpt lat="38.2795970" lon="-0.6709630">
        <ele>92.1</ele>
        <time>2020-12-06T07:57:27Z</time>
      </trkpt>
      <trkpt lat="38.2795800" lon="-0.6710470">
        <ele>92.1</ele>
        <time>2020-12-06T07:57:28Z</time>
      </trkpt>
      <trkpt lat="38.2795670" lon="-0.6711300">
        <ele>92.1</ele>
        <time>2020-12-06T07:57:29Z</time>
      </trkpt>
      <trkpt lat="38.2795530" lon="-0.6712100">
        <ele>92.1</ele>
        <time>2020-12-06T07:57:30Z</time>
      </trkpt>
      <trkpt lat="38.2795370" lon="-0.6712880">
        <ele>92.1</ele>
        <time>2020-12-06T07:57:31Z</time>
      </trkpt>
      <trkpt lat="38.2795200" lon="-0.6713630">
        <ele>92.1</ele>
        <time>2020-12-06T07:57:32Z</time>
      </trkpt>
      <trkpt lat="38.2795070" lon="-0.6714420">
        <ele>92.1</ele>
        <time>2020-12-06T07:57:33Z</time>
      </trkpt>
      <trkpt lat="38.2794930" lon="-0.6715200">
        <ele>92.1</ele>
        <time>2020-12-06T07:57:34Z</time>
      </trkpt>
      <trkpt lat="38.2794800" lon="-0.6716020">
        <ele>92.1</ele>
        <time>2020-12-06T07:57:35Z</time>
      </trkpt>
      <trkpt lat="38.2794670" lon="-0.6716820">
        <ele>92.1</ele>
        <time>2020-12-06T07:57:36Z</time>
      </trkpt>
      <trkpt lat="38.2794520" lon="-0.6717600">
        <ele>92.1</ele>
        <time>2020-12-06T07:57:37Z</time>
      </trkpt>
      <trkpt lat="38.2794370" lon="-0.6718420">
        <ele>92.1</ele>
        <time>2020-12-06T07:57:38Z</time>
      </trkpt>
      <trkpt lat="38.2794220" lon="-0.6719230">
        <ele>92.1</ele>
        <time>2020-12-06T07:57:39Z</time>
      </trkpt>
      <trkpt lat="38.2794100" lon="-0.6720050">
        <ele>92.1</ele>
        <time>2020-12-06T07:57:40Z</time>
      </trkpt>
      <trkpt lat="38.2793950" lon="-0.6720870">
        <ele>92.1</ele>
        <time>2020-12-06T07:57:41Z</time>
      </trkpt>
      <trkpt lat="38.2793780" lon="-0.6721670">
        <ele>92.1</ele>
        <time>2020-12-06T07:57:42Z</time>
      </trkpt>
      <trkpt lat="38.2793650" lon="-0.6722480">
        <ele>92.1</ele>
        <time>2020-12-06T07:57:43Z</time>
      </trkpt>
      <trkpt lat="38.2793470" lon="-0.6723270">
        <ele>92.1</ele>
        <time>2020-12-06T07:57:44Z</time>
      </trkpt>
      <trkpt lat="38.2793280" lon="-0.6724050">
        <ele>92.1</ele>
        <time>2020-12-06T07:57:45Z</time>
      </trkpt>
      <trkpt lat="38.2793100" lon="-0.6724820">
        <ele>92.1</ele>
        <time>2020-12-06T07:57:46Z</time>
      </trkpt>
      <trkpt lat="38.2792920" lon="-0.6725580">
        <ele>92.1</ele>
        <time>2020-12-06T07:57:47Z</time>
      </trkpt>
      <trkpt lat="38.2792730" lon="-0.6726370">
        <ele>92.1</ele>
        <time>2020-12-06T07:57:48Z</time>
      </trkpt>
      <trkpt lat="38.2792550" lon="-0.6727150">
        <ele>92.1</ele>
        <time>2020-12-06T07:57:49Z</time>
      </trkpt>
      <trkpt lat="38.2792420" lon="-0.6727930">
        <ele>92.1</ele>
        <time>2020-12-06T07:57:50Z</time>
      </trkpt>
      <trkpt lat="38.2792280" lon="-0.6728700">
        <ele>92.1</ele>
        <time>2020-12-06T07:57:51Z</time>
      </trkpt>
      <trkpt lat="38.2792130" lon="-0.6729480">
        <ele>92.1</ele>
        <time>2020-12-06T07:57:52Z</time>
      </trkpt>
      <trkpt lat="38.2792000" lon="-0.6730250">
        <ele>92.1</ele>
        <time>2020-12-06T07:57:53Z</time>
      </trkpt>
      <trkpt lat="38.2791880" lon="-0.6731030">
        <ele>92.1</ele>
        <time>2020-12-06T07:57:54Z</time>
      </trkpt>
      <trkpt lat="38.2791730" lon="-0.6731800">
        <ele>92.1</ele>
        <time>2020-12-06T07:57:55Z</time>
      </trkpt>
      <trkpt lat="38.2791570" lon="-0.6732570">
        <ele>93.1</ele>
        <time>2020-12-06T07:57:56Z</time>
      </trkpt>
      <trkpt lat="38.2791420" lon="-0.6733330">
        <ele>93.1</ele>
        <time>2020-12-06T07:57:57Z</time>
      </trkpt>
      <trkpt lat="38.2791280" lon="-0.6734120">
        <ele>93.1</ele>
        <time>2020-12-06T07:57:58Z</time>
      </trkpt>
      <trkpt lat="38.2791150" lon="-0.6734880">
        <ele>93.1</ele>
        <time>2020-12-06T07:57:59Z</time>
      </trkpt>
      <trkpt lat="38.2791020" lon="-0.6735670">
        <ele>93.1</ele>
        <time>2020-12-06T07:58:00Z</time>
      </trkpt>
      <trkpt lat="38.2790870" lon="-0.6736470">
        <ele>93.1</ele>
        <time>2020-12-06T07:58:01Z</time>
      </trkpt>
      <trkpt lat="38.2790730" lon="-0.6737230">
        <ele>93.1</ele>
        <time>2020-12-06T07:58:02Z</time>
      </trkpt>
      <trkpt lat="38.2790570" lon="-0.6737980">
        <ele>93.1</ele>
        <time>2020-12-06T07:58:03Z</time>
      </trkpt>
      <trkpt lat="38.2790420" lon="-0.6738730">
        <ele>93.1</ele>
        <time>2020-12-06T07:58:04Z</time>
      </trkpt>
      <trkpt lat="38.2790280" lon="-0.6739500">
        <ele>93.1</ele>
        <time>2020-12-06T07:58:05Z</time>
      </trkpt>
      <trkpt lat="38.2790150" lon="-0.6740270">
        <ele>93.1</ele>
        <time>2020-12-06T07:58:06Z</time>
      </trkpt>
      <trkpt lat="38.2790000" lon="-0.6741050">
        <ele>93.1</ele>
        <time>2020-12-06T07:58:07Z</time>
      </trkpt>
      <trkpt lat="38.2789880" lon="-0.6741850">
        <ele>93.1</ele>
        <time>2020-12-06T07:58:08Z</time>
      </trkpt>
      <trkpt lat="38.2789750" lon="-0.6742670">
        <ele>93.1</ele>
        <time>2020-12-06T07:58:09Z</time>
      </trkpt>
      <trkpt lat="38.2789620" lon="-0.6743500">
        <ele>93.1</ele>
        <time>2020-12-06T07:58:10Z</time>
      </trkpt>
      <trkpt lat="38.2789470" lon="-0.6744330">
        <ele>93.1</ele>
        <time>2020-12-06T07:58:11Z</time>
      </trkpt>
      <trkpt lat="38.2789350" lon="-0.6745170">
        <ele>93.1</ele>
        <time>2020-12-06T07:58:12Z</time>
      </trkpt>
      <trkpt lat="38.2789220" lon="-0.6746000">
        <ele>93.1</ele>
        <time>2020-12-06T07:58:13Z</time>
      </trkpt>
      <trkpt lat="38.2789080" lon="-0.6746830">
        <ele>93.1</ele>
        <time>2020-12-06T07:58:14Z</time>
      </trkpt>
      <trkpt lat="38.2788970" lon="-0.6747680">
        <ele>93.1</ele>
        <time>2020-12-06T07:58:15Z</time>
      </trkpt>
      <trkpt lat="38.2788880" lon="-0.6748520">
        <ele>93.1</ele>
        <time>2020-12-06T07:58:16Z</time>
      </trkpt>
      <trkpt lat="38.2788770" lon="-0.6749330">
        <ele>93.1</ele>
        <time>2020-12-06T07:58:17Z</time>
      </trkpt>
      <trkpt lat="38.2788650" lon="-0.6750150">
        <ele>93.1</ele>
        <time>2020-12-06T07:58:18Z</time>
      </trkpt>
      <trkpt lat="38.2788530" lon="-0.6750950">
        <ele>92.1</ele>
        <time>2020-12-06T07:58:19Z</time>
      </trkpt>
      <trkpt lat="38.2788400" lon="-0.6751750">
        <ele>92.1</ele>
        <time>2020-12-06T07:58:20Z</time>
      </trkpt>
      <trkpt lat="38.2788280" lon="-0.6752580">
        <ele>92.1</ele>
        <time>2020-12-06T07:58:21Z</time>
      </trkpt>
      <trkpt lat="38.2788150" lon="-0.6753400">
        <ele>92.1</ele>
        <time>2020-12-06T07:58:22Z</time>
      </trkpt>
      <trkpt lat="38.2788000" lon="-0.6754220">
        <ele>92.1</ele>
        <time>2020-12-06T07:58:23Z</time>
      </trkpt>
      <trkpt lat="38.2787870" lon="-0.6755020">
        <ele>92.1</ele>
        <time>2020-12-06T07:58:24Z</time>
      </trkpt>
      <trkpt lat="38.2787730" lon="-0.6755850">
        <ele>92.1</ele>
        <time>2020-12-06T07:58:25Z</time>
      </trkpt>
      <trkpt lat="38.2787600" lon="-0.6756680">
        <ele>92.1</ele>
        <time>2020-12-06T07:58:26Z</time>
      </trkpt>
      <trkpt lat="38.2787470" lon="-0.6757500">
        <ele>92.1</ele>
        <time>2020-12-06T07:58:27Z</time>
      </trkpt>
      <trkpt lat="38.2787330" lon="-0.6758330">
        <ele>92.1</ele>
        <time>2020-12-06T07:58:28Z</time>
      </trkpt>
      <trkpt lat="38.2787180" lon="-0.6759150">
        <ele>92.1</ele>
        <time>2020-12-06T07:58:29Z</time>
      </trkpt>
      <trkpt lat="38.2787070" lon="-0.6759970">
        <ele>92.1</ele>
        <time>2020-12-06T07:58:30Z</time>
      </trkpt>
      <trkpt lat="38.2786950" lon="-0.6760780">
        <ele>92.1</ele>
        <time>2020-12-06T07:58:31Z</time>
      </trkpt>
      <trkpt lat="38.2786820" lon="-0.6761600">
        <ele>92.1</ele>
        <time>2020-12-06T07:58:32Z</time>
      </trkpt>
      <trkpt lat="38.2786700" lon="-0.6762420">
        <ele>92.1</ele>
        <time>2020-12-06T07:58:33Z</time>
      </trkpt>
      <trkpt lat="38.2786580" lon="-0.6763250">
        <ele>92.1</ele>
        <time>2020-12-06T07:58:34Z</time>
      </trkpt>
      <trkpt lat="38.2786470" lon="-0.6764070">
        <ele>92.1</ele>
        <time>2020-12-06T07:58:35Z</time>
      </trkpt>
      <trkpt lat="38.2786350" lon="-0.6764870">
        <ele>92.1</ele>
        <time>2020-12-06T07:58:36Z</time>
      </trkpt>
      <trkpt lat="38.2786220" lon="-0.6765680">
        <ele>92.1</ele>
        <time>2020-12-06T07:58:37Z</time>
      </trkpt>
      <trkpt lat="38.2786080" lon="-0.6766500">
        <ele>92.1</ele>
        <time>2020-12-06T07:58:38Z</time>
      </trkpt>
      <trkpt lat="38.2785970" lon="-0.6767320">
        <ele>91.1</ele>
        <time>2020-12-06T07:58:39Z</time>
      </trkpt>
      <trkpt lat="38.2785820" lon="-0.6768130">
        <ele>91.1</ele>
        <time>2020-12-06T07:58:40Z</time>
      </trkpt>
      <trkpt lat="38.2785670" lon="-0.6768950">
        <ele>91.1</ele>
        <time>2020-12-06T07:58:41Z</time>
      </trkpt>
      <trkpt lat="38.2785530" lon="-0.6769770">
        <ele>91.1</ele>
        <time>2020-12-06T07:58:42Z</time>
      </trkpt>
      <trkpt lat="38.2785400" lon="-0.6770600">
        <ele>91.1</ele>
        <time>2020-12-06T07:58:43Z</time>
      </trkpt>
      <trkpt lat="38.2785250" lon="-0.6771400">
        <ele>91.1</ele>
        <time>2020-12-06T07:58:44Z</time>
      </trkpt>
      <trkpt lat="38.2785080" lon="-0.6772220">
        <ele>91.1</ele>
        <time>2020-12-06T07:58:45Z</time>
      </trkpt>
      <trkpt lat="38.2784930" lon="-0.6773030">
        <ele>91.1</ele>
        <time>2020-12-06T07:58:46Z</time>
      </trkpt>
      <trkpt lat="38.2784780" lon="-0.6773850">
        <ele>91.1</ele>
        <time>2020-12-06T07:58:47Z</time>
      </trkpt>
      <trkpt lat="38.2784670" lon="-0.6774670">
        <ele>91.1</ele>
        <time>2020-12-06T07:58:48Z</time>
      </trkpt>
      <trkpt lat="38.2784550" lon="-0.6775470">
        <ele>91.1</ele>
        <time>2020-12-06T07:58:49Z</time>
      </trkpt>
      <trkpt lat="38.2784400" lon="-0.6776280">
        <ele>91.1</ele>
        <time>2020-12-06T07:58:50Z</time>
      </trkpt>
      <trkpt lat="38.2784250" lon="-0.6777080">
        <ele>91.1</ele>
        <time>2020-12-06T07:58:51Z</time>
      </trkpt>
      <trkpt lat="38.2784120" lon="-0.6777870">
        <ele>91.1</ele>
        <time>2020-12-06T07:58:52Z</time>
      </trkpt>
      <trkpt lat="38.2783980" lon="-0.6778670">
        <ele>91.1</ele>
        <time>2020-12-06T07:58:53Z</time>
      </trkpt>
      <trkpt lat="38.2783830" lon="-0.6779470">
        <ele>91.1</ele>
        <time>2020-12-06T07:58:54Z</time>
      </trkpt>
      <trkpt lat="38.2783680" lon="-0.6780270">
        <ele>91.1</ele>
        <time>2020-12-06T07:58:55Z</time>
      </trkpt>
      <trkpt lat="38.2783550" lon="-0.6781070">
        <ele>91.1</ele>
        <time>2020-12-06T07:58:56Z</time>
      </trkpt>
      <trkpt lat="38.2783420" lon="-0.6781880">
        <ele>91.1</ele>
        <time>2020-12-06T07:58:57Z</time>
      </trkpt>
      <trkpt lat="38.2783280" lon="-0.6782680">
        <ele>91.1</ele>
        <time>2020-12-06T07:58:58Z</time>
      </trkpt>
      <trkpt lat="38.2783150" lon="-0.6783500">
        <ele>91.1</ele>
        <time>2020-12-06T07:58:59Z</time>
      </trkpt>
      <trkpt lat="38.2783020" lon="-0.6784300">
        <ele>91.1</ele>
        <time>2020-12-06T07:59:00Z</time>
      </trkpt>
      <trkpt lat="38.2782870" lon="-0.6785100">
        <ele>91.1</ele>
        <time>2020-12-06T07:59:01Z</time>
      </trkpt>
      <trkpt lat="38.2782720" lon="-0.6785900">
        <ele>91.1</ele>
        <time>2020-12-06T07:59:02Z</time>
      </trkpt>
      <trkpt lat="38.2782570" lon="-0.6786720">
        <ele>91.1</ele>
        <time>2020-12-06T07:59:03Z</time>
      </trkpt>
      <trkpt lat="38.2782400" lon="-0.6787530">
        <ele>91.1</ele>
        <time>2020-12-06T07:59:04Z</time>
      </trkpt>
      <trkpt lat="38.2782270" lon="-0.6788350">
        <ele>91.1</ele>
        <time>2020-12-06T07:59:05Z</time>
      </trkpt>
      <trkpt lat="38.2782130" lon="-0.6789150">
        <ele>91.1</ele>
        <time>2020-12-06T07:59:06Z</time>
      </trkpt>
      <trkpt lat="38.2782020" lon="-0.6789970">
        <ele>91.1</ele>
        <time>2020-12-06T07:59:07Z</time>
      </trkpt>
      <trkpt lat="38.2781870" lon="-0.6790770">
        <ele>91.1</ele>
        <time>2020-12-06T07:59:08Z</time>
      </trkpt>
      <trkpt lat="38.2781730" lon="-0.6791580">
        <ele>91.1</ele>
        <time>2020-12-06T07:59:09Z</time>
      </trkpt>
      <trkpt lat="38.2781600" lon="-0.6792400">
        <ele>91.1</ele>
        <time>2020-12-06T07:59:10Z</time>
      </trkpt>
      <trkpt lat="38.2781470" lon="-0.6793200">
        <ele>91.1</ele>
        <time>2020-12-06T07:59:11Z</time>
      </trkpt>
      <trkpt lat="38.2781330" lon="-0.6794020">
        <ele>91.1</ele>
        <time>2020-12-06T07:59:12Z</time>
      </trkpt>
      <trkpt lat="38.2781220" lon="-0.6794820">
        <ele>91.1</ele>
        <time>2020-12-06T07:59:13Z</time>
      </trkpt>
      <trkpt lat="38.2781080" lon="-0.6795630">
        <ele>91.1</ele>
        <time>2020-12-06T07:59:14Z</time>
      </trkpt>
      <trkpt lat="38.2780950" lon="-0.6796450">
        <ele>91.1</ele>
        <time>2020-12-06T07:59:15Z</time>
      </trkpt>
      <trkpt lat="38.2780820" lon="-0.6797250">
        <ele>91.1</ele>
        <time>2020-12-06T07:59:16Z</time>
      </trkpt>
      <trkpt lat="38.2780670" lon="-0.6798030">
        <ele>91.1</ele>
        <time>2020-12-06T07:59:17Z</time>
      </trkpt>
      <trkpt lat="38.2780520" lon="-0.6798830">
        <ele>91.1</ele>
        <time>2020-12-06T07:59:18Z</time>
      </trkpt>
      <trkpt lat="38.2780370" lon="-0.6799620">
        <ele>90.1</ele>
        <time>2020-12-06T07:59:19Z</time>
      </trkpt>
      <trkpt lat="38.2780250" lon="-0.6800400">
        <ele>90.1</ele>
        <time>2020-12-06T07:59:20Z</time>
      </trkpt>
      <trkpt lat="38.2780130" lon="-0.6801180">
        <ele>90.1</ele>
        <time>2020-12-06T07:59:21Z</time>
      </trkpt>
      <trkpt lat="38.2780000" lon="-0.6801950">
        <ele>90.1</ele>
        <time>2020-12-06T07:59:22Z</time>
      </trkpt>
      <trkpt lat="38.2779870" lon="-0.6802750">
        <ele>90.1</ele>
        <time>2020-12-06T07:59:23Z</time>
      </trkpt>
      <trkpt lat="38.2779730" lon="-0.6803520">
        <ele>90.1</ele>
        <time>2020-12-06T07:59:24Z</time>
      </trkpt>
      <trkpt lat="38.2779600" lon="-0.6804300">
        <ele>90.1</ele>
        <time>2020-12-06T07:59:25Z</time>
      </trkpt>
      <trkpt lat="38.2779470" lon="-0.6805100">
        <ele>90.1</ele>
        <time>2020-12-06T07:59:26Z</time>
      </trkpt>
      <trkpt lat="38.2779330" lon="-0.6805900">
        <ele>90.1</ele>
        <time>2020-12-06T07:59:27Z</time>
      </trkpt>
      <trkpt lat="38.2779220" lon="-0.6806720">
        <ele>90.1</ele>
        <time>2020-12-06T07:59:28Z</time>
      </trkpt>
      <trkpt lat="38.2779100" lon="-0.6807520">
        <ele>90.1</ele>
        <time>2020-12-06T07:59:29Z</time>
      </trkpt>
      <trkpt lat="38.2778980" lon="-0.6808320">
        <ele>90.1</ele>
        <time>2020-12-06T07:59:30Z</time>
      </trkpt>
      <trkpt lat="38.2778880" lon="-0.6809130">
        <ele>90.1</ele>
        <time>2020-12-06T07:59:31Z</time>
      </trkpt>
      <trkpt lat="38.2778830" lon="-0.6809970">
        <ele>90.1</ele>
        <time>2020-12-06T07:59:32Z</time>
      </trkpt>
      <trkpt lat="38.2778850" lon="-0.6810800">
        <ele>90.1</ele>
        <time>2020-12-06T07:59:33Z</time>
      </trkpt>
      <trkpt lat="38.2779050" lon="-0.6811520">
        <ele>90.1</ele>
        <time>2020-12-06T07:59:34Z</time>
      </trkpt>
      <trkpt lat="38.2779380" lon="-0.6812170">
        <ele>89.0</ele>
        <time>2020-12-06T07:59:35Z</time>
      </trkpt>
      <trkpt lat="38.2779720" lon="-0.6812830">
        <ele>89.0</ele>
        <time>2020-12-06T07:59:36Z</time>
      </trkpt>
      <trkpt lat="38.2780100" lon="-0.6813480">
        <ele>89.0</ele>
        <time>2020-12-06T07:59:37Z</time>
      </trkpt>
      <trkpt lat="38.2780570" lon="-0.6814030">
        <ele>89.0</ele>
        <time>2020-12-06T07:59:38Z</time>
      </trkpt>
      <trkpt lat="38.2781100" lon="-0.6814450">
        <ele>90.1</ele>
        <time>2020-12-06T07:59:39Z</time>
      </trkpt>
      <trkpt lat="38.2781680" lon="-0.6814750">
        <ele>90.1</ele>
        <time>2020-12-06T07:59:40Z</time>
      </trkpt>
      <trkpt lat="38.2782300" lon="-0.6815000">
        <ele>90.1</ele>
        <time>2020-12-06T07:59:41Z</time>
      </trkpt>
      <trkpt lat="38.2782930" lon="-0.6815220">
        <ele>90.1</ele>
        <time>2020-12-06T07:59:42Z</time>
      </trkpt>
      <trkpt lat="38.2783570" lon="-0.6815420">
        <ele>90.1</ele>
        <time>2020-12-06T07:59:43Z</time>
      </trkpt>
      <trkpt lat="38.2784200" lon="-0.6815650">
        <ele>90.1</ele>
        <time>2020-12-06T07:59:44Z</time>
      </trkpt>
      <trkpt lat="38.2784820" lon="-0.6815880">
        <ele>90.1</ele>
        <time>2020-12-06T07:59:45Z</time>
      </trkpt>
      <trkpt lat="38.2785430" lon="-0.6816130">
        <ele>90.1</ele>
        <time>2020-12-06T07:59:46Z</time>
      </trkpt>
      <trkpt lat="38.2786050" lon="-0.6816380">
        <ele>90.1</ele>
        <time>2020-12-06T07:59:47Z</time>
      </trkpt>
      <trkpt lat="38.2786670" lon="-0.6816630">
        <ele>90.1</ele>
        <time>2020-12-06T07:59:48Z</time>
      </trkpt>
      <trkpt lat="38.2787280" lon="-0.6816880">
        <ele>91.1</ele>
        <time>2020-12-06T07:59:49Z</time>
      </trkpt>
      <trkpt lat="38.2787900" lon="-0.6817120">
        <ele>91.1</ele>
        <time>2020-12-06T07:59:50Z</time>
      </trkpt>
      <trkpt lat="38.2788530" lon="-0.6817350">
        <ele>91.1</ele>
        <time>2020-12-06T07:59:51Z</time>
      </trkpt>
      <trkpt lat="38.2789150" lon="-0.6817600">
        <ele>91.1</ele>
        <time>2020-12-06T07:59:52Z</time>
      </trkpt>
      <trkpt lat="38.2789770" lon="-0.6817830">
        <ele>91.1</ele>
        <time>2020-12-06T07:59:53Z</time>
      </trkpt>
      <trkpt lat="38.2790400" lon="-0.6818070">
        <ele>91.1</ele>
        <time>2020-12-06T07:59:54Z</time>
      </trkpt>
      <trkpt lat="38.2791000" lon="-0.6818300">
        <ele>91.1</ele>
        <time>2020-12-06T07:59:55Z</time>
      </trkpt>
      <trkpt lat="38.2791620" lon="-0.6818550">
        <ele>91.1</ele>
        <time>2020-12-06T07:59:56Z</time>
      </trkpt>
      <trkpt lat="38.2792250" lon="-0.6818800">
        <ele>91.1</ele>
        <time>2020-12-06T07:59:57Z</time>
      </trkpt>
      <trkpt lat="38.2792870" lon="-0.6819070">
        <ele>91.1</ele>
        <time>2020-12-06T07:59:58Z</time>
      </trkpt>
      <trkpt lat="38.2793470" lon="-0.6819330">
        <ele>91.1</ele>
        <time>2020-12-06T07:59:59Z</time>
      </trkpt>
      <trkpt lat="38.2794080" lon="-0.6819580">
        <ele>91.1</ele>
        <time>2020-12-06T08:00:00Z</time>
      </trkpt>
      <trkpt lat="38.2794700" lon="-0.6819850">
        <ele>91.1</ele>
        <time>2020-12-06T08:00:01Z</time>
      </trkpt>
      <trkpt lat="38.2795320" lon="-0.6820080">
        <ele>91.1</ele>
        <time>2020-12-06T08:00:02Z</time>
      </trkpt>
      <trkpt lat="38.2795930" lon="-0.6820320">
        <ele>91.1</ele>
        <time>2020-12-06T08:00:03Z</time>
      </trkpt>
      <trkpt lat="38.2796530" lon="-0.6820570">
        <ele>91.1</ele>
        <time>2020-12-06T08:00:04Z</time>
      </trkpt>
      <trkpt lat="38.2797130" lon="-0.6820820">
        <ele>92.1</ele>
        <time>2020-12-06T08:00:05Z</time>
      </trkpt>
      <trkpt lat="38.2797730" lon="-0.6821070">
        <ele>92.1</ele>
        <time>2020-12-06T08:00:06Z</time>
      </trkpt>
      <trkpt lat="38.2798330" lon="-0.6821300">
        <ele>92.1</ele>
        <time>2020-12-06T08:00:07Z</time>
      </trkpt>
      <trkpt lat="38.2798930" lon="-0.6821520">
        <ele>92.1</ele>
        <time>2020-12-06T08:00:08Z</time>
      </trkpt>
      <trkpt lat="38.2799530" lon="-0.6821770">
        <ele>92.1</ele>
        <time>2020-12-06T08:00:09Z</time>
      </trkpt>
      <trkpt lat="38.2800130" lon="-0.6822050">
        <ele>92.1</ele>
        <time>2020-12-06T08:00:10Z</time>
      </trkpt>
      <trkpt lat="38.2800720" lon="-0.6822320">
        <ele>92.1</ele>
        <time>2020-12-06T08:00:11Z</time>
      </trkpt>
      <trkpt lat="38.2801320" lon="-0.6822580">
        <ele>92.1</ele>
        <time>2020-12-06T08:00:12Z</time>
      </trkpt>
      <trkpt lat="38.2801900" lon="-0.6822830">
        <ele>92.1</ele>
        <time>2020-12-06T08:00:13Z</time>
      </trkpt>
      <trkpt lat="38.2802500" lon="-0.6823070">
        <ele>92.1</ele>
        <time>2020-12-06T08:00:14Z</time>
      </trkpt>
      <trkpt lat="38.2803080" lon="-0.6823330">
        <ele>92.1</ele>
        <time>2020-12-06T08:00:15Z</time>
      </trkpt>
      <trkpt lat="38.2803680" lon="-0.6823530">
        <ele>92.1</ele>
        <time>2020-12-06T08:00:16Z</time>
      </trkpt>
      <trkpt lat="38.2804280" lon="-0.6823720">
        <ele>92.1</ele>
        <time>2020-12-06T08:00:17Z</time>
      </trkpt>
      <trkpt lat="38.2804900" lon="-0.6823930">
        <ele>92.1</ele>
        <time>2020-12-06T08:00:18Z</time>
      </trkpt>
      <trkpt lat="38.2805480" lon="-0.6824200">
        <ele>92.1</ele>
        <time>2020-12-06T08:00:19Z</time>
      </trkpt>
      <trkpt lat="38.2806070" lon="-0.6824470">
        <ele>92.1</ele>
        <time>2020-12-06T08:00:20Z</time>
      </trkpt>
      <trkpt lat="38.2806680" lon="-0.6824670">
        <ele>92.1</ele>
        <time>2020-12-06T08:00:21Z</time>
      </trkpt>
      <trkpt lat="38.2807280" lon="-0.6824850">
        <ele>92.1</ele>
        <time>2020-12-06T08:00:22Z</time>
      </trkpt>
      <trkpt lat="38.2807900" lon="-0.6825030">
        <ele>92.1</ele>
        <time>2020-12-06T08:00:23Z</time>
      </trkpt>
      <trkpt lat="38.2808520" lon="-0.6825200">
        <ele>92.1</ele>
        <time>2020-12-06T08:00:24Z</time>
      </trkpt>
      <trkpt lat="38.2809120" lon="-0.6825370">
        <ele>92.1</ele>
        <time>2020-12-06T08:00:25Z</time>
      </trkpt>
      <trkpt lat="38.2809750" lon="-0.6825500">
        <ele>92.1</ele>
        <time>2020-12-06T08:00:26Z</time>
      </trkpt>
      <trkpt lat="38.2810370" lon="-0.6825600">
        <ele>92.1</ele>
        <time>2020-12-06T08:00:27Z</time>
      </trkpt>
      <trkpt lat="38.2810980" lon="-0.6825670">
        <ele>92.1</ele>
        <time>2020-12-06T08:00:28Z</time>
      </trkpt>
      <trkpt lat="38.2811620" lon="-0.6825700">
        <ele>93.1</ele>
        <time>2020-12-06T08:00:29Z</time>
      </trkpt>
      <trkpt lat="38.2812250" lon="-0.6825700">
        <ele>93.1</ele>
        <time>2020-12-06T08:00:30Z</time>
      </trkpt>
      <trkpt lat="38.2812880" lon="-0.6825630">
        <ele>93.1</ele>
        <time>2020-12-06T08:00:31Z</time>
      </trkpt>
      <trkpt lat="38.2813500" lon="-0.6825550">
        <ele>93.1</ele>
        <time>2020-12-06T08:00:32Z</time>
      </trkpt>
      <trkpt lat="38.2814100" lon="-0.6825470">
        <ele>93.1</ele>
        <time>2020-12-06T08:00:33Z</time>
      </trkpt>
      <trkpt lat="38.2814720" lon="-0.6825380">
        <ele>93.1</ele>
        <time>2020-12-06T08:00:34Z</time>
      </trkpt>
      <trkpt lat="38.2815330" lon="-0.6825270">
        <ele>93.1</ele>
        <time>2020-12-06T08:00:35Z</time>
      </trkpt>
      <trkpt lat="38.2815930" lon="-0.6825070">
        <ele>93.1</ele>
        <time>2020-12-06T08:00:36Z</time>
      </trkpt>
      <trkpt lat="38.2816530" lon="-0.6824880">
        <ele>93.1</ele>
        <time>2020-12-06T08:00:37Z</time>
      </trkpt>
      <trkpt lat="38.2817130" lon="-0.6824680">
        <ele>93.1</ele>
        <time>2020-12-06T08:00:38Z</time>
      </trkpt>
      <trkpt lat="38.2817720" lon="-0.6824430">
        <ele>93.1</ele>
        <time>2020-12-06T08:00:39Z</time>
      </trkpt>
      <trkpt lat="38.2818280" lon="-0.6824130">
        <ele>93.1</ele>
        <time>2020-12-06T08:00:40Z</time>
      </trkpt>
      <trkpt lat="38.2818830" lon="-0.6823870">
        <ele>94.0</ele>
        <time>2020-12-06T08:00:41Z</time>
      </trkpt>
      <trkpt lat="38.2819420" lon="-0.6823620">
        <ele>94.0</ele>
        <time>2020-12-06T08:00:42Z</time>
      </trkpt>
      <trkpt lat="38.2819970" lon="-0.6823320">
        <ele>94.0</ele>
        <time>2020-12-06T08:00:43Z</time>
      </trkpt>
      <trkpt lat="38.2820520" lon="-0.6822950">
        <ele>94.0</ele>
        <time>2020-12-06T08:00:44Z</time>
      </trkpt>
      <trkpt lat="38.2821050" lon="-0.6822520">
        <ele>95.1</ele>
        <time>2020-12-06T08:00:45Z</time>
      </trkpt>
      <trkpt lat="38.2821550" lon="-0.6822000">
        <ele>95.1</ele>
        <time>2020-12-06T08:00:46Z</time>
      </trkpt>
      <trkpt lat="38.2821930" lon="-0.6821380">
        <ele>95.1</ele>
        <time>2020-12-06T08:00:47Z</time>
      </trkpt>
      <trkpt lat="38.2822280" lon="-0.6820780">
        <ele>95.1</ele>
        <time>2020-12-06T08:00:48Z</time>
      </trkpt>
      <trkpt lat="38.2822670" lon="-0.6820200">
        <ele>96.0</ele>
        <time>2020-12-06T08:00:49Z</time>
      </trkpt>
      <trkpt lat="38.2823030" lon="-0.6819620">
        <ele>96.0</ele>
        <time>2020-12-06T08:00:50Z</time>
      </trkpt>
      <trkpt lat="38.2823370" lon="-0.6818980">
        <ele>96.0</ele>
        <time>2020-12-06T08:00:51Z</time>
      </trkpt>
      <trkpt lat="38.2823680" lon="-0.6818300">
        <ele>96.0</ele>
        <time>2020-12-06T08:00:52Z</time>
      </trkpt>
      <trkpt lat="38.2823930" lon="-0.6817580">
        <ele>96.0</ele>
        <time>2020-12-06T08:00:53Z</time>
      </trkpt>
      <trkpt lat="38.2824120" lon="-0.6816820">
        <ele>96.0</ele>
        <time>2020-12-06T08:00:54Z</time>
      </trkpt>
      <trkpt lat="38.2824180" lon="-0.6816020">
        <ele>96.0</ele>
        <time>2020-12-06T08:00:55Z</time>
      </trkpt>
      <trkpt lat="38.2824180" lon="-0.6815220">
        <ele>96.0</ele>
        <time>2020-12-06T08:00:56Z</time>
      </trkpt>
      <trkpt lat="38.2824130" lon="-0.6814400">
        <ele>96.0</ele>
        <time>2020-12-06T08:00:57Z</time>
      </trkpt>
      <trkpt lat="38.2824080" lon="-0.6813580">
        <ele>96.0</ele>
        <time>2020-12-06T08:00:58Z</time>
      </trkpt>
      <trkpt lat="38.2824020" lon="-0.6812780">
        <ele>97.1</ele>
        <time>2020-12-06T08:00:59Z</time>
      </trkpt>
      <trkpt lat="38.2823930" lon="-0.6811970">
        <ele>97.1</ele>
        <time>2020-12-06T08:01:00Z</time>
      </trkpt>
      <trkpt lat="38.2823850" lon="-0.6811170">
        <ele>97.1</ele>
        <time>2020-12-06T08:01:01Z</time>
      </trkpt>
      <trkpt lat="38.2823800" lon="-0.6810350">
        <ele>97.1</ele>
        <time>2020-12-06T08:01:02Z</time>
      </trkpt>
      <trkpt lat="38.2823750" lon="-0.6809500">
        <ele>97.1</ele>
        <time>2020-12-06T08:01:03Z</time>
      </trkpt>
      <trkpt lat="38.2823680" lon="-0.6808600">
        <ele>97.1</ele>
        <time>2020-12-06T08:01:04Z</time>
      </trkpt>
      <trkpt lat="38.2823620" lon="-0.6807700">
        <ele>97.1</ele>
        <time>2020-12-06T08:01:05Z</time>
      </trkpt>
      <trkpt lat="38.2823530" lon="-0.6806800">
        <ele>97.1</ele>
        <time>2020-12-06T08:01:06Z</time>
      </trkpt>
      <trkpt lat="38.2823470" lon="-0.6805900">
        <ele>97.1</ele>
        <time>2020-12-06T08:01:07Z</time>
      </trkpt>
      <trkpt lat="38.2823370" lon="-0.6805000">
        <ele>97.1</ele>
        <time>2020-12-06T08:01:08Z</time>
      </trkpt>
      <trkpt lat="38.2823280" lon="-0.6804120">
        <ele>97.1</ele>
        <time>2020-12-06T08:01:09Z</time>
      </trkpt>
      <trkpt lat="38.2823200" lon="-0.6803220">
        <ele>97.1</ele>
        <time>2020-12-06T08:01:10Z</time>
      </trkpt>
      <trkpt lat="38.2823150" lon="-0.6802330">
        <ele>97.1</ele>
        <time>2020-12-06T08:01:11Z</time>
      </trkpt>
      <trkpt lat="38.2823080" lon="-0.6801450">
        <ele>97.1</ele>
        <time>2020-12-06T08:01:12Z</time>
      </trkpt>
      <trkpt lat="38.2823020" lon="-0.6800570">
        <ele>97.1</ele>
        <time>2020-12-06T08:01:13Z</time>
      </trkpt>
      <trkpt lat="38.2822950" lon="-0.6799680">
        <ele>97.1</ele>
        <time>2020-12-06T08:01:14Z</time>
      </trkpt>
      <trkpt lat="38.2822880" lon="-0.6798800">
        <ele>97.1</ele>
        <time>2020-12-06T08:01:15Z</time>
      </trkpt>
      <trkpt lat="38.2822820" lon="-0.6797900">
        <ele>97.1</ele>
        <time>2020-12-06T08:01:16Z</time>
      </trkpt>
      <trkpt lat="38.2822770" lon="-0.6797020">
        <ele>98.1</ele>
        <time>2020-12-06T08:01:17Z</time>
      </trkpt>
      <trkpt lat="38.2822730" lon="-0.6796120">
        <ele>98.1</ele>
        <time>2020-12-06T08:01:18Z</time>
      </trkpt>
      <trkpt lat="38.2822700" lon="-0.6795230">
        <ele>99.1</ele>
        <time>2020-12-06T08:01:19Z</time>
      </trkpt>
      <trkpt lat="38.2822670" lon="-0.6794330">
        <ele>99.1</ele>
        <time>2020-12-06T08:01:20Z</time>
      </trkpt>
      <trkpt lat="38.2822650" lon="-0.6793430">
        <ele>99.1</ele>
        <time>2020-12-06T08:01:21Z</time>
      </trkpt>
      <trkpt lat="38.2822630" lon="-0.6792530">
        <ele>99.1</ele>
        <time>2020-12-06T08:01:22Z</time>
      </trkpt>
      <trkpt lat="38.2822620" lon="-0.6791630">
        <ele>99.1</ele>
        <time>2020-12-06T08:01:23Z</time>
      </trkpt>
      <trkpt lat="38.2822600" lon="-0.6790730">
        <ele>99.1</ele>
        <time>2020-12-06T08:01:24Z</time>
      </trkpt>
      <trkpt lat="38.2822600" lon="-0.6789830">
        <ele>99.1</ele>
        <time>2020-12-06T08:01:25Z</time>
      </trkpt>
      <trkpt lat="38.2822600" lon="-0.6788920">
        <ele>99.1</ele>
        <time>2020-12-06T08:01:26Z</time>
      </trkpt>
      <trkpt lat="38.2822620" lon="-0.6788020">
        <ele>99.1</ele>
        <time>2020-12-06T08:01:27Z</time>
      </trkpt>
      <trkpt lat="38.2822630" lon="-0.6787100">
        <ele>99.1</ele>
        <time>2020-12-06T08:01:28Z</time>
      </trkpt>
      <trkpt lat="38.2822670" lon="-0.6786200">
        <ele>99.1</ele>
        <time>2020-12-06T08:01:29Z</time>
      </trkpt>
      <trkpt lat="38.2822700" lon="-0.6785280">
        <ele>99.1</ele>
        <time>2020-12-06T08:01:30Z</time>
      </trkpt>
      <trkpt lat="38.2822750" lon="-0.6784380">
        <ele>99.1</ele>
        <time>2020-12-06T08:01:31Z</time>
      </trkpt>
      <trkpt lat="38.2822820" lon="-0.6783480">
        <ele>99.1</ele>
        <time>2020-12-06T08:01:32Z</time>
      </trkpt>
      <trkpt lat="38.2822920" lon="-0.6782580">
        <ele>99.1</ele>
        <time>2020-12-06T08:01:33Z</time>
      </trkpt>
      <trkpt lat="38.2822950" lon="-0.6781680">
        <ele>99.1</ele>
        <time>2020-12-06T08:01:34Z</time>
      </trkpt>
      <trkpt lat="38.2822980" lon="-0.6780770">
        <ele>99.1</ele>
        <time>2020-12-06T08:01:35Z</time>
      </trkpt>
      <trkpt lat="38.2823030" lon="-0.6779870">
        <ele>99.1</ele>
        <time>2020-12-06T08:01:36Z</time>
      </trkpt>
      <trkpt lat="38.2823080" lon="-0.6778980">
        <ele>99.1</ele>
        <time>2020-12-06T08:01:37Z</time>
      </trkpt>
      <trkpt lat="38.2823150" lon="-0.6778080">
        <ele>99.1</ele>
        <time>2020-12-06T08:01:38Z</time>
      </trkpt>
      <trkpt lat="38.2823220" lon="-0.6777170">
        <ele>99.1</ele>
        <time>2020-12-06T08:01:39Z</time>
      </trkpt>
      <trkpt lat="38.2823270" lon="-0.6776270">
        <ele>99.1</ele>
        <time>2020-12-06T08:01:40Z</time>
      </trkpt>
      <trkpt lat="38.2823320" lon="-0.6775370">
        <ele>100.1</ele>
        <time>2020-12-06T08:01:41Z</time>
      </trkpt>
      <trkpt lat="38.2823380" lon="-0.6774450">
        <ele>100.1</ele>
        <time>2020-12-06T08:01:42Z</time>
      </trkpt>
      <trkpt lat="38.2823480" lon="-0.6773550">
        <ele>100.1</ele>
        <time>2020-12-06T08:01:43Z</time>
      </trkpt>
      <trkpt lat="38.2823570" lon="-0.6772650">
        <ele>100.1</ele>
        <time>2020-12-06T08:01:44Z</time>
      </trkpt>
      <trkpt lat="38.2823630" lon="-0.6771750">
        <ele>100.1</ele>
        <time>2020-12-06T08:01:45Z</time>
      </trkpt>
      <trkpt lat="38.2823720" lon="-0.6770830">
        <ele>100.1</ele>
        <time>2020-12-06T08:01:46Z</time>
      </trkpt>
      <trkpt lat="38.2823800" lon="-0.6769930">
        <ele>100.1</ele>
        <time>2020-12-06T08:01:47Z</time>
      </trkpt>
      <trkpt lat="38.2823870" lon="-0.6769000">
        <ele>100.1</ele>
        <time>2020-12-06T08:01:48Z</time>
      </trkpt>
      <trkpt lat="38.2823930" lon="-0.6768080">
        <ele>100.1</ele>
        <time>2020-12-06T08:01:49Z</time>
      </trkpt>
      <trkpt lat="38.2824020" lon="-0.6767150">
        <ele>100.1</ele>
        <time>2020-12-06T08:01:50Z</time>
      </trkpt>
      <trkpt lat="38.2824100" lon="-0.6766220">
        <ele>100.1</ele>
        <time>2020-12-06T08:01:51Z</time>
      </trkpt>
      <trkpt lat="38.2824180" lon="-0.6765280">
        <ele>100.1</ele>
        <time>2020-12-06T08:01:52Z</time>
      </trkpt>
      <trkpt lat="38.2824280" lon="-0.6764350">
        <ele>100.1</ele>
        <time>2020-12-06T08:01:53Z</time>
      </trkpt>
      <trkpt lat="38.2824420" lon="-0.6763420">
        <ele>100.1</ele>
        <time>2020-12-06T08:01:54Z</time>
      </trkpt>
      <trkpt lat="38.2824530" lon="-0.6762470">
        <ele>100.1</ele>
        <time>2020-12-06T08:01:55Z</time>
      </trkpt>
      <trkpt lat="38.2824650" lon="-0.6761520">
        <ele>100.1</ele>
        <time>2020-12-06T08:01:56Z</time>
      </trkpt>
      <trkpt lat="38.2824780" lon="-0.6760570">
        <ele>100.1</ele>
        <time>2020-12-06T08:01:57Z</time>
      </trkpt>
      <trkpt lat="38.2824970" lon="-0.6759630">
        <ele>100.1</ele>
        <time>2020-12-06T08:01:58Z</time>
      </trkpt>
      <trkpt lat="38.2825150" lon="-0.6758680">
        <ele>100.1</ele>
        <time>2020-12-06T08:01:59Z</time>
      </trkpt>
      <trkpt lat="38.2825330" lon="-0.6757730">
        <ele>100.1</ele>
        <time>2020-12-06T08:02:00Z</time>
      </trkpt>
      <trkpt lat="38.2825520" lon="-0.6756770">
        <ele>100.1</ele>
        <time>2020-12-06T08:02:01Z</time>
      </trkpt>
      <trkpt lat="38.2825730" lon="-0.6755800">
        <ele>100.1</ele>
        <time>2020-12-06T08:02:02Z</time>
      </trkpt>
      <trkpt lat="38.2825950" lon="-0.6754850">
        <ele>100.1</ele>
        <time>2020-12-06T08:02:03Z</time>
      </trkpt>
      <trkpt lat="38.2826180" lon="-0.6753900">
        <ele>100.1</ele>
        <time>2020-12-06T08:02:04Z</time>
      </trkpt>
      <trkpt lat="38.2826420" lon="-0.6752950">
        <ele>100.1</ele>
        <time>2020-12-06T08:02:05Z</time>
      </trkpt>
      <trkpt lat="38.2826670" lon="-0.6752000">
        <ele>100.1</ele>
        <time>2020-12-06T08:02:06Z</time>
      </trkpt>
      <trkpt lat="38.2826920" lon="-0.6751070">
        <ele>100.1</ele>
        <time>2020-12-06T08:02:07Z</time>
      </trkpt>
      <trkpt lat="38.2827200" lon="-0.6750150">
        <ele>100.1</ele>
        <time>2020-12-06T08:02:08Z</time>
      </trkpt>
      <trkpt lat="38.2827500" lon="-0.6749230">
        <ele>99.1</ele>
        <time>2020-12-06T08:02:09Z</time>
      </trkpt>
      <trkpt lat="38.2827830" lon="-0.6748330">
        <ele>99.1</ele>
        <time>2020-12-06T08:02:10Z</time>
      </trkpt>
      <trkpt lat="38.2828150" lon="-0.6747450">
        <ele>99.1</ele>
        <time>2020-12-06T08:02:11Z</time>
      </trkpt>
      <trkpt lat="38.2828480" lon="-0.6746570">
        <ele>99.1</ele>
        <time>2020-12-06T08:02:12Z</time>
      </trkpt>
      <trkpt lat="38.2828830" lon="-0.6745680">
        <ele>99.1</ele>
        <time>2020-12-06T08:02:13Z</time>
      </trkpt>
      <trkpt lat="38.2829170" lon="-0.6744800">
        <ele>99.1</ele>
        <time>2020-12-06T08:02:14Z</time>
      </trkpt>
      <trkpt lat="38.2829520" lon="-0.6743930">
        <ele>99.1</ele>
        <time>2020-12-06T08:02:15Z</time>
      </trkpt>
      <trkpt lat="38.2829850" lon="-0.6743080">
        <ele>99.1</ele>
        <time>2020-12-06T08:02:16Z</time>
      </trkpt>
      <trkpt lat="38.2830230" lon="-0.6742230">
        <ele>99.1</ele>
        <time>2020-12-06T08:02:17Z</time>
      </trkpt>
      <trkpt lat="38.2830630" lon="-0.6741370">
        <ele>99.1</ele>
        <time>2020-12-06T08:02:18Z</time>
      </trkpt>
      <trkpt lat="38.2831070" lon="-0.6740530">
        <ele>100.1</ele>
        <time>2020-12-06T08:02:19Z</time>
      </trkpt>
      <trkpt lat="38.2831500" lon="-0.6739700">
        <ele>100.1</ele>
        <time>2020-12-06T08:02:20Z</time>
      </trkpt>
      <trkpt lat="38.2831930" lon="-0.6738870">
        <ele>100.1</ele>
        <time>2020-12-06T08:02:21Z</time>
      </trkpt>
      <trkpt lat="38.2832320" lon="-0.6738000">
        <ele>100.1</ele>
        <time>2020-12-06T08:02:22Z</time>
      </trkpt>
      <trkpt lat="38.2832620" lon="-0.6737070">
        <ele>100.1</ele>
        <time>2020-12-06T08:02:23Z</time>
      </trkpt>
      <trkpt lat="38.2832730" lon="-0.6736100">
        <ele>100.1</ele>
        <time>2020-12-06T08:02:24Z</time>
      </trkpt>
      <trkpt lat="38.2832650" lon="-0.6735130">
        <ele>100.1</ele>
        <time>2020-12-06T08:02:25Z</time>
      </trkpt>
      <trkpt lat="38.2832500" lon="-0.6734150">
        <ele>100.1</ele>
        <time>2020-12-06T08:02:26Z</time>
      </trkpt>
      <trkpt lat="38.2832470" lon="-0.6733170">
        <ele>100.1</ele>
        <time>2020-12-06T08:02:27Z</time>
      </trkpt>
      <trkpt lat="38.2832530" lon="-0.6732180">
        <ele>100.1</ele>
        <time>2020-12-06T08:02:28Z</time>
      </trkpt>
      <trkpt lat="38.2832680" lon="-0.6731200">
        <ele>101.0</ele>
        <time>2020-12-06T08:02:29Z</time>
      </trkpt>
      <trkpt lat="38.2832950" lon="-0.6730300">
        <ele>101.0</ele>
        <time>2020-12-06T08:02:30Z</time>
      </trkpt>
      <trkpt lat="38.2833400" lon="-0.6729520">
        <ele>101.0</ele>
        <time>2020-12-06T08:02:31Z</time>
      </trkpt>
      <trkpt lat="38.2834020" lon="-0.6728900">
        <ele>101.0</ele>
        <time>2020-12-06T08:02:32Z</time>
      </trkpt>
      <trkpt lat="38.2834730" lon="-0.6728470">
        <ele>101.0</ele>
        <time>2020-12-06T08:02:33Z</time>
      </trkpt>
      <trkpt lat="38.2835480" lon="-0.6728120">
        <ele>101.0</ele>
        <time>2020-12-06T08:02:34Z</time>
      </trkpt>
      <trkpt lat="38.2836230" lon="-0.6727780">
        <ele>101.0</ele>
        <time>2020-12-06T08:02:35Z</time>
      </trkpt>
      <trkpt lat="38.2836970" lon="-0.6727350">
        <ele>101.0</ele>
        <time>2020-12-06T08:02:36Z</time>
      </trkpt>
      <trkpt lat="38.2837650" lon="-0.6726820">
        <ele>101.0</ele>
        <time>2020-12-06T08:02:37Z</time>
      </trkpt>
      <trkpt lat="38.2838300" lon="-0.6726170">
        <ele>101.0</ele>
        <time>2020-12-06T08:02:38Z</time>
      </trkpt>
      <trkpt lat="38.2838820" lon="-0.6725350">
        <ele>101.0</ele>
        <time>2020-12-06T08:02:39Z</time>
      </trkpt>
      <trkpt lat="38.2839270" lon="-0.6724480">
        <ele>101.0</ele>
        <time>2020-12-06T08:02:40Z</time>
      </trkpt>
      <trkpt lat="38.2839720" lon="-0.6723600">
        <ele>101.0</ele>
        <time>2020-12-06T08:02:41Z</time>
      </trkpt>
      <trkpt lat="38.2840170" lon="-0.6722730">
        <ele>101.0</ele>
        <time>2020-12-06T08:02:42Z</time>
      </trkpt>
      <trkpt lat="38.2840630" lon="-0.6721880">
        <ele>101.0</ele>
        <time>2020-12-06T08:02:43Z</time>
      </trkpt>
      <trkpt lat="38.2841080" lon="-0.6721030">
        <ele>101.0</ele>
        <time>2020-12-06T08:02:44Z</time>
      </trkpt>
      <trkpt lat="38.2841530" lon="-0.6720200">
        <ele>101.0</ele>
        <time>2020-12-06T08:02:45Z</time>
      </trkpt>
      <trkpt lat="38.2842000" lon="-0.6719370">
        <ele>101.0</ele>
        <time>2020-12-06T08:02:46Z</time>
      </trkpt>
      <trkpt lat="38.2842470" lon="-0.6718570">
        <ele>101.0</ele>
        <time>2020-12-06T08:02:47Z</time>
      </trkpt>
      <trkpt lat="38.2842920" lon="-0.6717730">
        <ele>101.0</ele>
        <time>2020-12-06T08:02:48Z</time>
      </trkpt>
      <trkpt lat="38.2843320" lon="-0.6716880">
        <ele>101.0</ele>
        <time>2020-12-06T08:02:49Z</time>
      </trkpt>
      <trkpt lat="38.2843720" lon="-0.6716020">
        <ele>101.0</ele>
        <time>2020-12-06T08:02:50Z</time>
      </trkpt>
      <trkpt lat="38.2844130" lon="-0.6715150">
        <ele>101.0</ele>
        <time>2020-12-06T08:02:51Z</time>
      </trkpt>
      <trkpt lat="38.2844570" lon="-0.6714300">
        <ele>101.0</ele>
        <time>2020-12-06T08:02:52Z</time>
      </trkpt>
      <trkpt lat="38.2844980" lon="-0.6713470">
        <ele>101.0</ele>
        <time>2020-12-06T08:02:53Z</time>
      </trkpt>
      <trkpt lat="38.2845400" lon="-0.6712650">
        <ele>101.0</ele>
        <time>2020-12-06T08:02:54Z</time>
      </trkpt>
      <trkpt lat="38.2845850" lon="-0.6711830">
        <ele>101.0</ele>
        <time>2020-12-06T08:02:55Z</time>
      </trkpt>
      <trkpt lat="38.2846300" lon="-0.6711050">
        <ele>101.0</ele>
        <time>2020-12-06T08:02:56Z</time>
      </trkpt>
      <trkpt lat="38.2846750" lon="-0.6710280">
        <ele>101.0</ele>
        <time>2020-12-06T08:02:57Z</time>
      </trkpt>
      <trkpt lat="38.2847170" lon="-0.6709480">
        <ele>101.0</ele>
        <time>2020-12-06T08:02:58Z</time>
      </trkpt>
      <trkpt lat="38.2847570" lon="-0.6708670">
        <ele>101.0</ele>
        <time>2020-12-06T08:02:59Z</time>
      </trkpt>
      <trkpt lat="38.2847950" lon="-0.6707850">
        <ele>101.0</ele>
        <time>2020-12-06T08:03:00Z</time>
      </trkpt>
      <trkpt lat="38.2848350" lon="-0.6707020">
        <ele>102.1</ele>
        <time>2020-12-06T08:03:01Z</time>
      </trkpt>
      <trkpt lat="38.2848730" lon="-0.6706180">
        <ele>102.1</ele>
        <time>2020-12-06T08:03:02Z</time>
      </trkpt>
      <trkpt lat="38.2849150" lon="-0.6705370">
        <ele>102.1</ele>
        <time>2020-12-06T08:03:03Z</time>
      </trkpt>
      <trkpt lat="38.2849580" lon="-0.6704570">
        <ele>102.1</ele>
        <time>2020-12-06T08:03:04Z</time>
      </trkpt>
      <trkpt lat="38.2850000" lon="-0.6703750">
        <ele>102.1</ele>
        <time>2020-12-06T08:03:05Z</time>
      </trkpt>
      <trkpt lat="38.2850420" lon="-0.6702930">
        <ele>102.1</ele>
        <time>2020-12-06T08:03:06Z</time>
      </trkpt>
      <trkpt lat="38.2850830" lon="-0.6702130">
        <ele>102.1</ele>
        <time>2020-12-06T08:03:07Z</time>
      </trkpt>
      <trkpt lat="38.2851270" lon="-0.6701320">
        <ele>102.1</ele>
        <time>2020-12-06T08:03:08Z</time>
      </trkpt>
      <trkpt lat="38.2851680" lon="-0.6700500">
        <ele>102.1</ele>
        <time>2020-12-06T08:03:09Z</time>
      </trkpt>
      <trkpt lat="38.2852100" lon="-0.6699670">
        <ele>102.1</ele>
        <time>2020-12-06T08:03:10Z</time>
      </trkpt>
      <trkpt lat="38.2852530" lon="-0.6698830">
        <ele>102.1</ele>
        <time>2020-12-06T08:03:11Z</time>
      </trkpt>
      <trkpt lat="38.2852970" lon="-0.6697950">
        <ele>102.1</ele>
        <time>2020-12-06T08:03:12Z</time>
      </trkpt>
      <trkpt lat="38.2853430" lon="-0.6697070">
        <ele>102.1</ele>
        <time>2020-12-06T08:03:13Z</time>
      </trkpt>
      <trkpt lat="38.2853870" lon="-0.6696180">
        <ele>102.1</ele>
        <time>2020-12-06T08:03:14Z</time>
      </trkpt>
      <trkpt lat="38.2854350" lon="-0.6695330">
        <ele>102.1</ele>
        <time>2020-12-06T08:03:15Z</time>
      </trkpt>
      <trkpt lat="38.2854800" lon="-0.6694480">
        <ele>102.1</ele>
        <time>2020-12-06T08:03:16Z</time>
      </trkpt>
      <trkpt lat="38.2855230" lon="-0.6693620">
        <ele>102.1</ele>
        <time>2020-12-06T08:03:17Z</time>
      </trkpt>
      <trkpt lat="38.2855650" lon="-0.6692730">
        <ele>102.1</ele>
        <time>2020-12-06T08:03:18Z</time>
      </trkpt>
      <trkpt lat="38.2856070" lon="-0.6691870">
        <ele>102.1</ele>
        <time>2020-12-06T08:03:19Z</time>
      </trkpt>
      <trkpt lat="38.2856470" lon="-0.6690980">
        <ele>102.1</ele>
        <time>2020-12-06T08:03:20Z</time>
      </trkpt>
      <trkpt lat="38.2856850" lon="-0.6690080">
        <ele>102.1</ele>
        <time>2020-12-06T08:03:21Z</time>
      </trkpt>
      <trkpt lat="38.2857230" lon="-0.6689180">
        <ele>102.1</ele>
        <time>2020-12-06T08:03:22Z</time>
      </trkpt>
      <trkpt lat="38.2857600" lon="-0.6688280">
        <ele>102.1</ele>
        <time>2020-12-06T08:03:23Z</time>
      </trkpt>
      <trkpt lat="38.2857950" lon="-0.6687380">
        <ele>102.1</ele>
        <time>2020-12-06T08:03:24Z</time>
      </trkpt>
      <trkpt lat="38.2858280" lon="-0.6686480">
        <ele>102.1</ele>
        <time>2020-12-06T08:03:25Z</time>
      </trkpt>
      <trkpt lat="38.2858600" lon="-0.6685580">
        <ele>102.1</ele>
        <time>2020-12-06T08:03:26Z</time>
      </trkpt>
      <trkpt lat="38.2858880" lon="-0.6684680">
        <ele>102.1</ele>
        <time>2020-12-06T08:03:27Z</time>
      </trkpt>
      <trkpt lat="38.2859150" lon="-0.6683770">
        <ele>102.1</ele>
        <time>2020-12-06T08:03:28Z</time>
      </trkpt>
      <trkpt lat="38.2859400" lon="-0.6682870">
        <ele>102.1</ele>
        <time>2020-12-06T08:03:29Z</time>
      </trkpt>
      <trkpt lat="38.2859650" lon="-0.6681950">
        <ele>102.1</ele>
        <time>2020-12-06T08:03:30Z</time>
      </trkpt>
      <trkpt lat="38.2859830" lon="-0.6681030">
        <ele>103.0</ele>
        <time>2020-12-06T08:03:31Z</time>
      </trkpt>
      <trkpt lat="38.2860000" lon="-0.6680120">
        <ele>103.0</ele>
        <time>2020-12-06T08:03:32Z</time>
      </trkpt>
      <trkpt lat="38.2860200" lon="-0.6679200">
        <ele>103.0</ele>
        <time>2020-12-06T08:03:33Z</time>
      </trkpt>
      <trkpt lat="38.2860380" lon="-0.6678280">
        <ele>103.0</ele>
        <time>2020-12-06T08:03:34Z</time>
      </trkpt>
      <trkpt lat="38.2860530" lon="-0.6677370">
        <ele>103.0</ele>
        <time>2020-12-06T08:03:35Z</time>
      </trkpt>
      <trkpt lat="38.2860700" lon="-0.6676450">
        <ele>103.0</ele>
        <time>2020-12-06T08:03:36Z</time>
      </trkpt>
      <trkpt lat="38.2860870" lon="-0.6675530">
        <ele>103.0</ele>
        <time>2020-12-06T08:03:37Z</time>
      </trkpt>
      <trkpt lat="38.2861000" lon="-0.6674620">
        <ele>103.0</ele>
        <time>2020-12-06T08:03:38Z</time>
      </trkpt>
      <trkpt lat="38.2861150" lon="-0.6673700">
        <ele>104.1</ele>
        <time>2020-12-06T08:03:39Z</time>
      </trkpt>
      <trkpt lat="38.2861300" lon="-0.6672780">
        <ele>104.1</ele>
        <time>2020-12-06T08:03:40Z</time>
      </trkpt>
      <trkpt lat="38.2861480" lon="-0.6671880">
        <ele>104.1</ele>
        <time>2020-12-06T08:03:41Z</time>
      </trkpt>
      <trkpt lat="38.2861630" lon="-0.6670970">
        <ele>104.1</ele>
        <time>2020-12-06T08:03:42Z</time>
      </trkpt>
      <trkpt lat="38.2861770" lon="-0.6670050">
        <ele>104.1</ele>
        <time>2020-12-06T08:03:43Z</time>
      </trkpt>
      <trkpt lat="38.2861900" lon="-0.6669130">
        <ele>104.1</ele>
        <time>2020-12-06T08:03:44Z</time>
      </trkpt>
      <trkpt lat="38.2862030" lon="-0.6668230">
        <ele>104.1</ele>
        <time>2020-12-06T08:03:45Z</time>
      </trkpt>
      <trkpt lat="38.2862180" lon="-0.6667320">
        <ele>104.1</ele>
        <time>2020-12-06T08:03:46Z</time>
      </trkpt>
      <trkpt lat="38.2862350" lon="-0.6666400">
        <ele>104.1</ele>
        <time>2020-12-06T08:03:47Z</time>
      </trkpt>
      <trkpt lat="38.2862520" lon="-0.6665500">
        <ele>104.1</ele>
        <time>2020-12-06T08:03:48Z</time>
      </trkpt>
      <trkpt lat="38.2862650" lon="-0.6664570">
        <ele>105.0</ele>
        <time>2020-12-06T08:03:49Z</time>
      </trkpt>
      <trkpt lat="38.2862800" lon="-0.6663630">
        <ele>105.0</ele>
        <time>2020-12-06T08:03:50Z</time>
      </trkpt>
      <trkpt lat="38.2862900" lon="-0.6662680">
        <ele>105.0</ele>
        <time>2020-12-06T08:03:51Z</time>
      </trkpt>
      <trkpt lat="38.2862870" lon="-0.6661730">
        <ele>105.0</ele>
        <time>2020-12-06T08:03:52Z</time>
      </trkpt>
      <trkpt lat="38.2862680" lon="-0.6660820">
        <ele>105.0</ele>
        <time>2020-12-06T08:03:53Z</time>
      </trkpt>
      <trkpt lat="38.2862330" lon="-0.6659970">
        <ele>105.0</ele>
        <time>2020-12-06T08:03:54Z</time>
      </trkpt>
      <trkpt lat="38.2861880" lon="-0.6659200">
        <ele>106.1</ele>
        <time>2020-12-06T08:03:55Z</time>
      </trkpt>
      <trkpt lat="38.2861380" lon="-0.6658430">
        <ele>106.1</ele>
        <time>2020-12-06T08:03:56Z</time>
      </trkpt>
      <trkpt lat="38.2860970" lon="-0.6657600">
        <ele>106.1</ele>
        <time>2020-12-06T08:03:57Z</time>
      </trkpt>
      <trkpt lat="38.2860620" lon="-0.6656680">
        <ele>106.1</ele>
        <time>2020-12-06T08:03:58Z</time>
      </trkpt>
      <trkpt lat="38.2860350" lon="-0.6655700">
        <ele>106.1</ele>
        <time>2020-12-06T08:03:59Z</time>
      </trkpt>
      <trkpt lat="38.2860220" lon="-0.6654680">
        <ele>106.1</ele>
        <time>2020-12-06T08:04:00Z</time>
      </trkpt>
      <trkpt lat="38.2860200" lon="-0.6653620">
        <ele>105.0</ele>
        <time>2020-12-06T08:04:01Z</time>
      </trkpt>
      <trkpt lat="38.2860300" lon="-0.6652580">
        <ele>105.0</ele>
        <time>2020-12-06T08:04:02Z</time>
      </trkpt>
      <trkpt lat="38.2860520" lon="-0.6651580">
        <ele>105.0</ele>
        <time>2020-12-06T08:04:03Z</time>
      </trkpt>
      <trkpt lat="38.2860880" lon="-0.6650650">
        <ele>105.0</ele>
        <time>2020-12-06T08:04:04Z</time>
      </trkpt>
      <trkpt lat="38.2861330" lon="-0.6649820">
        <ele>105.0</ele>
        <time>2020-12-06T08:04:05Z</time>
      </trkpt>
      <trkpt lat="38.2861870" lon="-0.6649080">
        <ele>105.0</ele>
        <time>2020-12-06T08:04:06Z</time>
      </trkpt>
      <trkpt lat="38.2862450" lon="-0.6648420">
        <ele>105.0</ele>
        <time>2020-12-06T08:04:07Z</time>
      </trkpt>
      <trkpt lat="38.2863080" lon="-0.6647880">
        <ele>105.0</ele>
        <time>2020-12-06T08:04:08Z</time>
      </trkpt>
      <trkpt lat="38.2863720" lon="-0.6647330">
        <ele>105.0</ele>
        <time>2020-12-06T08:04:09Z</time>
      </trkpt>
      <trkpt lat="38.2864280" lon="-0.6646700">
        <ele>105.0</ele>
        <time>2020-12-06T08:04:10Z</time>
      </trkpt>
      <trkpt lat="38.2864800" lon="-0.6646000">
        <ele>104.1</ele>
        <time>2020-12-06T08:04:11Z</time>
      </trkpt>
      <trkpt lat="38.2865230" lon="-0.6645200">
        <ele>104.1</ele>
        <time>2020-12-06T08:04:12Z</time>
      </trkpt>
      <trkpt lat="38.2865530" lon="-0.6644280">
        <ele>104.1</ele>
        <time>2020-12-06T08:04:13Z</time>
      </trkpt>
      <trkpt lat="38.2865750" lon="-0.6643320">
        <ele>104.1</ele>
        <time>2020-12-06T08:04:14Z</time>
      </trkpt>
      <trkpt lat="38.2865930" lon="-0.6642330">
        <ele>104.1</ele>
        <time>2020-12-06T08:04:15Z</time>
      </trkpt>
      <trkpt lat="38.2866120" lon="-0.6641350">
        <ele>104.1</ele>
        <time>2020-12-06T08:04:16Z</time>
      </trkpt>
      <trkpt lat="38.2866330" lon="-0.6640330">
        <ele>104.1</ele>
        <time>2020-12-06T08:04:17Z</time>
      </trkpt>
      <trkpt lat="38.2866550" lon="-0.6639280">
        <ele>104.1</ele>
        <time>2020-12-06T08:04:18Z</time>
      </trkpt>
      <trkpt lat="38.2866750" lon="-0.6638180">
        <ele>104.1</ele>
        <time>2020-12-06T08:04:19Z</time>
      </trkpt>
      <trkpt lat="38.2866950" lon="-0.6637070">
        <ele>104.1</ele>
        <time>2020-12-06T08:04:20Z</time>
      </trkpt>
      <trkpt lat="38.2867180" lon="-0.6635970">
        <ele>104.1</ele>
        <time>2020-12-06T08:04:21Z</time>
      </trkpt>
      <trkpt lat="38.2867420" lon="-0.6634870">
        <ele>104.1</ele>
        <time>2020-12-06T08:04:22Z</time>
      </trkpt>
      <trkpt lat="38.2867650" lon="-0.6633770">
        <ele>104.1</ele>
        <time>2020-12-06T08:04:23Z</time>
      </trkpt>
      <trkpt lat="38.2867900" lon="-0.6632670">
        <ele>104.1</ele>
        <time>2020-12-06T08:04:24Z</time>
      </trkpt>
      <trkpt lat="38.2868120" lon="-0.6631530">
        <ele>104.1</ele>
        <time>2020-12-06T08:04:25Z</time>
      </trkpt>
      <trkpt lat="38.2868320" lon="-0.6630400">
        <ele>104.1</ele>
        <time>2020-12-06T08:04:26Z</time>
      </trkpt>
      <trkpt lat="38.2868520" lon="-0.6629250">
        <ele>104.1</ele>
        <time>2020-12-06T08:04:27Z</time>
      </trkpt>
      <trkpt lat="38.2868730" lon="-0.6628120">
        <ele>104.1</ele>
        <time>2020-12-06T08:04:28Z</time>
      </trkpt>
      <trkpt lat="38.2869000" lon="-0.6626980">
        <ele>104.1</ele>
        <time>2020-12-06T08:04:29Z</time>
      </trkpt>
      <trkpt lat="38.2869270" lon="-0.6625850">
        <ele>104.1</ele>
        <time>2020-12-06T08:04:30Z</time>
      </trkpt>
      <trkpt lat="38.2869530" lon="-0.6624700">
        <ele>104.1</ele>
        <time>2020-12-06T08:04:31Z</time>
      </trkpt>
      <trkpt lat="38.2869800" lon="-0.6623530">
        <ele>104.1</ele>
        <time>2020-12-06T08:04:32Z</time>
      </trkpt>
      <trkpt lat="38.2870070" lon="-0.6622370">
        <ele>104.1</ele>
        <time>2020-12-06T08:04:33Z</time>
      </trkpt>
      <trkpt lat="38.2870370" lon="-0.6621200">
        <ele>104.1</ele>
        <time>2020-12-06T08:04:34Z</time>
      </trkpt>
      <trkpt lat="38.2870650" lon="-0.6620030">
        <ele>103.0</ele>
        <time>2020-12-06T08:04:35Z</time>
      </trkpt>
      <trkpt lat="38.2870930" lon="-0.6618850">
        <ele>103.0</ele>
        <time>2020-12-06T08:04:36Z</time>
      </trkpt>
      <trkpt lat="38.2871220" lon="-0.6617680">
        <ele>103.0</ele>
        <time>2020-12-06T08:04:37Z</time>
      </trkpt>
      <trkpt lat="38.2871520" lon="-0.6616500">
        <ele>103.0</ele>
        <time>2020-12-06T08:04:38Z</time>
      </trkpt>
      <trkpt lat="38.2871830" lon="-0.6615330">
        <ele>103.0</ele>
        <time>2020-12-06T08:04:39Z</time>
      </trkpt>
      <trkpt lat="38.2872150" lon="-0.6614150">
        <ele>103.0</ele>
        <time>2020-12-06T08:04:40Z</time>
      </trkpt>
      <trkpt lat="38.2872480" lon="-0.6612970">
        <ele>103.0</ele>
        <time>2020-12-06T08:04:41Z</time>
      </trkpt>
      <trkpt lat="38.2872820" lon="-0.6611800">
        <ele>103.0</ele>
        <time>2020-12-06T08:04:42Z</time>
      </trkpt>
      <trkpt lat="38.2873150" lon="-0.6610620">
        <ele>102.1</ele>
        <time>2020-12-06T08:04:43Z</time>
      </trkpt>
      <trkpt lat="38.2873480" lon="-0.6609420">
        <ele>102.1</ele>
        <time>2020-12-06T08:04:44Z</time>
      </trkpt>
      <trkpt lat="38.2873820" lon="-0.6608200">
        <ele>102.1</ele>
        <time>2020-12-06T08:04:45Z</time>
      </trkpt>
      <trkpt lat="38.2874130" lon="-0.6606980">
        <ele>102.1</ele>
        <time>2020-12-06T08:04:46Z</time>
      </trkpt>
      <trkpt lat="38.2874470" lon="-0.6605770">
        <ele>101.0</ele>
        <time>2020-12-06T08:04:47Z</time>
      </trkpt>
      <trkpt lat="38.2874820" lon="-0.6604530">
        <ele>101.0</ele>
        <time>2020-12-06T08:04:48Z</time>
      </trkpt>
      <trkpt lat="38.2875170" lon="-0.6603300">
        <ele>101.0</ele>
        <time>2020-12-06T08:04:49Z</time>
      </trkpt>
      <trkpt lat="38.2875520" lon="-0.6602070">
        <ele>101.0</ele>
        <time>2020-12-06T08:04:50Z</time>
      </trkpt>
      <trkpt lat="38.2875850" lon="-0.6600850">
        <ele>101.0</ele>
        <time>2020-12-06T08:04:51Z</time>
      </trkpt>
      <trkpt lat="38.2876200" lon="-0.6599620">
        <ele>101.0</ele>
        <time>2020-12-06T08:04:52Z</time>
      </trkpt>
      <trkpt lat="38.2876550" lon="-0.6598370">
        <ele>100.1</ele>
        <time>2020-12-06T08:04:53Z</time>
      </trkpt>
      <trkpt lat="38.2876900" lon="-0.6597120">
        <ele>100.1</ele>
        <time>2020-12-06T08:04:54Z</time>
      </trkpt>
      <trkpt lat="38.2877250" lon="-0.6595850">
        <ele>100.1</ele>
        <time>2020-12-06T08:04:55Z</time>
      </trkpt>
      <trkpt lat="38.2877570" lon="-0.6594580">
        <ele>100.1</ele>
        <time>2020-12-06T08:04:56Z</time>
      </trkpt>
      <trkpt lat="38.2877900" lon="-0.6593300">
        <ele>100.1</ele>
        <time>2020-12-06T08:04:57Z</time>
      </trkpt>
      <trkpt lat="38.2878230" lon="-0.6592030">
        <ele>100.1</ele>
        <time>2020-12-06T08:04:58Z</time>
      </trkpt>
      <trkpt lat="38.2878530" lon="-0.6590750">
        <ele>100.1</ele>
        <time>2020-12-06T08:04:59Z</time>
      </trkpt>
      <trkpt lat="38.2878850" lon="-0.6589450">
        <ele>100.1</ele>
        <time>2020-12-06T08:05:00Z</time>
      </trkpt>
      <trkpt lat="38.2879170" lon="-0.6588150">
        <ele>100.1</ele>
        <time>2020-12-06T08:05:01Z</time>
      </trkpt>
      <trkpt lat="38.2879430" lon="-0.6586830">
        <ele>100.1</ele>
        <time>2020-12-06T08:05:02Z</time>
      </trkpt>
      <trkpt lat="38.2879700" lon="-0.6585500">
        <ele>99.1</ele>
        <time>2020-12-06T08:05:03Z</time>
      </trkpt>
      <trkpt lat="38.2879950" lon="-0.6584180">
        <ele>99.1</ele>
        <time>2020-12-06T08:05:04Z</time>
      </trkpt>
      <trkpt lat="38.2880220" lon="-0.6582870">
        <ele>99.1</ele>
        <time>2020-12-06T08:05:05Z</time>
      </trkpt>
      <trkpt lat="38.2880470" lon="-0.6581550">
        <ele>99.1</ele>
        <time>2020-12-06T08:05:06Z</time>
      </trkpt>
      <trkpt lat="38.2880700" lon="-0.6580230">
        <ele>98.1</ele>
        <time>2020-12-06T08:05:07Z</time>
      </trkpt>
      <trkpt lat="38.2880920" lon="-0.6578930">
        <ele>98.1</ele>
        <time>2020-12-06T08:05:08Z</time>
      </trkpt>
      <trkpt lat="38.2881100" lon="-0.6577630">
        <ele>98.1</ele>
        <time>2020-12-06T08:05:09Z</time>
      </trkpt>
      <trkpt lat="38.2881270" lon="-0.6576350">
        <ele>98.1</ele>
        <time>2020-12-06T08:05:10Z</time>
      </trkpt>
      <trkpt lat="38.2881420" lon="-0.6575070">
        <ele>98.1</ele>
        <time>2020-12-06T08:05:11Z</time>
      </trkpt>
      <trkpt lat="38.2881550" lon="-0.6573780">
        <ele>98.1</ele>
        <time>2020-12-06T08:05:12Z</time>
      </trkpt>
      <trkpt lat="38.2881680" lon="-0.6572520">
        <ele>98.1</ele>
        <time>2020-12-06T08:05:13Z</time>
      </trkpt>
      <trkpt lat="38.2881800" lon="-0.6571250">
        <ele>98.1</ele>
        <time>2020-12-06T08:05:14Z</time>
      </trkpt>
      <trkpt lat="38.2881900" lon="-0.6570000">
        <ele>98.1</ele>
        <time>2020-12-06T08:05:15Z</time>
      </trkpt>
      <trkpt lat="38.2882000" lon="-0.6568750">
        <ele>98.1</ele>
        <time>2020-12-06T08:05:16Z</time>
      </trkpt>
      <trkpt lat="38.2882100" lon="-0.6567520">
        <ele>98.1</ele>
        <time>2020-12-06T08:05:17Z</time>
      </trkpt>
      <trkpt lat="38.2882220" lon="-0.6566280">
        <ele>98.1</ele>
        <time>2020-12-06T08:05:18Z</time>
      </trkpt>
      <trkpt lat="38.2882300" lon="-0.6565080">
        <ele>98.1</ele>
        <time>2020-12-06T08:05:19Z</time>
      </trkpt>
      <trkpt lat="38.2882380" lon="-0.6563880">
        <ele>98.1</ele>
        <time>2020-12-06T08:05:20Z</time>
      </trkpt>
      <trkpt lat="38.2882480" lon="-0.6562680">
        <ele>98.1</ele>
        <time>2020-12-06T08:05:21Z</time>
      </trkpt>
      <trkpt lat="38.2882580" lon="-0.6561480">
        <ele>98.1</ele>
        <time>2020-12-06T08:05:22Z</time>
      </trkpt>
      <trkpt lat="38.2882680" lon="-0.6560300">
        <ele>98.1</ele>
        <time>2020-12-06T08:05:23Z</time>
      </trkpt>
      <trkpt lat="38.2882770" lon="-0.6559100">
        <ele>98.1</ele>
        <time>2020-12-06T08:05:24Z</time>
      </trkpt>
      <trkpt lat="38.2882850" lon="-0.6557920">
        <ele>98.1</ele>
        <time>2020-12-06T08:05:25Z</time>
      </trkpt>
      <trkpt lat="38.2882930" lon="-0.6556720">
        <ele>98.1</ele>
        <time>2020-12-06T08:05:26Z</time>
      </trkpt>
      <trkpt lat="38.2883000" lon="-0.6555520">
        <ele>98.1</ele>
        <time>2020-12-06T08:05:27Z</time>
      </trkpt>
      <trkpt lat="38.2883070" lon="-0.6554320">
        <ele>98.1</ele>
        <time>2020-12-06T08:05:28Z</time>
      </trkpt>
      <trkpt lat="38.2883150" lon="-0.6553130">
        <ele>97.1</ele>
        <time>2020-12-06T08:05:29Z</time>
      </trkpt>
      <trkpt lat="38.2883250" lon="-0.6551950">
        <ele>97.1</ele>
        <time>2020-12-06T08:05:30Z</time>
      </trkpt>
      <trkpt lat="38.2883350" lon="-0.6550750">
        <ele>97.1</ele>
        <time>2020-12-06T08:05:31Z</time>
      </trkpt>
      <trkpt lat="38.2883450" lon="-0.6549570">
        <ele>97.1</ele>
        <time>2020-12-06T08:05:32Z</time>
      </trkpt>
      <trkpt lat="38.2883550" lon="-0.6548370">
        <ele>97.1</ele>
        <time>2020-12-06T08:05:33Z</time>
      </trkpt>
      <trkpt lat="38.2883650" lon="-0.6547170">
        <ele>97.1</ele>
        <time>2020-12-06T08:05:34Z</time>
      </trkpt>
      <trkpt lat="38.2883730" lon="-0.6545970">
        <ele>97.1</ele>
        <time>2020-12-06T08:05:35Z</time>
      </trkpt>
      <trkpt lat="38.2883820" lon="-0.6544770">
        <ele>97.1</ele>
        <time>2020-12-06T08:05:36Z</time>
      </trkpt>
      <trkpt lat="38.2883900" lon="-0.6543580">
        <ele>97.1</ele>
        <time>2020-12-06T08:05:37Z</time>
      </trkpt>
      <trkpt lat="38.2883980" lon="-0.6542380">
        <ele>97.1</ele>
        <time>2020-12-06T08:05:38Z</time>
      </trkpt>
      <trkpt lat="38.2884070" lon="-0.6541180">
        <ele>97.1</ele>
        <time>2020-12-06T08:05:39Z</time>
      </trkpt>
      <trkpt lat="38.2884150" lon="-0.6539980">
        <ele>97.1</ele>
        <time>2020-12-06T08:05:40Z</time>
      </trkpt>
      <trkpt lat="38.2884250" lon="-0.6538780">
        <ele>97.1</ele>
        <time>2020-12-06T08:05:41Z</time>
      </trkpt>
      <trkpt lat="38.2884330" lon="-0.6537600">
        <ele>97.1</ele>
        <time>2020-12-06T08:05:42Z</time>
      </trkpt>
      <trkpt lat="38.2884420" lon="-0.6536400">
        <ele>97.1</ele>
        <time>2020-12-06T08:05:43Z</time>
      </trkpt>
      <trkpt lat="38.2884500" lon="-0.6535220">
        <ele>97.1</ele>
        <time>2020-12-06T08:05:44Z</time>
      </trkpt>
      <trkpt lat="38.2884580" lon="-0.6534030">
        <ele>97.1</ele>
        <time>2020-12-06T08:05:45Z</time>
      </trkpt>
      <trkpt lat="38.2884670" lon="-0.6532830">
        <ele>97.1</ele>
        <time>2020-12-06T08:05:46Z</time>
      </trkpt>
      <trkpt lat="38.2884750" lon="-0.6531650">
        <ele>97.1</ele>
        <time>2020-12-06T08:05:47Z</time>
      </trkpt>
      <trkpt lat="38.2884850" lon="-0.6530450">
        <ele>97.1</ele>
        <time>2020-12-06T08:05:48Z</time>
      </trkpt>
      <trkpt lat="38.2884930" lon="-0.6529270">
        <ele>97.1</ele>
        <time>2020-12-06T08:05:49Z</time>
      </trkpt>
      <trkpt lat="38.2885020" lon="-0.6528080">
        <ele>97.1</ele>
        <time>2020-12-06T08:05:50Z</time>
      </trkpt>
      <trkpt lat="38.2885080" lon="-0.6526920">
        <ele>97.1</ele>
        <time>2020-12-06T08:05:51Z</time>
      </trkpt>
      <trkpt lat="38.2885150" lon="-0.6525750">
        <ele>97.1</ele>
        <time>2020-12-06T08:05:52Z</time>
      </trkpt>
      <trkpt lat="38.2885230" lon="-0.6524570">
        <ele>97.1</ele>
        <time>2020-12-06T08:05:53Z</time>
      </trkpt>
      <trkpt lat="38.2885320" lon="-0.6523400">
        <ele>97.1</ele>
        <time>2020-12-06T08:05:54Z</time>
      </trkpt>
      <trkpt lat="38.2885400" lon="-0.6522230">
        <ele>97.1</ele>
        <time>2020-12-06T08:05:55Z</time>
      </trkpt>
      <trkpt lat="38.2885500" lon="-0.6521070">
        <ele>97.1</ele>
        <time>2020-12-06T08:05:56Z</time>
      </trkpt>
      <trkpt lat="38.2885580" lon="-0.6519880">
        <ele>97.1</ele>
        <time>2020-12-06T08:05:57Z</time>
      </trkpt>
      <trkpt lat="38.2885680" lon="-0.6518720">
        <ele>97.1</ele>
        <time>2020-12-06T08:05:58Z</time>
      </trkpt>
      <trkpt lat="38.2885780" lon="-0.6517550">
        <ele>97.1</ele>
        <time>2020-12-06T08:05:59Z</time>
      </trkpt>
      <trkpt lat="38.2885880" lon="-0.6516380">
        <ele>97.1</ele>
        <time>2020-12-06T08:06:00Z</time>
      </trkpt>
      <trkpt lat="38.2885970" lon="-0.6515220">
        <ele>97.1</ele>
        <time>2020-12-06T08:06:01Z</time>
      </trkpt>
      <trkpt lat="38.2886050" lon="-0.6514050">
        <ele>97.1</ele>
        <time>2020-12-06T08:06:02Z</time>
      </trkpt>
      <trkpt lat="38.2886130" lon="-0.6512880">
        <ele>97.1</ele>
        <time>2020-12-06T08:06:03Z</time>
      </trkpt>
      <trkpt lat="38.2886200" lon="-0.6511730">
        <ele>97.1</ele>
        <time>2020-12-06T08:06:04Z</time>
      </trkpt>
      <trkpt lat="38.2886280" lon="-0.6510570">
        <ele>97.1</ele>
        <time>2020-12-06T08:06:05Z</time>
      </trkpt>
      <trkpt lat="38.2886380" lon="-0.6509420">
        <ele>97.1</ele>
        <time>2020-12-06T08:06:06Z</time>
      </trkpt>
      <trkpt lat="38.2886470" lon="-0.6508270">
        <ele>97.1</ele>
        <time>2020-12-06T08:06:07Z</time>
      </trkpt>
      <trkpt lat="38.2886550" lon="-0.6507120">
        <ele>97.1</ele>
        <time>2020-12-06T08:06:08Z</time>
      </trkpt>
      <trkpt lat="38.2886630" lon="-0.6505980">
        <ele>97.1</ele>
        <time>2020-12-06T08:06:09Z</time>
      </trkpt>
      <trkpt lat="38.2886720" lon="-0.6504850">
        <ele>97.1</ele>
        <time>2020-12-06T08:06:10Z</time>
      </trkpt>
      <trkpt lat="38.2886800" lon="-0.6503720">
        <ele>97.1</ele>
        <time>2020-12-06T08:06:11Z</time>
      </trkpt>
      <trkpt lat="38.2886880" lon="-0.6502600">
        <ele>97.1</ele>
        <time>2020-12-06T08:06:12Z</time>
      </trkpt>
      <trkpt lat="38.2886930" lon="-0.6501480">
        <ele>97.1</ele>
        <time>2020-12-06T08:06:13Z</time>
      </trkpt>
      <trkpt lat="38.2886880" lon="-0.6500380">
        <ele>97.1</ele>
        <time>2020-12-06T08:06:14Z</time>
      </trkpt>
      <trkpt lat="38.2886680" lon="-0.6499300">
        <ele>97.1</ele>
        <time>2020-12-06T08:06:15Z</time>
      </trkpt>
      <trkpt lat="38.2886300" lon="-0.6498300">
        <ele>97.1</ele>
        <time>2020-12-06T08:06:16Z</time>
      </trkpt>
      <trkpt lat="38.2885820" lon="-0.6497350">
        <ele>98.1</ele>
        <time>2020-12-06T08:06:17Z</time>
      </trkpt>
      <trkpt lat="38.2885430" lon="-0.6496350">
        <ele>98.1</ele>
        <time>2020-12-06T08:06:18Z</time>
      </trkpt>
      <trkpt lat="38.2885200" lon="-0.6495250">
        <ele>98.1</ele>
        <time>2020-12-06T08:06:19Z</time>
      </trkpt>
      <trkpt lat="38.2885130" lon="-0.6494120">
        <ele>98.1</ele>
        <time>2020-12-06T08:06:20Z</time>
      </trkpt>
      <trkpt lat="38.2885230" lon="-0.6493000">
        <ele>98.1</ele>
        <time>2020-12-06T08:06:21Z</time>
      </trkpt>
      <trkpt lat="38.2885520" lon="-0.6491930">
        <ele>98.1</ele>
        <time>2020-12-06T08:06:22Z</time>
      </trkpt>
      <trkpt lat="38.2885950" lon="-0.6490930">
        <ele>98.1</ele>
        <time>2020-12-06T08:06:23Z</time>
      </trkpt>
      <trkpt lat="38.2886570" lon="-0.6490120">
        <ele>98.1</ele>
        <time>2020-12-06T08:06:24Z</time>
      </trkpt>
      <trkpt lat="38.2887270" lon="-0.6489430">
        <ele>98.1</ele>
        <time>2020-12-06T08:06:25Z</time>
      </trkpt>
      <trkpt lat="38.2887950" lon="-0.6488750">
        <ele>98.1</ele>
        <time>2020-12-06T08:06:26Z</time>
      </trkpt>
      <trkpt lat="38.2888520" lon="-0.6487930">
        <ele>98.1</ele>
        <time>2020-12-06T08:06:27Z</time>
      </trkpt>
      <trkpt lat="38.2888970" lon="-0.6487000">
        <ele>98.1</ele>
        <time>2020-12-06T08:06:28Z</time>
      </trkpt>
      <trkpt lat="38.2889250" lon="-0.6485980">
        <ele>98.1</ele>
        <time>2020-12-06T08:06:29Z</time>
      </trkpt>
      <trkpt lat="38.2889500" lon="-0.6484950">
        <ele>98.1</ele>
        <time>2020-12-06T08:06:30Z</time>
      </trkpt>
      <trkpt lat="38.2889730" lon="-0.6483930">
        <ele>98.1</ele>
        <time>2020-12-06T08:06:31Z</time>
      </trkpt>
      <trkpt lat="38.2889920" lon="-0.6482900">
        <ele>98.1</ele>
        <time>2020-12-06T08:06:32Z</time>
      </trkpt>
      <trkpt lat="38.2890100" lon="-0.6481880">
        <ele>98.1</ele>
        <time>2020-12-06T08:06:33Z</time>
      </trkpt>
      <trkpt lat="38.2890330" lon="-0.6480870">
        <ele>98.1</ele>
        <time>2020-12-06T08:06:34Z</time>
      </trkpt>
      <trkpt lat="38.2890550" lon="-0.6479820">
        <ele>98.1</ele>
        <time>2020-12-06T08:06:35Z</time>
      </trkpt>
      <trkpt lat="38.2890770" lon="-0.6478770">
        <ele>98.1</ele>
        <time>2020-12-06T08:06:36Z</time>
      </trkpt>
      <trkpt lat="38.2890970" lon="-0.6477680">
        <ele>98.1</ele>
        <time>2020-12-06T08:06:37Z</time>
      </trkpt>
      <trkpt lat="38.2891170" lon="-0.6476580">
        <ele>98.1</ele>
        <time>2020-12-06T08:06:38Z</time>
      </trkpt>
      <trkpt lat="38.2891420" lon="-0.6475480">
        <ele>98.1</ele>
        <time>2020-12-06T08:06:39Z</time>
      </trkpt>
      <trkpt lat="38.2891670" lon="-0.6474380">
        <ele>98.1</ele>
        <time>2020-12-06T08:06:40Z</time>
      </trkpt>
      <trkpt lat="38.2891880" lon="-0.6473280">
        <ele>98.1</ele>
        <time>2020-12-06T08:06:41Z</time>
      </trkpt>
      <trkpt lat="38.2892130" lon="-0.6472220">
        <ele>98.1</ele>
        <time>2020-12-06T08:06:42Z</time>
      </trkpt>
      <trkpt lat="38.2892370" lon="-0.6471150">
        <ele>98.1</ele>
        <time>2020-12-06T08:06:43Z</time>
      </trkpt>
      <trkpt lat="38.2892620" lon="-0.6470080">
        <ele>98.1</ele>
        <time>2020-12-06T08:06:44Z</time>
      </trkpt>
      <trkpt lat="38.2892820" lon="-0.6469020">
        <ele>98.1</ele>
        <time>2020-12-06T08:06:45Z</time>
      </trkpt>
      <trkpt lat="38.2893020" lon="-0.6467970">
        <ele>98.1</ele>
        <time>2020-12-06T08:06:46Z</time>
      </trkpt>
      <trkpt lat="38.2893250" lon="-0.6466950">
        <ele>99.1</ele>
        <time>2020-12-06T08:06:47Z</time>
      </trkpt>
      <trkpt lat="38.2893480" lon="-0.6465930">
        <ele>99.1</ele>
        <time>2020-12-06T08:06:48Z</time>
      </trkpt>
      <trkpt lat="38.2893730" lon="-0.6464930">
        <ele>99.1</ele>
        <time>2020-12-06T08:06:49Z</time>
      </trkpt>
      <trkpt lat="38.2893970" lon="-0.6463930">
        <ele>99.1</ele>
        <time>2020-12-06T08:06:50Z</time>
      </trkpt>
      <trkpt lat="38.2894220" lon="-0.6462950">
        <ele>98.1</ele>
        <time>2020-12-06T08:06:51Z</time>
      </trkpt>
      <trkpt lat="38.2894480" lon="-0.6461980">
        <ele>98.1</ele>
        <time>2020-12-06T08:06:52Z</time>
      </trkpt>
      <trkpt lat="38.2894730" lon="-0.6461020">
        <ele>98.1</ele>
        <time>2020-12-06T08:06:53Z</time>
      </trkpt>
      <trkpt lat="38.2894980" lon="-0.6460050">
        <ele>98.1</ele>
        <time>2020-12-06T08:06:54Z</time>
      </trkpt>
      <trkpt lat="38.2895250" lon="-0.6459100">
        <ele>98.1</ele>
        <time>2020-12-06T08:06:55Z</time>
      </trkpt>
      <trkpt lat="38.2895520" lon="-0.6458150">
        <ele>98.1</ele>
        <time>2020-12-06T08:06:56Z</time>
      </trkpt>
      <trkpt lat="38.2895780" lon="-0.6457200">
        <ele>99.1</ele>
        <time>2020-12-06T08:06:57Z</time>
      </trkpt>
      <trkpt lat="38.2896050" lon="-0.6456250">
        <ele>99.1</ele>
        <time>2020-12-06T08:06:58Z</time>
      </trkpt>
      <trkpt lat="38.2896320" lon="-0.6455300">
        <ele>99.1</ele>
        <time>2020-12-06T08:06:59Z</time>
      </trkpt>
      <trkpt lat="38.2896600" lon="-0.6454370">
        <ele>99.1</ele>
        <time>2020-12-06T08:07:00Z</time>
      </trkpt>
      <trkpt lat="38.2896900" lon="-0.6453430">
        <ele>99.1</ele>
        <time>2020-12-06T08:07:01Z</time>
      </trkpt>
      <trkpt lat="38.2897200" lon="-0.6452500">
        <ele>99.1</ele>
        <time>2020-12-06T08:07:02Z</time>
      </trkpt>
      <trkpt lat="38.2897470" lon="-0.6451550">
        <ele>99.1</ele>
        <time>2020-12-06T08:07:03Z</time>
      </trkpt>
      <trkpt lat="38.2897750" lon="-0.6450620">
        <ele>99.1</ele>
        <time>2020-12-06T08:07:04Z</time>
      </trkpt>
      <trkpt lat="38.2898050" lon="-0.6449680">
        <ele>99.1</ele>
        <time>2020-12-06T08:07:05Z</time>
      </trkpt>
      <trkpt lat="38.2898370" lon="-0.6448770">
        <ele>99.1</ele>
        <time>2020-12-06T08:07:06Z</time>
      </trkpt>
      <trkpt lat="38.2898680" lon="-0.6447850">
        <ele>99.1</ele>
        <time>2020-12-06T08:07:07Z</time>
      </trkpt>
      <trkpt lat="38.2899020" lon="-0.6446950">
        <ele>99.1</ele>
        <time>2020-12-06T08:07:08Z</time>
      </trkpt>
      <trkpt lat="38.2899330" lon="-0.6446030">
        <ele>99.1</ele>
        <time>2020-12-06T08:07:09Z</time>
      </trkpt>
      <trkpt lat="38.2899650" lon="-0.6445120">
        <ele>99.1</ele>
        <time>2020-12-06T08:07:10Z</time>
      </trkpt>
      <trkpt lat="38.2899980" lon="-0.6444220">
        <ele>99.1</ele>
        <time>2020-12-06T08:07:11Z</time>
      </trkpt>
      <trkpt lat="38.2900330" lon="-0.6443320">
        <ele>99.1</ele>
        <time>2020-12-06T08:07:12Z</time>
      </trkpt>
      <trkpt lat="38.2900670" lon="-0.6442420">
        <ele>99.1</ele>
        <time>2020-12-06T08:07:13Z</time>
      </trkpt>
      <trkpt lat="38.2901000" lon="-0.6441520">
        <ele>99.1</ele>
        <time>2020-12-06T08:07:14Z</time>
      </trkpt>
      <trkpt lat="38.2901350" lon="-0.6440620">
        <ele>99.1</ele>
        <time>2020-12-06T08:07:15Z</time>
      </trkpt>
      <trkpt lat="38.2901720" lon="-0.6439720">
        <ele>99.1</ele>
        <time>2020-12-06T08:07:16Z</time>
      </trkpt>
      <trkpt lat="38.2902080" lon="-0.6438820">
        <ele>99.1</ele>
        <time>2020-12-06T08:07:17Z</time>
      </trkpt>
      <trkpt lat="38.2902450" lon="-0.6437920">
        <ele>99.1</ele>
        <time>2020-12-06T08:07:18Z</time>
      </trkpt>
      <trkpt lat="38.2902820" lon="-0.6437030">
        <ele>99.1</ele>
        <time>2020-12-06T08:07:19Z</time>
      </trkpt>
      <trkpt lat="38.2903180" lon="-0.6436150">
        <ele>99.1</ele>
        <time>2020-12-06T08:07:20Z</time>
      </trkpt>
      <trkpt lat="38.2903550" lon="-0.6435250">
        <ele>99.1</ele>
        <time>2020-12-06T08:07:21Z</time>
      </trkpt>
      <trkpt lat="38.2903920" lon="-0.6434370">
        <ele>99.1</ele>
        <time>2020-12-06T08:07:22Z</time>
      </trkpt>
      <trkpt lat="38.2904280" lon="-0.6433480">
        <ele>99.1</ele>
        <time>2020-12-06T08:07:23Z</time>
      </trkpt>
      <trkpt lat="38.2904680" lon="-0.6432620">
        <ele>99.1</ele>
        <time>2020-12-06T08:07:24Z</time>
      </trkpt>
      <trkpt lat="38.2905080" lon="-0.6431750">
        <ele>99.1</ele>
        <time>2020-12-06T08:07:25Z</time>
      </trkpt>
      <trkpt lat="38.2905500" lon="-0.6430880">
        <ele>99.1</ele>
        <time>2020-12-06T08:07:26Z</time>
      </trkpt>
      <trkpt lat="38.2905900" lon="-0.6430000">
        <ele>99.1</ele>
        <time>2020-12-06T08:07:27Z</time>
      </trkpt>
      <trkpt lat="38.2906300" lon="-0.6429130">
        <ele>99.1</ele>
        <time>2020-12-06T08:07:28Z</time>
      </trkpt>
      <trkpt lat="38.2906720" lon="-0.6428270">
        <ele>100.1</ele>
        <time>2020-12-06T08:07:29Z</time>
      </trkpt>
      <trkpt lat="38.2907120" lon="-0.6427400">
        <ele>100.1</ele>
        <time>2020-12-06T08:07:30Z</time>
      </trkpt>
      <trkpt lat="38.2907530" lon="-0.6426550">
        <ele>100.1</ele>
        <time>2020-12-06T08:07:31Z</time>
      </trkpt>
      <trkpt lat="38.2907970" lon="-0.6425720">
        <ele>100.1</ele>
        <time>2020-12-06T08:07:32Z</time>
      </trkpt>
      <trkpt lat="38.2908400" lon="-0.6424870">
        <ele>99.1</ele>
        <time>2020-12-06T08:07:33Z</time>
      </trkpt>
      <trkpt lat="38.2908830" lon="-0.6424030">
        <ele>99.1</ele>
        <time>2020-12-06T08:07:34Z</time>
      </trkpt>
      <trkpt lat="38.2909270" lon="-0.6423180">
        <ele>99.1</ele>
        <time>2020-12-06T08:07:35Z</time>
      </trkpt>
      <trkpt lat="38.2909700" lon="-0.6422350">
        <ele>99.1</ele>
        <time>2020-12-06T08:07:36Z</time>
      </trkpt>
      <trkpt lat="38.2910150" lon="-0.6421500">
        <ele>100.1</ele>
        <time>2020-12-06T08:07:37Z</time>
      </trkpt>
      <trkpt lat="38.2910620" lon="-0.6420650">
        <ele>100.1</ele>
        <time>2020-12-06T08:07:38Z</time>
      </trkpt>
      <trkpt lat="38.2911070" lon="-0.6419800">
        <ele>100.1</ele>
        <time>2020-12-06T08:07:39Z</time>
      </trkpt>
      <trkpt lat="38.2911520" lon="-0.6418970">
        <ele>100.1</ele>
        <time>2020-12-06T08:07:40Z</time>
      </trkpt>
      <trkpt lat="38.2912000" lon="-0.6418100">
        <ele>100.1</ele>
        <time>2020-12-06T08:07:41Z</time>
      </trkpt>
      <trkpt lat="38.2912480" lon="-0.6417220">
        <ele>100.1</ele>
        <time>2020-12-06T08:07:42Z</time>
      </trkpt>
      <trkpt lat="38.2912970" lon="-0.6416370">
        <ele>100.1</ele>
        <time>2020-12-06T08:07:43Z</time>
      </trkpt>
      <trkpt lat="38.2913470" lon="-0.6415520">
        <ele>100.1</ele>
        <time>2020-12-06T08:07:44Z</time>
      </trkpt>
      <trkpt lat="38.2913950" lon="-0.6414670">
        <ele>100.1</ele>
        <time>2020-12-06T08:07:45Z</time>
      </trkpt>
      <trkpt lat="38.2914430" lon="-0.6413820">
        <ele>100.1</ele>
        <time>2020-12-06T08:07:46Z</time>
      </trkpt>
      <trkpt lat="38.2914920" lon="-0.6412970">
        <ele>100.1</ele>
        <time>2020-12-06T08:07:47Z</time>
      </trkpt>
      <trkpt lat="38.2915400" lon="-0.6412130">
        <ele>100.1</ele>
        <time>2020-12-06T08:07:48Z</time>
      </trkpt>
      <trkpt lat="38.2915880" lon="-0.6411280">
        <ele>100.1</ele>
        <time>2020-12-06T08:07:49Z</time>
      </trkpt>
      <trkpt lat="38.2916350" lon="-0.6410420">
        <ele>100.1</ele>
        <time>2020-12-06T08:07:50Z</time>
      </trkpt>
      <trkpt lat="38.2916830" lon="-0.6409570">
        <ele>100.1</ele>
        <time>2020-12-06T08:07:51Z</time>
      </trkpt>
      <trkpt lat="38.2917300" lon="-0.6408700">
        <ele>100.1</ele>
        <time>2020-12-06T08:07:52Z</time>
      </trkpt>
      <trkpt lat="38.2917800" lon="-0.6407870">
        <ele>100.1</ele>
        <time>2020-12-06T08:07:53Z</time>
      </trkpt>
      <trkpt lat="38.2918300" lon="-0.6407050">
        <ele>100.1</ele>
        <time>2020-12-06T08:07:54Z</time>
      </trkpt>
      <trkpt lat="38.2918800" lon="-0.6406230">
        <ele>100.1</ele>
        <time>2020-12-06T08:07:55Z</time>
      </trkpt>
      <trkpt lat="38.2919280" lon="-0.6405400">
        <ele>100.1</ele>
        <time>2020-12-06T08:07:56Z</time>
      </trkpt>
      <trkpt lat="38.2919750" lon="-0.6404550">
        <ele>100.1</ele>
        <time>2020-12-06T08:07:57Z</time>
      </trkpt>
      <trkpt lat="38.2920230" lon="-0.6403720">
        <ele>100.1</ele>
        <time>2020-12-06T08:07:58Z</time>
      </trkpt>
      <trkpt lat="38.2920720" lon="-0.6402880">
        <ele>100.1</ele>
        <time>2020-12-06T08:07:59Z</time>
      </trkpt>
      <trkpt lat="38.2921180" lon="-0.6402030">
        <ele>100.1</ele>
        <time>2020-12-06T08:08:00Z</time>
      </trkpt>
      <trkpt lat="38.2921670" lon="-0.6401200">
        <ele>100.1</ele>
        <time>2020-12-06T08:08:01Z</time>
      </trkpt>
      <trkpt lat="38.2922150" lon="-0.6400370">
        <ele>100.1</ele>
        <time>2020-12-06T08:08:02Z</time>
      </trkpt>
      <trkpt lat="38.2922630" lon="-0.6399530">
        <ele>100.1</ele>
        <time>2020-12-06T08:08:03Z</time>
      </trkpt>
      <trkpt lat="38.2923100" lon="-0.6398680">
        <ele>100.1</ele>
        <time>2020-12-06T08:08:04Z</time>
      </trkpt>
      <trkpt lat="38.2923580" lon="-0.6397870">
        <ele>100.1</ele>
        <time>2020-12-06T08:08:05Z</time>
      </trkpt>
      <trkpt lat="38.2924070" lon="-0.6397030">
        <ele>100.1</ele>
        <time>2020-12-06T08:08:06Z</time>
      </trkpt>
      <trkpt lat="38.2924550" lon="-0.6396220">
        <ele>100.1</ele>
        <time>2020-12-06T08:08:07Z</time>
      </trkpt>
      <trkpt lat="38.2925050" lon="-0.6395400">
        <ele>100.1</ele>
        <time>2020-12-06T08:08:08Z</time>
      </trkpt>
      <trkpt lat="38.2925530" lon="-0.6394570">
        <ele>100.1</ele>
        <time>2020-12-06T08:08:09Z</time>
      </trkpt>
      <trkpt lat="38.2926020" lon="-0.6393730">
        <ele>100.1</ele>
        <time>2020-12-06T08:08:10Z</time>
      </trkpt>
      <trkpt lat="38.2926480" lon="-0.6392920">
        <ele>100.1</ele>
        <time>2020-12-06T08:08:11Z</time>
      </trkpt>
      <trkpt lat="38.2926950" lon="-0.6392080">
        <ele>100.1</ele>
        <time>2020-12-06T08:08:12Z</time>
      </trkpt>
      <trkpt lat="38.2927420" lon="-0.6391270">
        <ele>100.1</ele>
        <time>2020-12-06T08:08:13Z</time>
      </trkpt>
      <trkpt lat="38.2927880" lon="-0.6390430">
        <ele>100.1</ele>
        <time>2020-12-06T08:08:14Z</time>
      </trkpt>
      <trkpt lat="38.2928350" lon="-0.6389600">
        <ele>100.1</ele>
        <time>2020-12-06T08:08:15Z</time>
      </trkpt>
      <trkpt lat="38.2928820" lon="-0.6388780">
        <ele>100.1</ele>
        <time>2020-12-06T08:08:16Z</time>
      </trkpt>
      <trkpt lat="38.2929280" lon="-0.6387970">
        <ele>100.1</ele>
        <time>2020-12-06T08:08:17Z</time>
      </trkpt>
      <trkpt lat="38.2929780" lon="-0.6387150">
        <ele>100.1</ele>
        <time>2020-12-06T08:08:18Z</time>
      </trkpt>
      <trkpt lat="38.2930270" lon="-0.6386370">
        <ele>100.1</ele>
        <time>2020-12-06T08:08:19Z</time>
      </trkpt>
      <trkpt lat="38.2930730" lon="-0.6385550">
        <ele>100.1</ele>
        <time>2020-12-06T08:08:20Z</time>
      </trkpt>
      <trkpt lat="38.2931180" lon="-0.6384720">
        <ele>100.1</ele>
        <time>2020-12-06T08:08:21Z</time>
      </trkpt>
      <trkpt lat="38.2931630" lon="-0.6383900">
        <ele>100.1</ele>
        <time>2020-12-06T08:08:22Z</time>
      </trkpt>
      <trkpt lat="38.2932120" lon="-0.6383100">
        <ele>100.1</ele>
        <time>2020-12-06T08:08:23Z</time>
      </trkpt>
      <trkpt lat="38.2932580" lon="-0.6382300">
        <ele>100.1</ele>
        <time>2020-12-06T08:08:24Z</time>
      </trkpt>
      <trkpt lat="38.2933050" lon="-0.6381480">
        <ele>100.1</ele>
        <time>2020-12-06T08:08:25Z</time>
      </trkpt>
      <trkpt lat="38.2933520" lon="-0.6380680">
        <ele>100.1</ele>
        <time>2020-12-06T08:08:26Z</time>
      </trkpt>
      <trkpt lat="38.2933980" lon="-0.6379880">
        <ele>100.1</ele>
        <time>2020-12-06T08:08:27Z</time>
      </trkpt>
      <trkpt lat="38.2934470" lon="-0.6379070">
        <ele>100.1</ele>
        <time>2020-12-06T08:08:28Z</time>
      </trkpt>
      <trkpt lat="38.2934920" lon="-0.6378250">
        <ele>100.1</ele>
        <time>2020-12-06T08:08:29Z</time>
      </trkpt>
      <trkpt lat="38.2935380" lon="-0.6377420">
        <ele>100.1</ele>
        <time>2020-12-06T08:08:30Z</time>
      </trkpt>
      <trkpt lat="38.2935850" lon="-0.6376580">
        <ele>100.1</ele>
        <time>2020-12-06T08:08:31Z</time>
      </trkpt>
      <trkpt lat="38.2936320" lon="-0.6375750">
        <ele>100.1</ele>
        <time>2020-12-06T08:08:32Z</time>
      </trkpt>
      <trkpt lat="38.2936780" lon="-0.6374900">
        <ele>100.1</ele>
        <time>2020-12-06T08:08:33Z</time>
      </trkpt>
      <trkpt lat="38.2937250" lon="-0.6374050">
        <ele>100.1</ele>
        <time>2020-12-06T08:08:34Z</time>
      </trkpt>
      <trkpt lat="38.2937720" lon="-0.6373180">
        <ele>100.1</ele>
        <time>2020-12-06T08:08:35Z</time>
      </trkpt>
      <trkpt lat="38.2938200" lon="-0.6372280">
        <ele>100.1</ele>
        <time>2020-12-06T08:08:36Z</time>
      </trkpt>
      <trkpt lat="38.2938670" lon="-0.6371370">
        <ele>99.1</ele>
        <time>2020-12-06T08:08:37Z</time>
      </trkpt>
      <trkpt lat="38.2939170" lon="-0.6370420">
        <ele>99.1</ele>
        <time>2020-12-06T08:08:38Z</time>
      </trkpt>
      <trkpt lat="38.2939670" lon="-0.6369450">
        <ele>99.1</ele>
        <time>2020-12-06T08:08:39Z</time>
      </trkpt>
      <trkpt lat="38.2940180" lon="-0.6368480">
        <ele>99.1</ele>
        <time>2020-12-06T08:08:40Z</time>
      </trkpt>
      <trkpt lat="38.2940680" lon="-0.6367500">
        <ele>99.1</ele>
        <time>2020-12-06T08:08:41Z</time>
      </trkpt>
      <trkpt lat="38.2941180" lon="-0.6366500">
        <ele>99.1</ele>
        <time>2020-12-06T08:08:42Z</time>
      </trkpt>
      <trkpt lat="38.2941670" lon="-0.6365480">
        <ele>99.1</ele>
        <time>2020-12-06T08:08:43Z</time>
      </trkpt>
      <trkpt lat="38.2942150" lon="-0.6364450">
        <ele>99.1</ele>
        <time>2020-12-06T08:08:44Z</time>
      </trkpt>
      <trkpt lat="38.2942650" lon="-0.6363430">
        <ele>99.1</ele>
        <time>2020-12-06T08:08:45Z</time>
      </trkpt>
      <trkpt lat="38.2943130" lon="-0.6362420">
        <ele>99.1</ele>
        <time>2020-12-06T08:08:46Z</time>
      </trkpt>
      <trkpt lat="38.2943600" lon="-0.6361380">
        <ele>99.1</ele>
        <time>2020-12-06T08:08:47Z</time>
      </trkpt>
      <trkpt lat="38.2944070" lon="-0.6360330">
        <ele>99.1</ele>
        <time>2020-12-06T08:08:48Z</time>
      </trkpt>
      <trkpt lat="38.2944520" lon="-0.6359280">
        <ele>99.1</ele>
        <time>2020-12-06T08:08:49Z</time>
      </trkpt>
      <trkpt lat="38.2944980" lon="-0.6358230">
        <ele>99.1</ele>
        <time>2020-12-06T08:08:50Z</time>
      </trkpt>
      <trkpt lat="38.2945430" lon="-0.6357180">
        <ele>98.1</ele>
        <time>2020-12-06T08:08:51Z</time>
      </trkpt>
      <trkpt lat="38.2945880" lon="-0.6356130">
        <ele>98.1</ele>
        <time>2020-12-06T08:08:52Z</time>
      </trkpt>
      <trkpt lat="38.2946320" lon="-0.6355080">
        <ele>98.1</ele>
        <time>2020-12-06T08:08:53Z</time>
      </trkpt>
      <trkpt lat="38.2946730" lon="-0.6354020">
        <ele>98.1</ele>
        <time>2020-12-06T08:08:54Z</time>
      </trkpt>
      <trkpt lat="38.2947170" lon="-0.6352950">
        <ele>98.1</ele>
        <time>2020-12-06T08:08:55Z</time>
      </trkpt>
      <trkpt lat="38.2947600" lon="-0.6351900">
        <ele>98.1</ele>
        <time>2020-12-06T08:08:56Z</time>
      </trkpt>
      <trkpt lat="38.2948020" lon="-0.6350830">
        <ele>97.1</ele>
        <time>2020-12-06T08:08:57Z</time>
      </trkpt>
      <trkpt lat="38.2948430" lon="-0.6349770">
        <ele>97.1</ele>
        <time>2020-12-06T08:08:58Z</time>
      </trkpt>
      <trkpt lat="38.2948830" lon="-0.6348700">
        <ele>97.1</ele>
        <time>2020-12-06T08:08:59Z</time>
      </trkpt>
      <trkpt lat="38.2949250" lon="-0.6347630">
        <ele>97.1</ele>
        <time>2020-12-06T08:09:00Z</time>
      </trkpt>
      <trkpt lat="38.2949630" lon="-0.6346570">
        <ele>97.1</ele>
        <time>2020-12-06T08:09:01Z</time>
      </trkpt>
      <trkpt lat="38.2950020" lon="-0.6345480">
        <ele>97.1</ele>
        <time>2020-12-06T08:09:02Z</time>
      </trkpt>
      <trkpt lat="38.2950370" lon="-0.6344380">
        <ele>97.1</ele>
        <time>2020-12-06T08:09:03Z</time>
      </trkpt>
      <trkpt lat="38.2950730" lon="-0.6343280">
        <ele>97.1</ele>
        <time>2020-12-06T08:09:04Z</time>
      </trkpt>
      <trkpt lat="38.2951120" lon="-0.6342200">
        <ele>97.1</ele>
        <time>2020-12-06T08:09:05Z</time>
      </trkpt>
      <trkpt lat="38.2951500" lon="-0.6341120">
        <ele>97.1</ele>
        <time>2020-12-06T08:09:06Z</time>
      </trkpt>
      <trkpt lat="38.2951850" lon="-0.6340030">
        <ele>97.1</ele>
        <time>2020-12-06T08:09:07Z</time>
      </trkpt>
      <trkpt lat="38.2952180" lon="-0.6338920">
        <ele>97.1</ele>
        <time>2020-12-06T08:09:08Z</time>
      </trkpt>
      <trkpt lat="38.2952530" lon="-0.6337820">
        <ele>97.1</ele>
        <time>2020-12-06T08:09:09Z</time>
      </trkpt>
      <trkpt lat="38.2952880" lon="-0.6336720">
        <ele>97.1</ele>
        <time>2020-12-06T08:09:10Z</time>
      </trkpt>
      <trkpt lat="38.2953230" lon="-0.6335620">
        <ele>97.1</ele>
        <time>2020-12-06T08:09:11Z</time>
      </trkpt>
      <trkpt lat="38.2953580" lon="-0.6334520">
        <ele>97.1</ele>
        <time>2020-12-06T08:09:12Z</time>
      </trkpt>
      <trkpt lat="38.2953920" lon="-0.6333400">
        <ele>96.0</ele>
        <time>2020-12-06T08:09:13Z</time>
      </trkpt>
      <trkpt lat="38.2954270" lon="-0.6332300">
        <ele>96.0</ele>
        <time>2020-12-06T08:09:14Z</time>
      </trkpt>
      <trkpt lat="38.2954630" lon="-0.6331200">
        <ele>96.0</ele>
        <time>2020-12-06T08:09:15Z</time>
      </trkpt>
      <trkpt lat="38.2954980" lon="-0.6330100">
        <ele>96.0</ele>
        <time>2020-12-06T08:09:16Z</time>
      </trkpt>
      <trkpt lat="38.2955370" lon="-0.6329020">
        <ele>96.0</ele>
        <time>2020-12-06T08:09:17Z</time>
      </trkpt>
      <trkpt lat="38.2955750" lon="-0.6327920">
        <ele>96.0</ele>
        <time>2020-12-06T08:09:18Z</time>
      </trkpt>
      <trkpt lat="38.2956120" lon="-0.6326820">
        <ele>96.0</ele>
        <time>2020-12-06T08:09:19Z</time>
      </trkpt>
      <trkpt lat="38.2956470" lon="-0.6325720">
        <ele>96.0</ele>
        <time>2020-12-06T08:09:20Z</time>
      </trkpt>
      <trkpt lat="38.2956870" lon="-0.6324630">
        <ele>96.0</ele>
        <time>2020-12-06T08:09:21Z</time>
      </trkpt>
      <trkpt lat="38.2957220" lon="-0.6323520">
        <ele>96.0</ele>
        <time>2020-12-06T08:09:22Z</time>
      </trkpt>
      <trkpt lat="38.2957550" lon="-0.6322400">
        <ele>96.0</ele>
        <time>2020-12-06T08:09:23Z</time>
      </trkpt>
      <trkpt lat="38.2957900" lon="-0.6321270">
        <ele>96.0</ele>
        <time>2020-12-06T08:09:24Z</time>
      </trkpt>
      <trkpt lat="38.2958250" lon="-0.6320150">
        <ele>95.1</ele>
        <time>2020-12-06T08:09:25Z</time>
      </trkpt>
      <trkpt lat="38.2958580" lon="-0.6319030">
        <ele>95.1</ele>
        <time>2020-12-06T08:09:26Z</time>
      </trkpt>
      <trkpt lat="38.2958970" lon="-0.6317930">
        <ele>95.1</ele>
        <time>2020-12-06T08:09:27Z</time>
      </trkpt>
      <trkpt lat="38.2959330" lon="-0.6316820">
        <ele>95.1</ele>
        <time>2020-12-06T08:09:28Z</time>
      </trkpt>
      <trkpt lat="38.2959680" lon="-0.6315700">
        <ele>95.1</ele>
        <time>2020-12-06T08:09:29Z</time>
      </trkpt>
      <trkpt lat="38.2959980" lon="-0.6314580">
        <ele>95.1</ele>
        <time>2020-12-06T08:09:30Z</time>
      </trkpt>
      <trkpt lat="38.2960230" lon="-0.6313430">
        <ele>95.1</ele>
        <time>2020-12-06T08:09:31Z</time>
      </trkpt>
      <trkpt lat="38.2960320" lon="-0.6312280">
        <ele>95.1</ele>
        <time>2020-12-06T08:09:32Z</time>
      </trkpt>
      <trkpt lat="38.2960130" lon="-0.6311150">
        <ele>95.1</ele>
        <time>2020-12-06T08:09:33Z</time>
      </trkpt>
      <trkpt lat="38.2959820" lon="-0.6310030">
        <ele>95.1</ele>
        <time>2020-12-06T08:09:34Z</time>
      </trkpt>
      <trkpt lat="38.2959630" lon="-0.6308870">
        <ele>95.1</ele>
        <time>2020-12-06T08:09:35Z</time>
      </trkpt>
      <trkpt lat="38.2959620" lon="-0.6307680">
        <ele>95.1</ele>
        <time>2020-12-06T08:09:36Z</time>
      </trkpt>
      <trkpt lat="38.2959780" lon="-0.6306520">
        <ele>95.1</ele>
        <time>2020-12-06T08:09:37Z</time>
      </trkpt>
      <trkpt lat="38.2960150" lon="-0.6305420">
        <ele>95.1</ele>
        <time>2020-12-06T08:09:38Z</time>
      </trkpt>
      <trkpt lat="38.2960650" lon="-0.6304430">
        <ele>95.1</ele>
        <time>2020-12-06T08:09:39Z</time>
      </trkpt>
      <trkpt lat="38.2961280" lon="-0.6303580">
        <ele>95.1</ele>
        <time>2020-12-06T08:09:40Z</time>
      </trkpt>
      <trkpt lat="38.2961970" lon="-0.6302770">
        <ele>95.1</ele>
        <time>2020-12-06T08:09:41Z</time>
      </trkpt>
      <trkpt lat="38.2962600" lon="-0.6301880">
        <ele>95.1</ele>
        <time>2020-12-06T08:09:42Z</time>
      </trkpt>
      <trkpt lat="38.2963100" lon="-0.6300900">
        <ele>94.0</ele>
        <time>2020-12-06T08:09:43Z</time>
      </trkpt>
      <trkpt lat="38.2963400" lon="-0.6299780">
        <ele>94.0</ele>
        <time>2020-12-06T08:09:44Z</time>
      </trkpt>
      <trkpt lat="38.2963550" lon="-0.6298620">
        <ele>94.0</ele>
        <time>2020-12-06T08:09:45Z</time>
      </trkpt>
      <trkpt lat="38.2963680" lon="-0.6297450">
        <ele>94.0</ele>
        <time>2020-12-06T08:09:46Z</time>
      </trkpt>
      <trkpt lat="38.2963830" lon="-0.6296270">
        <ele>94.0</ele>
        <time>2020-12-06T08:09:47Z</time>
      </trkpt>
      <trkpt lat="38.2963980" lon="-0.6295080">
        <ele>94.0</ele>
        <time>2020-12-06T08:09:48Z</time>
      </trkpt>
      <trkpt lat="38.2964120" lon="-0.6293900">
        <ele>94.0</ele>
        <time>2020-12-06T08:09:49Z</time>
      </trkpt>
      <trkpt lat="38.2964270" lon="-0.6292720">
        <ele>94.0</ele>
        <time>2020-12-06T08:09:50Z</time>
      </trkpt>
      <trkpt lat="38.2964420" lon="-0.6291530">
        <ele>94.0</ele>
        <time>2020-12-06T08:09:51Z</time>
      </trkpt>
      <trkpt lat="38.2964550" lon="-0.6290350">
        <ele>94.0</ele>
        <time>2020-12-06T08:09:52Z</time>
      </trkpt>
      <trkpt lat="38.2964670" lon="-0.6289150">
        <ele>94.0</ele>
        <time>2020-12-06T08:09:53Z</time>
      </trkpt>
      <trkpt lat="38.2964820" lon="-0.6287970">
        <ele>94.0</ele>
        <time>2020-12-06T08:09:54Z</time>
      </trkpt>
      <trkpt lat="38.2964970" lon="-0.6286780">
        <ele>94.0</ele>
        <time>2020-12-06T08:09:55Z</time>
      </trkpt>
      <trkpt lat="38.2965130" lon="-0.6285620">
        <ele>94.0</ele>
        <time>2020-12-06T08:09:56Z</time>
      </trkpt>
      <trkpt lat="38.2965280" lon="-0.6284430">
        <ele>94.0</ele>
        <time>2020-12-06T08:09:57Z</time>
      </trkpt>
      <trkpt lat="38.2965420" lon="-0.6283270">
        <ele>94.0</ele>
        <time>2020-12-06T08:09:58Z</time>
      </trkpt>
      <trkpt lat="38.2965550" lon="-0.6282080">
        <ele>93.1</ele>
        <time>2020-12-06T08:09:59Z</time>
      </trkpt>
      <trkpt lat="38.2965680" lon="-0.6280920">
        <ele>93.1</ele>
        <time>2020-12-06T08:10:00Z</time>
      </trkpt>
      <trkpt lat="38.2965820" lon="-0.6279730">
        <ele>92.1</ele>
        <time>2020-12-06T08:10:01Z</time>
      </trkpt>
      <trkpt lat="38.2965980" lon="-0.6278550">
        <ele>92.1</ele>
        <time>2020-12-06T08:10:02Z</time>
      </trkpt>
      <trkpt lat="38.2966120" lon="-0.6277380">
        <ele>92.1</ele>
        <time>2020-12-06T08:10:03Z</time>
      </trkpt>
      <trkpt lat="38.2966270" lon="-0.6276200">
        <ele>92.1</ele>
        <time>2020-12-06T08:10:04Z</time>
      </trkpt>
      <trkpt lat="38.2966380" lon="-0.6275000">
        <ele>92.1</ele>
        <time>2020-12-06T08:10:05Z</time>
      </trkpt>
      <trkpt lat="38.2966530" lon="-0.6273800">
        <ele>92.1</ele>
        <time>2020-12-06T08:10:06Z</time>
      </trkpt>
      <trkpt lat="38.2966700" lon="-0.6272570">
        <ele>92.1</ele>
        <time>2020-12-06T08:10:07Z</time>
      </trkpt>
      <trkpt lat="38.2966870" lon="-0.6271370">
        <ele>92.1</ele>
        <time>2020-12-06T08:10:08Z</time>
      </trkpt>
      <trkpt lat="38.2967030" lon="-0.6270150">
        <ele>92.1</ele>
        <time>2020-12-06T08:10:09Z</time>
      </trkpt>
      <trkpt lat="38.2967170" lon="-0.6268950">
        <ele>92.1</ele>
        <time>2020-12-06T08:10:10Z</time>
      </trkpt>
      <trkpt lat="38.2967300" lon="-0.6267750">
        <ele>92.1</ele>
        <time>2020-12-06T08:10:11Z</time>
      </trkpt>
      <trkpt lat="38.2967430" lon="-0.6266550">
        <ele>92.1</ele>
        <time>2020-12-06T08:10:12Z</time>
      </trkpt>
      <trkpt lat="38.2967570" lon="-0.6265350">
        <ele>92.1</ele>
        <time>2020-12-06T08:10:13Z</time>
      </trkpt>
      <trkpt lat="38.2967730" lon="-0.6264170">
        <ele>92.1</ele>
        <time>2020-12-06T08:10:14Z</time>
      </trkpt>
      <trkpt lat="38.2967880" lon="-0.6263000">
        <ele>92.1</ele>
        <time>2020-12-06T08:10:15Z</time>
      </trkpt>
      <trkpt lat="38.2968030" lon="-0.6261830">
        <ele>92.1</ele>
        <time>2020-12-06T08:10:16Z</time>
      </trkpt>
      <trkpt lat="38.2968180" lon="-0.6260670">
        <ele>92.1</ele>
        <time>2020-12-06T08:10:17Z</time>
      </trkpt>
      <trkpt lat="38.2968320" lon="-0.6259520">
        <ele>92.1</ele>
        <time>2020-12-06T08:10:18Z</time>
      </trkpt>
      <trkpt lat="38.2968480" lon="-0.6258380">
        <ele>92.1</ele>
        <time>2020-12-06T08:10:19Z</time>
      </trkpt>
      <trkpt lat="38.2968630" lon="-0.6257250">
        <ele>92.1</ele>
        <time>2020-12-06T08:10:20Z</time>
      </trkpt>
      <trkpt lat="38.2968780" lon="-0.6256120">
        <ele>92.1</ele>
        <time>2020-12-06T08:10:21Z</time>
      </trkpt>
      <trkpt lat="38.2968900" lon="-0.6254980">
        <ele>92.1</ele>
        <time>2020-12-06T08:10:22Z</time>
      </trkpt>
      <trkpt lat="38.2969030" lon="-0.6253850">
        <ele>92.1</ele>
        <time>2020-12-06T08:10:23Z</time>
      </trkpt>
      <trkpt lat="38.2969170" lon="-0.6252730">
        <ele>92.1</ele>
        <time>2020-12-06T08:10:24Z</time>
      </trkpt>
      <trkpt lat="38.2969320" lon="-0.6251620">
        <ele>92.1</ele>
        <time>2020-12-06T08:10:25Z</time>
      </trkpt>
      <trkpt lat="38.2969470" lon="-0.6250480">
        <ele>92.1</ele>
        <time>2020-12-06T08:10:26Z</time>
      </trkpt>
      <trkpt lat="38.2969600" lon="-0.6249370">
        <ele>92.1</ele>
        <time>2020-12-06T08:10:27Z</time>
      </trkpt>
      <trkpt lat="38.2969720" lon="-0.6248270">
        <ele>92.1</ele>
        <time>2020-12-06T08:10:28Z</time>
      </trkpt>
      <trkpt lat="38.2969870" lon="-0.6247150">
        <ele>92.1</ele>
        <time>2020-12-06T08:10:29Z</time>
      </trkpt>
      <trkpt lat="38.2970020" lon="-0.6246050">
        <ele>92.1</ele>
        <time>2020-12-06T08:10:30Z</time>
      </trkpt>
      <trkpt lat="38.2970180" lon="-0.6244950">
        <ele>92.1</ele>
        <time>2020-12-06T08:10:31Z</time>
      </trkpt>
      <trkpt lat="38.2970330" lon="-0.6243850">
        <ele>92.1</ele>
        <time>2020-12-06T08:10:32Z</time>
      </trkpt>
      <trkpt lat="38.2970500" lon="-0.6242770">
        <ele>92.1</ele>
        <time>2020-12-06T08:10:33Z</time>
      </trkpt>
      <trkpt lat="38.2970670" lon="-0.6241670">
        <ele>92.1</ele>
        <time>2020-12-06T08:10:34Z</time>
      </trkpt>
      <trkpt lat="38.2970820" lon="-0.6240580">
        <ele>92.1</ele>
        <time>2020-12-06T08:10:35Z</time>
      </trkpt>
      <trkpt lat="38.2970970" lon="-0.6239500">
        <ele>92.1</ele>
        <time>2020-12-06T08:10:36Z</time>
      </trkpt>
      <trkpt lat="38.2971120" lon="-0.6238420">
        <ele>92.1</ele>
        <time>2020-12-06T08:10:37Z</time>
      </trkpt>
      <trkpt lat="38.2971280" lon="-0.6237350">
        <ele>92.1</ele>
        <time>2020-12-06T08:10:38Z</time>
      </trkpt>
      <trkpt lat="38.2971450" lon="-0.6236300">
        <ele>92.1</ele>
        <time>2020-12-06T08:10:39Z</time>
      </trkpt>
      <trkpt lat="38.2971620" lon="-0.6235250">
        <ele>92.1</ele>
        <time>2020-12-06T08:10:40Z</time>
      </trkpt>
      <trkpt lat="38.2971780" lon="-0.6234200">
        <ele>93.1</ele>
        <time>2020-12-06T08:10:41Z</time>
      </trkpt>
      <trkpt lat="38.2971970" lon="-0.6233170">
        <ele>93.1</ele>
        <time>2020-12-06T08:10:42Z</time>
      </trkpt>
      <trkpt lat="38.2972150" lon="-0.6232130">
        <ele>93.1</ele>
        <time>2020-12-06T08:10:43Z</time>
      </trkpt>
      <trkpt lat="38.2972330" lon="-0.6231120">
        <ele>93.1</ele>
        <time>2020-12-06T08:10:44Z</time>
      </trkpt>
      <trkpt lat="38.2972530" lon="-0.6230100">
        <ele>93.1</ele>
        <time>2020-12-06T08:10:45Z</time>
      </trkpt>
      <trkpt lat="38.2972720" lon="-0.6229080">
        <ele>93.1</ele>
        <time>2020-12-06T08:10:46Z</time>
      </trkpt>
      <trkpt lat="38.2972950" lon="-0.6228080">
        <ele>93.1</ele>
        <time>2020-12-06T08:10:47Z</time>
      </trkpt>
      <trkpt lat="38.2973170" lon="-0.6227080">
        <ele>93.1</ele>
        <time>2020-12-06T08:10:48Z</time>
      </trkpt>
      <trkpt lat="38.2973380" lon="-0.6226080">
        <ele>93.1</ele>
        <time>2020-12-06T08:10:49Z</time>
      </trkpt>
      <trkpt lat="38.2973580" lon="-0.6225100">
        <ele>93.1</ele>
        <time>2020-12-06T08:10:50Z</time>
      </trkpt>
      <trkpt lat="38.2973800" lon="-0.6224100">
        <ele>93.1</ele>
        <time>2020-12-06T08:10:51Z</time>
      </trkpt>
      <trkpt lat="38.2974000" lon="-0.6223120">
        <ele>93.1</ele>
        <time>2020-12-06T08:10:52Z</time>
      </trkpt>
      <trkpt lat="38.2974200" lon="-0.6222120">
        <ele>93.1</ele>
        <time>2020-12-06T08:10:53Z</time>
      </trkpt>
      <trkpt lat="38.2974400" lon="-0.6221130">
        <ele>93.1</ele>
        <time>2020-12-06T08:10:54Z</time>
      </trkpt>
      <trkpt lat="38.2974630" lon="-0.6220150">
        <ele>94.0</ele>
        <time>2020-12-06T08:10:55Z</time>
      </trkpt>
      <trkpt lat="38.2974870" lon="-0.6219180">
        <ele>94.0</ele>
        <time>2020-12-06T08:10:56Z</time>
      </trkpt>
      <trkpt lat="38.2975100" lon="-0.6218200">
        <ele>94.0</ele>
        <time>2020-12-06T08:10:57Z</time>
      </trkpt>
      <trkpt lat="38.2975370" lon="-0.6217220">
        <ele>94.0</ele>
        <time>2020-12-06T08:10:58Z</time>
      </trkpt>
      <trkpt lat="38.2975620" lon="-0.6216200">
        <ele>94.0</ele>
        <time>2020-12-06T08:10:59Z</time>
      </trkpt>
      <trkpt lat="38.2975900" lon="-0.6215180">
        <ele>94.0</ele>
        <time>2020-12-06T08:11:00Z</time>
      </trkpt>
      <trkpt lat="38.2976200" lon="-0.6214130">
        <ele>94.0</ele>
        <time>2020-12-06T08:11:01Z</time>
      </trkpt>
      <trkpt lat="38.2976470" lon="-0.6213100">
        <ele>94.0</ele>
        <time>2020-12-06T08:11:02Z</time>
      </trkpt>
      <trkpt lat="38.2976750" lon="-0.6212080">
        <ele>94.0</ele>
        <time>2020-12-06T08:11:03Z</time>
      </trkpt>
      <trkpt lat="38.2977020" lon="-0.6211080">
        <ele>94.0</ele>
        <time>2020-12-06T08:11:04Z</time>
      </trkpt>
      <trkpt lat="38.2977320" lon="-0.6210080">
        <ele>94.0</ele>
        <time>2020-12-06T08:11:05Z</time>
      </trkpt>
      <trkpt lat="38.2977620" lon="-0.6209100">
        <ele>94.0</ele>
        <time>2020-12-06T08:11:06Z</time>
      </trkpt>
      <trkpt lat="38.2977930" lon="-0.6208130">
        <ele>94.0</ele>
        <time>2020-12-06T08:11:07Z</time>
      </trkpt>
      <trkpt lat="38.2978230" lon="-0.6207150">
        <ele>94.0</ele>
        <time>2020-12-06T08:11:08Z</time>
      </trkpt>
      <trkpt lat="38.2978530" lon="-0.6206180">
        <ele>94.0</ele>
        <time>2020-12-06T08:11:09Z</time>
      </trkpt>
      <trkpt lat="38.2978830" lon="-0.6205220">
        <ele>94.0</ele>
        <time>2020-12-06T08:11:10Z</time>
      </trkpt>
      <trkpt lat="38.2979130" lon="-0.6204230">
        <ele>94.0</ele>
        <time>2020-12-06T08:11:11Z</time>
      </trkpt>
      <trkpt lat="38.2979470" lon="-0.6203280">
        <ele>94.0</ele>
        <time>2020-12-06T08:11:12Z</time>
      </trkpt>
      <trkpt lat="38.2979800" lon="-0.6202330">
        <ele>94.0</ele>
        <time>2020-12-06T08:11:13Z</time>
      </trkpt>
      <trkpt lat="38.2980130" lon="-0.6201370">
        <ele>94.0</ele>
        <time>2020-12-06T08:11:14Z</time>
      </trkpt>
      <trkpt lat="38.2980470" lon="-0.6200400">
        <ele>94.0</ele>
        <time>2020-12-06T08:11:15Z</time>
      </trkpt>
      <trkpt lat="38.2980800" lon="-0.6199430">
        <ele>94.0</ele>
        <time>2020-12-06T08:11:16Z</time>
      </trkpt>
      <trkpt lat="38.2981150" lon="-0.6198450">
        <ele>94.0</ele>
        <time>2020-12-06T08:11:17Z</time>
      </trkpt>
      <trkpt lat="38.2981500" lon="-0.6197480">
        <ele>94.0</ele>
        <time>2020-12-06T08:11:18Z</time>
      </trkpt>
      <trkpt lat="38.2981850" lon="-0.6196500">
        <ele>94.0</ele>
        <time>2020-12-06T08:11:19Z</time>
      </trkpt>
      <trkpt lat="38.2982220" lon="-0.6195530">
        <ele>94.0</ele>
        <time>2020-12-06T08:11:20Z</time>
      </trkpt>
      <trkpt lat="38.2982580" lon="-0.6194570">
        <ele>94.0</ele>
        <time>2020-12-06T08:11:21Z</time>
      </trkpt>
      <trkpt lat="38.2982950" lon="-0.6193600">
        <ele>94.0</ele>
        <time>2020-12-06T08:11:22Z</time>
      </trkpt>
      <trkpt lat="38.2983320" lon="-0.6192620">
        <ele>94.0</ele>
        <time>2020-12-06T08:11:23Z</time>
      </trkpt>
      <trkpt lat="38.2983680" lon="-0.6191630">
        <ele>94.0</ele>
        <time>2020-12-06T08:11:24Z</time>
      </trkpt>
      <trkpt lat="38.2984070" lon="-0.6190670">
        <ele>94.0</ele>
        <time>2020-12-06T08:11:25Z</time>
      </trkpt>
      <trkpt lat="38.2984430" lon="-0.6189670">
        <ele>94.0</ele>
        <time>2020-12-06T08:11:26Z</time>
      </trkpt>
      <trkpt lat="38.2984800" lon="-0.6188670">
        <ele>94.0</ele>
        <time>2020-12-06T08:11:27Z</time>
      </trkpt>
      <trkpt lat="38.2985170" lon="-0.6187670">
        <ele>94.0</ele>
        <time>2020-12-06T08:11:28Z</time>
      </trkpt>
      <trkpt lat="38.2985570" lon="-0.6186670">
        <ele>93.1</ele>
        <time>2020-12-06T08:11:29Z</time>
      </trkpt>
      <trkpt lat="38.2985950" lon="-0.6185670">
        <ele>93.1</ele>
        <time>2020-12-06T08:11:30Z</time>
      </trkpt>
      <trkpt lat="38.2986320" lon="-0.6184670">
        <ele>93.1</ele>
        <time>2020-12-06T08:11:31Z</time>
      </trkpt>
      <trkpt lat="38.2986700" lon="-0.6183650">
        <ele>93.1</ele>
        <time>2020-12-06T08:11:32Z</time>
      </trkpt>
      <trkpt lat="38.2987080" lon="-0.6182650">
        <ele>93.1</ele>
        <time>2020-12-06T08:11:33Z</time>
      </trkpt>
      <trkpt lat="38.2987470" lon="-0.6181670">
        <ele>93.1</ele>
        <time>2020-12-06T08:11:34Z</time>
      </trkpt>
      <trkpt lat="38.2987830" lon="-0.6180670">
        <ele>93.1</ele>
        <time>2020-12-06T08:11:35Z</time>
      </trkpt>
      <trkpt lat="38.2988200" lon="-0.6179670">
        <ele>93.1</ele>
        <time>2020-12-06T08:11:36Z</time>
      </trkpt>
      <trkpt lat="38.2988580" lon="-0.6178680">
        <ele>93.1</ele>
        <time>2020-12-06T08:11:37Z</time>
      </trkpt>
      <trkpt lat="38.2988970" lon="-0.6177720">
        <ele>93.1</ele>
        <time>2020-12-06T08:11:38Z</time>
      </trkpt>
      <trkpt lat="38.2989370" lon="-0.6176750">
        <ele>92.1</ele>
        <time>2020-12-06T08:11:39Z</time>
      </trkpt>
      <trkpt lat="38.2989750" lon="-0.6175750">
        <ele>92.1</ele>
        <time>2020-12-06T08:11:40Z</time>
      </trkpt>
      <trkpt lat="38.2990130" lon="-0.6174770">
        <ele>92.1</ele>
        <time>2020-12-06T08:11:41Z</time>
      </trkpt>
      <trkpt lat="38.2990520" lon="-0.6173780">
        <ele>92.1</ele>
        <time>2020-12-06T08:11:42Z</time>
      </trkpt>
      <trkpt lat="38.2990870" lon="-0.6172780">
        <ele>92.1</ele>
        <time>2020-12-06T08:11:43Z</time>
      </trkpt>
      <trkpt lat="38.2991250" lon="-0.6171800">
        <ele>92.1</ele>
        <time>2020-12-06T08:11:44Z</time>
      </trkpt>
      <trkpt lat="38.2991630" lon="-0.6170820">
        <ele>92.1</ele>
        <time>2020-12-06T08:11:45Z</time>
      </trkpt>
      <trkpt lat="38.2992000" lon="-0.6169820">
        <ele>92.1</ele>
        <time>2020-12-06T08:11:46Z</time>
      </trkpt>
      <trkpt lat="38.2992370" lon="-0.6168800">
        <ele>92.1</ele>
        <time>2020-12-06T08:11:47Z</time>
      </trkpt>
      <trkpt lat="38.2992670" lon="-0.6167750">
        <ele>92.1</ele>
        <time>2020-12-06T08:11:48Z</time>
      </trkpt>
      <trkpt lat="38.2992820" lon="-0.6166630">
        <ele>92.1</ele>
        <time>2020-12-06T08:11:49Z</time>
      </trkpt>
      <trkpt lat="38.2992780" lon="-0.6165530">
        <ele>92.1</ele>
        <time>2020-12-06T08:11:50Z</time>
      </trkpt>
      <trkpt lat="38.2992580" lon="-0.6164480">
        <ele>92.1</ele>
        <time>2020-12-06T08:11:51Z</time>
      </trkpt>
      <trkpt lat="38.2992330" lon="-0.6163450">
        <ele>92.1</ele>
        <time>2020-12-06T08:11:52Z</time>
      </trkpt>
      <trkpt lat="38.2992120" lon="-0.6162400">
        <ele>92.1</ele>
        <time>2020-12-06T08:11:53Z</time>
      </trkpt>
      <trkpt lat="38.2991830" lon="-0.6161400">
        <ele>92.1</ele>
        <time>2020-12-06T08:11:54Z</time>
      </trkpt>
      <trkpt lat="38.2991380" lon="-0.6160470">
        <ele>92.1</ele>
        <time>2020-12-06T08:11:55Z</time>
      </trkpt>
      <trkpt lat="38.2990800" lon="-0.6159670">
        <ele>92.1</ele>
        <time>2020-12-06T08:11:56Z</time>
      </trkpt>
      <trkpt lat="38.2990120" lon="-0.6158970">
        <ele>92.1</ele>
        <time>2020-12-06T08:11:57Z</time>
      </trkpt>
      <trkpt lat="38.2989370" lon="-0.6158380">
        <ele>92.1</ele>
        <time>2020-12-06T08:11:58Z</time>
      </trkpt>
      <trkpt lat="38.2988570" lon="-0.6157850">
        <ele>90.1</ele>
        <time>2020-12-06T08:11:59Z</time>
      </trkpt>
      <trkpt lat="38.2987780" lon="-0.6157300">
        <ele>90.1</ele>
        <time>2020-12-06T08:12:00Z</time>
      </trkpt>
      <trkpt lat="38.2986970" lon="-0.6156730">
        <ele>90.1</ele>
        <time>2020-12-06T08:12:01Z</time>
      </trkpt>
      <trkpt lat="38.2986150" lon="-0.6156170">
        <ele>90.1</ele>
        <time>2020-12-06T08:12:02Z</time>
      </trkpt>
      <trkpt lat="38.2985320" lon="-0.6155600">
        <ele>90.1</ele>
        <time>2020-12-06T08:12:03Z</time>
      </trkpt>
      <trkpt lat="38.2984480" lon="-0.6155050">
        <ele>90.1</ele>
        <time>2020-12-06T08:12:04Z</time>
      </trkpt>
      <trkpt lat="38.2983650" lon="-0.6154470">
        <ele>90.1</ele>
        <time>2020-12-06T08:12:05Z</time>
      </trkpt>
      <trkpt lat="38.2982800" lon="-0.6153900">
        <ele>90.1</ele>
        <time>2020-12-06T08:12:06Z</time>
      </trkpt>
      <trkpt lat="38.2981950" lon="-0.6153300">
        <ele>89.0</ele>
        <time>2020-12-06T08:12:07Z</time>
      </trkpt>
      <trkpt lat="38.2981120" lon="-0.6152700">
        <ele>89.0</ele>
        <time>2020-12-06T08:12:08Z</time>
      </trkpt>
      <trkpt lat="38.2980250" lon="-0.6152130">
        <ele>89.0</ele>
        <time>2020-12-06T08:12:09Z</time>
      </trkpt>
      <trkpt lat="38.2979350" lon="-0.6151720">
        <ele>89.0</ele>
        <time>2020-12-06T08:12:10Z</time>
      </trkpt>
      <trkpt lat="38.2978380" lon="-0.6151580">
        <ele>89.0</ele>
        <time>2020-12-06T08:12:11Z</time>
      </trkpt>
      <trkpt lat="38.2977430" lon="-0.6151770">
        <ele>89.0</ele>
        <time>2020-12-06T08:12:12Z</time>
      </trkpt>
      <trkpt lat="38.2976480" lon="-0.6151820">
        <ele>89.0</ele>
        <time>2020-12-06T08:12:13Z</time>
      </trkpt>
      <trkpt lat="38.2975570" lon="-0.6151700">
        <ele>89.0</ele>
        <time>2020-12-06T08:12:14Z</time>
      </trkpt>
      <trkpt lat="38.2974670" lon="-0.6151350">
        <ele>88.1</ele>
        <time>2020-12-06T08:12:15Z</time>
      </trkpt>
      <trkpt lat="38.2973800" lon="-0.6150870">
        <ele>88.1</ele>
        <time>2020-12-06T08:12:16Z</time>
      </trkpt>
      <trkpt lat="38.2972950" lon="-0.6150280">
        <ele>87.0</ele>
        <time>2020-12-06T08:12:17Z</time>
      </trkpt>
      <trkpt lat="38.2972100" lon="-0.6149700">
        <ele>87.0</ele>
        <time>2020-12-06T08:12:18Z</time>
      </trkpt>
      <trkpt lat="38.2971250" lon="-0.6149120">
        <ele>87.0</ele>
        <time>2020-12-06T08:12:19Z</time>
      </trkpt>
      <trkpt lat="38.2970380" lon="-0.6148530">
        <ele>87.0</ele>
        <time>2020-12-06T08:12:20Z</time>
      </trkpt>
      <trkpt lat="38.2969500" lon="-0.6147950">
        <ele>86.1</ele>
        <time>2020-12-06T08:12:21Z</time>
      </trkpt>
      <trkpt lat="38.2968620" lon="-0.6147370">
        <ele>86.1</ele>
        <time>2020-12-06T08:12:22Z</time>
      </trkpt>
      <trkpt lat="38.2967730" lon="-0.6146780">
        <ele>86.1</ele>
        <time>2020-12-06T08:12:23Z</time>
      </trkpt>
      <trkpt lat="38.2966850" lon="-0.6146180">
        <ele>86.1</ele>
        <time>2020-12-06T08:12:24Z</time>
      </trkpt>
      <trkpt lat="38.2965970" lon="-0.6145600">
        <ele>85.0</ele>
        <time>2020-12-06T08:12:25Z</time>
      </trkpt>
      <trkpt lat="38.2965080" lon="-0.6145000">
        <ele>85.0</ele>
        <time>2020-12-06T08:12:26Z</time>
      </trkpt>
      <trkpt lat="38.2964200" lon="-0.6144380">
        <ele>85.0</ele>
        <time>2020-12-06T08:12:27Z</time>
      </trkpt>
      <trkpt lat="38.2963300" lon="-0.6143780">
        <ele>85.0</ele>
        <time>2020-12-06T08:12:28Z</time>
      </trkpt>
      <trkpt lat="38.2962400" lon="-0.6143170">
        <ele>84.1</ele>
        <time>2020-12-06T08:12:29Z</time>
      </trkpt>
      <trkpt lat="38.2961480" lon="-0.6142550">
        <ele>84.1</ele>
        <time>2020-12-06T08:12:30Z</time>
      </trkpt>
      <trkpt lat="38.2960580" lon="-0.6141930">
        <ele>84.1</ele>
        <time>2020-12-06T08:12:31Z</time>
      </trkpt>
      <trkpt lat="38.2959670" lon="-0.6141300">
        <ele>84.1</ele>
        <time>2020-12-06T08:12:32Z</time>
      </trkpt>
      <trkpt lat="38.2958770" lon="-0.6140670">
        <ele>83.1</ele>
        <time>2020-12-06T08:12:33Z</time>
      </trkpt>
      <trkpt lat="38.2957870" lon="-0.6140070">
        <ele>83.1</ele>
        <time>2020-12-06T08:12:34Z</time>
      </trkpt>
      <trkpt lat="38.2956950" lon="-0.6139470">
        <ele>83.1</ele>
        <time>2020-12-06T08:12:35Z</time>
      </trkpt>
      <trkpt lat="38.2956020" lon="-0.6138880">
        <ele>83.1</ele>
        <time>2020-12-06T08:12:36Z</time>
      </trkpt>
      <trkpt lat="38.2955100" lon="-0.6138270">
        <ele>82.1</ele>
        <time>2020-12-06T08:12:37Z</time>
      </trkpt>
      <trkpt lat="38.2954200" lon="-0.6137630">
        <ele>82.1</ele>
        <time>2020-12-06T08:12:38Z</time>
      </trkpt>
      <trkpt lat="38.2953280" lon="-0.6136980">
        <ele>82.1</ele>
        <time>2020-12-06T08:12:39Z</time>
      </trkpt>
      <trkpt lat="38.2952370" lon="-0.6136350">
        <ele>82.1</ele>
        <time>2020-12-06T08:12:40Z</time>
      </trkpt>
      <trkpt lat="38.2951450" lon="-0.6135730">
        <ele>82.1</ele>
        <time>2020-12-06T08:12:41Z</time>
      </trkpt>
      <trkpt lat="38.2950530" lon="-0.6135120">
        <ele>82.1</ele>
        <time>2020-12-06T08:12:42Z</time>
      </trkpt>
      <trkpt lat="38.2949630" lon="-0.6134480">
        <ele>82.1</ele>
        <time>2020-12-06T08:12:43Z</time>
      </trkpt>
      <trkpt lat="38.2948750" lon="-0.6133830">
        <ele>82.1</ele>
        <time>2020-12-06T08:12:44Z</time>
      </trkpt>
      <trkpt lat="38.2947850" lon="-0.6133200">
        <ele>81.1</ele>
        <time>2020-12-06T08:12:45Z</time>
      </trkpt>
      <trkpt lat="38.2946950" lon="-0.6132570">
        <ele>81.1</ele>
        <time>2020-12-06T08:12:46Z</time>
      </trkpt>
      <trkpt lat="38.2946070" lon="-0.6131930">
        <ele>81.1</ele>
        <time>2020-12-06T08:12:47Z</time>
      </trkpt>
      <trkpt lat="38.2945170" lon="-0.6131280">
        <ele>81.1</ele>
        <time>2020-12-06T08:12:48Z</time>
      </trkpt>
      <trkpt lat="38.2944300" lon="-0.6130630">
        <ele>80.0</ele>
        <time>2020-12-06T08:12:49Z</time>
      </trkpt>
      <trkpt lat="38.2943420" lon="-0.6129970">
        <ele>80.0</ele>
        <time>2020-12-06T08:12:50Z</time>
      </trkpt>
      <trkpt lat="38.2942530" lon="-0.6129320">
        <ele>80.0</ele>
        <time>2020-12-06T08:12:51Z</time>
      </trkpt>
      <trkpt lat="38.2941650" lon="-0.6128680">
        <ele>80.0</ele>
        <time>2020-12-06T08:12:52Z</time>
      </trkpt>
      <trkpt lat="38.2940750" lon="-0.6128080">
        <ele>79.1</ele>
        <time>2020-12-06T08:12:53Z</time>
      </trkpt>
      <trkpt lat="38.2939850" lon="-0.6127470">
        <ele>79.1</ele>
        <time>2020-12-06T08:12:54Z</time>
      </trkpt>
      <trkpt lat="38.2938970" lon="-0.6126870">
        <ele>79.1</ele>
        <time>2020-12-06T08:12:55Z</time>
      </trkpt>
      <trkpt lat="38.2938080" lon="-0.6126270">
        <ele>79.1</ele>
        <time>2020-12-06T08:12:56Z</time>
      </trkpt>
      <trkpt lat="38.2937220" lon="-0.6125650">
        <ele>79.1</ele>
        <time>2020-12-06T08:12:57Z</time>
      </trkpt>
      <trkpt lat="38.2936330" lon="-0.6125030">
        <ele>79.1</ele>
        <time>2020-12-06T08:12:58Z</time>
      </trkpt>
      <trkpt lat="38.2935450" lon="-0.6124430">
        <ele>79.1</ele>
        <time>2020-12-06T08:12:59Z</time>
      </trkpt>
      <trkpt lat="38.2934570" lon="-0.6123820">
        <ele>79.1</ele>
        <time>2020-12-06T08:13:00Z</time>
      </trkpt>
      <trkpt lat="38.2933680" lon="-0.6123200">
        <ele>79.1</ele>
        <time>2020-12-06T08:13:01Z</time>
      </trkpt>
      <trkpt lat="38.2932800" lon="-0.6122580">
        <ele>79.1</ele>
        <time>2020-12-06T08:13:02Z</time>
      </trkpt>
      <trkpt lat="38.2931900" lon="-0.6121970">
        <ele>78.0</ele>
        <time>2020-12-06T08:13:03Z</time>
      </trkpt>
      <trkpt lat="38.2931000" lon="-0.6121370">
        <ele>78.0</ele>
        <time>2020-12-06T08:13:04Z</time>
      </trkpt>
      <trkpt lat="38.2930100" lon="-0.6120750">
        <ele>78.0</ele>
        <time>2020-12-06T08:13:05Z</time>
      </trkpt>
      <trkpt lat="38.2929220" lon="-0.6120120">
        <ele>78.0</ele>
        <time>2020-12-06T08:13:06Z</time>
      </trkpt>
      <trkpt lat="38.2928330" lon="-0.6119500">
        <ele>77.1</ele>
        <time>2020-12-06T08:13:07Z</time>
      </trkpt>
      <trkpt lat="38.2927450" lon="-0.6118880">
        <ele>77.1</ele>
        <time>2020-12-06T08:13:08Z</time>
      </trkpt>
      <trkpt lat="38.2926550" lon="-0.6118280">
        <ele>77.1</ele>
        <time>2020-12-06T08:13:09Z</time>
      </trkpt>
      <trkpt lat="38.2925670" lon="-0.6117700">
        <ele>77.1</ele>
        <time>2020-12-06T08:13:10Z</time>
      </trkpt>
      <trkpt lat="38.2924770" lon="-0.6117080">
        <ele>77.1</ele>
        <time>2020-12-06T08:13:11Z</time>
      </trkpt>
      <trkpt lat="38.2923880" lon="-0.6116480">
        <ele>77.1</ele>
        <time>2020-12-06T08:13:12Z</time>
      </trkpt>
      <trkpt lat="38.2923000" lon="-0.6115880">
        <ele>77.1</ele>
        <time>2020-12-06T08:13:13Z</time>
      </trkpt>
      <trkpt lat="38.2922120" lon="-0.6115220">
        <ele>77.1</ele>
        <time>2020-12-06T08:13:14Z</time>
      </trkpt>
      <trkpt lat="38.2921220" lon="-0.6114580">
        <ele>76.0</ele>
        <time>2020-12-06T08:13:15Z</time>
      </trkpt>
      <trkpt lat="38.2920320" lon="-0.6114030">
        <ele>76.0</ele>
        <time>2020-12-06T08:13:16Z</time>
      </trkpt>
      <trkpt lat="38.2919420" lon="-0.6113470">
        <ele>76.0</ele>
        <time>2020-12-06T08:13:17Z</time>
      </trkpt>
      <trkpt lat="38.2918500" lon="-0.6112900">
        <ele>76.0</ele>
        <time>2020-12-06T08:13:18Z</time>
      </trkpt>
      <trkpt lat="38.2917600" lon="-0.6112330">
        <ele>76.0</ele>
        <time>2020-12-06T08:13:19Z</time>
      </trkpt>
      <trkpt lat="38.2916700" lon="-0.6111700">
        <ele>76.0</ele>
        <time>2020-12-06T08:13:20Z</time>
      </trkpt>
      <trkpt lat="38.2915820" lon="-0.6111050">
        <ele>76.0</ele>
        <time>2020-12-06T08:13:21Z</time>
      </trkpt>
      <trkpt lat="38.2914950" lon="-0.6110420">
        <ele>76.0</ele>
        <time>2020-12-06T08:13:22Z</time>
      </trkpt>
      <trkpt lat="38.2914050" lon="-0.6109820">
        <ele>76.0</ele>
        <time>2020-12-06T08:13:23Z</time>
      </trkpt>
      <trkpt lat="38.2913130" lon="-0.6109220">
        <ele>76.0</ele>
        <time>2020-12-06T08:13:24Z</time>
      </trkpt>
      <trkpt lat="38.2912220" lon="-0.6108620">
        <ele>76.0</ele>
        <time>2020-12-06T08:13:25Z</time>
      </trkpt>
      <trkpt lat="38.2911320" lon="-0.6107970">
        <ele>76.0</ele>
        <time>2020-12-06T08:13:26Z</time>
      </trkpt>
      <trkpt lat="38.2910430" lon="-0.6107320">
        <ele>76.0</ele>
        <time>2020-12-06T08:13:27Z</time>
      </trkpt>
      <trkpt lat="38.2909530" lon="-0.6106680">
        <ele>76.0</ele>
        <time>2020-12-06T08:13:28Z</time>
      </trkpt>
      <trkpt lat="38.2908620" lon="-0.6106070">
        <ele>76.0</ele>
        <time>2020-12-06T08:13:29Z</time>
      </trkpt>
      <trkpt lat="38.2907700" lon="-0.6105470">
        <ele>76.0</ele>
        <time>2020-12-06T08:13:30Z</time>
      </trkpt>
      <trkpt lat="38.2906770" lon="-0.6104900">
        <ele>76.0</ele>
        <time>2020-12-06T08:13:31Z</time>
      </trkpt>
      <trkpt lat="38.2905820" lon="-0.6104330">
        <ele>76.0</ele>
        <time>2020-12-06T08:13:32Z</time>
      </trkpt>
      <trkpt lat="38.2904920" lon="-0.6103670">
        <ele>73.0</ele>
        <time>2020-12-06T08:13:33Z</time>
      </trkpt>
      <trkpt lat="38.2904020" lon="-0.6103030">
        <ele>73.0</ele>
        <time>2020-12-06T08:13:34Z</time>
      </trkpt>
      <trkpt lat="38.2903120" lon="-0.6102420">
        <ele>73.0</ele>
        <time>2020-12-06T08:13:35Z</time>
      </trkpt>
      <trkpt lat="38.2902230" lon="-0.6101780">
        <ele>73.0</ele>
        <time>2020-12-06T08:13:36Z</time>
      </trkpt>
      <trkpt lat="38.2901370" lon="-0.6101170">
        <ele>73.0</ele>
        <time>2020-12-06T08:13:37Z</time>
      </trkpt>
      <trkpt lat="38.2900500" lon="-0.6100580">
        <ele>73.0</ele>
        <time>2020-12-06T08:13:38Z</time>
      </trkpt>
      <trkpt lat="38.2899630" lon="-0.6100000">
        <ele>73.0</ele>
        <time>2020-12-06T08:13:39Z</time>
      </trkpt>
      <trkpt lat="38.2898770" lon="-0.6099450">
        <ele>73.0</ele>
        <time>2020-12-06T08:13:40Z</time>
      </trkpt>
      <trkpt lat="38.2897900" lon="-0.6098900">
        <ele>73.0</ele>
        <time>2020-12-06T08:13:41Z</time>
      </trkpt>
      <trkpt lat="38.2897030" lon="-0.6098370">
        <ele>73.0</ele>
        <time>2020-12-06T08:13:42Z</time>
      </trkpt>
      <trkpt lat="38.2896200" lon="-0.6097780">
        <ele>73.0</ele>
        <time>2020-12-06T08:13:43Z</time>
      </trkpt>
      <trkpt lat="38.2895380" lon="-0.6097070">
        <ele>73.0</ele>
        <time>2020-12-06T08:13:44Z</time>
      </trkpt>
      <trkpt lat="38.2894880" lon="-0.6096070">
        <ele>73.0</ele>
        <time>2020-12-06T08:13:45Z</time>
      </trkpt>
      <trkpt lat="38.2894680" lon="-0.6094970">
        <ele>73.0</ele>
        <time>2020-12-06T08:13:46Z</time>
      </trkpt>
      <trkpt lat="38.2894720" lon="-0.6093820">
        <ele>73.0</ele>
        <time>2020-12-06T08:13:47Z</time>
      </trkpt>
      <trkpt lat="38.2894950" lon="-0.6092720">
        <ele>73.0</ele>
        <time>2020-12-06T08:13:48Z</time>
      </trkpt>
      <trkpt lat="38.2895450" lon="-0.6091800">
        <ele>72.1</ele>
        <time>2020-12-06T08:13:49Z</time>
      </trkpt>
      <trkpt lat="38.2896270" lon="-0.6091370">
        <ele>72.1</ele>
        <time>2020-12-06T08:13:50Z</time>
      </trkpt>
      <trkpt lat="38.2897130" lon="-0.6091280">
        <ele>72.1</ele>
        <time>2020-12-06T08:13:51Z</time>
      </trkpt>
      <trkpt lat="38.2897980" lon="-0.6091500">
        <ele>72.1</ele>
        <time>2020-12-06T08:13:52Z</time>
      </trkpt>
      <trkpt lat="38.2898750" lon="-0.6091900">
        <ele>72.1</ele>
        <time>2020-12-06T08:13:53Z</time>
      </trkpt>
      <trkpt lat="38.2899480" lon="-0.6092370">
        <ele>72.1</ele>
        <time>2020-12-06T08:13:54Z</time>
      </trkpt>
      <trkpt lat="38.2900180" lon="-0.6092830">
        <ele>72.1</ele>
        <time>2020-12-06T08:13:55Z</time>
      </trkpt>
      <trkpt lat="38.2900900" lon="-0.6093280">
        <ele>72.1</ele>
        <time>2020-12-06T08:13:56Z</time>
      </trkpt>
      <trkpt lat="38.2901630" lon="-0.6093750">
        <ele>71.0</ele>
        <time>2020-12-06T08:13:57Z</time>
      </trkpt>
      <trkpt lat="38.2902350" lon="-0.6094220">
        <ele>71.0</ele>
        <time>2020-12-06T08:13:58Z</time>
      </trkpt>
      <trkpt lat="38.2903050" lon="-0.6094700">
        <ele>71.0</ele>
        <time>2020-12-06T08:13:59Z</time>
      </trkpt>
      <trkpt lat="38.2903750" lon="-0.6095180">
        <ele>71.0</ele>
        <time>2020-12-06T08:14:00Z</time>
      </trkpt>
      <trkpt lat="38.2904450" lon="-0.6095700">
        <ele>71.0</ele>
        <time>2020-12-06T08:14:01Z</time>
      </trkpt>
      <trkpt lat="38.2905150" lon="-0.6096230">
        <ele>71.0</ele>
        <time>2020-12-06T08:14:02Z</time>
      </trkpt>
      <trkpt lat="38.2905830" lon="-0.6096700">
        <ele>71.0</ele>
        <time>2020-12-06T08:14:03Z</time>
      </trkpt>
      <trkpt lat="38.2906530" lon="-0.6097120">
        <ele>71.0</ele>
        <time>2020-12-06T08:14:04Z</time>
      </trkpt>
      <trkpt lat="38.2907180" lon="-0.6097570">
        <ele>72.1</ele>
        <time>2020-12-06T08:14:05Z</time>
      </trkpt>
      <trkpt lat="38.2907830" lon="-0.6098020">
        <ele>72.1</ele>
        <time>2020-12-06T08:14:06Z</time>
      </trkpt>
      <trkpt lat="38.2908470" lon="-0.6098430">
        <ele>72.1</ele>
        <time>2020-12-06T08:14:07Z</time>
      </trkpt>
      <trkpt lat="38.2909100" lon="-0.6098870">
        <ele>72.1</ele>
        <time>2020-12-06T08:14:08Z</time>
      </trkpt>
      <trkpt lat="38.2909730" lon="-0.6099270">
        <ele>72.1</ele>
        <time>2020-12-06T08:14:09Z</time>
      </trkpt>
      <trkpt lat="38.2910350" lon="-0.6099680">
        <ele>72.1</ele>
        <time>2020-12-06T08:14:10Z</time>
      </trkpt>
      <trkpt lat="38.2910980" lon="-0.6100100">
        <ele>73.0</ele>
        <time>2020-12-06T08:14:11Z</time>
      </trkpt>
      <trkpt lat="38.2911580" lon="-0.6100500">
        <ele>73.0</ele>
        <time>2020-12-06T08:14:12Z</time>
      </trkpt>
      <trkpt lat="38.2912200" lon="-0.6100930">
        <ele>73.0</ele>
        <time>2020-12-06T08:14:13Z</time>
      </trkpt>
      <trkpt lat="38.2912830" lon="-0.6101350">
        <ele>73.0</ele>
        <time>2020-12-06T08:14:14Z</time>
      </trkpt>
      <trkpt lat="38.2913450" lon="-0.6101770">
        <ele>73.0</ele>
        <time>2020-12-06T08:14:15Z</time>
      </trkpt>
      <trkpt lat="38.2914080" lon="-0.6102200">
        <ele>73.0</ele>
        <time>2020-12-06T08:14:16Z</time>
      </trkpt>
      <trkpt lat="38.2914730" lon="-0.6102630">
        <ele>73.0</ele>
        <time>2020-12-06T08:14:17Z</time>
      </trkpt>
      <trkpt lat="38.2915330" lon="-0.6103070">
        <ele>73.0</ele>
        <time>2020-12-06T08:14:18Z</time>
      </trkpt>
      <trkpt lat="38.2915950" lon="-0.6103470">
        <ele>73.0</ele>
        <time>2020-12-06T08:14:19Z</time>
      </trkpt>
      <trkpt lat="38.2916530" lon="-0.6103880">
        <ele>73.0</ele>
        <time>2020-12-06T08:14:20Z</time>
      </trkpt>
      <trkpt lat="38.2917100" lon="-0.6104270">
        <ele>73.0</ele>
        <time>2020-12-06T08:14:21Z</time>
      </trkpt>
      <trkpt lat="38.2917670" lon="-0.6104670">
        <ele>73.0</ele>
        <time>2020-12-06T08:14:22Z</time>
      </trkpt>
      <trkpt lat="38.2918230" lon="-0.6105070">
        <ele>73.0</ele>
        <time>2020-12-06T08:14:23Z</time>
      </trkpt>
      <trkpt lat="38.2918770" lon="-0.6105480">
        <ele>73.0</ele>
        <time>2020-12-06T08:14:24Z</time>
      </trkpt>
      <trkpt lat="38.2919320" lon="-0.6105900">
        <ele>73.0</ele>
        <time>2020-12-06T08:14:25Z</time>
      </trkpt>
      <trkpt lat="38.2919870" lon="-0.6106300">
        <ele>73.0</ele>
        <time>2020-12-06T08:14:26Z</time>
      </trkpt>
      <trkpt lat="38.2920430" lon="-0.6106680">
        <ele>75.1</ele>
        <time>2020-12-06T08:14:27Z</time>
      </trkpt>
      <trkpt lat="38.2920980" lon="-0.6107100">
        <ele>75.1</ele>
        <time>2020-12-06T08:14:28Z</time>
      </trkpt>
      <trkpt lat="38.2921550" lon="-0.6107500">
        <ele>75.1</ele>
        <time>2020-12-06T08:14:29Z</time>
      </trkpt>
      <trkpt lat="38.2922080" lon="-0.6107920">
        <ele>75.1</ele>
        <time>2020-12-06T08:14:30Z</time>
      </trkpt>
      <trkpt lat="38.2922650" lon="-0.6108280">
        <ele>75.1</ele>
        <time>2020-12-06T08:14:31Z</time>
      </trkpt>
      <trkpt lat="38.2923220" lon="-0.6108670">
        <ele>75.1</ele>
        <time>2020-12-06T08:14:32Z</time>
      </trkpt>
      <trkpt lat="38.2923820" lon="-0.6109070">
        <ele>75.1</ele>
        <time>2020-12-06T08:14:33Z</time>
      </trkpt>
      <trkpt lat="38.2924380" lon="-0.6109470">
        <ele>75.1</ele>
        <time>2020-12-06T08:14:34Z</time>
      </trkpt>
      <trkpt lat="38.2924950" lon="-0.6109820">
        <ele>75.1</ele>
        <time>2020-12-06T08:14:35Z</time>
      </trkpt>
      <trkpt lat="38.2925520" lon="-0.6110170">
        <ele>75.1</ele>
        <time>2020-12-06T08:14:36Z</time>
      </trkpt>
      <trkpt lat="38.2926080" lon="-0.6110530">
        <ele>75.1</ele>
        <time>2020-12-06T08:14:37Z</time>
      </trkpt>
      <trkpt lat="38.2926620" lon="-0.6110900">
        <ele>75.1</ele>
        <time>2020-12-06T08:14:38Z</time>
      </trkpt>
      <trkpt lat="38.2927150" lon="-0.6111270">
        <ele>75.1</ele>
        <time>2020-12-06T08:14:39Z</time>
      </trkpt>
      <trkpt lat="38.2927670" lon="-0.6111630">
        <ele>75.1</ele>
        <time>2020-12-06T08:14:40Z</time>
      </trkpt>
      <trkpt lat="38.2928180" lon="-0.6112020">
        <ele>75.1</ele>
        <time>2020-12-06T08:14:41Z</time>
      </trkpt>
      <trkpt lat="38.2928720" lon="-0.6112380">
        <ele>75.1</ele>
        <time>2020-12-06T08:14:42Z</time>
      </trkpt>
      <trkpt lat="38.2929250" lon="-0.6112720">
        <ele>76.0</ele>
        <time>2020-12-06T08:14:43Z</time>
      </trkpt>
      <trkpt lat="38.2929800" lon="-0.6113070">
        <ele>76.0</ele>
        <time>2020-12-06T08:14:44Z</time>
      </trkpt>
      <trkpt lat="38.2930320" lon="-0.6113430">
        <ele>76.0</ele>
        <time>2020-12-06T08:14:45Z</time>
      </trkpt>
      <trkpt lat="38.2930830" lon="-0.6113800">
        <ele>76.0</ele>
        <time>2020-12-06T08:14:46Z</time>
      </trkpt>
      <trkpt lat="38.2931370" lon="-0.6114150">
        <ele>76.0</ele>
        <time>2020-12-06T08:14:47Z</time>
      </trkpt>
      <trkpt lat="38.2931900" lon="-0.6114500">
        <ele>76.0</ele>
        <time>2020-12-06T08:14:48Z</time>
      </trkpt>
      <trkpt lat="38.2932420" lon="-0.6114870">
        <ele>76.0</ele>
        <time>2020-12-06T08:14:49Z</time>
      </trkpt>
      <trkpt lat="38.2932920" lon="-0.6115230">
        <ele>76.0</ele>
        <time>2020-12-06T08:14:50Z</time>
      </trkpt>
      <trkpt lat="38.2933420" lon="-0.6115620">
        <ele>76.0</ele>
        <time>2020-12-06T08:14:51Z</time>
      </trkpt>
      <trkpt lat="38.2933950" lon="-0.6115970">
        <ele>76.0</ele>
        <time>2020-12-06T08:14:52Z</time>
      </trkpt>
      <trkpt lat="38.2934530" lon="-0.6116320">
        <ele>76.0</ele>
        <time>2020-12-06T08:14:53Z</time>
      </trkpt>
      <trkpt lat="38.2935080" lon="-0.6116680">
        <ele>76.0</ele>
        <time>2020-12-06T08:14:54Z</time>
      </trkpt>
      <trkpt lat="38.2935600" lon="-0.6117080">
        <ele>76.0</ele>
        <time>2020-12-06T08:14:55Z</time>
      </trkpt>
      <trkpt lat="38.2936120" lon="-0.6117470">
        <ele>76.0</ele>
        <time>2020-12-06T08:14:56Z</time>
      </trkpt>
      <trkpt lat="38.2936630" lon="-0.6117850">
        <ele>77.1</ele>
        <time>2020-12-06T08:14:57Z</time>
      </trkpt>
      <trkpt lat="38.2937150" lon="-0.6118230">
        <ele>77.1</ele>
        <time>2020-12-06T08:14:58Z</time>
      </trkpt>
      <trkpt lat="38.2937680" lon="-0.6118580">
        <ele>77.1</ele>
        <time>2020-12-06T08:14:59Z</time>
      </trkpt>
      <trkpt lat="38.2938200" lon="-0.6118950">
        <ele>77.1</ele>
        <time>2020-12-06T08:15:00Z</time>
      </trkpt>
      <trkpt lat="38.2938720" lon="-0.6119320">
        <ele>77.1</ele>
        <time>2020-12-06T08:15:01Z</time>
      </trkpt>
      <trkpt lat="38.2939230" lon="-0.6119680">
        <ele>77.1</ele>
        <time>2020-12-06T08:15:02Z</time>
      </trkpt>
      <trkpt lat="38.2939750" lon="-0.6120070">
        <ele>78.0</ele>
        <time>2020-12-06T08:15:03Z</time>
      </trkpt>
      <trkpt lat="38.2940270" lon="-0.6120450">
        <ele>78.0</ele>
        <time>2020-12-06T08:15:04Z</time>
      </trkpt>
      <trkpt lat="38.2940780" lon="-0.6120830">
        <ele>78.0</ele>
        <time>2020-12-06T08:15:05Z</time>
      </trkpt>
      <trkpt lat="38.2941300" lon="-0.6121170">
        <ele>78.0</ele>
        <time>2020-12-06T08:15:06Z</time>
      </trkpt>
      <trkpt lat="38.2941830" lon="-0.6121500">
        <ele>78.0</ele>
        <time>2020-12-06T08:15:07Z</time>
      </trkpt>
      <trkpt lat="38.2942370" lon="-0.6121870">
        <ele>78.0</ele>
        <time>2020-12-06T08:15:08Z</time>
      </trkpt>
      <trkpt lat="38.2942880" lon="-0.6122220">
        <ele>78.0</ele>
        <time>2020-12-06T08:15:09Z</time>
      </trkpt>
      <trkpt lat="38.2943420" lon="-0.6122550">
        <ele>78.0</ele>
        <time>2020-12-06T08:15:10Z</time>
      </trkpt>
      <trkpt lat="38.2943930" lon="-0.6122850">
        <ele>78.0</ele>
        <time>2020-12-06T08:15:11Z</time>
      </trkpt>
      <trkpt lat="38.2944450" lon="-0.6123170">
        <ele>78.0</ele>
        <time>2020-12-06T08:15:12Z</time>
      </trkpt>
      <trkpt lat="38.2944950" lon="-0.6123500">
        <ele>78.0</ele>
        <time>2020-12-06T08:15:13Z</time>
      </trkpt>
      <trkpt lat="38.2945450" lon="-0.6123830">
        <ele>78.0</ele>
        <time>2020-12-06T08:15:14Z</time>
      </trkpt>
      <trkpt lat="38.2945930" lon="-0.6124180">
        <ele>79.1</ele>
        <time>2020-12-06T08:15:15Z</time>
      </trkpt>
      <trkpt lat="38.2946430" lon="-0.6124530">
        <ele>79.1</ele>
        <time>2020-12-06T08:15:16Z</time>
      </trkpt>
      <trkpt lat="38.2946920" lon="-0.6124880">
        <ele>79.1</ele>
        <time>2020-12-06T08:15:17Z</time>
      </trkpt>
      <trkpt lat="38.2947400" lon="-0.6125230">
        <ele>79.1</ele>
        <time>2020-12-06T08:15:18Z</time>
      </trkpt>
      <trkpt lat="38.2947880" lon="-0.6125600">
        <ele>79.1</ele>
        <time>2020-12-06T08:15:19Z</time>
      </trkpt>
      <trkpt lat="38.2948380" lon="-0.6125970">
        <ele>79.1</ele>
        <time>2020-12-06T08:15:20Z</time>
      </trkpt>
      <trkpt lat="38.2948920" lon="-0.6126330">
        <ele>79.1</ele>
        <time>2020-12-06T08:15:21Z</time>
      </trkpt>
      <trkpt lat="38.2949420" lon="-0.6126720">
        <ele>79.1</ele>
        <time>2020-12-06T08:15:22Z</time>
      </trkpt>
      <trkpt lat="38.2949920" lon="-0.6127100">
        <ele>80.0</ele>
        <time>2020-12-06T08:15:23Z</time>
      </trkpt>
      <trkpt lat="38.2950420" lon="-0.6127430">
        <ele>80.0</ele>
        <time>2020-12-06T08:15:24Z</time>
      </trkpt>
      <trkpt lat="38.2950930" lon="-0.6127750">
        <ele>80.0</ele>
        <time>2020-12-06T08:15:25Z</time>
      </trkpt>
      <trkpt lat="38.2951450" lon="-0.6128050">
        <ele>80.0</ele>
        <time>2020-12-06T08:15:26Z</time>
      </trkpt>
      <trkpt lat="38.2951950" lon="-0.6128350">
        <ele>80.0</ele>
        <time>2020-12-06T08:15:27Z</time>
      </trkpt>
      <trkpt lat="38.2952430" lon="-0.6128670">
        <ele>80.0</ele>
        <time>2020-12-06T08:15:28Z</time>
      </trkpt>
      <trkpt lat="38.2952930" lon="-0.6128970">
        <ele>80.0</ele>
        <time>2020-12-06T08:15:29Z</time>
      </trkpt>
      <trkpt lat="38.2953420" lon="-0.6129280">
        <ele>80.0</ele>
        <time>2020-12-06T08:15:30Z</time>
      </trkpt>
      <trkpt lat="38.2953880" lon="-0.6129620">
        <ele>80.0</ele>
        <time>2020-12-06T08:15:31Z</time>
      </trkpt>
      <trkpt lat="38.2954350" lon="-0.6129930">
        <ele>80.0</ele>
        <time>2020-12-06T08:15:32Z</time>
      </trkpt>
      <trkpt lat="38.2954820" lon="-0.6130220">
        <ele>80.0</ele>
        <time>2020-12-06T08:15:33Z</time>
      </trkpt>
      <trkpt lat="38.2955280" lon="-0.6130500">
        <ele>80.0</ele>
        <time>2020-12-06T08:15:34Z</time>
      </trkpt>
      <trkpt lat="38.2955730" lon="-0.6130820">
        <ele>80.0</ele>
        <time>2020-12-06T08:15:35Z</time>
      </trkpt>
      <trkpt lat="38.2956180" lon="-0.6131130">
        <ele>80.0</ele>
        <time>2020-12-06T08:15:36Z</time>
      </trkpt>
      <trkpt lat="38.2956630" lon="-0.6131470">
        <ele>81.1</ele>
        <time>2020-12-06T08:15:37Z</time>
      </trkpt>
      <trkpt lat="38.2957070" lon="-0.6131780">
        <ele>81.1</ele>
        <time>2020-12-06T08:15:38Z</time>
      </trkpt>
      <trkpt lat="38.2957520" lon="-0.6132130">
        <ele>81.1</ele>
        <time>2020-12-06T08:15:39Z</time>
      </trkpt>
      <trkpt lat="38.2957970" lon="-0.6132480">
        <ele>81.1</ele>
        <time>2020-12-06T08:15:40Z</time>
      </trkpt>
      <trkpt lat="38.2958470" lon="-0.6132820">
        <ele>81.1</ele>
        <time>2020-12-06T08:15:41Z</time>
      </trkpt>
      <trkpt lat="38.2958980" lon="-0.6133170">
        <ele>81.1</ele>
        <time>2020-12-06T08:15:42Z</time>
      </trkpt>
      <trkpt lat="38.2959450" lon="-0.6133520">
        <ele>81.1</ele>
        <time>2020-12-06T08:15:43Z</time>
      </trkpt>
      <trkpt lat="38.2959920" lon="-0.6133870">
        <ele>81.1</ele>
        <time>2020-12-06T08:15:44Z</time>
      </trkpt>
      <trkpt lat="38.2960400" lon="-0.6134180">
        <ele>81.1</ele>
        <time>2020-12-06T08:15:45Z</time>
      </trkpt>
      <trkpt lat="38.2960870" lon="-0.6134480">
        <ele>81.1</ele>
        <time>2020-12-06T08:15:46Z</time>
      </trkpt>
      <trkpt lat="38.2961350" lon="-0.6134780">
        <ele>81.1</ele>
        <time>2020-12-06T08:15:47Z</time>
      </trkpt>
      <trkpt lat="38.2961820" lon="-0.6135100">
        <ele>81.1</ele>
        <time>2020-12-06T08:15:48Z</time>
      </trkpt>
      <trkpt lat="38.2962300" lon="-0.6135400">
        <ele>81.1</ele>
        <time>2020-12-06T08:15:49Z</time>
      </trkpt>
      <trkpt lat="38.2962770" lon="-0.6135720">
        <ele>81.1</ele>
        <time>2020-12-06T08:15:50Z</time>
      </trkpt>
      <trkpt lat="38.2963250" lon="-0.6136050">
        <ele>81.1</ele>
        <time>2020-12-06T08:15:51Z</time>
      </trkpt>
      <trkpt lat="38.2963720" lon="-0.6136350">
        <ele>81.1</ele>
        <time>2020-12-06T08:15:52Z</time>
      </trkpt>
      <trkpt lat="38.2964180" lon="-0.6136700">
        <ele>83.1</ele>
        <time>2020-12-06T08:15:53Z</time>
      </trkpt>
      <trkpt lat="38.2964650" lon="-0.6137020">
        <ele>83.1</ele>
        <time>2020-12-06T08:15:54Z</time>
      </trkpt>
      <trkpt lat="38.2965120" lon="-0.6137320">
        <ele>83.1</ele>
        <time>2020-12-06T08:15:55Z</time>
      </trkpt>
      <trkpt lat="38.2965600" lon="-0.6137580">
        <ele>83.1</ele>
        <time>2020-12-06T08:15:56Z</time>
      </trkpt>
      <trkpt lat="38.2966080" lon="-0.6137850">
        <ele>83.1</ele>
        <time>2020-12-06T08:15:57Z</time>
      </trkpt>
      <trkpt lat="38.2966550" lon="-0.6138130">
        <ele>83.1</ele>
        <time>2020-12-06T08:15:58Z</time>
      </trkpt>
      <trkpt lat="38.2967020" lon="-0.6138430">
        <ele>83.1</ele>
        <time>2020-12-06T08:15:59Z</time>
      </trkpt>
      <trkpt lat="38.2967450" lon="-0.6138770">
        <ele>83.1</ele>
        <time>2020-12-06T08:16:00Z</time>
      </trkpt>
      <trkpt lat="38.2967900" lon="-0.6139120">
        <ele>84.1</ele>
        <time>2020-12-06T08:16:01Z</time>
      </trkpt>
      <trkpt lat="38.2968350" lon="-0.6139450">
        <ele>84.1</ele>
        <time>2020-12-06T08:16:02Z</time>
      </trkpt>
      <trkpt lat="38.2968800" lon="-0.6139820">
        <ele>84.1</ele>
        <time>2020-12-06T08:16:03Z</time>
      </trkpt>
      <trkpt lat="38.2969230" lon="-0.6140150">
        <ele>84.1</ele>
        <time>2020-12-06T08:16:04Z</time>
      </trkpt>
      <trkpt lat="38.2969680" lon="-0.6140480">
        <ele>84.1</ele>
        <time>2020-12-06T08:16:05Z</time>
      </trkpt>
      <trkpt lat="38.2970150" lon="-0.6140820">
        <ele>84.1</ele>
        <time>2020-12-06T08:16:06Z</time>
      </trkpt>
      <trkpt lat="38.2970600" lon="-0.6141130">
        <ele>84.1</ele>
        <time>2020-12-06T08:16:07Z</time>
      </trkpt>
      <trkpt lat="38.2971030" lon="-0.6141450">
        <ele>84.1</ele>
        <time>2020-12-06T08:16:08Z</time>
      </trkpt>
      <trkpt lat="38.2971480" lon="-0.6141770">
        <ele>84.1</ele>
        <time>2020-12-06T08:16:09Z</time>
      </trkpt>
      <trkpt lat="38.2971930" lon="-0.6142080">
        <ele>84.1</ele>
        <time>2020-12-06T08:16:10Z</time>
      </trkpt>
      <trkpt lat="38.2972380" lon="-0.6142400">
        <ele>84.1</ele>
        <time>2020-12-06T08:16:11Z</time>
      </trkpt>
      <trkpt lat="38.2972830" lon="-0.6142700">
        <ele>84.1</ele>
        <time>2020-12-06T08:16:12Z</time>
      </trkpt>
      <trkpt lat="38.2973320" lon="-0.6143000">
        <ele>84.1</ele>
        <time>2020-12-06T08:16:13Z</time>
      </trkpt>
      <trkpt lat="38.2973800" lon="-0.6143300">
        <ele>84.1</ele>
        <time>2020-12-06T08:16:14Z</time>
      </trkpt>
      <trkpt lat="38.2974300" lon="-0.6143630">
        <ele>84.1</ele>
        <time>2020-12-06T08:16:15Z</time>
      </trkpt>
      <trkpt lat="38.2974800" lon="-0.6144000">
        <ele>84.1</ele>
        <time>2020-12-06T08:16:16Z</time>
      </trkpt>
      <trkpt lat="38.2975300" lon="-0.6144330">
        <ele>84.1</ele>
        <time>2020-12-06T08:16:17Z</time>
      </trkpt>
      <trkpt lat="38.2975780" lon="-0.6144670">
        <ele>84.1</ele>
        <time>2020-12-06T08:16:18Z</time>
      </trkpt>
      <trkpt lat="38.2976250" lon="-0.6145020">
        <ele>85.0</ele>
        <time>2020-12-06T08:16:19Z</time>
      </trkpt>
      <trkpt lat="38.2976700" lon="-0.6145380">
        <ele>85.0</ele>
        <time>2020-12-06T08:16:20Z</time>
      </trkpt>
      <trkpt lat="38.2977130" lon="-0.6145770">
        <ele>85.0</ele>
        <time>2020-12-06T08:16:21Z</time>
      </trkpt>
      <trkpt lat="38.2977550" lon="-0.6146180">
        <ele>85.0</ele>
        <time>2020-12-06T08:16:22Z</time>
      </trkpt>
      <trkpt lat="38.2977930" lon="-0.6146670">
        <ele>85.0</ele>
        <time>2020-12-06T08:16:23Z</time>
      </trkpt>
      <trkpt lat="38.2978270" lon="-0.6147230">
        <ele>85.0</ele>
        <time>2020-12-06T08:16:24Z</time>
      </trkpt>
      <trkpt lat="38.2978550" lon="-0.6147880">
        <ele>85.0</ele>
        <time>2020-12-06T08:16:25Z</time>
      </trkpt>
      <trkpt lat="38.2978800" lon="-0.6148530">
        <ele>85.0</ele>
        <time>2020-12-06T08:16:26Z</time>
      </trkpt>
      <trkpt lat="38.2979030" lon="-0.6149130">
        <ele>85.0</ele>
        <time>2020-12-06T08:16:27Z</time>
      </trkpt>
      <trkpt lat="38.2979280" lon="-0.6149700">
        <ele>85.0</ele>
        <time>2020-12-06T08:16:28Z</time>
      </trkpt>
      <trkpt lat="38.2979600" lon="-0.6150220">
        <ele>85.0</ele>
        <time>2020-12-06T08:16:29Z</time>
      </trkpt>
      <trkpt lat="38.2979980" lon="-0.6150630">
        <ele>85.0</ele>
        <time>2020-12-06T08:16:30Z</time>
      </trkpt>
      <trkpt lat="38.2980400" lon="-0.6150970">
        <ele>85.0</ele>
        <time>2020-12-06T08:16:31Z</time>
      </trkpt>
      <trkpt lat="38.2980830" lon="-0.6151250">
        <ele>85.0</ele>
        <time>2020-12-06T08:16:32Z</time>
      </trkpt>
      <trkpt lat="38.2981280" lon="-0.6151520">
        <ele>87.0</ele>
        <time>2020-12-06T08:16:33Z</time>
      </trkpt>
      <trkpt lat="38.2981730" lon="-0.6151820">
        <ele>87.0</ele>
        <time>2020-12-06T08:16:34Z</time>
      </trkpt>
      <trkpt lat="38.2982170" lon="-0.6152130">
        <ele>87.0</ele>
        <time>2020-12-06T08:16:35Z</time>
      </trkpt>
      <trkpt lat="38.2982600" lon="-0.6152450">
        <ele>87.0</ele>
        <time>2020-12-06T08:16:36Z</time>
      </trkpt>
      <trkpt lat="38.2983030" lon="-0.6152750">
        <ele>88.1</ele>
        <time>2020-12-06T08:16:37Z</time>
      </trkpt>
      <trkpt lat="38.2983470" lon="-0.6153050">
        <ele>88.1</ele>
        <time>2020-12-06T08:16:38Z</time>
      </trkpt>
      <trkpt lat="38.2983900" lon="-0.6153330">
        <ele>88.1</ele>
        <time>2020-12-06T08:16:39Z</time>
      </trkpt>
      <trkpt lat="38.2984330" lon="-0.6153600">
        <ele>88.1</ele>
        <time>2020-12-06T08:16:40Z</time>
      </trkpt>
      <trkpt lat="38.2984770" lon="-0.6153900">
        <ele>88.1</ele>
        <time>2020-12-06T08:16:41Z</time>
      </trkpt>
      <trkpt lat="38.2985200" lon="-0.6154180">
        <ele>88.1</ele>
        <time>2020-12-06T08:16:42Z</time>
      </trkpt>
      <trkpt lat="38.2985650" lon="-0.6154450">
        <ele>88.1</ele>
        <time>2020-12-06T08:16:43Z</time>
      </trkpt>
      <trkpt lat="38.2986080" lon="-0.6154730">
        <ele>88.1</ele>
        <time>2020-12-06T08:16:44Z</time>
      </trkpt>
      <trkpt lat="38.2986520" lon="-0.6155020">
        <ele>88.1</ele>
        <time>2020-12-06T08:16:45Z</time>
      </trkpt>
      <trkpt lat="38.2986950" lon="-0.6155330">
        <ele>88.1</ele>
        <time>2020-12-06T08:16:46Z</time>
      </trkpt>
      <trkpt lat="38.2987370" lon="-0.6155630">
        <ele>89.0</ele>
        <time>2020-12-06T08:16:47Z</time>
      </trkpt>
      <trkpt lat="38.2987800" lon="-0.6155920">
        <ele>89.0</ele>
        <time>2020-12-06T08:16:48Z</time>
      </trkpt>
      <trkpt lat="38.2988220" lon="-0.6156200">
        <ele>89.0</ele>
        <time>2020-12-06T08:16:49Z</time>
      </trkpt>
      <trkpt lat="38.2988650" lon="-0.6156500">
        <ele>89.0</ele>
        <time>2020-12-06T08:16:50Z</time>
      </trkpt>
      <trkpt lat="38.2989070" lon="-0.6156820">
        <ele>89.0</ele>
        <time>2020-12-06T08:16:51Z</time>
      </trkpt>
      <trkpt lat="38.2989480" lon="-0.6157120">
        <ele>89.0</ele>
        <time>2020-12-06T08:16:52Z</time>
      </trkpt>
      <trkpt lat="38.2989920" lon="-0.6157400">
        <ele>89.0</ele>
        <time>2020-12-06T08:16:53Z</time>
      </trkpt>
      <trkpt lat="38.2990370" lon="-0.6157630">
        <ele>89.0</ele>
        <time>2020-12-06T08:16:54Z</time>
      </trkpt>
      <trkpt lat="38.2990850" lon="-0.6157820">
        <ele>89.0</ele>
        <time>2020-12-06T08:16:55Z</time>
      </trkpt>
      <trkpt lat="38.2991330" lon="-0.6157930">
        <ele>89.0</ele>
        <time>2020-12-06T08:16:56Z</time>
      </trkpt>
      <trkpt lat="38.2991830" lon="-0.6157980">
        <ele>89.0</ele>
        <time>2020-12-06T08:16:57Z</time>
      </trkpt>
      <trkpt lat="38.2992330" lon="-0.6157970">
        <ele>89.0</ele>
        <time>2020-12-06T08:16:58Z</time>
      </trkpt>
      <trkpt lat="38.2992830" lon="-0.6157900">
        <ele>89.0</ele>
        <time>2020-12-06T08:16:59Z</time>
      </trkpt>
      <trkpt lat="38.2993330" lon="-0.6157770">
        <ele>89.0</ele>
        <time>2020-12-06T08:17:00Z</time>
      </trkpt>
      <trkpt lat="38.2993820" lon="-0.6157530">
        <ele>89.0</ele>
        <time>2020-12-06T08:17:01Z</time>
      </trkpt>
      <trkpt lat="38.2994330" lon="-0.6157250">
        <ele>89.0</ele>
        <time>2020-12-06T08:17:02Z</time>
      </trkpt>
      <trkpt lat="38.2994830" lon="-0.6156970">
        <ele>89.0</ele>
        <time>2020-12-06T08:17:03Z</time>
      </trkpt>
      <trkpt lat="38.2995330" lon="-0.6156670">
        <ele>89.0</ele>
        <time>2020-12-06T08:17:04Z</time>
      </trkpt>
      <trkpt lat="38.2995830" lon="-0.6156320">
        <ele>89.0</ele>
        <time>2020-12-06T08:17:05Z</time>
      </trkpt>
      <trkpt lat="38.2996300" lon="-0.6155900">
        <ele>89.0</ele>
        <time>2020-12-06T08:17:06Z</time>
      </trkpt>
      <trkpt lat="38.2996720" lon="-0.6155380">
        <ele>89.0</ele>
        <time>2020-12-06T08:17:07Z</time>
      </trkpt>
      <trkpt lat="38.2997080" lon="-0.6154830">
        <ele>89.0</ele>
        <time>2020-12-06T08:17:08Z</time>
      </trkpt>
      <trkpt lat="38.2997400" lon="-0.6154230">
        <ele>89.0</ele>
        <time>2020-12-06T08:17:09Z</time>
      </trkpt>
      <trkpt lat="38.2997670" lon="-0.6153620">
        <ele>89.0</ele>
        <time>2020-12-06T08:17:10Z</time>
      </trkpt>
      <trkpt lat="38.2997900" lon="-0.6152970">
        <ele>89.0</ele>
        <time>2020-12-06T08:17:11Z</time>
      </trkpt>
      <trkpt lat="38.2998150" lon="-0.6152350">
        <ele>89.0</ele>
        <time>2020-12-06T08:17:12Z</time>
      </trkpt>
      <trkpt lat="38.2998400" lon="-0.6151720">
        <ele>90.1</ele>
        <time>2020-12-06T08:17:13Z</time>
      </trkpt>
      <trkpt lat="38.2998650" lon="-0.6151080">
        <ele>90.1</ele>
        <time>2020-12-06T08:17:14Z</time>
      </trkpt>
      <trkpt lat="38.2998900" lon="-0.6150470">
        <ele>90.1</ele>
        <time>2020-12-06T08:17:15Z</time>
      </trkpt>
      <trkpt lat="38.2999130" lon="-0.6149830">
        <ele>90.1</ele>
        <time>2020-12-06T08:17:16Z</time>
      </trkpt>
      <trkpt lat="38.2999350" lon="-0.6149180">
        <ele>90.1</ele>
        <time>2020-12-06T08:17:17Z</time>
      </trkpt>
      <trkpt lat="38.2999580" lon="-0.6148550">
        <ele>90.1</ele>
        <time>2020-12-06T08:17:18Z</time>
      </trkpt>
      <trkpt lat="38.2999830" lon="-0.6147900">
        <ele>91.1</ele>
        <time>2020-12-06T08:17:19Z</time>
      </trkpt>
      <trkpt lat="38.3000100" lon="-0.6147270">
        <ele>91.1</ele>
        <time>2020-12-06T08:17:20Z</time>
      </trkpt>
      <trkpt lat="38.3000350" lon="-0.6146620">
        <ele>91.1</ele>
        <time>2020-12-06T08:17:21Z</time>
      </trkpt>
      <trkpt lat="38.3000600" lon="-0.6145950">
        <ele>91.1</ele>
        <time>2020-12-06T08:17:22Z</time>
      </trkpt>
      <trkpt lat="38.3000850" lon="-0.6145300">
        <ele>91.1</ele>
        <time>2020-12-06T08:17:23Z</time>
      </trkpt>
      <trkpt lat="38.3001100" lon="-0.6144650">
        <ele>91.1</ele>
        <time>2020-12-06T08:17:24Z</time>
      </trkpt>
      <trkpt lat="38.3001350" lon="-0.6143980">
        <ele>91.1</ele>
        <time>2020-12-06T08:17:25Z</time>
      </trkpt>
      <trkpt lat="38.3001580" lon="-0.6143280">
        <ele>91.1</ele>
        <time>2020-12-06T08:17:26Z</time>
      </trkpt>
      <trkpt lat="38.3001850" lon="-0.6142580">
        <ele>91.1</ele>
        <time>2020-12-06T08:17:27Z</time>
      </trkpt>
      <trkpt lat="38.3002100" lon="-0.6141880">
        <ele>91.1</ele>
        <time>2020-12-06T08:17:28Z</time>
      </trkpt>
      <trkpt lat="38.3002370" lon="-0.6141170">
        <ele>91.1</ele>
        <time>2020-12-06T08:17:29Z</time>
      </trkpt>
      <trkpt lat="38.3002630" lon="-0.6140450">
        <ele>91.1</ele>
        <time>2020-12-06T08:17:30Z</time>
      </trkpt>
      <trkpt lat="38.3002900" lon="-0.6139730">
        <ele>91.1</ele>
        <time>2020-12-06T08:17:31Z</time>
      </trkpt>
      <trkpt lat="38.3003180" lon="-0.6139020">
        <ele>91.1</ele>
        <time>2020-12-06T08:17:32Z</time>
      </trkpt>
      <trkpt lat="38.3003450" lon="-0.6138280">
        <ele>91.1</ele>
        <time>2020-12-06T08:17:33Z</time>
      </trkpt>
      <trkpt lat="38.3003720" lon="-0.6137550">
        <ele>91.1</ele>
        <time>2020-12-06T08:17:34Z</time>
      </trkpt>
      <trkpt lat="38.3003970" lon="-0.6136780">
        <ele>91.1</ele>
        <time>2020-12-06T08:17:35Z</time>
      </trkpt>
      <trkpt lat="38.3004230" lon="-0.6136050">
        <ele>91.1</ele>
        <time>2020-12-06T08:17:36Z</time>
      </trkpt>
      <trkpt lat="38.3004500" lon="-0.6135280">
        <ele>91.1</ele>
        <time>2020-12-06T08:17:37Z</time>
      </trkpt>
      <trkpt lat="38.3004780" lon="-0.6134530">
        <ele>91.1</ele>
        <time>2020-12-06T08:17:38Z</time>
      </trkpt>
      <trkpt lat="38.3005080" lon="-0.6133770">
        <ele>91.1</ele>
        <time>2020-12-06T08:17:39Z</time>
      </trkpt>
      <trkpt lat="38.3005350" lon="-0.6133000">
        <ele>91.1</ele>
        <time>2020-12-06T08:17:40Z</time>
      </trkpt>
      <trkpt lat="38.3005630" lon="-0.6132220">
        <ele>91.1</ele>
        <time>2020-12-06T08:17:41Z</time>
      </trkpt>
      <trkpt lat="38.3005900" lon="-0.6131430">
        <ele>91.1</ele>
        <time>2020-12-06T08:17:42Z</time>
      </trkpt>
      <trkpt lat="38.3006150" lon="-0.6130630">
        <ele>91.1</ele>
        <time>2020-12-06T08:17:43Z</time>
      </trkpt>
      <trkpt lat="38.3006400" lon="-0.6129820">
        <ele>91.1</ele>
        <time>2020-12-06T08:17:44Z</time>
      </trkpt>
      <trkpt lat="38.3006670" lon="-0.6129000">
        <ele>91.1</ele>
        <time>2020-12-06T08:17:45Z</time>
      </trkpt>
      <trkpt lat="38.3006950" lon="-0.6128180">
        <ele>91.1</ele>
        <time>2020-12-06T08:17:46Z</time>
      </trkpt>
      <trkpt lat="38.3007230" lon="-0.6127380">
        <ele>91.1</ele>
        <time>2020-12-06T08:17:47Z</time>
      </trkpt>
      <trkpt lat="38.3007530" lon="-0.6126570">
        <ele>91.1</ele>
        <time>2020-12-06T08:17:48Z</time>
      </trkpt>
      <trkpt lat="38.3007800" lon="-0.6125750">
        <ele>91.1</ele>
        <time>2020-12-06T08:17:49Z</time>
      </trkpt>
      <trkpt lat="38.3008070" lon="-0.6124900">
        <ele>91.1</ele>
        <time>2020-12-06T08:17:50Z</time>
      </trkpt>
      <trkpt lat="38.3008370" lon="-0.6124020">
        <ele>92.1</ele>
        <time>2020-12-06T08:17:51Z</time>
      </trkpt>
      <trkpt lat="38.3008650" lon="-0.6123100">
        <ele>92.1</ele>
        <time>2020-12-06T08:17:52Z</time>
      </trkpt>
      <trkpt lat="38.3008970" lon="-0.6122220">
        <ele>92.1</ele>
        <time>2020-12-06T08:17:53Z</time>
      </trkpt>
      <trkpt lat="38.3009320" lon="-0.6121350">
        <ele>92.1</ele>
        <time>2020-12-06T08:17:54Z</time>
      </trkpt>
      <trkpt lat="38.3009630" lon="-0.6120470">
        <ele>92.1</ele>
        <time>2020-12-06T08:17:55Z</time>
      </trkpt>
      <trkpt lat="38.3009930" lon="-0.6119570">
        <ele>92.1</ele>
        <time>2020-12-06T08:17:56Z</time>
      </trkpt>
      <trkpt lat="38.3010230" lon="-0.6118680">
        <ele>92.1</ele>
        <time>2020-12-06T08:17:57Z</time>
      </trkpt>
      <trkpt lat="38.3010520" lon="-0.6117800">
        <ele>92.1</ele>
        <time>2020-12-06T08:17:58Z</time>
      </trkpt>
      <trkpt lat="38.3010800" lon="-0.6116930">
        <ele>92.1</ele>
        <time>2020-12-06T08:17:59Z</time>
      </trkpt>
      <trkpt lat="38.3011100" lon="-0.6116070">
        <ele>92.1</ele>
        <time>2020-12-06T08:18:00Z</time>
      </trkpt>
      <trkpt lat="38.3011400" lon="-0.6115200">
        <ele>93.1</ele>
        <time>2020-12-06T08:18:01Z</time>
      </trkpt>
      <trkpt lat="38.3011700" lon="-0.6114330">
        <ele>93.1</ele>
        <time>2020-12-06T08:18:02Z</time>
      </trkpt>
      <trkpt lat="38.3012000" lon="-0.6113480">
        <ele>93.1</ele>
        <time>2020-12-06T08:18:03Z</time>
      </trkpt>
      <trkpt lat="38.3012300" lon="-0.6112620">
        <ele>93.1</ele>
        <time>2020-12-06T08:18:04Z</time>
      </trkpt>
      <trkpt lat="38.3012600" lon="-0.6111750">
        <ele>93.1</ele>
        <time>2020-12-06T08:18:05Z</time>
      </trkpt>
      <trkpt lat="38.3012900" lon="-0.6110880">
        <ele>93.1</ele>
        <time>2020-12-06T08:18:06Z</time>
      </trkpt>
      <trkpt lat="38.3013170" lon="-0.6110020">
        <ele>93.1</ele>
        <time>2020-12-06T08:18:07Z</time>
      </trkpt>
      <trkpt lat="38.3013450" lon="-0.6109150">
        <ele>93.1</ele>
        <time>2020-12-06T08:18:08Z</time>
      </trkpt>
      <trkpt lat="38.3013750" lon="-0.6108280">
        <ele>93.1</ele>
        <time>2020-12-06T08:18:09Z</time>
      </trkpt>
      <trkpt lat="38.3014030" lon="-0.6107420">
        <ele>93.1</ele>
        <time>2020-12-06T08:18:10Z</time>
      </trkpt>
      <trkpt lat="38.3014320" lon="-0.6106570">
        <ele>93.1</ele>
        <time>2020-12-06T08:18:11Z</time>
      </trkpt>
      <trkpt lat="38.3014600" lon="-0.6105700">
        <ele>93.1</ele>
        <time>2020-12-06T08:18:12Z</time>
      </trkpt>
      <trkpt lat="38.3014880" lon="-0.6104830">
        <ele>93.1</ele>
        <time>2020-12-06T08:18:13Z</time>
      </trkpt>
      <trkpt lat="38.3015150" lon="-0.6103970">
        <ele>93.1</ele>
        <time>2020-12-06T08:18:14Z</time>
      </trkpt>
      <trkpt lat="38.3015430" lon="-0.6103100">
        <ele>93.1</ele>
        <time>2020-12-06T08:18:15Z</time>
      </trkpt>
      <trkpt lat="38.3015730" lon="-0.6102250">
        <ele>93.1</ele>
        <time>2020-12-06T08:18:16Z</time>
      </trkpt>
      <trkpt lat="38.3016050" lon="-0.6101380">
        <ele>93.1</ele>
        <time>2020-12-06T08:18:17Z</time>
      </trkpt>
      <trkpt lat="38.3016320" lon="-0.6100520">
        <ele>93.1</ele>
        <time>2020-12-06T08:18:18Z</time>
      </trkpt>
      <trkpt lat="38.3016580" lon="-0.6099650">
        <ele>93.1</ele>
        <time>2020-12-06T08:18:19Z</time>
      </trkpt>
      <trkpt lat="38.3016850" lon="-0.6098800">
        <ele>93.1</ele>
        <time>2020-12-06T08:18:20Z</time>
      </trkpt>
      <trkpt lat="38.3017120" lon="-0.6097930">
        <ele>93.1</ele>
        <time>2020-12-06T08:18:21Z</time>
      </trkpt>
      <trkpt lat="38.3017400" lon="-0.6097080">
        <ele>93.1</ele>
        <time>2020-12-06T08:18:22Z</time>
      </trkpt>
      <trkpt lat="38.3017680" lon="-0.6096230">
        <ele>93.1</ele>
        <time>2020-12-06T08:18:23Z</time>
      </trkpt>
      <trkpt lat="38.3017970" lon="-0.6095380">
        <ele>93.1</ele>
        <time>2020-12-06T08:18:24Z</time>
      </trkpt>
      <trkpt lat="38.3018250" lon="-0.6094520">
        <ele>93.1</ele>
        <time>2020-12-06T08:18:25Z</time>
      </trkpt>
      <trkpt lat="38.3018520" lon="-0.6093650">
        <ele>93.1</ele>
        <time>2020-12-06T08:18:26Z</time>
      </trkpt>
      <trkpt lat="38.3018780" lon="-0.6092780">
        <ele>93.1</ele>
        <time>2020-12-06T08:18:27Z</time>
      </trkpt>
      <trkpt lat="38.3019050" lon="-0.6091900">
        <ele>93.1</ele>
        <time>2020-12-06T08:18:28Z</time>
      </trkpt>
      <trkpt lat="38.3019330" lon="-0.6091030">
        <ele>93.1</ele>
        <time>2020-12-06T08:18:29Z</time>
      </trkpt>
      <trkpt lat="38.3019620" lon="-0.6090170">
        <ele>93.1</ele>
        <time>2020-12-06T08:18:30Z</time>
      </trkpt>
      <trkpt lat="38.3019880" lon="-0.6089300">
        <ele>93.1</ele>
        <time>2020-12-06T08:18:31Z</time>
      </trkpt>
      <trkpt lat="38.3020150" lon="-0.6088420">
        <ele>93.1</ele>
        <time>2020-12-06T08:18:32Z</time>
      </trkpt>
      <trkpt lat="38.3020430" lon="-0.6087530">
        <ele>93.1</ele>
        <time>2020-12-06T08:18:33Z</time>
      </trkpt>
      <trkpt lat="38.3020720" lon="-0.6086650">
        <ele>93.1</ele>
        <time>2020-12-06T08:18:34Z</time>
      </trkpt>
      <trkpt lat="38.3020980" lon="-0.6085750">
        <ele>93.1</ele>
        <time>2020-12-06T08:18:35Z</time>
      </trkpt>
      <trkpt lat="38.3021250" lon="-0.6084850">
        <ele>93.1</ele>
        <time>2020-12-06T08:18:36Z</time>
      </trkpt>
      <trkpt lat="38.3021530" lon="-0.6083950">
        <ele>93.1</ele>
        <time>2020-12-06T08:18:37Z</time>
      </trkpt>
      <trkpt lat="38.3021800" lon="-0.6083050">
        <ele>93.1</ele>
        <time>2020-12-06T08:18:38Z</time>
      </trkpt>
      <trkpt lat="38.3022100" lon="-0.6082150">
        <ele>94.0</ele>
        <time>2020-12-06T08:18:39Z</time>
      </trkpt>
      <trkpt lat="38.3022380" lon="-0.6081250">
        <ele>94.0</ele>
        <time>2020-12-06T08:18:40Z</time>
      </trkpt>
      <trkpt lat="38.3022630" lon="-0.6080330">
        <ele>94.0</ele>
        <time>2020-12-06T08:18:41Z</time>
      </trkpt>
      <trkpt lat="38.3022900" lon="-0.6079420">
        <ele>94.0</ele>
        <time>2020-12-06T08:18:42Z</time>
      </trkpt>
      <trkpt lat="38.3023170" lon="-0.6078500">
        <ele>94.0</ele>
        <time>2020-12-06T08:18:43Z</time>
      </trkpt>
      <trkpt lat="38.3023450" lon="-0.6077580">
        <ele>94.0</ele>
        <time>2020-12-06T08:18:44Z</time>
      </trkpt>
      <trkpt lat="38.3023730" lon="-0.6076670">
        <ele>94.0</ele>
        <time>2020-12-06T08:18:45Z</time>
      </trkpt>
      <trkpt lat="38.3024020" lon="-0.6075770">
        <ele>94.0</ele>
        <time>2020-12-06T08:18:46Z</time>
      </trkpt>
      <trkpt lat="38.3024320" lon="-0.6074850">
        <ele>94.0</ele>
        <time>2020-12-06T08:18:47Z</time>
      </trkpt>
      <trkpt lat="38.3024580" lon="-0.6073930">
        <ele>94.0</ele>
        <time>2020-12-06T08:18:48Z</time>
      </trkpt>
      <trkpt lat="38.3024850" lon="-0.6073000">
        <ele>94.0</ele>
        <time>2020-12-06T08:18:49Z</time>
      </trkpt>
      <trkpt lat="38.3025120" lon="-0.6072070">
        <ele>94.0</ele>
        <time>2020-12-06T08:18:50Z</time>
      </trkpt>
      <trkpt lat="38.3025380" lon="-0.6071150">
        <ele>94.0</ele>
        <time>2020-12-06T08:18:51Z</time>
      </trkpt>
      <trkpt lat="38.3025670" lon="-0.6070220">
        <ele>94.0</ele>
        <time>2020-12-06T08:18:52Z</time>
      </trkpt>
      <trkpt lat="38.3025950" lon="-0.6069280">
        <ele>94.0</ele>
        <time>2020-12-06T08:18:53Z</time>
      </trkpt>
      <trkpt lat="38.3026220" lon="-0.6068350">
        <ele>94.0</ele>
        <time>2020-12-06T08:18:54Z</time>
      </trkpt>
      <trkpt lat="38.3026480" lon="-0.6067420">
        <ele>94.0</ele>
        <time>2020-12-06T08:18:55Z</time>
      </trkpt>
      <trkpt lat="38.3026750" lon="-0.6066470">
        <ele>94.0</ele>
        <time>2020-12-06T08:18:56Z</time>
      </trkpt>
      <trkpt lat="38.3027030" lon="-0.6065500">
        <ele>94.0</ele>
        <time>2020-12-06T08:18:57Z</time>
      </trkpt>
      <trkpt lat="38.3027320" lon="-0.6064550">
        <ele>94.0</ele>
        <time>2020-12-06T08:18:58Z</time>
      </trkpt>
      <trkpt lat="38.3027570" lon="-0.6063580">
        <ele>94.0</ele>
        <time>2020-12-06T08:18:59Z</time>
      </trkpt>
      <trkpt lat="38.3027830" lon="-0.6062620">
        <ele>94.0</ele>
        <time>2020-12-06T08:19:00Z</time>
      </trkpt>
      <trkpt lat="38.3028120" lon="-0.6061670">
        <ele>94.0</ele>
        <time>2020-12-06T08:19:01Z</time>
      </trkpt>
      <trkpt lat="38.3028380" lon="-0.6060680">
        <ele>94.0</ele>
        <time>2020-12-06T08:19:02Z</time>
      </trkpt>
      <trkpt lat="38.3028630" lon="-0.6059700">
        <ele>94.0</ele>
        <time>2020-12-06T08:19:03Z</time>
      </trkpt>
      <trkpt lat="38.3028930" lon="-0.6058730">
        <ele>94.0</ele>
        <time>2020-12-06T08:19:04Z</time>
      </trkpt>
      <trkpt lat="38.3029230" lon="-0.6057770">
        <ele>94.0</ele>
        <time>2020-12-06T08:19:05Z</time>
      </trkpt>
      <trkpt lat="38.3029500" lon="-0.6056800">
        <ele>94.0</ele>
        <time>2020-12-06T08:19:06Z</time>
      </trkpt>
      <trkpt lat="38.3029750" lon="-0.6055800">
        <ele>94.0</ele>
        <time>2020-12-06T08:19:07Z</time>
      </trkpt>
      <trkpt lat="38.3029980" lon="-0.6054820">
        <ele>94.0</ele>
        <time>2020-12-06T08:19:08Z</time>
      </trkpt>
      <trkpt lat="38.3030230" lon="-0.6053820">
        <ele>94.0</ele>
        <time>2020-12-06T08:19:09Z</time>
      </trkpt>
      <trkpt lat="38.3030480" lon="-0.6052820">
        <ele>94.0</ele>
        <time>2020-12-06T08:19:10Z</time>
      </trkpt>
      <trkpt lat="38.3030750" lon="-0.6051800">
        <ele>94.0</ele>
        <time>2020-12-06T08:19:11Z</time>
      </trkpt>
      <trkpt lat="38.3030970" lon="-0.6050780">
        <ele>94.0</ele>
        <time>2020-12-06T08:19:12Z</time>
      </trkpt>
      <trkpt lat="38.3031200" lon="-0.6049750">
        <ele>94.0</ele>
        <time>2020-12-06T08:19:13Z</time>
      </trkpt>
      <trkpt lat="38.3031430" lon="-0.6048720">
        <ele>94.0</ele>
        <time>2020-12-06T08:19:14Z</time>
      </trkpt>
      <trkpt lat="38.3031650" lon="-0.6047670">
        <ele>94.0</ele>
        <time>2020-12-06T08:19:15Z</time>
      </trkpt>
      <trkpt lat="38.3031850" lon="-0.6046600">
        <ele>94.0</ele>
        <time>2020-12-06T08:19:16Z</time>
      </trkpt>
      <trkpt lat="38.3032050" lon="-0.6045520">
        <ele>94.0</ele>
        <time>2020-12-06T08:19:17Z</time>
      </trkpt>
      <trkpt lat="38.3032250" lon="-0.6044380">
        <ele>94.0</ele>
        <time>2020-12-06T08:19:18Z</time>
      </trkpt>
      <trkpt lat="38.3032470" lon="-0.6043180">
        <ele>94.0</ele>
        <time>2020-12-06T08:19:19Z</time>
      </trkpt>
      <trkpt lat="38.3032650" lon="-0.6042000">
        <ele>94.0</ele>
        <time>2020-12-06T08:19:20Z</time>
      </trkpt>
      <trkpt lat="38.3032850" lon="-0.6040800">
        <ele>94.0</ele>
        <time>2020-12-06T08:19:21Z</time>
      </trkpt>
      <trkpt lat="38.3033000" lon="-0.6039600">
        <ele>94.0</ele>
        <time>2020-12-06T08:19:22Z</time>
      </trkpt>
      <trkpt lat="38.3033170" lon="-0.6038420">
        <ele>94.0</ele>
        <time>2020-12-06T08:19:23Z</time>
      </trkpt>
      <trkpt lat="38.3033320" lon="-0.6037220">
        <ele>94.0</ele>
        <time>2020-12-06T08:19:24Z</time>
      </trkpt>
      <trkpt lat="38.3033470" lon="-0.6036020">
        <ele>93.1</ele>
        <time>2020-12-06T08:19:25Z</time>
      </trkpt>
      <trkpt lat="38.3033600" lon="-0.6034820">
        <ele>93.1</ele>
        <time>2020-12-06T08:19:26Z</time>
      </trkpt>
      <trkpt lat="38.3033720" lon="-0.6033600">
        <ele>93.1</ele>
        <time>2020-12-06T08:19:27Z</time>
      </trkpt>
      <trkpt lat="38.3033830" lon="-0.6032400">
        <ele>93.1</ele>
        <time>2020-12-06T08:19:28Z</time>
      </trkpt>
      <trkpt lat="38.3033930" lon="-0.6031180">
        <ele>93.1</ele>
        <time>2020-12-06T08:19:29Z</time>
      </trkpt>
      <trkpt lat="38.3034030" lon="-0.6029980">
        <ele>93.1</ele>
        <time>2020-12-06T08:19:30Z</time>
      </trkpt>
      <trkpt lat="38.3034120" lon="-0.6028780">
        <ele>93.1</ele>
        <time>2020-12-06T08:19:31Z</time>
      </trkpt>
      <trkpt lat="38.3034200" lon="-0.6027580">
        <ele>93.1</ele>
        <time>2020-12-06T08:19:32Z</time>
      </trkpt>
      <trkpt lat="38.3034280" lon="-0.6026380">
        <ele>93.1</ele>
        <time>2020-12-06T08:19:33Z</time>
      </trkpt>
      <trkpt lat="38.3034350" lon="-0.6025180">
        <ele>93.1</ele>
        <time>2020-12-06T08:19:34Z</time>
      </trkpt>
      <trkpt lat="38.3034400" lon="-0.6024000">
        <ele>93.1</ele>
        <time>2020-12-06T08:19:35Z</time>
      </trkpt>
      <trkpt lat="38.3034450" lon="-0.6022800">
        <ele>93.1</ele>
        <time>2020-12-06T08:19:36Z</time>
      </trkpt>
      <trkpt lat="38.3034500" lon="-0.6021580">
        <ele>93.1</ele>
        <time>2020-12-06T08:19:37Z</time>
      </trkpt>
      <trkpt lat="38.3034570" lon="-0.6020370">
        <ele>93.1</ele>
        <time>2020-12-06T08:19:38Z</time>
      </trkpt>
      <trkpt lat="38.3034620" lon="-0.6019150">
        <ele>93.1</ele>
        <time>2020-12-06T08:19:39Z</time>
      </trkpt>
      <trkpt lat="38.3034680" lon="-0.6017950">
        <ele>93.1</ele>
        <time>2020-12-06T08:19:40Z</time>
      </trkpt>
      <trkpt lat="38.3034750" lon="-0.6016730">
        <ele>93.1</ele>
        <time>2020-12-06T08:19:41Z</time>
      </trkpt>
      <trkpt lat="38.3034850" lon="-0.6015520">
        <ele>93.1</ele>
        <time>2020-12-06T08:19:42Z</time>
      </trkpt>
      <trkpt lat="38.3034930" lon="-0.6014320">
        <ele>93.1</ele>
        <time>2020-12-06T08:19:43Z</time>
      </trkpt>
      <trkpt lat="38.3035020" lon="-0.6013120">
        <ele>93.1</ele>
        <time>2020-12-06T08:19:44Z</time>
      </trkpt>
      <trkpt lat="38.3035050" lon="-0.6011880">
        <ele>93.1</ele>
        <time>2020-12-06T08:19:45Z</time>
      </trkpt>
      <trkpt lat="38.3035080" lon="-0.6010670">
        <ele>93.1</ele>
        <time>2020-12-06T08:19:46Z</time>
      </trkpt>
      <trkpt lat="38.3035130" lon="-0.6009430">
        <ele>93.1</ele>
        <time>2020-12-06T08:19:47Z</time>
      </trkpt>
      <trkpt lat="38.3035170" lon="-0.6008220">
        <ele>93.1</ele>
        <time>2020-12-06T08:19:48Z</time>
      </trkpt>
      <trkpt lat="38.3035200" lon="-0.6006970">
        <ele>93.1</ele>
        <time>2020-12-06T08:19:49Z</time>
      </trkpt>
      <trkpt lat="38.3035270" lon="-0.6005720">
        <ele>93.1</ele>
        <time>2020-12-06T08:19:50Z</time>
      </trkpt>
      <trkpt lat="38.3035320" lon="-0.6004450">
        <ele>93.1</ele>
        <time>2020-12-06T08:19:51Z</time>
      </trkpt>
      <trkpt lat="38.3035400" lon="-0.6003200">
        <ele>93.1</ele>
        <time>2020-12-06T08:19:52Z</time>
      </trkpt>
      <trkpt lat="38.3035480" lon="-0.6001920">
        <ele>93.1</ele>
        <time>2020-12-06T08:19:53Z</time>
      </trkpt>
      <trkpt lat="38.3035550" lon="-0.6000650">
        <ele>93.1</ele>
        <time>2020-12-06T08:19:54Z</time>
      </trkpt>
      <trkpt lat="38.3035630" lon="-0.5999380">
        <ele>93.1</ele>
        <time>2020-12-06T08:19:55Z</time>
      </trkpt>
      <trkpt lat="38.3035720" lon="-0.5998150">
        <ele>93.1</ele>
        <time>2020-12-06T08:19:56Z</time>
      </trkpt>
      <trkpt lat="38.3035750" lon="-0.5996920">
        <ele>93.1</ele>
        <time>2020-12-06T08:19:57Z</time>
      </trkpt>
      <trkpt lat="38.3035800" lon="-0.5995700">
        <ele>93.1</ele>
        <time>2020-12-06T08:19:58Z</time>
      </trkpt>
      <trkpt lat="38.3035850" lon="-0.5994470">
        <ele>91.1</ele>
        <time>2020-12-06T08:19:59Z</time>
      </trkpt>
      <trkpt lat="38.3035920" lon="-0.5993230">
        <ele>91.1</ele>
        <time>2020-12-06T08:20:00Z</time>
      </trkpt>
      <trkpt lat="38.3035900" lon="-0.5992000">
        <ele>91.1</ele>
        <time>2020-12-06T08:20:01Z</time>
      </trkpt>
      <trkpt lat="38.3035650" lon="-0.5990820">
        <ele>91.1</ele>
        <time>2020-12-06T08:20:02Z</time>
      </trkpt>
      <trkpt lat="38.3035220" lon="-0.5989730">
        <ele>91.1</ele>
        <time>2020-12-06T08:20:03Z</time>
      </trkpt>
      <trkpt lat="38.3034780" lon="-0.5988600">
        <ele>91.1</ele>
        <time>2020-12-06T08:20:04Z</time>
      </trkpt>
      <trkpt lat="38.3034550" lon="-0.5987370">
        <ele>91.1</ele>
        <time>2020-12-06T08:20:05Z</time>
      </trkpt>
      <trkpt lat="38.3034570" lon="-0.5986100">
        <ele>91.1</ele>
        <time>2020-12-06T08:20:06Z</time>
      </trkpt>
      <trkpt lat="38.3034730" lon="-0.5984830">
        <ele>91.1</ele>
        <time>2020-12-06T08:20:07Z</time>
      </trkpt>
      <trkpt lat="38.3035030" lon="-0.5983530">
        <ele>91.1</ele>
        <time>2020-12-06T08:20:08Z</time>
      </trkpt>
      <trkpt lat="38.3035520" lon="-0.5982420">
        <ele>90.1</ele>
        <time>2020-12-06T08:20:09Z</time>
      </trkpt>
      <trkpt lat="38.3035920" lon="-0.5981270">
        <ele>90.1</ele>
        <time>2020-12-06T08:20:10Z</time>
      </trkpt>
      <trkpt lat="38.3036170" lon="-0.5980050">
        <ele>90.1</ele>
        <time>2020-12-06T08:20:11Z</time>
      </trkpt>
      <trkpt lat="38.3036230" lon="-0.5978780">
        <ele>90.1</ele>
        <time>2020-12-06T08:20:12Z</time>
      </trkpt>
      <trkpt lat="38.3036200" lon="-0.5977500">
        <ele>90.1</ele>
        <time>2020-12-06T08:20:13Z</time>
      </trkpt>
      <trkpt lat="38.3036130" lon="-0.5976180">
        <ele>90.1</ele>
        <time>2020-12-06T08:20:14Z</time>
      </trkpt>
      <trkpt lat="38.3036080" lon="-0.5974850">
        <ele>90.1</ele>
        <time>2020-12-06T08:20:15Z</time>
      </trkpt>
      <trkpt lat="38.3036020" lon="-0.5973480">
        <ele>90.1</ele>
        <time>2020-12-06T08:20:16Z</time>
      </trkpt>
      <trkpt lat="38.3035930" lon="-0.5972100">
        <ele>89.0</ele>
        <time>2020-12-06T08:20:17Z</time>
      </trkpt>
      <trkpt lat="38.3035820" lon="-0.5970720">
        <ele>89.0</ele>
        <time>2020-12-06T08:20:18Z</time>
      </trkpt>
      <trkpt lat="38.3035670" lon="-0.5969300">
        <ele>89.0</ele>
        <time>2020-12-06T08:20:19Z</time>
      </trkpt>
      <trkpt lat="38.3035550" lon="-0.5967870">
        <ele>89.0</ele>
        <time>2020-12-06T08:20:20Z</time>
      </trkpt>
      <trkpt lat="38.3035420" lon="-0.5966400">
        <ele>89.0</ele>
        <time>2020-12-06T08:20:21Z</time>
      </trkpt>
      <trkpt lat="38.3035270" lon="-0.5964900">
        <ele>89.0</ele>
        <time>2020-12-06T08:20:22Z</time>
      </trkpt>
      <trkpt lat="38.3035100" lon="-0.5963400">
        <ele>89.0</ele>
        <time>2020-12-06T08:20:23Z</time>
      </trkpt>
      <trkpt lat="38.3034930" lon="-0.5961870">
        <ele>89.0</ele>
        <time>2020-12-06T08:20:24Z</time>
      </trkpt>
      <trkpt lat="38.3034770" lon="-0.5960320">
        <ele>85.0</ele>
        <time>2020-12-06T08:20:25Z</time>
      </trkpt>
      <trkpt lat="38.3034570" lon="-0.5958750">
        <ele>85.0</ele>
        <time>2020-12-06T08:20:26Z</time>
      </trkpt>
      <trkpt lat="38.3034330" lon="-0.5957180">
        <ele>85.0</ele>
        <time>2020-12-06T08:20:27Z</time>
      </trkpt>
      <trkpt lat="38.3034080" lon="-0.5955580">
        <ele>85.0</ele>
        <time>2020-12-06T08:20:28Z</time>
      </trkpt>
      <trkpt lat="38.3033800" lon="-0.5953970">
        <ele>84.1</ele>
        <time>2020-12-06T08:20:29Z</time>
      </trkpt>
      <trkpt lat="38.3033480" lon="-0.5952330">
        <ele>84.1</ele>
        <time>2020-12-06T08:20:30Z</time>
      </trkpt>
      <trkpt lat="38.3033170" lon="-0.5950680">
        <ele>83.1</ele>
        <time>2020-12-06T08:20:31Z</time>
      </trkpt>
      <trkpt lat="38.3032830" lon="-0.5949070">
        <ele>83.1</ele>
        <time>2020-12-06T08:20:32Z</time>
      </trkpt>
      <trkpt lat="38.3032470" lon="-0.5947480">
        <ele>83.1</ele>
        <time>2020-12-06T08:20:33Z</time>
      </trkpt>
      <trkpt lat="38.3032080" lon="-0.5945920">
        <ele>83.1</ele>
        <time>2020-12-06T08:20:34Z</time>
      </trkpt>
      <trkpt lat="38.3031680" lon="-0.5944350">
        <ele>81.1</ele>
        <time>2020-12-06T08:20:35Z</time>
      </trkpt>
      <trkpt lat="38.3031280" lon="-0.5942820">
        <ele>81.1</ele>
        <time>2020-12-06T08:20:36Z</time>
      </trkpt>
      <trkpt lat="38.3030870" lon="-0.5941300">
        <ele>81.1</ele>
        <time>2020-12-06T08:20:37Z</time>
      </trkpt>
      <trkpt lat="38.3030450" lon="-0.5939800">
        <ele>81.1</ele>
        <time>2020-12-06T08:20:38Z</time>
      </trkpt>
      <trkpt lat="38.3030000" lon="-0.5938330">
        <ele>80.0</ele>
        <time>2020-12-06T08:20:39Z</time>
      </trkpt>
      <trkpt lat="38.3029570" lon="-0.5936880">
        <ele>80.0</ele>
        <time>2020-12-06T08:20:40Z</time>
      </trkpt>
      <trkpt lat="38.3029130" lon="-0.5935450">
        <ele>80.0</ele>
        <time>2020-12-06T08:20:41Z</time>
      </trkpt>
      <trkpt lat="38.3028700" lon="-0.5934030">
        <ele>80.0</ele>
        <time>2020-12-06T08:20:42Z</time>
      </trkpt>
      <trkpt lat="38.3028250" lon="-0.5932630">
        <ele>80.0</ele>
        <time>2020-12-06T08:20:43Z</time>
      </trkpt>
      <trkpt lat="38.3027820" lon="-0.5931250">
        <ele>80.0</ele>
        <time>2020-12-06T08:20:44Z</time>
      </trkpt>
      <trkpt lat="38.3027380" lon="-0.5929880">
        <ele>80.0</ele>
        <time>2020-12-06T08:20:45Z</time>
      </trkpt>
      <trkpt lat="38.3026930" lon="-0.5928530">
        <ele>80.0</ele>
        <time>2020-12-06T08:20:46Z</time>
      </trkpt>
      <trkpt lat="38.3026480" lon="-0.5927200">
        <ele>80.0</ele>
        <time>2020-12-06T08:20:47Z</time>
      </trkpt>
      <trkpt lat="38.3026070" lon="-0.5925850">
        <ele>80.0</ele>
        <time>2020-12-06T08:20:48Z</time>
      </trkpt>
      <trkpt lat="38.3025670" lon="-0.5924500">
        <ele>80.0</ele>
        <time>2020-12-06T08:20:49Z</time>
      </trkpt>
      <trkpt lat="38.3025280" lon="-0.5923170">
        <ele>80.0</ele>
        <time>2020-12-06T08:20:50Z</time>
      </trkpt>
      <trkpt lat="38.3024880" lon="-0.5921830">
        <ele>80.0</ele>
        <time>2020-12-06T08:20:51Z</time>
      </trkpt>
      <trkpt lat="38.3024500" lon="-0.5920520">
        <ele>80.0</ele>
        <time>2020-12-06T08:20:52Z</time>
      </trkpt>
      <trkpt lat="38.3024100" lon="-0.5919220">
        <ele>80.0</ele>
        <time>2020-12-06T08:20:53Z</time>
      </trkpt>
      <trkpt lat="38.3023730" lon="-0.5917920">
        <ele>80.0</ele>
        <time>2020-12-06T08:20:54Z</time>
      </trkpt>
      <trkpt lat="38.3023380" lon="-0.5916620">
        <ele>80.0</ele>
        <time>2020-12-06T08:20:55Z</time>
      </trkpt>
      <trkpt lat="38.3023030" lon="-0.5915320">
        <ele>80.0</ele>
        <time>2020-12-06T08:20:56Z</time>
      </trkpt>
      <trkpt lat="38.3022680" lon="-0.5914030">
        <ele>80.0</ele>
        <time>2020-12-06T08:20:57Z</time>
      </trkpt>
      <trkpt lat="38.3022320" lon="-0.5912730">
        <ele>80.0</ele>
        <time>2020-12-06T08:20:58Z</time>
      </trkpt>
      <trkpt lat="38.3021980" lon="-0.5911400">
        <ele>80.0</ele>
        <time>2020-12-06T08:20:59Z</time>
      </trkpt>
      <trkpt lat="38.3021630" lon="-0.5910100">
        <ele>80.0</ele>
        <time>2020-12-06T08:21:00Z</time>
      </trkpt>
      <trkpt lat="38.3021330" lon="-0.5908820">
        <ele>81.1</ele>
        <time>2020-12-06T08:21:01Z</time>
      </trkpt>
      <trkpt lat="38.3021030" lon="-0.5907530">
        <ele>81.1</ele>
        <time>2020-12-06T08:21:02Z</time>
      </trkpt>
      <trkpt lat="38.3020770" lon="-0.5906230">
        <ele>81.1</ele>
        <time>2020-12-06T08:21:03Z</time>
      </trkpt>
      <trkpt lat="38.3020470" lon="-0.5904970">
        <ele>81.1</ele>
        <time>2020-12-06T08:21:04Z</time>
      </trkpt>
      <trkpt lat="38.3020180" lon="-0.5903700">
        <ele>81.1</ele>
        <time>2020-12-06T08:21:05Z</time>
      </trkpt>
      <trkpt lat="38.3019870" lon="-0.5902450">
        <ele>81.1</ele>
        <time>2020-12-06T08:21:06Z</time>
      </trkpt>
      <trkpt lat="38.3019570" lon="-0.5901200">
        <ele>81.1</ele>
        <time>2020-12-06T08:21:07Z</time>
      </trkpt>
      <trkpt lat="38.3019280" lon="-0.5899950">
        <ele>81.1</ele>
        <time>2020-12-06T08:21:08Z</time>
      </trkpt>
      <trkpt lat="38.3019020" lon="-0.5898700">
        <ele>81.1</ele>
        <time>2020-12-06T08:21:09Z</time>
      </trkpt>
      <trkpt lat="38.3018730" lon="-0.5897450">
        <ele>81.1</ele>
        <time>2020-12-06T08:21:10Z</time>
      </trkpt>
      <trkpt lat="38.3018450" lon="-0.5896220">
        <ele>81.1</ele>
        <time>2020-12-06T08:21:11Z</time>
      </trkpt>
      <trkpt lat="38.3018170" lon="-0.5894970">
        <ele>81.1</ele>
        <time>2020-12-06T08:21:12Z</time>
      </trkpt>
      <trkpt lat="38.3017900" lon="-0.5893720">
        <ele>81.1</ele>
        <time>2020-12-06T08:21:13Z</time>
      </trkpt>
      <trkpt lat="38.3017620" lon="-0.5892480">
        <ele>81.1</ele>
        <time>2020-12-06T08:21:14Z</time>
      </trkpt>
      <trkpt lat="38.3017320" lon="-0.5891250">
        <ele>81.1</ele>
        <time>2020-12-06T08:21:15Z</time>
      </trkpt>
      <trkpt lat="38.3016980" lon="-0.5890020">
        <ele>81.1</ele>
        <time>2020-12-06T08:21:16Z</time>
      </trkpt>
      <trkpt lat="38.3016700" lon="-0.5888780">
        <ele>81.1</ele>
        <time>2020-12-06T08:21:17Z</time>
      </trkpt>
      <trkpt lat="38.3016430" lon="-0.5887550">
        <ele>81.1</ele>
        <time>2020-12-06T08:21:18Z</time>
      </trkpt>
      <trkpt lat="38.3016170" lon="-0.5886300">
        <ele>81.1</ele>
        <time>2020-12-06T08:21:19Z</time>
      </trkpt>
      <trkpt lat="38.3015880" lon="-0.5885050">
        <ele>81.1</ele>
        <time>2020-12-06T08:21:20Z</time>
      </trkpt>
      <trkpt lat="38.3015620" lon="-0.5883800">
        <ele>81.1</ele>
        <time>2020-12-06T08:21:21Z</time>
      </trkpt>
      <trkpt lat="38.3015350" lon="-0.5882530">
        <ele>81.1</ele>
        <time>2020-12-06T08:21:22Z</time>
      </trkpt>
      <trkpt lat="38.3015080" lon="-0.5881280">
        <ele>81.1</ele>
        <time>2020-12-06T08:21:23Z</time>
      </trkpt>
      <trkpt lat="38.3014820" lon="-0.5880020">
        <ele>81.1</ele>
        <time>2020-12-06T08:21:24Z</time>
      </trkpt>
      <trkpt lat="38.3014570" lon="-0.5878750">
        <ele>81.1</ele>
        <time>2020-12-06T08:21:25Z</time>
      </trkpt>
      <trkpt lat="38.3014280" lon="-0.5877500">
        <ele>81.1</ele>
        <time>2020-12-06T08:21:26Z</time>
      </trkpt>
      <trkpt lat="38.3013980" lon="-0.5876250">
        <ele>81.1</ele>
        <time>2020-12-06T08:21:27Z</time>
      </trkpt>
      <trkpt lat="38.3013720" lon="-0.5875000">
        <ele>81.1</ele>
        <time>2020-12-06T08:21:28Z</time>
      </trkpt>
      <trkpt lat="38.3013450" lon="-0.5873750">
        <ele>80.0</ele>
        <time>2020-12-06T08:21:29Z</time>
      </trkpt>
      <trkpt lat="38.3013170" lon="-0.5872520">
        <ele>80.0</ele>
        <time>2020-12-06T08:21:30Z</time>
      </trkpt>
      <trkpt lat="38.3012870" lon="-0.5871270">
        <ele>80.0</ele>
        <time>2020-12-06T08:21:31Z</time>
      </trkpt>
      <trkpt lat="38.3012580" lon="-0.5870020">
        <ele>80.0</ele>
        <time>2020-12-06T08:21:32Z</time>
      </trkpt>
      <trkpt lat="38.3012320" lon="-0.5868770">
        <ele>80.0</ele>
        <time>2020-12-06T08:21:33Z</time>
      </trkpt>
      <trkpt lat="38.3012030" lon="-0.5867520">
        <ele>80.0</ele>
        <time>2020-12-06T08:21:34Z</time>
      </trkpt>
      <trkpt lat="38.3011770" lon="-0.5866270">
        <ele>80.0</ele>
        <time>2020-12-06T08:21:35Z</time>
      </trkpt>
      <trkpt lat="38.3011500" lon="-0.5865020">
        <ele>80.0</ele>
        <time>2020-12-06T08:21:36Z</time>
      </trkpt>
      <trkpt lat="38.3011230" lon="-0.5863770">
        <ele>80.0</ele>
        <time>2020-12-06T08:21:37Z</time>
      </trkpt>
      <trkpt lat="38.3010950" lon="-0.5862520">
        <ele>80.0</ele>
        <time>2020-12-06T08:21:38Z</time>
      </trkpt>
      <trkpt lat="38.3010680" lon="-0.5861280">
        <ele>79.1</ele>
        <time>2020-12-06T08:21:39Z</time>
      </trkpt>
      <trkpt lat="38.3010420" lon="-0.5860050">
        <ele>79.1</ele>
        <time>2020-12-06T08:21:40Z</time>
      </trkpt>
      <trkpt lat="38.3010120" lon="-0.5858830">
        <ele>79.1</ele>
        <time>2020-12-06T08:21:41Z</time>
      </trkpt>
      <trkpt lat="38.3009820" lon="-0.5857620">
        <ele>79.1</ele>
        <time>2020-12-06T08:21:42Z</time>
      </trkpt>
      <trkpt lat="38.3009550" lon="-0.5856400">
        <ele>79.1</ele>
        <time>2020-12-06T08:21:43Z</time>
      </trkpt>
      <trkpt lat="38.3009280" lon="-0.5855150">
        <ele>79.1</ele>
        <time>2020-12-06T08:21:44Z</time>
      </trkpt>
      <trkpt lat="38.3009020" lon="-0.5853850">
        <ele>78.0</ele>
        <time>2020-12-06T08:21:45Z</time>
      </trkpt>
      <trkpt lat="38.3008750" lon="-0.5852580">
        <ele>78.0</ele>
        <time>2020-12-06T08:21:46Z</time>
      </trkpt>
      <trkpt lat="38.3008480" lon="-0.5851300">
        <ele>78.0</ele>
        <time>2020-12-06T08:21:47Z</time>
      </trkpt>
      <trkpt lat="38.3008200" lon="-0.5850030">
        <ele>78.0</ele>
        <time>2020-12-06T08:21:48Z</time>
      </trkpt>
      <trkpt lat="38.3007930" lon="-0.5848750">
        <ele>78.0</ele>
        <time>2020-12-06T08:21:49Z</time>
      </trkpt>
      <trkpt lat="38.3007650" lon="-0.5847470">
        <ele>78.0</ele>
        <time>2020-12-06T08:21:50Z</time>
      </trkpt>
      <trkpt lat="38.3007370" lon="-0.5846200">
        <ele>78.0</ele>
        <time>2020-12-06T08:21:51Z</time>
      </trkpt>
      <trkpt lat="38.3007080" lon="-0.5844920">
        <ele>78.0</ele>
        <time>2020-12-06T08:21:52Z</time>
      </trkpt>
      <trkpt lat="38.3006780" lon="-0.5843650">
        <ele>78.0</ele>
        <time>2020-12-06T08:21:53Z</time>
      </trkpt>
      <trkpt lat="38.3006480" lon="-0.5842380">
        <ele>78.0</ele>
        <time>2020-12-06T08:21:54Z</time>
      </trkpt>
      <trkpt lat="38.3006220" lon="-0.5841120">
        <ele>78.0</ele>
        <time>2020-12-06T08:21:55Z</time>
      </trkpt>
      <trkpt lat="38.3005930" lon="-0.5839850">
        <ele>78.0</ele>
        <time>2020-12-06T08:21:56Z</time>
      </trkpt>
      <trkpt lat="38.3005680" lon="-0.5838570">
        <ele>78.0</ele>
        <time>2020-12-06T08:21:57Z</time>
      </trkpt>
      <trkpt lat="38.3005400" lon="-0.5837300">
        <ele>78.0</ele>
        <time>2020-12-06T08:21:58Z</time>
      </trkpt>
      <trkpt lat="38.3005130" lon="-0.5836050">
        <ele>78.0</ele>
        <time>2020-12-06T08:21:59Z</time>
      </trkpt>
      <trkpt lat="38.3004870" lon="-0.5834780">
        <ele>78.0</ele>
        <time>2020-12-06T08:22:00Z</time>
      </trkpt>
      <trkpt lat="38.3004600" lon="-0.5833530">
        <ele>77.1</ele>
        <time>2020-12-06T08:22:01Z</time>
      </trkpt>
      <trkpt lat="38.3004320" lon="-0.5832270">
        <ele>77.1</ele>
        <time>2020-12-06T08:22:02Z</time>
      </trkpt>
      <trkpt lat="38.3004050" lon="-0.5831000">
        <ele>77.1</ele>
        <time>2020-12-06T08:22:03Z</time>
      </trkpt>
      <trkpt lat="38.3003770" lon="-0.5829750">
        <ele>77.1</ele>
        <time>2020-12-06T08:22:04Z</time>
      </trkpt>
      <trkpt lat="38.3003470" lon="-0.5828500">
        <ele>77.1</ele>
        <time>2020-12-06T08:22:05Z</time>
      </trkpt>
      <trkpt lat="38.3003150" lon="-0.5827270">
        <ele>77.1</ele>
        <time>2020-12-06T08:22:06Z</time>
      </trkpt>
      <trkpt lat="38.3002880" lon="-0.5825980">
        <ele>77.1</ele>
        <time>2020-12-06T08:22:07Z</time>
      </trkpt>
      <trkpt lat="38.3002620" lon="-0.5824700">
        <ele>77.1</ele>
        <time>2020-12-06T08:22:08Z</time>
      </trkpt>
      <trkpt lat="38.3002330" lon="-0.5823380">
        <ele>77.1</ele>
        <time>2020-12-06T08:22:09Z</time>
      </trkpt>
      <trkpt lat="38.3002050" lon="-0.5822050">
        <ele>77.1</ele>
        <time>2020-12-06T08:22:10Z</time>
      </trkpt>
      <trkpt lat="38.3001720" lon="-0.5820680">
        <ele>76.0</ele>
        <time>2020-12-06T08:22:11Z</time>
      </trkpt>
      <trkpt lat="38.3001320" lon="-0.5819330">
        <ele>76.0</ele>
        <time>2020-12-06T08:22:12Z</time>
      </trkpt>
      <trkpt lat="38.3000870" lon="-0.5818000">
        <ele>76.0</ele>
        <time>2020-12-06T08:22:13Z</time>
      </trkpt>
      <trkpt lat="38.3000380" lon="-0.5816670">
        <ele>76.0</ele>
        <time>2020-12-06T08:22:14Z</time>
      </trkpt>
      <trkpt lat="38.2999850" lon="-0.5815350">
        <ele>76.0</ele>
        <time>2020-12-06T08:22:15Z</time>
      </trkpt>
      <trkpt lat="38.2999280" lon="-0.5814020">
        <ele>76.0</ele>
        <time>2020-12-06T08:22:16Z</time>
      </trkpt>
      <trkpt lat="38.2998700" lon="-0.5812700">
        <ele>76.0</ele>
        <time>2020-12-06T08:22:17Z</time>
      </trkpt>
      <trkpt lat="38.2998070" lon="-0.5811380">
        <ele>76.0</ele>
        <time>2020-12-06T08:22:18Z</time>
      </trkpt>
      <trkpt lat="38.2997380" lon="-0.5810080">
        <ele>71.0</ele>
        <time>2020-12-06T08:22:19Z</time>
      </trkpt>
      <trkpt lat="38.2996650" lon="-0.5808780">
        <ele>71.0</ele>
        <time>2020-12-06T08:22:20Z</time>
      </trkpt>
      <trkpt lat="38.2995870" lon="-0.5807520">
        <ele>70.1</ele>
        <time>2020-12-06T08:22:21Z</time>
      </trkpt>
      <trkpt lat="38.2995020" lon="-0.5806280">
        <ele>70.1</ele>
        <time>2020-12-06T08:22:22Z</time>
      </trkpt>
      <trkpt lat="38.2994120" lon="-0.5805050">
        <ele>70.1</ele>
        <time>2020-12-06T08:22:23Z</time>
      </trkpt>
      <trkpt lat="38.2993200" lon="-0.5803830">
        <ele>70.1</ele>
        <time>2020-12-06T08:22:24Z</time>
      </trkpt>
      <trkpt lat="38.2992280" lon="-0.5802580">
        <ele>70.1</ele>
        <time>2020-12-06T08:22:25Z</time>
      </trkpt>
      <trkpt lat="38.2991370" lon="-0.5801370">
        <ele>70.1</ele>
        <time>2020-12-06T08:22:26Z</time>
      </trkpt>
      <trkpt lat="38.2990450" lon="-0.5800150">
        <ele>65.1</ele>
        <time>2020-12-06T08:22:27Z</time>
      </trkpt>
      <trkpt lat="38.2989570" lon="-0.5798950">
        <ele>65.1</ele>
        <time>2020-12-06T08:22:28Z</time>
      </trkpt>
      <trkpt lat="38.2988680" lon="-0.5797770">
        <ele>64.0</ele>
        <time>2020-12-06T08:22:29Z</time>
      </trkpt>
      <trkpt lat="38.2987800" lon="-0.5796600">
        <ele>64.0</ele>
        <time>2020-12-06T08:22:30Z</time>
      </trkpt>
      <trkpt lat="38.2986950" lon="-0.5795430">
        <ele>64.0</ele>
        <time>2020-12-06T08:22:31Z</time>
      </trkpt>
      <trkpt lat="38.2986080" lon="-0.5794280">
        <ele>64.0</ele>
        <time>2020-12-06T08:22:32Z</time>
      </trkpt>
      <trkpt lat="38.2985220" lon="-0.5793180">
        <ele>64.0</ele>
        <time>2020-12-06T08:22:33Z</time>
      </trkpt>
      <trkpt lat="38.2984350" lon="-0.5792120">
        <ele>64.0</ele>
        <time>2020-12-06T08:22:34Z</time>
      </trkpt>
      <trkpt lat="38.2983530" lon="-0.5791050">
        <ele>63.1</ele>
        <time>2020-12-06T08:22:35Z</time>
      </trkpt>
      <trkpt lat="38.2982750" lon="-0.5789980">
        <ele>63.1</ele>
        <time>2020-12-06T08:22:36Z</time>
      </trkpt>
      <trkpt lat="38.2981930" lon="-0.5788980">
        <ele>63.1</ele>
        <time>2020-12-06T08:22:37Z</time>
      </trkpt>
      <trkpt lat="38.2981080" lon="-0.5788080">
        <ele>63.1</ele>
        <time>2020-12-06T08:22:38Z</time>
      </trkpt>
      <trkpt lat="38.2980100" lon="-0.5787450">
        <ele>63.1</ele>
        <time>2020-12-06T08:22:39Z</time>
      </trkpt>
      <trkpt lat="38.2979030" lon="-0.5787300">
        <ele>63.1</ele>
        <time>2020-12-06T08:22:40Z</time>
      </trkpt>
      <trkpt lat="38.2977950" lon="-0.5787280">
        <ele>62.0</ele>
        <time>2020-12-06T08:22:41Z</time>
      </trkpt>
      <trkpt lat="38.2976880" lon="-0.5787230">
        <ele>62.0</ele>
        <time>2020-12-06T08:22:42Z</time>
      </trkpt>
      <trkpt lat="38.2975830" lon="-0.5786950">
        <ele>61.1</ele>
        <time>2020-12-06T08:22:43Z</time>
      </trkpt>
      <trkpt lat="38.2974830" lon="-0.5786520">
        <ele>61.1</ele>
        <time>2020-12-06T08:22:44Z</time>
      </trkpt>
      <trkpt lat="38.2973870" lon="-0.5785900">
        <ele>61.1</ele>
        <time>2020-12-06T08:22:45Z</time>
      </trkpt>
      <trkpt lat="38.2972980" lon="-0.5785120">
        <ele>61.1</ele>
        <time>2020-12-06T08:22:46Z</time>
      </trkpt>
      <trkpt lat="38.2972200" lon="-0.5784180">
        <ele>61.1</ele>
        <time>2020-12-06T08:22:47Z</time>
      </trkpt>
      <trkpt lat="38.2971550" lon="-0.5783100">
        <ele>61.1</ele>
        <time>2020-12-06T08:22:48Z</time>
      </trkpt>
      <trkpt lat="38.2971000" lon="-0.5781920">
        <ele>61.1</ele>
        <time>2020-12-06T08:22:49Z</time>
      </trkpt>
      <trkpt lat="38.2970530" lon="-0.5780680">
        <ele>61.1</ele>
        <time>2020-12-06T08:22:50Z</time>
      </trkpt>
      <trkpt lat="38.2970200" lon="-0.5779420">
        <ele>60.0</ele>
        <time>2020-12-06T08:22:51Z</time>
      </trkpt>
      <trkpt lat="38.2969980" lon="-0.5778080">
        <ele>60.0</ele>
        <time>2020-12-06T08:22:52Z</time>
      </trkpt>
      <trkpt lat="38.2969930" lon="-0.5776730">
        <ele>60.0</ele>
        <time>2020-12-06T08:22:53Z</time>
      </trkpt>
      <trkpt lat="38.2970030" lon="-0.5775380">
        <ele>60.0</ele>
        <time>2020-12-06T08:22:54Z</time>
      </trkpt>
      <trkpt lat="38.2970230" lon="-0.5774070">
        <ele>59.1</ele>
        <time>2020-12-06T08:22:55Z</time>
      </trkpt>
      <trkpt lat="38.2970520" lon="-0.5772800">
        <ele>59.1</ele>
        <time>2020-12-06T08:22:56Z</time>
      </trkpt>
      <trkpt lat="38.2970880" lon="-0.5771600">
        <ele>59.1</ele>
        <time>2020-12-06T08:22:57Z</time>
      </trkpt>
      <trkpt lat="38.2971350" lon="-0.5770480">
        <ele>59.1</ele>
        <time>2020-12-06T08:22:58Z</time>
      </trkpt>
      <trkpt lat="38.2971880" lon="-0.5769480">
        <ele>59.1</ele>
        <time>2020-12-06T08:22:59Z</time>
      </trkpt>
      <trkpt lat="38.2972470" lon="-0.5768600">
        <ele>59.1</ele>
        <time>2020-12-06T08:23:00Z</time>
      </trkpt>
      <trkpt lat="38.2973150" lon="-0.5767870">
        <ele>59.1</ele>
        <time>2020-12-06T08:23:01Z</time>
      </trkpt>
      <trkpt lat="38.2973880" lon="-0.5767280">
        <ele>59.1</ele>
        <time>2020-12-06T08:23:02Z</time>
      </trkpt>
      <trkpt lat="38.2974630" lon="-0.5766800">
        <ele>59.1</ele>
        <time>2020-12-06T08:23:03Z</time>
      </trkpt>
      <trkpt lat="38.2975400" lon="-0.5766430">
        <ele>59.1</ele>
        <time>2020-12-06T08:23:04Z</time>
      </trkpt>
      <trkpt lat="38.2976170" lon="-0.5766170">
        <ele>60.0</ele>
        <time>2020-12-06T08:23:05Z</time>
      </trkpt>
      <trkpt lat="38.2976920" lon="-0.5766000">
        <ele>60.0</ele>
        <time>2020-12-06T08:23:06Z</time>
      </trkpt>
      <trkpt lat="38.2977680" lon="-0.5765880">
        <ele>60.0</ele>
        <time>2020-12-06T08:23:07Z</time>
      </trkpt>
      <trkpt lat="38.2978430" lon="-0.5765850">
        <ele>60.0</ele>
        <time>2020-12-06T08:23:08Z</time>
      </trkpt>
      <trkpt lat="38.2979170" lon="-0.5765930">
        <ele>60.0</ele>
        <time>2020-12-06T08:23:09Z</time>
      </trkpt>
      <trkpt lat="38.2979900" lon="-0.5766030">
        <ele>60.0</ele>
        <time>2020-12-06T08:23:10Z</time>
      </trkpt>
      <trkpt lat="38.2980570" lon="-0.5766230">
        <ele>61.1</ele>
        <time>2020-12-06T08:23:11Z</time>
      </trkpt>
      <trkpt lat="38.2981220" lon="-0.5766500">
        <ele>61.1</ele>
        <time>2020-12-06T08:23:12Z</time>
      </trkpt>
      <trkpt lat="38.2981830" lon="-0.5766780">
        <ele>61.1</ele>
        <time>2020-12-06T08:23:13Z</time>
      </trkpt>
      <trkpt lat="38.2982420" lon="-0.5767150">
        <ele>61.1</ele>
        <time>2020-12-06T08:23:14Z</time>
      </trkpt>
      <trkpt lat="38.2982970" lon="-0.5767570">
        <ele>61.1</ele>
        <time>2020-12-06T08:23:15Z</time>
      </trkpt>
      <trkpt lat="38.2983480" lon="-0.5768030">
        <ele>61.1</ele>
        <time>2020-12-06T08:23:16Z</time>
      </trkpt>
      <trkpt lat="38.2983980" lon="-0.5768530">
        <ele>62.0</ele>
        <time>2020-12-06T08:23:17Z</time>
      </trkpt>
      <trkpt lat="38.2984470" lon="-0.5769070">
        <ele>62.0</ele>
        <time>2020-12-06T08:23:18Z</time>
      </trkpt>
      <trkpt lat="38.2984930" lon="-0.5769620">
        <ele>63.1</ele>
        <time>2020-12-06T08:23:19Z</time>
      </trkpt>
      <trkpt lat="38.2985380" lon="-0.5770200">
        <ele>63.1</ele>
        <time>2020-12-06T08:23:20Z</time>
      </trkpt>
      <trkpt lat="38.2985780" lon="-0.5770830">
        <ele>63.1</ele>
        <time>2020-12-06T08:23:21Z</time>
      </trkpt>
      <trkpt lat="38.2986120" lon="-0.5771530">
        <ele>63.1</ele>
        <time>2020-12-06T08:23:22Z</time>
      </trkpt>
      <trkpt lat="38.2986380" lon="-0.5772270">
        <ele>63.1</ele>
        <time>2020-12-06T08:23:23Z</time>
      </trkpt>
      <trkpt lat="38.2986620" lon="-0.5773030">
        <ele>63.1</ele>
        <time>2020-12-06T08:23:24Z</time>
      </trkpt>
      <trkpt lat="38.2986800" lon="-0.5773800">
        <ele>63.1</ele>
        <time>2020-12-06T08:23:25Z</time>
      </trkpt>
      <trkpt lat="38.2986930" lon="-0.5774570">
        <ele>63.1</ele>
        <time>2020-12-06T08:23:26Z</time>
      </trkpt>
      <trkpt lat="38.2987070" lon="-0.5775380">
        <ele>64.0</ele>
        <time>2020-12-06T08:23:27Z</time>
      </trkpt>
      <trkpt lat="38.2987150" lon="-0.5776200">
        <ele>64.0</ele>
        <time>2020-12-06T08:23:28Z</time>
      </trkpt>
      <trkpt lat="38.2987170" lon="-0.5777020">
        <ele>64.0</ele>
        <time>2020-12-06T08:23:29Z</time>
      </trkpt>
      <trkpt lat="38.2987120" lon="-0.5777870">
        <ele>64.0</ele>
        <time>2020-12-06T08:23:30Z</time>
      </trkpt>
      <trkpt lat="38.2987030" lon="-0.5778730">
        <ele>64.0</ele>
        <time>2020-12-06T08:23:31Z</time>
      </trkpt>
      <trkpt lat="38.2987000" lon="-0.5779600">
        <ele>64.0</ele>
        <time>2020-12-06T08:23:32Z</time>
      </trkpt>
      <trkpt lat="38.2987030" lon="-0.5780430">
        <ele>64.0</ele>
        <time>2020-12-06T08:23:33Z</time>
      </trkpt>
      <trkpt lat="38.2987150" lon="-0.5781230">
        <ele>64.0</ele>
        <time>2020-12-06T08:23:34Z</time>
      </trkpt>
      <trkpt lat="38.2987270" lon="-0.5782020">
        <ele>64.0</ele>
        <time>2020-12-06T08:23:35Z</time>
      </trkpt>
      <trkpt lat="38.2987430" lon="-0.5782780">
        <ele>64.0</ele>
        <time>2020-12-06T08:23:36Z</time>
      </trkpt>
      <trkpt lat="38.2987570" lon="-0.5783550">
        <ele>64.0</ele>
        <time>2020-12-06T08:23:37Z</time>
      </trkpt>
      <trkpt lat="38.2987730" lon="-0.5784300">
        <ele>64.0</ele>
        <time>2020-12-06T08:23:38Z</time>
      </trkpt>
      <trkpt lat="38.2987920" lon="-0.5785050">
        <ele>64.0</ele>
        <time>2020-12-06T08:23:39Z</time>
      </trkpt>
      <trkpt lat="38.2988120" lon="-0.5785770">
        <ele>64.0</ele>
        <time>2020-12-06T08:23:40Z</time>
      </trkpt>
      <trkpt lat="38.2988330" lon="-0.5786480">
        <ele>64.0</ele>
        <time>2020-12-06T08:23:41Z</time>
      </trkpt>
      <trkpt lat="38.2988600" lon="-0.5787170">
        <ele>64.0</ele>
        <time>2020-12-06T08:23:42Z</time>
      </trkpt>
      <trkpt lat="38.2988850" lon="-0.5787850">
        <ele>64.0</ele>
        <time>2020-12-06T08:23:43Z</time>
      </trkpt>
      <trkpt lat="38.2989050" lon="-0.5788520">
        <ele>64.0</ele>
        <time>2020-12-06T08:23:44Z</time>
      </trkpt>
      <trkpt lat="38.2989250" lon="-0.5789170">
        <ele>64.0</ele>
        <time>2020-12-06T08:23:45Z</time>
      </trkpt>
      <trkpt lat="38.2989450" lon="-0.5789820">
        <ele>64.0</ele>
        <time>2020-12-06T08:23:46Z</time>
      </trkpt>
      <trkpt lat="38.2989700" lon="-0.5790450">
        <ele>65.1</ele>
        <time>2020-12-06T08:23:47Z</time>
      </trkpt>
      <trkpt lat="38.2989970" lon="-0.5791050">
        <ele>65.1</ele>
        <time>2020-12-06T08:23:48Z</time>
      </trkpt>
      <trkpt lat="38.2990250" lon="-0.5791650">
        <ele>65.1</ele>
        <time>2020-12-06T08:23:49Z</time>
      </trkpt>
      <trkpt lat="38.2990550" lon="-0.5792220">
        <ele>65.1</ele>
        <time>2020-12-06T08:23:50Z</time>
      </trkpt>
      <trkpt lat="38.2990880" lon="-0.5792750">
        <ele>66.1</ele>
        <time>2020-12-06T08:23:51Z</time>
      </trkpt>
      <trkpt lat="38.2991230" lon="-0.5793270">
        <ele>66.1</ele>
        <time>2020-12-06T08:23:52Z</time>
      </trkpt>
      <trkpt lat="38.2991550" lon="-0.5793820">
        <ele>66.1</ele>
        <time>2020-12-06T08:23:53Z</time>
      </trkpt>
      <trkpt lat="38.2991900" lon="-0.5794350">
        <ele>66.1</ele>
        <time>2020-12-06T08:23:54Z</time>
      </trkpt>
      <trkpt lat="38.2992250" lon="-0.5794850">
        <ele>66.1</ele>
        <time>2020-12-06T08:23:55Z</time>
      </trkpt>
      <trkpt lat="38.2992620" lon="-0.5795350">
        <ele>66.1</ele>
        <time>2020-12-06T08:23:56Z</time>
      </trkpt>
      <trkpt lat="38.2992980" lon="-0.5795830">
        <ele>66.1</ele>
        <time>2020-12-06T08:23:57Z</time>
      </trkpt>
      <trkpt lat="38.2993350" lon="-0.5796320">
        <ele>66.1</ele>
        <time>2020-12-06T08:23:58Z</time>
      </trkpt>
      <trkpt lat="38.2993700" lon="-0.5796800">
        <ele>66.1</ele>
        <time>2020-12-06T08:23:59Z</time>
      </trkpt>
      <trkpt lat="38.2994070" lon="-0.5797300">
        <ele>66.1</ele>
        <time>2020-12-06T08:24:00Z</time>
      </trkpt>
      <trkpt lat="38.2994370" lon="-0.5797780">
        <ele>67.1</ele>
        <time>2020-12-06T08:24:01Z</time>
      </trkpt>
      <trkpt lat="38.2994680" lon="-0.5798280">
        <ele>67.1</ele>
        <time>2020-12-06T08:24:02Z</time>
      </trkpt>
      <trkpt lat="38.2994970" lon="-0.5798750">
        <ele>67.1</ele>
        <time>2020-12-06T08:24:03Z</time>
      </trkpt>
      <trkpt lat="38.2995220" lon="-0.5799220">
        <ele>67.1</ele>
        <time>2020-12-06T08:24:04Z</time>
      </trkpt>
      <trkpt lat="38.2995500" lon="-0.5799680">
        <ele>68.1</ele>
        <time>2020-12-06T08:24:05Z</time>
      </trkpt>
      <trkpt lat="38.2995780" lon="-0.5800120">
        <ele>68.1</ele>
        <time>2020-12-06T08:24:06Z</time>
      </trkpt>
      <trkpt lat="38.2996070" lon="-0.5800550">
        <ele>68.1</ele>
        <time>2020-12-06T08:24:07Z</time>
      </trkpt>
      <trkpt lat="38.2996330" lon="-0.5800980">
        <ele>68.1</ele>
        <time>2020-12-06T08:24:08Z</time>
      </trkpt>
      <trkpt lat="38.2996580" lon="-0.5801420">
        <ele>69.0</ele>
        <time>2020-12-06T08:24:09Z</time>
      </trkpt>
      <trkpt lat="38.2996850" lon="-0.5801830">
        <ele>69.0</ele>
        <time>2020-12-06T08:24:10Z</time>
      </trkpt>
      <trkpt lat="38.2997120" lon="-0.5802230">
        <ele>69.0</ele>
        <time>2020-12-06T08:24:11Z</time>
      </trkpt>
      <trkpt lat="38.2997350" lon="-0.5802680">
        <ele>69.0</ele>
        <time>2020-12-06T08:24:12Z</time>
      </trkpt>
      <trkpt lat="38.2997580" lon="-0.5803150">
        <ele>69.0</ele>
        <time>2020-12-06T08:24:13Z</time>
      </trkpt>
      <trkpt lat="38.2997850" lon="-0.5803600">
        <ele>69.0</ele>
        <time>2020-12-06T08:24:14Z</time>
      </trkpt>
      <trkpt lat="38.2998100" lon="-0.5804030">
        <ele>69.0</ele>
        <time>2020-12-06T08:24:15Z</time>
      </trkpt>
      <trkpt lat="38.2998350" lon="-0.5804500">
        <ele>69.0</ele>
        <time>2020-12-06T08:24:16Z</time>
      </trkpt>
      <trkpt lat="38.2998630" lon="-0.5804950">
        <ele>69.0</ele>
        <time>2020-12-06T08:24:17Z</time>
      </trkpt>
      <trkpt lat="38.2998880" lon="-0.5805400">
        <ele>69.0</ele>
        <time>2020-12-06T08:24:18Z</time>
      </trkpt>
      <trkpt lat="38.2999100" lon="-0.5805870">
        <ele>69.0</ele>
        <time>2020-12-06T08:24:19Z</time>
      </trkpt>
      <trkpt lat="38.2999280" lon="-0.5806380">
        <ele>69.0</ele>
        <time>2020-12-06T08:24:20Z</time>
      </trkpt>
      <trkpt lat="38.2999480" lon="-0.5806900">
        <ele>69.0</ele>
        <time>2020-12-06T08:24:21Z</time>
      </trkpt>
      <trkpt lat="38.2999720" lon="-0.5807380">
        <ele>69.0</ele>
        <time>2020-12-06T08:24:22Z</time>
      </trkpt>
      <trkpt lat="38.2999950" lon="-0.5807850">
        <ele>69.0</ele>
        <time>2020-12-06T08:24:23Z</time>
      </trkpt>
      <trkpt lat="38.3000180" lon="-0.5808320">
        <ele>69.0</ele>
        <time>2020-12-06T08:24:24Z</time>
      </trkpt>
      <trkpt lat="38.3000400" lon="-0.5808800">
        <ele>71.0</ele>
        <time>2020-12-06T08:24:25Z</time>
      </trkpt>
      <trkpt lat="38.3000600" lon="-0.5809280">
        <ele>71.0</ele>
        <time>2020-12-06T08:24:26Z</time>
      </trkpt>
      <trkpt lat="38.3000820" lon="-0.5809770">
        <ele>72.1</ele>
        <time>2020-12-06T08:24:27Z</time>
      </trkpt>
      <trkpt lat="38.3001030" lon="-0.5810250">
        <ele>72.1</ele>
        <time>2020-12-06T08:24:28Z</time>
      </trkpt>
      <trkpt lat="38.3001250" lon="-0.5810720">
        <ele>72.1</ele>
        <time>2020-12-06T08:24:29Z</time>
      </trkpt>
      <trkpt lat="38.3001470" lon="-0.5811220">
        <ele>72.1</ele>
        <time>2020-12-06T08:24:30Z</time>
      </trkpt>
      <trkpt lat="38.3001650" lon="-0.5811720">
        <ele>72.1</ele>
        <time>2020-12-06T08:24:31Z</time>
      </trkpt>
      <trkpt lat="38.3001830" lon="-0.5812220">
        <ele>72.1</ele>
        <time>2020-12-06T08:24:32Z</time>
      </trkpt>
      <trkpt lat="38.3002020" lon="-0.5812730">
        <ele>72.1</ele>
        <time>2020-12-06T08:24:33Z</time>
      </trkpt>
      <trkpt lat="38.3002200" lon="-0.5813230">
        <ele>72.1</ele>
        <time>2020-12-06T08:24:34Z</time>
      </trkpt>
      <trkpt lat="38.3002400" lon="-0.5813730">
        <ele>72.1</ele>
        <time>2020-12-06T08:24:35Z</time>
      </trkpt>
      <trkpt lat="38.3002580" lon="-0.5814230">
        <ele>72.1</ele>
        <time>2020-12-06T08:24:36Z</time>
      </trkpt>
      <trkpt lat="38.3002770" lon="-0.5814720">
        <ele>74.1</ele>
        <time>2020-12-06T08:24:37Z</time>
      </trkpt>
      <trkpt lat="38.3002930" lon="-0.5815220">
        <ele>74.1</ele>
        <time>2020-12-06T08:24:38Z</time>
      </trkpt>
      <trkpt lat="38.3003100" lon="-0.5815730">
        <ele>74.1</ele>
        <time>2020-12-06T08:24:39Z</time>
      </trkpt>
      <trkpt lat="38.3003280" lon="-0.5816230">
        <ele>74.1</ele>
        <time>2020-12-06T08:24:40Z</time>
      </trkpt>
      <trkpt lat="38.3003430" lon="-0.5816750">
        <ele>74.1</ele>
        <time>2020-12-06T08:24:41Z</time>
      </trkpt>
      <trkpt lat="38.3003630" lon="-0.5817280">
        <ele>74.1</ele>
        <time>2020-12-06T08:24:42Z</time>
      </trkpt>
      <trkpt lat="38.3003830" lon="-0.5817850">
        <ele>74.1</ele>
        <time>2020-12-06T08:24:43Z</time>
      </trkpt>
      <trkpt lat="38.3003980" lon="-0.5818370">
        <ele>74.1</ele>
        <time>2020-12-06T08:24:44Z</time>
      </trkpt>
      <trkpt lat="38.3004120" lon="-0.5818920">
        <ele>74.1</ele>
        <time>2020-12-06T08:24:45Z</time>
      </trkpt>
      <trkpt lat="38.3004250" lon="-0.5819470">
        <ele>74.1</ele>
        <time>2020-12-06T08:24:46Z</time>
      </trkpt>
      <trkpt lat="38.3004370" lon="-0.5820000">
        <ele>76.0</ele>
        <time>2020-12-06T08:24:47Z</time>
      </trkpt>
      <trkpt lat="38.3004500" lon="-0.5820550">
        <ele>76.0</ele>
        <time>2020-12-06T08:24:48Z</time>
      </trkpt>
      <trkpt lat="38.3004630" lon="-0.5821070">
        <ele>76.0</ele>
        <time>2020-12-06T08:24:49Z</time>
      </trkpt>
      <trkpt lat="38.3004770" lon="-0.5821600">
        <ele>76.0</ele>
        <time>2020-12-06T08:24:50Z</time>
      </trkpt>
      <trkpt lat="38.3004900" lon="-0.5822120">
        <ele>76.0</ele>
        <time>2020-12-06T08:24:51Z</time>
      </trkpt>
      <trkpt lat="38.3005050" lon="-0.5822630">
        <ele>76.0</ele>
        <time>2020-12-06T08:24:52Z</time>
      </trkpt>
      <trkpt lat="38.3005170" lon="-0.5823170">
        <ele>76.0</ele>
        <time>2020-12-06T08:24:53Z</time>
      </trkpt>
      <trkpt lat="38.3005280" lon="-0.5823700">
        <ele>76.0</ele>
        <time>2020-12-06T08:24:54Z</time>
      </trkpt>
      <trkpt lat="38.3005400" lon="-0.5824270">
        <ele>76.0</ele>
        <time>2020-12-06T08:24:55Z</time>
      </trkpt>
      <trkpt lat="38.3005550" lon="-0.5824870">
        <ele>76.0</ele>
        <time>2020-12-06T08:24:56Z</time>
      </trkpt>
      <trkpt lat="38.3005680" lon="-0.5825430">
        <ele>76.0</ele>
        <time>2020-12-06T08:24:57Z</time>
      </trkpt>
      <trkpt lat="38.3005800" lon="-0.5825980">
        <ele>76.0</ele>
        <time>2020-12-06T08:24:58Z</time>
      </trkpt>
      <trkpt lat="38.3005920" lon="-0.5826530">
        <ele>76.0</ele>
        <time>2020-12-06T08:24:59Z</time>
      </trkpt>
      <trkpt lat="38.3006030" lon="-0.5827070">
        <ele>76.0</ele>
        <time>2020-12-06T08:25:00Z</time>
      </trkpt>
      <trkpt lat="38.3006170" lon="-0.5827600">
        <ele>76.0</ele>
        <time>2020-12-06T08:25:01Z</time>
      </trkpt>
      <trkpt lat="38.3006300" lon="-0.5828150">
        <ele>76.0</ele>
        <time>2020-12-06T08:25:02Z</time>
      </trkpt>
      <trkpt lat="38.3006420" lon="-0.5828680">
        <ele>76.0</ele>
        <time>2020-12-06T08:25:03Z</time>
      </trkpt>
      <trkpt lat="38.3006550" lon="-0.5829230">
        <ele>76.0</ele>
        <time>2020-12-06T08:25:04Z</time>
      </trkpt>
      <trkpt lat="38.3006670" lon="-0.5829770">
        <ele>77.1</ele>
        <time>2020-12-06T08:25:05Z</time>
      </trkpt>
      <trkpt lat="38.3006780" lon="-0.5830320">
        <ele>77.1</ele>
        <time>2020-12-06T08:25:06Z</time>
      </trkpt>
      <trkpt lat="38.3006880" lon="-0.5830870">
        <ele>77.1</ele>
        <time>2020-12-06T08:25:07Z</time>
      </trkpt>
      <trkpt lat="38.3007000" lon="-0.5831420">
        <ele>77.1</ele>
        <time>2020-12-06T08:25:08Z</time>
      </trkpt>
      <trkpt lat="38.3007120" lon="-0.5831970">
        <ele>77.1</ele>
        <time>2020-12-06T08:25:09Z</time>
      </trkpt>
      <trkpt lat="38.3007250" lon="-0.5832500">
        <ele>77.1</ele>
        <time>2020-12-06T08:25:10Z</time>
      </trkpt>
      <trkpt lat="38.3007380" lon="-0.5833050">
        <ele>78.0</ele>
        <time>2020-12-06T08:25:11Z</time>
      </trkpt>
      <trkpt lat="38.3007520" lon="-0.5833600">
        <ele>78.0</ele>
        <time>2020-12-06T08:25:12Z</time>
      </trkpt>
      <trkpt lat="38.3007630" lon="-0.5834230">
        <ele>78.0</ele>
        <time>2020-12-06T08:25:13Z</time>
      </trkpt>
      <trkpt lat="38.3007800" lon="-0.5834920">
        <ele>78.0</ele>
        <time>2020-12-06T08:25:14Z</time>
      </trkpt>
      <trkpt lat="38.3007930" lon="-0.5835570">
        <ele>78.0</ele>
        <time>2020-12-06T08:25:15Z</time>
      </trkpt>
      <trkpt lat="38.3008070" lon="-0.5836220">
        <ele>78.0</ele>
        <time>2020-12-06T08:25:16Z</time>
      </trkpt>
      <trkpt lat="38.3008220" lon="-0.5836850">
        <ele>78.0</ele>
        <time>2020-12-06T08:25:17Z</time>
      </trkpt>
      <trkpt lat="38.3008350" lon="-0.5837500">
        <ele>78.0</ele>
        <time>2020-12-06T08:25:18Z</time>
      </trkpt>
      <trkpt lat="38.3008480" lon="-0.5838130">
        <ele>78.0</ele>
        <time>2020-12-06T08:25:19Z</time>
      </trkpt>
      <trkpt lat="38.3008630" lon="-0.5838770">
        <ele>78.0</ele>
        <time>2020-12-06T08:25:20Z</time>
      </trkpt>
      <trkpt lat="38.3008770" lon="-0.5839420">
        <ele>78.0</ele>
        <time>2020-12-06T08:25:21Z</time>
      </trkpt>
      <trkpt lat="38.3008900" lon="-0.5840050">
        <ele>78.0</ele>
        <time>2020-12-06T08:25:22Z</time>
      </trkpt>
      <trkpt lat="38.3009020" lon="-0.5840680">
        <ele>78.0</ele>
        <time>2020-12-06T08:25:23Z</time>
      </trkpt>
      <trkpt lat="38.3009130" lon="-0.5841300">
        <ele>78.0</ele>
        <time>2020-12-06T08:25:24Z</time>
      </trkpt>
      <trkpt lat="38.3009270" lon="-0.5841920">
        <ele>78.0</ele>
        <time>2020-12-06T08:25:25Z</time>
      </trkpt>
      <trkpt lat="38.3009400" lon="-0.5842530">
        <ele>78.0</ele>
        <time>2020-12-06T08:25:26Z</time>
      </trkpt>
      <trkpt lat="38.3009570" lon="-0.5843130">
        <ele>78.0</ele>
        <time>2020-12-06T08:25:27Z</time>
      </trkpt>
      <trkpt lat="38.3009720" lon="-0.5843750">
        <ele>78.0</ele>
        <time>2020-12-06T08:25:28Z</time>
      </trkpt>
      <trkpt lat="38.3009870" lon="-0.5844370">
        <ele>78.0</ele>
        <time>2020-12-06T08:25:29Z</time>
      </trkpt>
      <trkpt lat="38.3010000" lon="-0.5845020">
        <ele>78.0</ele>
        <time>2020-12-06T08:25:30Z</time>
      </trkpt>
      <trkpt lat="38.3010130" lon="-0.5845670">
        <ele>78.0</ele>
        <time>2020-12-06T08:25:31Z</time>
      </trkpt>
      <trkpt lat="38.3010270" lon="-0.5846300">
        <ele>78.0</ele>
        <time>2020-12-06T08:25:32Z</time>
      </trkpt>
      <trkpt lat="38.3010400" lon="-0.5846930">
        <ele>78.0</ele>
        <time>2020-12-06T08:25:33Z</time>
      </trkpt>
      <trkpt lat="38.3010530" lon="-0.5847570">
        <ele>78.0</ele>
        <time>2020-12-06T08:25:34Z</time>
      </trkpt>
      <trkpt lat="38.3010670" lon="-0.5848200">
        <ele>78.0</ele>
        <time>2020-12-06T08:25:35Z</time>
      </trkpt>
      <trkpt lat="38.3010770" lon="-0.5848830">
        <ele>78.0</ele>
        <time>2020-12-06T08:25:36Z</time>
      </trkpt>
      <trkpt lat="38.3010900" lon="-0.5849520">
        <ele>78.0</ele>
        <time>2020-12-06T08:25:37Z</time>
      </trkpt>
      <trkpt lat="38.3011050" lon="-0.5850200">
        <ele>78.0</ele>
        <time>2020-12-06T08:25:38Z</time>
      </trkpt>
      <trkpt lat="38.3011200" lon="-0.5850870">
        <ele>78.0</ele>
        <time>2020-12-06T08:25:39Z</time>
      </trkpt>
      <trkpt lat="38.3011350" lon="-0.5851550">
        <ele>78.0</ele>
        <time>2020-12-06T08:25:40Z</time>
      </trkpt>
      <trkpt lat="38.3011500" lon="-0.5852220">
        <ele>78.0</ele>
        <time>2020-12-06T08:25:41Z</time>
      </trkpt>
      <trkpt lat="38.3011650" lon="-0.5852900">
        <ele>78.0</ele>
        <time>2020-12-06T08:25:42Z</time>
      </trkpt>
      <trkpt lat="38.3011780" lon="-0.5853570">
        <ele>78.0</ele>
        <time>2020-12-06T08:25:43Z</time>
      </trkpt>
      <trkpt lat="38.3011930" lon="-0.5854230">
        <ele>78.0</ele>
        <time>2020-12-06T08:25:44Z</time>
      </trkpt>
      <trkpt lat="38.3012080" lon="-0.5854900">
        <ele>78.0</ele>
        <time>2020-12-06T08:25:45Z</time>
      </trkpt>
      <trkpt lat="38.3012230" lon="-0.5855550">
        <ele>78.0</ele>
        <time>2020-12-06T08:25:46Z</time>
      </trkpt>
      <trkpt lat="38.3012380" lon="-0.5856220">
        <ele>78.0</ele>
        <time>2020-12-06T08:25:47Z</time>
      </trkpt>
      <trkpt lat="38.3012520" lon="-0.5856870">
        <ele>78.0</ele>
        <time>2020-12-06T08:25:48Z</time>
      </trkpt>
      <trkpt lat="38.3012650" lon="-0.5857520">
        <ele>78.0</ele>
        <time>2020-12-06T08:25:49Z</time>
      </trkpt>
      <trkpt lat="38.3012780" lon="-0.5858170">
        <ele>78.0</ele>
        <time>2020-12-06T08:25:50Z</time>
      </trkpt>
      <trkpt lat="38.3012920" lon="-0.5858800">
        <ele>79.1</ele>
        <time>2020-12-06T08:25:51Z</time>
      </trkpt>
      <trkpt lat="38.3013050" lon="-0.5859430">
        <ele>79.1</ele>
        <time>2020-12-06T08:25:52Z</time>
      </trkpt>
      <trkpt lat="38.3013180" lon="-0.5860070">
        <ele>79.1</ele>
        <time>2020-12-06T08:25:53Z</time>
      </trkpt>
      <trkpt lat="38.3013350" lon="-0.5860680">
        <ele>79.1</ele>
        <time>2020-12-06T08:25:54Z</time>
      </trkpt>
      <trkpt lat="38.3013500" lon="-0.5861370">
        <ele>79.1</ele>
        <time>2020-12-06T08:25:55Z</time>
      </trkpt>
      <trkpt lat="38.3013650" lon="-0.5862100">
        <ele>79.1</ele>
        <time>2020-12-06T08:25:56Z</time>
      </trkpt>
      <trkpt lat="38.3013780" lon="-0.5862820">
        <ele>79.1</ele>
        <time>2020-12-06T08:25:57Z</time>
      </trkpt>
      <trkpt lat="38.3013920" lon="-0.5863520">
        <ele>79.1</ele>
        <time>2020-12-06T08:25:58Z</time>
      </trkpt>
      <trkpt lat="38.3014050" lon="-0.5864200">
        <ele>79.1</ele>
        <time>2020-12-06T08:25:59Z</time>
      </trkpt>
      <trkpt lat="38.3014200" lon="-0.5864880">
        <ele>79.1</ele>
        <time>2020-12-06T08:26:00Z</time>
      </trkpt>
      <trkpt lat="38.3014350" lon="-0.5865550">
        <ele>79.1</ele>
        <time>2020-12-06T08:26:01Z</time>
      </trkpt>
      <trkpt lat="38.3014520" lon="-0.5866200">
        <ele>79.1</ele>
        <time>2020-12-06T08:26:02Z</time>
      </trkpt>
      <trkpt lat="38.3014650" lon="-0.5866850">
        <ele>79.1</ele>
        <time>2020-12-06T08:26:03Z</time>
      </trkpt>
      <trkpt lat="38.3014800" lon="-0.5867500">
        <ele>79.1</ele>
        <time>2020-12-06T08:26:04Z</time>
      </trkpt>
      <trkpt lat="38.3014930" lon="-0.5868150">
        <ele>79.1</ele>
        <time>2020-12-06T08:26:05Z</time>
      </trkpt>
      <trkpt lat="38.3015070" lon="-0.5868780">
        <ele>79.1</ele>
        <time>2020-12-06T08:26:06Z</time>
      </trkpt>
      <trkpt lat="38.3015220" lon="-0.5869420">
        <ele>79.1</ele>
        <time>2020-12-06T08:26:07Z</time>
      </trkpt>
      <trkpt lat="38.3015350" lon="-0.5870050">
        <ele>79.1</ele>
        <time>2020-12-06T08:26:08Z</time>
      </trkpt>
      <trkpt lat="38.3015480" lon="-0.5870680">
        <ele>79.1</ele>
        <time>2020-12-06T08:26:09Z</time>
      </trkpt>
      <trkpt lat="38.3015630" lon="-0.5871330">
        <ele>79.1</ele>
        <time>2020-12-06T08:26:10Z</time>
      </trkpt>
      <trkpt lat="38.3015750" lon="-0.5871970">
        <ele>79.1</ele>
        <time>2020-12-06T08:26:11Z</time>
      </trkpt>
      <trkpt lat="38.3015880" lon="-0.5872620">
        <ele>79.1</ele>
        <time>2020-12-06T08:26:12Z</time>
      </trkpt>
      <trkpt lat="38.3016020" lon="-0.5873270">
        <ele>79.1</ele>
        <time>2020-12-06T08:26:13Z</time>
      </trkpt>
      <trkpt lat="38.3016150" lon="-0.5873900">
        <ele>79.1</ele>
        <time>2020-12-06T08:26:14Z</time>
      </trkpt>
      <trkpt lat="38.3016280" lon="-0.5874550">
        <ele>79.1</ele>
        <time>2020-12-06T08:26:15Z</time>
      </trkpt>
      <trkpt lat="38.3016430" lon="-0.5875180">
        <ele>79.1</ele>
        <time>2020-12-06T08:26:16Z</time>
      </trkpt>
      <trkpt lat="38.3016580" lon="-0.5875830">
        <ele>79.1</ele>
        <time>2020-12-06T08:26:17Z</time>
      </trkpt>
      <trkpt lat="38.3016720" lon="-0.5876520">
        <ele>79.1</ele>
        <time>2020-12-06T08:26:18Z</time>
      </trkpt>
      <trkpt lat="38.3016880" lon="-0.5877270">
        <ele>79.1</ele>
        <time>2020-12-06T08:26:19Z</time>
      </trkpt>
      <trkpt lat="38.3017020" lon="-0.5877970">
        <ele>79.1</ele>
        <time>2020-12-06T08:26:20Z</time>
      </trkpt>
      <trkpt lat="38.3017180" lon="-0.5878670">
        <ele>80.0</ele>
        <time>2020-12-06T08:26:21Z</time>
      </trkpt>
      <trkpt lat="38.3017350" lon="-0.5879370">
        <ele>80.0</ele>
        <time>2020-12-06T08:26:22Z</time>
      </trkpt>
      <trkpt lat="38.3017500" lon="-0.5880050">
        <ele>80.0</ele>
        <time>2020-12-06T08:26:23Z</time>
      </trkpt>
      <trkpt lat="38.3017650" lon="-0.5880730">
        <ele>80.0</ele>
        <time>2020-12-06T08:26:24Z</time>
      </trkpt>
      <trkpt lat="38.3017780" lon="-0.5881420">
        <ele>80.0</ele>
        <time>2020-12-06T08:26:25Z</time>
      </trkpt>
      <trkpt lat="38.3017930" lon="-0.5882100">
        <ele>80.0</ele>
        <time>2020-12-06T08:26:26Z</time>
      </trkpt>
      <trkpt lat="38.3018080" lon="-0.5882750">
        <ele>80.0</ele>
        <time>2020-12-06T08:26:27Z</time>
      </trkpt>
      <trkpt lat="38.3018270" lon="-0.5883400">
        <ele>80.0</ele>
        <time>2020-12-06T08:26:28Z</time>
      </trkpt>
      <trkpt lat="38.3018420" lon="-0.5884050">
        <ele>80.0</ele>
        <time>2020-12-06T08:26:29Z</time>
      </trkpt>
      <trkpt lat="38.3018550" lon="-0.5884700">
        <ele>80.0</ele>
        <time>2020-12-06T08:26:30Z</time>
      </trkpt>
      <trkpt lat="38.3018670" lon="-0.5885350">
        <ele>80.0</ele>
        <time>2020-12-06T08:26:31Z</time>
      </trkpt>
      <trkpt lat="38.3018800" lon="-0.5886020">
        <ele>80.0</ele>
        <time>2020-12-06T08:26:32Z</time>
      </trkpt>
      <trkpt lat="38.3018930" lon="-0.5886680">
        <ele>81.1</ele>
        <time>2020-12-06T08:26:33Z</time>
      </trkpt>
      <trkpt lat="38.3019070" lon="-0.5887330">
        <ele>81.1</ele>
        <time>2020-12-06T08:26:34Z</time>
      </trkpt>
      <trkpt lat="38.3019200" lon="-0.5888000">
        <ele>81.1</ele>
        <time>2020-12-06T08:26:35Z</time>
      </trkpt>
      <trkpt lat="38.3019330" lon="-0.5888650">
        <ele>81.1</ele>
        <time>2020-12-06T08:26:36Z</time>
      </trkpt>
      <trkpt lat="38.3019480" lon="-0.5889320">
        <ele>81.1</ele>
        <time>2020-12-06T08:26:37Z</time>
      </trkpt>
      <trkpt lat="38.3019620" lon="-0.5889970">
        <ele>81.1</ele>
        <time>2020-12-06T08:26:38Z</time>
      </trkpt>
      <trkpt lat="38.3019780" lon="-0.5890680">
        <ele>81.1</ele>
        <time>2020-12-06T08:26:39Z</time>
      </trkpt>
      <trkpt lat="38.3019970" lon="-0.5891400">
        <ele>81.1</ele>
        <time>2020-12-06T08:26:40Z</time>
      </trkpt>
      <trkpt lat="38.3020120" lon="-0.5892120">
        <ele>81.1</ele>
        <time>2020-12-06T08:26:41Z</time>
      </trkpt>
      <trkpt lat="38.3020280" lon="-0.5892850">
        <ele>81.1</ele>
        <time>2020-12-06T08:26:42Z</time>
      </trkpt>
      <trkpt lat="38.3020430" lon="-0.5893580">
        <ele>81.1</ele>
        <time>2020-12-06T08:26:43Z</time>
      </trkpt>
      <trkpt lat="38.3020600" lon="-0.5894300">
        <ele>81.1</ele>
        <time>2020-12-06T08:26:44Z</time>
      </trkpt>
      <trkpt lat="38.3020750" lon="-0.5895020">
        <ele>81.1</ele>
        <time>2020-12-06T08:26:45Z</time>
      </trkpt>
      <trkpt lat="38.3020900" lon="-0.5895730">
        <ele>81.1</ele>
        <time>2020-12-06T08:26:46Z</time>
      </trkpt>
      <trkpt lat="38.3021070" lon="-0.5896430">
        <ele>81.1</ele>
        <time>2020-12-06T08:26:47Z</time>
      </trkpt>
      <trkpt lat="38.3021230" lon="-0.5897130">
        <ele>81.1</ele>
        <time>2020-12-06T08:26:48Z</time>
      </trkpt>
      <trkpt lat="38.3021380" lon="-0.5897850">
        <ele>81.1</ele>
        <time>2020-12-06T08:26:49Z</time>
      </trkpt>
      <trkpt lat="38.3021530" lon="-0.5898550">
        <ele>81.1</ele>
        <time>2020-12-06T08:26:50Z</time>
      </trkpt>
      <trkpt lat="38.3021700" lon="-0.5899270">
        <ele>81.1</ele>
        <time>2020-12-06T08:26:51Z</time>
      </trkpt>
      <trkpt lat="38.3021850" lon="-0.5899980">
        <ele>81.1</ele>
        <time>2020-12-06T08:26:52Z</time>
      </trkpt>
      <trkpt lat="38.3022000" lon="-0.5900700">
        <ele>81.1</ele>
        <time>2020-12-06T08:26:53Z</time>
      </trkpt>
      <trkpt lat="38.3022150" lon="-0.5901430">
        <ele>81.1</ele>
        <time>2020-12-06T08:26:54Z</time>
      </trkpt>
      <trkpt lat="38.3022320" lon="-0.5902150">
        <ele>81.1</ele>
        <time>2020-12-06T08:26:55Z</time>
      </trkpt>
      <trkpt lat="38.3022500" lon="-0.5902870">
        <ele>81.1</ele>
        <time>2020-12-06T08:26:56Z</time>
      </trkpt>
      <trkpt lat="38.3022670" lon="-0.5903600">
        <ele>81.1</ele>
        <time>2020-12-06T08:26:57Z</time>
      </trkpt>
      <trkpt lat="38.3022830" lon="-0.5904320">
        <ele>81.1</ele>
        <time>2020-12-06T08:26:58Z</time>
      </trkpt>
      <trkpt lat="38.3022980" lon="-0.5905030">
        <ele>81.1</ele>
        <time>2020-12-06T08:26:59Z</time>
      </trkpt>
      <trkpt lat="38.3023150" lon="-0.5905750">
        <ele>81.1</ele>
        <time>2020-12-06T08:27:00Z</time>
      </trkpt>
      <trkpt lat="38.3023320" lon="-0.5906450">
        <ele>81.1</ele>
        <time>2020-12-06T08:27:01Z</time>
      </trkpt>
      <trkpt lat="38.3023500" lon="-0.5907150">
        <ele>81.1</ele>
        <time>2020-12-06T08:27:02Z</time>
      </trkpt>
      <trkpt lat="38.3023680" lon="-0.5907850">
        <ele>81.1</ele>
        <time>2020-12-06T08:27:03Z</time>
      </trkpt>
      <trkpt lat="38.3023850" lon="-0.5908570">
        <ele>81.1</ele>
        <time>2020-12-06T08:27:04Z</time>
      </trkpt>
      <trkpt lat="38.3024020" lon="-0.5909300">
        <ele>81.1</ele>
        <time>2020-12-06T08:27:05Z</time>
      </trkpt>
      <trkpt lat="38.3024200" lon="-0.5910050">
        <ele>81.1</ele>
        <time>2020-12-06T08:27:06Z</time>
      </trkpt>
      <trkpt lat="38.3024380" lon="-0.5910780">
        <ele>81.1</ele>
        <time>2020-12-06T08:27:07Z</time>
      </trkpt>
      <trkpt lat="38.3024570" lon="-0.5911550">
        <ele>81.1</ele>
        <time>2020-12-06T08:27:08Z</time>
      </trkpt>
      <trkpt lat="38.3024800" lon="-0.5912370">
        <ele>81.1</ele>
        <time>2020-12-06T08:27:09Z</time>
      </trkpt>
      <trkpt lat="38.3025020" lon="-0.5913170">
        <ele>81.1</ele>
        <time>2020-12-06T08:27:10Z</time>
      </trkpt>
      <trkpt lat="38.3025250" lon="-0.5913970">
        <ele>81.1</ele>
        <time>2020-12-06T08:27:11Z</time>
      </trkpt>
      <trkpt lat="38.3025480" lon="-0.5914780">
        <ele>81.1</ele>
        <time>2020-12-06T08:27:12Z</time>
      </trkpt>
      <trkpt lat="38.3025700" lon="-0.5915600">
        <ele>81.1</ele>
        <time>2020-12-06T08:27:13Z</time>
      </trkpt>
      <trkpt lat="38.3025920" lon="-0.5916380">
        <ele>81.1</ele>
        <time>2020-12-06T08:27:14Z</time>
      </trkpt>
      <trkpt lat="38.3026130" lon="-0.5917170">
        <ele>81.1</ele>
        <time>2020-12-06T08:27:15Z</time>
      </trkpt>
      <trkpt lat="38.3026350" lon="-0.5917950">
        <ele>81.1</ele>
        <time>2020-12-06T08:27:16Z</time>
      </trkpt>
      <trkpt lat="38.3026580" lon="-0.5918720">
        <ele>81.1</ele>
        <time>2020-12-06T08:27:17Z</time>
      </trkpt>
      <trkpt lat="38.3026780" lon="-0.5919480">
        <ele>81.1</ele>
        <time>2020-12-06T08:27:18Z</time>
      </trkpt>
      <trkpt lat="38.3027000" lon="-0.5920250">
        <ele>81.1</ele>
        <time>2020-12-06T08:27:19Z</time>
      </trkpt>
      <trkpt lat="38.3027230" lon="-0.5921000">
        <ele>81.1</ele>
        <time>2020-12-06T08:27:20Z</time>
      </trkpt>
      <trkpt lat="38.3027470" lon="-0.5921750">
        <ele>80.0</ele>
        <time>2020-12-06T08:27:21Z</time>
      </trkpt>
      <trkpt lat="38.3027680" lon="-0.5922480">
        <ele>80.0</ele>
        <time>2020-12-06T08:27:22Z</time>
      </trkpt>
      <trkpt lat="38.3027900" lon="-0.5923220">
        <ele>80.0</ele>
        <time>2020-12-06T08:27:23Z</time>
      </trkpt>
      <trkpt lat="38.3028100" lon="-0.5923970">
        <ele>80.0</ele>
        <time>2020-12-06T08:27:24Z</time>
      </trkpt>
      <trkpt lat="38.3028320" lon="-0.5924680">
        <ele>80.0</ele>
        <time>2020-12-06T08:27:25Z</time>
      </trkpt>
      <trkpt lat="38.3028570" lon="-0.5925400">
        <ele>80.0</ele>
        <time>2020-12-06T08:27:26Z</time>
      </trkpt>
      <trkpt lat="38.3028800" lon="-0.5926100">
        <ele>80.0</ele>
        <time>2020-12-06T08:27:27Z</time>
      </trkpt>
      <trkpt lat="38.3029030" lon="-0.5926820">
        <ele>80.0</ele>
        <time>2020-12-06T08:27:28Z</time>
      </trkpt>
      <trkpt lat="38.3029250" lon="-0.5927530">
        <ele>80.0</ele>
        <time>2020-12-06T08:27:29Z</time>
      </trkpt>
      <trkpt lat="38.3029500" lon="-0.5928250">
        <ele>80.0</ele>
        <time>2020-12-06T08:27:30Z</time>
      </trkpt>
      <trkpt lat="38.3029730" lon="-0.5928950">
        <ele>80.0</ele>
        <time>2020-12-06T08:27:31Z</time>
      </trkpt>
      <trkpt lat="38.3029950" lon="-0.5929650">
        <ele>80.0</ele>
        <time>2020-12-06T08:27:32Z</time>
      </trkpt>
      <trkpt lat="38.3030180" lon="-0.5930350">
        <ele>80.0</ele>
        <time>2020-12-06T08:27:33Z</time>
      </trkpt>
      <trkpt lat="38.3030420" lon="-0.5931030">
        <ele>80.0</ele>
        <time>2020-12-06T08:27:34Z</time>
      </trkpt>
      <trkpt lat="38.3030650" lon="-0.5931720">
        <ele>80.0</ele>
        <time>2020-12-06T08:27:35Z</time>
      </trkpt>
      <trkpt lat="38.3030880" lon="-0.5932420">
        <ele>80.0</ele>
        <time>2020-12-06T08:27:36Z</time>
      </trkpt>
      <trkpt lat="38.3031100" lon="-0.5933120">
        <ele>80.0</ele>
        <time>2020-12-06T08:27:37Z</time>
      </trkpt>
      <trkpt lat="38.3031320" lon="-0.5933820">
        <ele>80.0</ele>
        <time>2020-12-06T08:27:38Z</time>
      </trkpt>
      <trkpt lat="38.3031520" lon="-0.5934520">
        <ele>80.0</ele>
        <time>2020-12-06T08:27:39Z</time>
      </trkpt>
      <trkpt lat="38.3031730" lon="-0.5935200">
        <ele>80.0</ele>
        <time>2020-12-06T08:27:40Z</time>
      </trkpt>
      <trkpt lat="38.3031950" lon="-0.5935880">
        <ele>80.0</ele>
        <time>2020-12-06T08:27:41Z</time>
      </trkpt>
      <trkpt lat="38.3032170" lon="-0.5936570">
        <ele>80.0</ele>
        <time>2020-12-06T08:27:42Z</time>
      </trkpt>
      <trkpt lat="38.3032370" lon="-0.5937250">
        <ele>81.1</ele>
        <time>2020-12-06T08:27:43Z</time>
      </trkpt>
      <trkpt lat="38.3032580" lon="-0.5937920">
        <ele>81.1</ele>
        <time>2020-12-06T08:27:44Z</time>
      </trkpt>
      <trkpt lat="38.3032780" lon="-0.5938600">
        <ele>81.1</ele>
        <time>2020-12-06T08:27:45Z</time>
      </trkpt>
      <trkpt lat="38.3032980" lon="-0.5939300">
        <ele>81.1</ele>
        <time>2020-12-06T08:27:46Z</time>
      </trkpt>
      <trkpt lat="38.3033220" lon="-0.5940030">
        <ele>81.1</ele>
        <time>2020-12-06T08:27:47Z</time>
      </trkpt>
      <trkpt lat="38.3033430" lon="-0.5940780">
        <ele>81.1</ele>
        <time>2020-12-06T08:27:48Z</time>
      </trkpt>
      <trkpt lat="38.3033620" lon="-0.5941520">
        <ele>81.1</ele>
        <time>2020-12-06T08:27:49Z</time>
      </trkpt>
      <trkpt lat="38.3033820" lon="-0.5942180">
        <ele>81.1</ele>
        <time>2020-12-06T08:27:50Z</time>
      </trkpt>
      <trkpt lat="38.3033980" lon="-0.5942850">
        <ele>81.1</ele>
        <time>2020-12-06T08:27:51Z</time>
      </trkpt>
      <trkpt lat="38.3034150" lon="-0.5943530">
        <ele>81.1</ele>
        <time>2020-12-06T08:27:52Z</time>
      </trkpt>
      <trkpt lat="38.3034330" lon="-0.5944220">
        <ele>82.1</ele>
        <time>2020-12-06T08:27:53Z</time>
      </trkpt>
      <trkpt lat="38.3034500" lon="-0.5944930">
        <ele>82.1</ele>
        <time>2020-12-06T08:27:54Z</time>
      </trkpt>
      <trkpt lat="38.3034670" lon="-0.5945580">
        <ele>82.1</ele>
        <time>2020-12-06T08:27:55Z</time>
      </trkpt>
      <trkpt lat="38.3034820" lon="-0.5946220">
        <ele>82.1</ele>
        <time>2020-12-06T08:27:56Z</time>
      </trkpt>
      <trkpt lat="38.3034980" lon="-0.5946850">
        <ele>82.1</ele>
        <time>2020-12-06T08:27:57Z</time>
      </trkpt>
      <trkpt lat="38.3035130" lon="-0.5947500">
        <ele>82.1</ele>
        <time>2020-12-06T08:27:58Z</time>
      </trkpt>
      <trkpt lat="38.3035270" lon="-0.5948130">
        <ele>82.1</ele>
        <time>2020-12-06T08:27:59Z</time>
      </trkpt>
      <trkpt lat="38.3035380" lon="-0.5948800">
        <ele>82.1</ele>
        <time>2020-12-06T08:28:00Z</time>
      </trkpt>
      <trkpt lat="38.3035550" lon="-0.5949450">
        <ele>82.1</ele>
        <time>2020-12-06T08:28:01Z</time>
      </trkpt>
      <trkpt lat="38.3035700" lon="-0.5950070">
        <ele>82.1</ele>
        <time>2020-12-06T08:28:02Z</time>
      </trkpt>
      <trkpt lat="38.3035800" lon="-0.5950700">
        <ele>82.1</ele>
        <time>2020-12-06T08:28:03Z</time>
      </trkpt>
      <trkpt lat="38.3035900" lon="-0.5951330">
        <ele>82.1</ele>
        <time>2020-12-06T08:28:04Z</time>
      </trkpt>
      <trkpt lat="38.3036000" lon="-0.5951950">
        <ele>82.1</ele>
        <time>2020-12-06T08:28:05Z</time>
      </trkpt>
      <trkpt lat="38.3036100" lon="-0.5952570">
        <ele>82.1</ele>
        <time>2020-12-06T08:28:06Z</time>
      </trkpt>
      <trkpt lat="38.3036220" lon="-0.5953150">
        <ele>83.1</ele>
        <time>2020-12-06T08:28:07Z</time>
      </trkpt>
      <trkpt lat="38.3036330" lon="-0.5953730">
        <ele>83.1</ele>
        <time>2020-12-06T08:28:08Z</time>
      </trkpt>
      <trkpt lat="38.3036450" lon="-0.5954320">
        <ele>83.1</ele>
        <time>2020-12-06T08:28:09Z</time>
      </trkpt>
      <trkpt lat="38.3036580" lon="-0.5954920">
        <ele>83.1</ele>
        <time>2020-12-06T08:28:10Z</time>
      </trkpt>
      <trkpt lat="38.3036680" lon="-0.5955530">
        <ele>83.1</ele>
        <time>2020-12-06T08:28:11Z</time>
      </trkpt>
      <trkpt lat="38.3036780" lon="-0.5956170">
        <ele>83.1</ele>
        <time>2020-12-06T08:28:12Z</time>
      </trkpt>
      <trkpt lat="38.3036880" lon="-0.5956820">
        <ele>83.1</ele>
        <time>2020-12-06T08:28:13Z</time>
      </trkpt>
      <trkpt lat="38.3036980" lon="-0.5957420">
        <ele>83.1</ele>
        <time>2020-12-06T08:28:14Z</time>
      </trkpt>
      <trkpt lat="38.3037050" lon="-0.5958050">
        <ele>83.1</ele>
        <time>2020-12-06T08:28:15Z</time>
      </trkpt>
      <trkpt lat="38.3037120" lon="-0.5958670">
        <ele>83.1</ele>
        <time>2020-12-06T08:28:16Z</time>
      </trkpt>
      <trkpt lat="38.3037180" lon="-0.5959280">
        <ele>83.1</ele>
        <time>2020-12-06T08:28:17Z</time>
      </trkpt>
      <trkpt lat="38.3037250" lon="-0.5959880">
        <ele>83.1</ele>
        <time>2020-12-06T08:28:18Z</time>
      </trkpt>
      <trkpt lat="38.3037320" lon="-0.5960450">
        <ele>85.0</ele>
        <time>2020-12-06T08:28:19Z</time>
      </trkpt>
      <trkpt lat="38.3037380" lon="-0.5961050">
        <ele>85.0</ele>
        <time>2020-12-06T08:28:20Z</time>
      </trkpt>
      <trkpt lat="38.3037470" lon="-0.5961650">
        <ele>85.0</ele>
        <time>2020-12-06T08:28:21Z</time>
      </trkpt>
      <trkpt lat="38.3037570" lon="-0.5962250">
        <ele>85.0</ele>
        <time>2020-12-06T08:28:22Z</time>
      </trkpt>
      <trkpt lat="38.3037650" lon="-0.5962870">
        <ele>85.0</ele>
        <time>2020-12-06T08:28:23Z</time>
      </trkpt>
      <trkpt lat="38.3037700" lon="-0.5963470">
        <ele>85.0</ele>
        <time>2020-12-06T08:28:24Z</time>
      </trkpt>
      <trkpt lat="38.3037750" lon="-0.5964030">
        <ele>85.0</ele>
        <time>2020-12-06T08:28:25Z</time>
      </trkpt>
      <trkpt lat="38.3037780" lon="-0.5964580">
        <ele>85.0</ele>
        <time>2020-12-06T08:28:26Z</time>
      </trkpt>
      <trkpt lat="38.3037850" lon="-0.5965130">
        <ele>86.1</ele>
        <time>2020-12-06T08:28:27Z</time>
      </trkpt>
      <trkpt lat="38.3037900" lon="-0.5965680">
        <ele>86.1</ele>
        <time>2020-12-06T08:28:28Z</time>
      </trkpt>
      <trkpt lat="38.3037970" lon="-0.5966250">
        <ele>86.1</ele>
        <time>2020-12-06T08:28:29Z</time>
      </trkpt>
      <trkpt lat="38.3038030" lon="-0.5966820">
        <ele>86.1</ele>
        <time>2020-12-06T08:28:30Z</time>
      </trkpt>
      <trkpt lat="38.3038100" lon="-0.5967400">
        <ele>87.0</ele>
        <time>2020-12-06T08:28:31Z</time>
      </trkpt>
      <trkpt lat="38.3038150" lon="-0.5967980">
        <ele>87.0</ele>
        <time>2020-12-06T08:28:32Z</time>
      </trkpt>
      <trkpt lat="38.3038170" lon="-0.5968580">
        <ele>88.1</ele>
        <time>2020-12-06T08:28:33Z</time>
      </trkpt>
      <trkpt lat="38.3038200" lon="-0.5969200">
        <ele>88.1</ele>
        <time>2020-12-06T08:28:34Z</time>
      </trkpt>
      <trkpt lat="38.3038250" lon="-0.5969770">
        <ele>88.1</ele>
        <time>2020-12-06T08:28:35Z</time>
      </trkpt>
      <trkpt lat="38.3038270" lon="-0.5970350">
        <ele>88.1</ele>
        <time>2020-12-06T08:28:36Z</time>
      </trkpt>
      <trkpt lat="38.3038320" lon="-0.5970930">
        <ele>89.0</ele>
        <time>2020-12-06T08:28:37Z</time>
      </trkpt>
      <trkpt lat="38.3038330" lon="-0.5971520">
        <ele>89.0</ele>
        <time>2020-12-06T08:28:38Z</time>
      </trkpt>
      <trkpt lat="38.3038370" lon="-0.5972120">
        <ele>89.0</ele>
        <time>2020-12-06T08:28:39Z</time>
      </trkpt>
      <trkpt lat="38.3038400" lon="-0.5972720">
        <ele>89.0</ele>
        <time>2020-12-06T08:28:40Z</time>
      </trkpt>
      <trkpt lat="38.3038450" lon="-0.5973300">
        <ele>89.0</ele>
        <time>2020-12-06T08:28:41Z</time>
      </trkpt>
      <trkpt lat="38.3038470" lon="-0.5973900">
        <ele>89.0</ele>
        <time>2020-12-06T08:28:42Z</time>
      </trkpt>
      <trkpt lat="38.3038500" lon="-0.5974530">
        <ele>89.0</ele>
        <time>2020-12-06T08:28:43Z</time>
      </trkpt>
      <trkpt lat="38.3038550" lon="-0.5975170">
        <ele>89.0</ele>
        <time>2020-12-06T08:28:44Z</time>
      </trkpt>
      <trkpt lat="38.3038580" lon="-0.5975830">
        <ele>89.0</ele>
        <time>2020-12-06T08:28:45Z</time>
      </trkpt>
      <trkpt lat="38.3038580" lon="-0.5976470">
        <ele>89.0</ele>
        <time>2020-12-06T08:28:46Z</time>
      </trkpt>
      <trkpt lat="38.3038570" lon="-0.5977070">
        <ele>89.0</ele>
        <time>2020-12-06T08:28:47Z</time>
      </trkpt>
      <trkpt lat="38.3038570" lon="-0.5977680">
        <ele>89.0</ele>
        <time>2020-12-06T08:28:48Z</time>
      </trkpt>
      <trkpt lat="38.3038620" lon="-0.5978280">
        <ele>90.1</ele>
        <time>2020-12-06T08:28:49Z</time>
      </trkpt>
      <trkpt lat="38.3038670" lon="-0.5978870">
        <ele>90.1</ele>
        <time>2020-12-06T08:28:50Z</time>
      </trkpt>
      <trkpt lat="38.3038770" lon="-0.5979430">
        <ele>90.1</ele>
        <time>2020-12-06T08:28:51Z</time>
      </trkpt>
      <trkpt lat="38.3038950" lon="-0.5979930">
        <ele>90.1</ele>
        <time>2020-12-06T08:28:52Z</time>
      </trkpt>
      <trkpt lat="38.3039170" lon="-0.5980420">
        <ele>90.1</ele>
        <time>2020-12-06T08:28:53Z</time>
      </trkpt>
      <trkpt lat="38.3039420" lon="-0.5980850">
        <ele>90.1</ele>
        <time>2020-12-06T08:28:54Z</time>
      </trkpt>
      <trkpt lat="38.3039730" lon="-0.5981250">
        <ele>90.1</ele>
        <time>2020-12-06T08:28:55Z</time>
      </trkpt>
      <trkpt lat="38.3040070" lon="-0.5981580">
        <ele>90.1</ele>
        <time>2020-12-06T08:28:56Z</time>
      </trkpt>
      <trkpt lat="38.3040400" lon="-0.5981930">
        <ele>90.1</ele>
        <time>2020-12-06T08:28:57Z</time>
      </trkpt>
      <trkpt lat="38.3040750" lon="-0.5982300">
        <ele>90.1</ele>
        <time>2020-12-06T08:28:58Z</time>
      </trkpt>
      <trkpt lat="38.3041080" lon="-0.5982680">
        <ele>90.1</ele>
        <time>2020-12-06T08:28:59Z</time>
      </trkpt>
      <trkpt lat="38.3041380" lon="-0.5983120">
        <ele>90.1</ele>
        <time>2020-12-06T08:29:00Z</time>
      </trkpt>
      <trkpt lat="38.3041650" lon="-0.5983570">
        <ele>90.1</ele>
        <time>2020-12-06T08:29:01Z</time>
      </trkpt>
      <trkpt lat="38.3041900" lon="-0.5984030">
        <ele>90.1</ele>
        <time>2020-12-06T08:29:02Z</time>
      </trkpt>
      <trkpt lat="38.3042120" lon="-0.5984520">
        <ele>91.1</ele>
        <time>2020-12-06T08:29:03Z</time>
      </trkpt>
      <trkpt lat="38.3042320" lon="-0.5985020">
        <ele>91.1</ele>
        <time>2020-12-06T08:29:04Z</time>
      </trkpt>
      <trkpt lat="38.3042480" lon="-0.5985550">
        <ele>91.1</ele>
        <time>2020-12-06T08:29:05Z</time>
      </trkpt>
      <trkpt lat="38.3042620" lon="-0.5986080">
        <ele>91.1</ele>
        <time>2020-12-06T08:29:06Z</time>
      </trkpt>
      <trkpt lat="38.3042670" lon="-0.5986650">
        <ele>91.1</ele>
        <time>2020-12-06T08:29:07Z</time>
      </trkpt>
      <trkpt lat="38.3042670" lon="-0.5987220">
        <ele>91.1</ele>
        <time>2020-12-06T08:29:08Z</time>
      </trkpt>
      <trkpt lat="38.3042630" lon="-0.5987770">
        <ele>91.1</ele>
        <time>2020-12-06T08:29:09Z</time>
      </trkpt>
      <trkpt lat="38.3042520" lon="-0.5988320">
        <ele>91.1</ele>
        <time>2020-12-06T08:29:10Z</time>
      </trkpt>
      <trkpt lat="38.3042330" lon="-0.5988830">
        <ele>92.1</ele>
        <time>2020-12-06T08:29:11Z</time>
      </trkpt>
      <trkpt lat="38.3042120" lon="-0.5989320">
        <ele>92.1</ele>
        <time>2020-12-06T08:29:12Z</time>
      </trkpt>
      <trkpt lat="38.3041880" lon="-0.5989800">
        <ele>92.1</ele>
        <time>2020-12-06T08:29:13Z</time>
      </trkpt>
      <trkpt lat="38.3041600" lon="-0.5990270">
        <ele>92.1</ele>
        <time>2020-12-06T08:29:14Z</time>
      </trkpt>
      <trkpt lat="38.3041280" lon="-0.5990670">
        <ele>92.1</ele>
        <time>2020-12-06T08:29:15Z</time>
      </trkpt>
      <trkpt lat="38.3040920" lon="-0.5991050">
        <ele>92.1</ele>
        <time>2020-12-06T08:29:16Z</time>
      </trkpt>
      <trkpt lat="38.3040530" lon="-0.5991420">
        <ele>93.1</ele>
        <time>2020-12-06T08:29:17Z</time>
      </trkpt>
      <trkpt lat="38.3040130" lon="-0.5991770">
        <ele>93.1</ele>
        <time>2020-12-06T08:29:18Z</time>
      </trkpt>
      <trkpt lat="38.3039730" lon="-0.5992170">
        <ele>93.1</ele>
        <time>2020-12-06T08:29:19Z</time>
      </trkpt>
      <trkpt lat="38.3039350" lon="-0.5992620">
        <ele>93.1</ele>
        <time>2020-12-06T08:29:20Z</time>
      </trkpt>
      <trkpt lat="38.3039000" lon="-0.5993130">
        <ele>93.1</ele>
        <time>2020-12-06T08:29:21Z</time>
      </trkpt>
      <trkpt lat="38.3038730" lon="-0.5993720">
        <ele>93.1</ele>
        <time>2020-12-06T08:29:22Z</time>
      </trkpt>
      <trkpt lat="38.3038500" lon="-0.5994320">
        <ele>93.1</ele>
        <time>2020-12-06T08:29:23Z</time>
      </trkpt>
      <trkpt lat="38.3038330" lon="-0.5994970">
        <ele>93.1</ele>
        <time>2020-12-06T08:29:24Z</time>
      </trkpt>
      <trkpt lat="38.3038230" lon="-0.5995630">
        <ele>93.1</ele>
        <time>2020-12-06T08:29:25Z</time>
      </trkpt>
      <trkpt lat="38.3038170" lon="-0.5996300">
        <ele>93.1</ele>
        <time>2020-12-06T08:29:26Z</time>
      </trkpt>
      <trkpt lat="38.3038150" lon="-0.5996980">
        <ele>92.1</ele>
        <time>2020-12-06T08:29:27Z</time>
      </trkpt>
      <trkpt lat="38.3038130" lon="-0.5997650">
        <ele>92.1</ele>
        <time>2020-12-06T08:29:28Z</time>
      </trkpt>
      <trkpt lat="38.3038100" lon="-0.5998330">
        <ele>92.1</ele>
        <time>2020-12-06T08:29:29Z</time>
      </trkpt>
      <trkpt lat="38.3038070" lon="-0.5999020">
        <ele>92.1</ele>
        <time>2020-12-06T08:29:30Z</time>
      </trkpt>
      <trkpt lat="38.3038020" lon="-0.5999700">
        <ele>92.1</ele>
        <time>2020-12-06T08:29:31Z</time>
      </trkpt>
      <trkpt lat="38.3037980" lon="-0.6000380">
        <ele>92.1</ele>
        <time>2020-12-06T08:29:32Z</time>
      </trkpt>
      <trkpt lat="38.3037950" lon="-0.6001080">
        <ele>92.1</ele>
        <time>2020-12-06T08:29:33Z</time>
      </trkpt>
      <trkpt lat="38.3037920" lon="-0.6001780">
        <ele>92.1</ele>
        <time>2020-12-06T08:29:34Z</time>
      </trkpt>
      <trkpt lat="38.3037920" lon="-0.6002500">
        <ele>92.1</ele>
        <time>2020-12-06T08:29:35Z</time>
      </trkpt>
      <trkpt lat="38.3037870" lon="-0.6003200">
        <ele>92.1</ele>
        <time>2020-12-06T08:29:36Z</time>
      </trkpt>
      <trkpt lat="38.3037800" lon="-0.6003970">
        <ele>92.1</ele>
        <time>2020-12-06T08:29:37Z</time>
      </trkpt>
      <trkpt lat="38.3037780" lon="-0.6004770">
        <ele>92.1</ele>
        <time>2020-12-06T08:29:38Z</time>
      </trkpt>
      <trkpt lat="38.3037730" lon="-0.6005550">
        <ele>91.1</ele>
        <time>2020-12-06T08:29:39Z</time>
      </trkpt>
      <trkpt lat="38.3037680" lon="-0.6006300">
        <ele>91.1</ele>
        <time>2020-12-06T08:29:40Z</time>
      </trkpt>
      <trkpt lat="38.3037670" lon="-0.6007070">
        <ele>91.1</ele>
        <time>2020-12-06T08:29:41Z</time>
      </trkpt>
      <trkpt lat="38.3037650" lon="-0.6007820">
        <ele>91.1</ele>
        <time>2020-12-06T08:29:42Z</time>
      </trkpt>
      <trkpt lat="38.3037620" lon="-0.6008570">
        <ele>91.1</ele>
        <time>2020-12-06T08:29:43Z</time>
      </trkpt>
      <trkpt lat="38.3037550" lon="-0.6009320">
        <ele>91.1</ele>
        <time>2020-12-06T08:29:44Z</time>
      </trkpt>
      <trkpt lat="38.3037530" lon="-0.6010070">
        <ele>91.1</ele>
        <time>2020-12-06T08:29:45Z</time>
      </trkpt>
      <trkpt lat="38.3037500" lon="-0.6010800">
        <ele>91.1</ele>
        <time>2020-12-06T08:29:46Z</time>
      </trkpt>
      <trkpt lat="38.3037480" lon="-0.6011520">
        <ele>91.1</ele>
        <time>2020-12-06T08:29:47Z</time>
      </trkpt>
      <trkpt lat="38.3037430" lon="-0.6012220">
        <ele>91.1</ele>
        <time>2020-12-06T08:29:48Z</time>
      </trkpt>
      <trkpt lat="38.3037380" lon="-0.6012930">
        <ele>91.1</ele>
        <time>2020-12-06T08:29:49Z</time>
      </trkpt>
      <trkpt lat="38.3037350" lon="-0.6013630">
        <ele>91.1</ele>
        <time>2020-12-06T08:29:50Z</time>
      </trkpt>
      <trkpt lat="38.3037300" lon="-0.6014350">
        <ele>92.1</ele>
        <time>2020-12-06T08:29:51Z</time>
      </trkpt>
      <trkpt lat="38.3037270" lon="-0.6015050">
        <ele>92.1</ele>
        <time>2020-12-06T08:29:52Z</time>
      </trkpt>
      <trkpt lat="38.3037220" lon="-0.6015770">
        <ele>92.1</ele>
        <time>2020-12-06T08:29:53Z</time>
      </trkpt>
      <trkpt lat="38.3037180" lon="-0.6016430">
        <ele>92.1</ele>
        <time>2020-12-06T08:29:54Z</time>
      </trkpt>
      <trkpt lat="38.3037170" lon="-0.6017130">
        <ele>92.1</ele>
        <time>2020-12-06T08:29:55Z</time>
      </trkpt>
      <trkpt lat="38.3037130" lon="-0.6017830">
        <ele>92.1</ele>
        <time>2020-12-06T08:29:56Z</time>
      </trkpt>
      <trkpt lat="38.3037100" lon="-0.6018570">
        <ele>92.1</ele>
        <time>2020-12-06T08:29:57Z</time>
      </trkpt>
      <trkpt lat="38.3037080" lon="-0.6019250">
        <ele>92.1</ele>
        <time>2020-12-06T08:29:58Z</time>
      </trkpt>
      <trkpt lat="38.3037070" lon="-0.6019950">
        <ele>93.1</ele>
        <time>2020-12-06T08:29:59Z</time>
      </trkpt>
      <trkpt lat="38.3037030" lon="-0.6020670">
        <ele>93.1</ele>
        <time>2020-12-06T08:30:00Z</time>
      </trkpt>
      <trkpt lat="38.3036980" lon="-0.6021370">
        <ele>93.1</ele>
        <time>2020-12-06T08:30:01Z</time>
      </trkpt>
      <trkpt lat="38.3036930" lon="-0.6022070">
        <ele>93.1</ele>
        <time>2020-12-06T08:30:02Z</time>
      </trkpt>
      <trkpt lat="38.3036900" lon="-0.6022750">
        <ele>93.1</ele>
        <time>2020-12-06T08:30:03Z</time>
      </trkpt>
      <trkpt lat="38.3036850" lon="-0.6023450">
        <ele>93.1</ele>
        <time>2020-12-06T08:30:04Z</time>
      </trkpt>
      <trkpt lat="38.3036820" lon="-0.6024150">
        <ele>94.0</ele>
        <time>2020-12-06T08:30:05Z</time>
      </trkpt>
      <trkpt lat="38.3036780" lon="-0.6024850">
        <ele>94.0</ele>
        <time>2020-12-06T08:30:06Z</time>
      </trkpt>
      <trkpt lat="38.3036750" lon="-0.6025530">
        <ele>94.0</ele>
        <time>2020-12-06T08:30:07Z</time>
      </trkpt>
      <trkpt lat="38.3036700" lon="-0.6026230">
        <ele>94.0</ele>
        <time>2020-12-06T08:30:08Z</time>
      </trkpt>
      <trkpt lat="38.3036630" lon="-0.6026930">
        <ele>94.0</ele>
        <time>2020-12-06T08:30:09Z</time>
      </trkpt>
      <trkpt lat="38.3036580" lon="-0.6027630">
        <ele>94.0</ele>
        <time>2020-12-06T08:30:10Z</time>
      </trkpt>
      <trkpt lat="38.3036570" lon="-0.6028330">
        <ele>94.0</ele>
        <time>2020-12-06T08:30:11Z</time>
      </trkpt>
      <trkpt lat="38.3036530" lon="-0.6029050">
        <ele>94.0</ele>
        <time>2020-12-06T08:30:12Z</time>
      </trkpt>
      <trkpt lat="38.3036470" lon="-0.6029770">
        <ele>94.0</ele>
        <time>2020-12-06T08:30:13Z</time>
      </trkpt>
      <trkpt lat="38.3036420" lon="-0.6030480">
        <ele>94.0</ele>
        <time>2020-12-06T08:30:14Z</time>
      </trkpt>
      <trkpt lat="38.3036350" lon="-0.6031200">
        <ele>95.1</ele>
        <time>2020-12-06T08:30:15Z</time>
      </trkpt>
      <trkpt lat="38.3036280" lon="-0.6031920">
        <ele>95.1</ele>
        <time>2020-12-06T08:30:16Z</time>
      </trkpt>
      <trkpt lat="38.3036230" lon="-0.6032650">
        <ele>95.1</ele>
        <time>2020-12-06T08:30:17Z</time>
      </trkpt>
      <trkpt lat="38.3036150" lon="-0.6033370">
        <ele>95.1</ele>
        <time>2020-12-06T08:30:18Z</time>
      </trkpt>
      <trkpt lat="38.3036080" lon="-0.6034100">
        <ele>95.1</ele>
        <time>2020-12-06T08:30:19Z</time>
      </trkpt>
      <trkpt lat="38.3036020" lon="-0.6034820">
        <ele>95.1</ele>
        <time>2020-12-06T08:30:20Z</time>
      </trkpt>
      <trkpt lat="38.3035930" lon="-0.6035530">
        <ele>95.1</ele>
        <time>2020-12-06T08:30:21Z</time>
      </trkpt>
      <trkpt lat="38.3035850" lon="-0.6036250">
        <ele>95.1</ele>
        <time>2020-12-06T08:30:22Z</time>
      </trkpt>
      <trkpt lat="38.3035770" lon="-0.6037000">
        <ele>95.1</ele>
        <time>2020-12-06T08:30:23Z</time>
      </trkpt>
      <trkpt lat="38.3035670" lon="-0.6037780">
        <ele>95.1</ele>
        <time>2020-12-06T08:30:24Z</time>
      </trkpt>
      <trkpt lat="38.3035550" lon="-0.6038600">
        <ele>95.1</ele>
        <time>2020-12-06T08:30:25Z</time>
      </trkpt>
      <trkpt lat="38.3035450" lon="-0.6039420">
        <ele>95.1</ele>
        <time>2020-12-06T08:30:26Z</time>
      </trkpt>
      <trkpt lat="38.3035350" lon="-0.6040200">
        <ele>95.1</ele>
        <time>2020-12-06T08:30:27Z</time>
      </trkpt>
      <trkpt lat="38.3035230" lon="-0.6041000">
        <ele>95.1</ele>
        <time>2020-12-06T08:30:28Z</time>
      </trkpt>
      <trkpt lat="38.3035120" lon="-0.6041770">
        <ele>95.1</ele>
        <time>2020-12-06T08:30:29Z</time>
      </trkpt>
      <trkpt lat="38.3034980" lon="-0.6042530">
        <ele>95.1</ele>
        <time>2020-12-06T08:30:30Z</time>
      </trkpt>
      <trkpt lat="38.3034850" lon="-0.6043300">
        <ele>95.1</ele>
        <time>2020-12-06T08:30:31Z</time>
      </trkpt>
      <trkpt lat="38.3034730" lon="-0.6044050">
        <ele>95.1</ele>
        <time>2020-12-06T08:30:32Z</time>
      </trkpt>
      <trkpt lat="38.3034600" lon="-0.6044820">
        <ele>95.1</ele>
        <time>2020-12-06T08:30:33Z</time>
      </trkpt>
      <trkpt lat="38.3034470" lon="-0.6045570">
        <ele>95.1</ele>
        <time>2020-12-06T08:30:34Z</time>
      </trkpt>
      <trkpt lat="38.3034320" lon="-0.6046300">
        <ele>95.1</ele>
        <time>2020-12-06T08:30:35Z</time>
      </trkpt>
      <trkpt lat="38.3034170" lon="-0.6047050">
        <ele>95.1</ele>
        <time>2020-12-06T08:30:36Z</time>
      </trkpt>
      <trkpt lat="38.3034030" lon="-0.6047780">
        <ele>95.1</ele>
        <time>2020-12-06T08:30:37Z</time>
      </trkpt>
      <trkpt lat="38.3033900" lon="-0.6048530">
        <ele>95.1</ele>
        <time>2020-12-06T08:30:38Z</time>
      </trkpt>
      <trkpt lat="38.3033730" lon="-0.6049270">
        <ele>95.1</ele>
        <time>2020-12-06T08:30:39Z</time>
      </trkpt>
      <trkpt lat="38.3033570" lon="-0.6050000">
        <ele>95.1</ele>
        <time>2020-12-06T08:30:40Z</time>
      </trkpt>
      <trkpt lat="38.3033420" lon="-0.6050750">
        <ele>95.1</ele>
        <time>2020-12-06T08:30:41Z</time>
      </trkpt>
      <trkpt lat="38.3033250" lon="-0.6051480">
        <ele>95.1</ele>
        <time>2020-12-06T08:30:42Z</time>
      </trkpt>
      <trkpt lat="38.3033070" lon="-0.6052200">
        <ele>95.1</ele>
        <time>2020-12-06T08:30:43Z</time>
      </trkpt>
      <trkpt lat="38.3032920" lon="-0.6052930">
        <ele>95.1</ele>
        <time>2020-12-06T08:30:44Z</time>
      </trkpt>
      <trkpt lat="38.3032750" lon="-0.6053700">
        <ele>95.1</ele>
        <time>2020-12-06T08:30:45Z</time>
      </trkpt>
      <trkpt lat="38.3032550" lon="-0.6054520">
        <ele>95.1</ele>
        <time>2020-12-06T08:30:46Z</time>
      </trkpt>
      <trkpt lat="38.3032370" lon="-0.6055330">
        <ele>95.1</ele>
        <time>2020-12-06T08:30:47Z</time>
      </trkpt>
      <trkpt lat="38.3032180" lon="-0.6056130">
        <ele>95.1</ele>
        <time>2020-12-06T08:30:48Z</time>
      </trkpt>
      <trkpt lat="38.3031950" lon="-0.6056900">
        <ele>95.1</ele>
        <time>2020-12-06T08:30:49Z</time>
      </trkpt>
      <trkpt lat="38.3031730" lon="-0.6057700">
        <ele>95.1</ele>
        <time>2020-12-06T08:30:50Z</time>
      </trkpt>
      <trkpt lat="38.3031520" lon="-0.6058480">
        <ele>95.1</ele>
        <time>2020-12-06T08:30:51Z</time>
      </trkpt>
      <trkpt lat="38.3031300" lon="-0.6059270">
        <ele>95.1</ele>
        <time>2020-12-06T08:30:52Z</time>
      </trkpt>
      <trkpt lat="38.3031100" lon="-0.6060070">
        <ele>95.1</ele>
        <time>2020-12-06T08:30:53Z</time>
      </trkpt>
      <trkpt lat="38.3030880" lon="-0.6060870">
        <ele>95.1</ele>
        <time>2020-12-06T08:30:54Z</time>
      </trkpt>
      <trkpt lat="38.3030670" lon="-0.6061650">
        <ele>95.1</ele>
        <time>2020-12-06T08:30:55Z</time>
      </trkpt>
      <trkpt lat="38.3030430" lon="-0.6062450">
        <ele>95.1</ele>
        <time>2020-12-06T08:30:56Z</time>
      </trkpt>
      <trkpt lat="38.3030220" lon="-0.6063250">
        <ele>95.1</ele>
        <time>2020-12-06T08:30:57Z</time>
      </trkpt>
      <trkpt lat="38.3029980" lon="-0.6064050">
        <ele>95.1</ele>
        <time>2020-12-06T08:30:58Z</time>
      </trkpt>
      <trkpt lat="38.3029750" lon="-0.6064870">
        <ele>95.1</ele>
        <time>2020-12-06T08:30:59Z</time>
      </trkpt>
      <trkpt lat="38.3029520" lon="-0.6065680">
        <ele>95.1</ele>
        <time>2020-12-06T08:31:00Z</time>
      </trkpt>
      <trkpt lat="38.3029280" lon="-0.6066500">
        <ele>95.1</ele>
        <time>2020-12-06T08:31:01Z</time>
      </trkpt>
      <trkpt lat="38.3029030" lon="-0.6067300">
        <ele>95.1</ele>
        <time>2020-12-06T08:31:02Z</time>
      </trkpt>
      <trkpt lat="38.3028800" lon="-0.6068120">
        <ele>95.1</ele>
        <time>2020-12-06T08:31:03Z</time>
      </trkpt>
      <trkpt lat="38.3028570" lon="-0.6068920">
        <ele>95.1</ele>
        <time>2020-12-06T08:31:04Z</time>
      </trkpt>
      <trkpt lat="38.3028330" lon="-0.6069720">
        <ele>95.1</ele>
        <time>2020-12-06T08:31:05Z</time>
      </trkpt>
      <trkpt lat="38.3028100" lon="-0.6070520">
        <ele>95.1</ele>
        <time>2020-12-06T08:31:06Z</time>
      </trkpt>
      <trkpt lat="38.3027850" lon="-0.6071330">
        <ele>95.1</ele>
        <time>2020-12-06T08:31:07Z</time>
      </trkpt>
      <trkpt lat="38.3027630" lon="-0.6072130">
        <ele>95.1</ele>
        <time>2020-12-06T08:31:08Z</time>
      </trkpt>
      <trkpt lat="38.3027420" lon="-0.6072950">
        <ele>95.1</ele>
        <time>2020-12-06T08:31:09Z</time>
      </trkpt>
      <trkpt lat="38.3027200" lon="-0.6073750">
        <ele>95.1</ele>
        <time>2020-12-06T08:31:10Z</time>
      </trkpt>
      <trkpt lat="38.3026950" lon="-0.6074580">
        <ele>95.1</ele>
        <time>2020-12-06T08:31:11Z</time>
      </trkpt>
      <trkpt lat="38.3026730" lon="-0.6075430">
        <ele>95.1</ele>
        <time>2020-12-06T08:31:12Z</time>
      </trkpt>
      <trkpt lat="38.3026480" lon="-0.6076280">
        <ele>94.0</ele>
        <time>2020-12-06T08:31:13Z</time>
      </trkpt>
      <trkpt lat="38.3026220" lon="-0.6077220">
        <ele>94.0</ele>
        <time>2020-12-06T08:31:14Z</time>
      </trkpt>
      <trkpt lat="38.3025930" lon="-0.6078130">
        <ele>94.0</ele>
        <time>2020-12-06T08:31:15Z</time>
      </trkpt>
      <trkpt lat="38.3025650" lon="-0.6079000">
        <ele>94.0</ele>
        <time>2020-12-06T08:31:16Z</time>
      </trkpt>
      <trkpt lat="38.3025400" lon="-0.6079870">
        <ele>94.0</ele>
        <time>2020-12-06T08:31:17Z</time>
      </trkpt>
      <trkpt lat="38.3025150" lon="-0.6080720">
        <ele>94.0</ele>
        <time>2020-12-06T08:31:18Z</time>
      </trkpt>
      <trkpt lat="38.3024920" lon="-0.6081550">
        <ele>94.0</ele>
        <time>2020-12-06T08:31:19Z</time>
      </trkpt>
      <trkpt lat="38.3024670" lon="-0.6082380">
        <ele>94.0</ele>
        <time>2020-12-06T08:31:20Z</time>
      </trkpt>
      <trkpt lat="38.3024420" lon="-0.6083180">
        <ele>94.0</ele>
        <time>2020-12-06T08:31:21Z</time>
      </trkpt>
      <trkpt lat="38.3024170" lon="-0.6084000">
        <ele>94.0</ele>
        <time>2020-12-06T08:31:22Z</time>
      </trkpt>
      <trkpt lat="38.3023920" lon="-0.6084800">
        <ele>95.1</ele>
        <time>2020-12-06T08:31:23Z</time>
      </trkpt>
      <trkpt lat="38.3023670" lon="-0.6085600">
        <ele>95.1</ele>
        <time>2020-12-06T08:31:24Z</time>
      </trkpt>
      <trkpt lat="38.3023430" lon="-0.6086400">
        <ele>94.0</ele>
        <time>2020-12-06T08:31:25Z</time>
      </trkpt>
      <trkpt lat="38.3023180" lon="-0.6087200">
        <ele>94.0</ele>
        <time>2020-12-06T08:31:26Z</time>
      </trkpt>
      <trkpt lat="38.3022930" lon="-0.6087980">
        <ele>94.0</ele>
        <time>2020-12-06T08:31:27Z</time>
      </trkpt>
      <trkpt lat="38.3022700" lon="-0.6088780">
        <ele>94.0</ele>
        <time>2020-12-06T08:31:28Z</time>
      </trkpt>
      <trkpt lat="38.3022470" lon="-0.6089570">
        <ele>94.0</ele>
        <time>2020-12-06T08:31:29Z</time>
      </trkpt>
      <trkpt lat="38.3022230" lon="-0.6090350">
        <ele>94.0</ele>
        <time>2020-12-06T08:31:30Z</time>
      </trkpt>
      <trkpt lat="38.3022020" lon="-0.6091130">
        <ele>94.0</ele>
        <time>2020-12-06T08:31:31Z</time>
      </trkpt>
      <trkpt lat="38.3021770" lon="-0.6091900">
        <ele>94.0</ele>
        <time>2020-12-06T08:31:32Z</time>
      </trkpt>
      <trkpt lat="38.3021520" lon="-0.6092670">
        <ele>94.0</ele>
        <time>2020-12-06T08:31:33Z</time>
      </trkpt>
      <trkpt lat="38.3021270" lon="-0.6093430">
        <ele>94.0</ele>
        <time>2020-12-06T08:31:34Z</time>
      </trkpt>
      <trkpt lat="38.3021030" lon="-0.6094200">
        <ele>94.0</ele>
        <time>2020-12-06T08:31:35Z</time>
      </trkpt>
      <trkpt lat="38.3020780" lon="-0.6094970">
        <ele>94.0</ele>
        <time>2020-12-06T08:31:36Z</time>
      </trkpt>
      <trkpt lat="38.3020530" lon="-0.6095730">
        <ele>94.0</ele>
        <time>2020-12-06T08:31:37Z</time>
      </trkpt>
      <trkpt lat="38.3020300" lon="-0.6096500">
        <ele>94.0</ele>
        <time>2020-12-06T08:31:38Z</time>
      </trkpt>
      <trkpt lat="38.3020050" lon="-0.6097250">
        <ele>94.0</ele>
        <time>2020-12-06T08:31:39Z</time>
      </trkpt>
      <trkpt lat="38.3019820" lon="-0.6098020">
        <ele>94.0</ele>
        <time>2020-12-06T08:31:40Z</time>
      </trkpt>
      <trkpt lat="38.3019570" lon="-0.6098780">
        <ele>94.0</ele>
        <time>2020-12-06T08:31:41Z</time>
      </trkpt>
      <trkpt lat="38.3019330" lon="-0.6099530">
        <ele>94.0</ele>
        <time>2020-12-06T08:31:42Z</time>
      </trkpt>
      <trkpt lat="38.3019080" lon="-0.6100300">
        <ele>94.0</ele>
        <time>2020-12-06T08:31:43Z</time>
      </trkpt>
      <trkpt lat="38.3018870" lon="-0.6101080">
        <ele>94.0</ele>
        <time>2020-12-06T08:31:44Z</time>
      </trkpt>
      <trkpt lat="38.3018630" lon="-0.6101850">
        <ele>94.0</ele>
        <time>2020-12-06T08:31:45Z</time>
      </trkpt>
      <trkpt lat="38.3018400" lon="-0.6102630">
        <ele>94.0</ele>
        <time>2020-12-06T08:31:46Z</time>
      </trkpt>
      <trkpt lat="38.3018150" lon="-0.6103400">
        <ele>95.1</ele>
        <time>2020-12-06T08:31:47Z</time>
      </trkpt>
      <trkpt lat="38.3017900" lon="-0.6104200">
        <ele>95.1</ele>
        <time>2020-12-06T08:31:48Z</time>
      </trkpt>
      <trkpt lat="38.3017620" lon="-0.6105030">
        <ele>95.1</ele>
        <time>2020-12-06T08:31:49Z</time>
      </trkpt>
      <trkpt lat="38.3017300" lon="-0.6105880">
        <ele>95.1</ele>
        <time>2020-12-06T08:31:50Z</time>
      </trkpt>
      <trkpt lat="38.3016980" lon="-0.6106750">
        <ele>95.1</ele>
        <time>2020-12-06T08:31:51Z</time>
      </trkpt>
      <trkpt lat="38.3016700" lon="-0.6107620">
        <ele>95.1</ele>
        <time>2020-12-06T08:31:52Z</time>
      </trkpt>
      <trkpt lat="38.3016450" lon="-0.6108480">
        <ele>95.1</ele>
        <time>2020-12-06T08:31:53Z</time>
      </trkpt>
      <trkpt lat="38.3016180" lon="-0.6109350">
        <ele>95.1</ele>
        <time>2020-12-06T08:31:54Z</time>
      </trkpt>
      <trkpt lat="38.3015900" lon="-0.6110200">
        <ele>93.1</ele>
        <time>2020-12-06T08:31:55Z</time>
      </trkpt>
      <trkpt lat="38.3015620" lon="-0.6111030">
        <ele>93.1</ele>
        <time>2020-12-06T08:31:56Z</time>
      </trkpt>
      <trkpt lat="38.3015330" lon="-0.6111880">
        <ele>93.1</ele>
        <time>2020-12-06T08:31:57Z</time>
      </trkpt>
      <trkpt lat="38.3015050" lon="-0.6112700">
        <ele>93.1</ele>
        <time>2020-12-06T08:31:58Z</time>
      </trkpt>
      <trkpt lat="38.3014730" lon="-0.6113520">
        <ele>93.1</ele>
        <time>2020-12-06T08:31:59Z</time>
      </trkpt>
      <trkpt lat="38.3014430" lon="-0.6114330">
        <ele>93.1</ele>
        <time>2020-12-06T08:32:00Z</time>
      </trkpt>
      <trkpt lat="38.3014150" lon="-0.6115150">
        <ele>93.1</ele>
        <time>2020-12-06T08:32:01Z</time>
      </trkpt>
      <trkpt lat="38.3013850" lon="-0.6115970">
        <ele>93.1</ele>
        <time>2020-12-06T08:32:02Z</time>
      </trkpt>
      <trkpt lat="38.3013570" lon="-0.6116800">
        <ele>93.1</ele>
        <time>2020-12-06T08:32:03Z</time>
      </trkpt>
      <trkpt lat="38.3013280" lon="-0.6117620">
        <ele>93.1</ele>
        <time>2020-12-06T08:32:04Z</time>
      </trkpt>
      <trkpt lat="38.3013020" lon="-0.6118450">
        <ele>93.1</ele>
        <time>2020-12-06T08:32:05Z</time>
      </trkpt>
      <trkpt lat="38.3012730" lon="-0.6119280">
        <ele>93.1</ele>
        <time>2020-12-06T08:32:06Z</time>
      </trkpt>
      <trkpt lat="38.3012470" lon="-0.6120100">
        <ele>93.1</ele>
        <time>2020-12-06T08:32:07Z</time>
      </trkpt>
      <trkpt lat="38.3012170" lon="-0.6120920">
        <ele>93.1</ele>
        <time>2020-12-06T08:32:08Z</time>
      </trkpt>
      <trkpt lat="38.3011880" lon="-0.6121730">
        <ele>93.1</ele>
        <time>2020-12-06T08:32:09Z</time>
      </trkpt>
      <trkpt lat="38.3011600" lon="-0.6122550">
        <ele>93.1</ele>
        <time>2020-12-06T08:32:10Z</time>
      </trkpt>
      <trkpt lat="38.3011320" lon="-0.6123380">
        <ele>93.1</ele>
        <time>2020-12-06T08:32:11Z</time>
      </trkpt>
      <trkpt lat="38.3011030" lon="-0.6124180">
        <ele>93.1</ele>
        <time>2020-12-06T08:32:12Z</time>
      </trkpt>
      <trkpt lat="38.3010730" lon="-0.6125000">
        <ele>93.1</ele>
        <time>2020-12-06T08:32:13Z</time>
      </trkpt>
      <trkpt lat="38.3010430" lon="-0.6125800">
        <ele>93.1</ele>
        <time>2020-12-06T08:32:14Z</time>
      </trkpt>
      <trkpt lat="38.3010170" lon="-0.6126620">
        <ele>93.1</ele>
        <time>2020-12-06T08:32:15Z</time>
      </trkpt>
      <trkpt lat="38.3009870" lon="-0.6127470">
        <ele>93.1</ele>
        <time>2020-12-06T08:32:16Z</time>
      </trkpt>
      <trkpt lat="38.3009570" lon="-0.6128350">
        <ele>93.1</ele>
        <time>2020-12-06T08:32:17Z</time>
      </trkpt>
      <trkpt lat="38.3009250" lon="-0.6129220">
        <ele>93.1</ele>
        <time>2020-12-06T08:32:18Z</time>
      </trkpt>
      <trkpt lat="38.3008970" lon="-0.6130080">
        <ele>93.1</ele>
        <time>2020-12-06T08:32:19Z</time>
      </trkpt>
      <trkpt lat="38.3008670" lon="-0.6130930">
        <ele>93.1</ele>
        <time>2020-12-06T08:32:20Z</time>
      </trkpt>
      <trkpt lat="38.3008370" lon="-0.6131770">
        <ele>93.1</ele>
        <time>2020-12-06T08:32:21Z</time>
      </trkpt>
      <trkpt lat="38.3008050" lon="-0.6132600">
        <ele>93.1</ele>
        <time>2020-12-06T08:32:22Z</time>
      </trkpt>
      <trkpt lat="38.3007720" lon="-0.6133450">
        <ele>93.1</ele>
        <time>2020-12-06T08:32:23Z</time>
      </trkpt>
      <trkpt lat="38.3007420" lon="-0.6134300">
        <ele>93.1</ele>
        <time>2020-12-06T08:32:24Z</time>
      </trkpt>
      <trkpt lat="38.3007100" lon="-0.6135120">
        <ele>93.1</ele>
        <time>2020-12-06T08:32:25Z</time>
      </trkpt>
      <trkpt lat="38.3006750" lon="-0.6135930">
        <ele>93.1</ele>
        <time>2020-12-06T08:32:26Z</time>
      </trkpt>
      <trkpt lat="38.3006430" lon="-0.6136770">
        <ele>93.1</ele>
        <time>2020-12-06T08:32:27Z</time>
      </trkpt>
      <trkpt lat="38.3006130" lon="-0.6137600">
        <ele>93.1</ele>
        <time>2020-12-06T08:32:28Z</time>
      </trkpt>
      <trkpt lat="38.3005830" lon="-0.6138450">
        <ele>93.1</ele>
        <time>2020-12-06T08:32:29Z</time>
      </trkpt>
      <trkpt lat="38.3005570" lon="-0.6139300">
        <ele>93.1</ele>
        <time>2020-12-06T08:32:30Z</time>
      </trkpt>
      <trkpt lat="38.3005280" lon="-0.6140150">
        <ele>93.1</ele>
        <time>2020-12-06T08:32:31Z</time>
      </trkpt>
      <trkpt lat="38.3005000" lon="-0.6140980">
        <ele>93.1</ele>
        <time>2020-12-06T08:32:32Z</time>
      </trkpt>
      <trkpt lat="38.3004720" lon="-0.6141830">
        <ele>93.1</ele>
        <time>2020-12-06T08:32:33Z</time>
      </trkpt>
      <trkpt lat="38.3004420" lon="-0.6142650">
        <ele>93.1</ele>
        <time>2020-12-06T08:32:34Z</time>
      </trkpt>
      <trkpt lat="38.3004130" lon="-0.6143480">
        <ele>93.1</ele>
        <time>2020-12-06T08:32:35Z</time>
      </trkpt>
      <trkpt lat="38.3003830" lon="-0.6144320">
        <ele>93.1</ele>
        <time>2020-12-06T08:32:36Z</time>
      </trkpt>
      <trkpt lat="38.3003550" lon="-0.6145130">
        <ele>93.1</ele>
        <time>2020-12-06T08:32:37Z</time>
      </trkpt>
      <trkpt lat="38.3003250" lon="-0.6145970">
        <ele>93.1</ele>
        <time>2020-12-06T08:32:38Z</time>
      </trkpt>
      <trkpt lat="38.3002930" lon="-0.6146770">
        <ele>93.1</ele>
        <time>2020-12-06T08:32:39Z</time>
      </trkpt>
      <trkpt lat="38.3002620" lon="-0.6147580">
        <ele>93.1</ele>
        <time>2020-12-06T08:32:40Z</time>
      </trkpt>
      <trkpt lat="38.3002300" lon="-0.6148420">
        <ele>93.1</ele>
        <time>2020-12-06T08:32:41Z</time>
      </trkpt>
      <trkpt lat="38.3002020" lon="-0.6149250">
        <ele>93.1</ele>
        <time>2020-12-06T08:32:42Z</time>
      </trkpt>
      <trkpt lat="38.3001720" lon="-0.6150100">
        <ele>93.1</ele>
        <time>2020-12-06T08:32:43Z</time>
      </trkpt>
      <trkpt lat="38.3001420" lon="-0.6150930">
        <ele>93.1</ele>
        <time>2020-12-06T08:32:44Z</time>
      </trkpt>
      <trkpt lat="38.3001100" lon="-0.6151780">
        <ele>93.1</ele>
        <time>2020-12-06T08:32:45Z</time>
      </trkpt>
      <trkpt lat="38.3000800" lon="-0.6152630">
        <ele>93.1</ele>
        <time>2020-12-06T08:32:46Z</time>
      </trkpt>
      <trkpt lat="38.3000500" lon="-0.6153500">
        <ele>93.1</ele>
        <time>2020-12-06T08:32:47Z</time>
      </trkpt>
      <trkpt lat="38.3000180" lon="-0.6154370">
        <ele>93.1</ele>
        <time>2020-12-06T08:32:48Z</time>
      </trkpt>
      <trkpt lat="38.2999900" lon="-0.6155280">
        <ele>93.1</ele>
        <time>2020-12-06T08:32:49Z</time>
      </trkpt>
      <trkpt lat="38.2999720" lon="-0.6156220">
        <ele>93.1</ele>
        <time>2020-12-06T08:32:50Z</time>
      </trkpt>
      <trkpt lat="38.2999650" lon="-0.6157180">
        <ele>93.1</ele>
        <time>2020-12-06T08:32:51Z</time>
      </trkpt>
      <trkpt lat="38.2999750" lon="-0.6158120">
        <ele>93.1</ele>
        <time>2020-12-06T08:32:52Z</time>
      </trkpt>
      <trkpt lat="38.2999970" lon="-0.6159020">
        <ele>93.1</ele>
        <time>2020-12-06T08:32:53Z</time>
      </trkpt>
      <trkpt lat="38.3000180" lon="-0.6159900">
        <ele>93.1</ele>
        <time>2020-12-06T08:32:54Z</time>
      </trkpt>
      <trkpt lat="38.3000350" lon="-0.6160800">
        <ele>91.1</ele>
        <time>2020-12-06T08:32:55Z</time>
      </trkpt>
      <trkpt lat="38.3000400" lon="-0.6161700">
        <ele>91.1</ele>
        <time>2020-12-06T08:32:56Z</time>
      </trkpt>
      <trkpt lat="38.3000350" lon="-0.6162600">
        <ele>91.1</ele>
        <time>2020-12-06T08:32:57Z</time>
      </trkpt>
      <trkpt lat="38.3000170" lon="-0.6163520">
        <ele>91.1</ele>
        <time>2020-12-06T08:32:58Z</time>
      </trkpt>
      <trkpt lat="38.2999900" lon="-0.6164350">
        <ele>91.1</ele>
        <time>2020-12-06T08:32:59Z</time>
      </trkpt>
      <trkpt lat="38.2999570" lon="-0.6165120">
        <ele>91.1</ele>
        <time>2020-12-06T08:33:00Z</time>
      </trkpt>
      <trkpt lat="38.2999150" lon="-0.6165800">
        <ele>90.1</ele>
        <time>2020-12-06T08:33:01Z</time>
      </trkpt>
      <trkpt lat="38.2998630" lon="-0.6166400">
        <ele>90.1</ele>
        <time>2020-12-06T08:33:02Z</time>
      </trkpt>
      <trkpt lat="38.2998050" lon="-0.6166880">
        <ele>90.1</ele>
        <time>2020-12-06T08:33:03Z</time>
      </trkpt>
      <trkpt lat="38.2997420" lon="-0.6167280">
        <ele>90.1</ele>
        <time>2020-12-06T08:33:04Z</time>
      </trkpt>
      <trkpt lat="38.2996770" lon="-0.6167670">
        <ele>90.1</ele>
        <time>2020-12-06T08:33:05Z</time>
      </trkpt>
      <trkpt lat="38.2996150" lon="-0.6168100">
        <ele>90.1</ele>
        <time>2020-12-06T08:33:06Z</time>
      </trkpt>
      <trkpt lat="38.2995570" lon="-0.6168670">
        <ele>92.1</ele>
        <time>2020-12-06T08:33:07Z</time>
      </trkpt>
      <trkpt lat="38.2995050" lon="-0.6169330">
        <ele>92.1</ele>
        <time>2020-12-06T08:33:08Z</time>
      </trkpt>
      <trkpt lat="38.2994650" lon="-0.6170080">
        <ele>92.1</ele>
        <time>2020-12-06T08:33:09Z</time>
      </trkpt>
      <trkpt lat="38.2994330" lon="-0.6170880">
        <ele>92.1</ele>
        <time>2020-12-06T08:33:10Z</time>
      </trkpt>
      <trkpt lat="38.2994030" lon="-0.6171720">
        <ele>92.1</ele>
        <time>2020-12-06T08:33:11Z</time>
      </trkpt>
      <trkpt lat="38.2993730" lon="-0.6172550">
        <ele>92.1</ele>
        <time>2020-12-06T08:33:12Z</time>
      </trkpt>
      <trkpt lat="38.2993420" lon="-0.6173370">
        <ele>92.1</ele>
        <time>2020-12-06T08:33:13Z</time>
      </trkpt>
      <trkpt lat="38.2993120" lon="-0.6174170">
        <ele>92.1</ele>
        <time>2020-12-06T08:33:14Z</time>
      </trkpt>
      <trkpt lat="38.2992830" lon="-0.6174970">
        <ele>92.1</ele>
        <time>2020-12-06T08:33:15Z</time>
      </trkpt>
      <trkpt lat="38.2992520" lon="-0.6175730">
        <ele>92.1</ele>
        <time>2020-12-06T08:33:16Z</time>
      </trkpt>
      <trkpt lat="38.2992220" lon="-0.6176480">
        <ele>92.1</ele>
        <time>2020-12-06T08:33:17Z</time>
      </trkpt>
      <trkpt lat="38.2991930" lon="-0.6177220">
        <ele>92.1</ele>
        <time>2020-12-06T08:33:18Z</time>
      </trkpt>
      <trkpt lat="38.2991670" lon="-0.6177970">
        <ele>92.1</ele>
        <time>2020-12-06T08:33:19Z</time>
      </trkpt>
      <trkpt lat="38.2991380" lon="-0.6178700">
        <ele>92.1</ele>
        <time>2020-12-06T08:33:20Z</time>
      </trkpt>
      <trkpt lat="38.2991080" lon="-0.6179420">
        <ele>92.1</ele>
        <time>2020-12-06T08:33:21Z</time>
      </trkpt>
      <trkpt lat="38.2990830" lon="-0.6180150">
        <ele>92.1</ele>
        <time>2020-12-06T08:33:22Z</time>
      </trkpt>
      <trkpt lat="38.2990570" lon="-0.6180880">
        <ele>92.1</ele>
        <time>2020-12-06T08:33:23Z</time>
      </trkpt>
      <trkpt lat="38.2990300" lon="-0.6181630">
        <ele>92.1</ele>
        <time>2020-12-06T08:33:24Z</time>
      </trkpt>
      <trkpt lat="38.2990020" lon="-0.6182380">
        <ele>92.1</ele>
        <time>2020-12-06T08:33:25Z</time>
      </trkpt>
      <trkpt lat="38.2989750" lon="-0.6183130">
        <ele>92.1</ele>
        <time>2020-12-06T08:33:26Z</time>
      </trkpt>
      <trkpt lat="38.2989480" lon="-0.6183870">
        <ele>92.1</ele>
        <time>2020-12-06T08:33:27Z</time>
      </trkpt>
      <trkpt lat="38.2989230" lon="-0.6184620">
        <ele>92.1</ele>
        <time>2020-12-06T08:33:28Z</time>
      </trkpt>
      <trkpt lat="38.2988950" lon="-0.6185380">
        <ele>92.1</ele>
        <time>2020-12-06T08:33:29Z</time>
      </trkpt>
      <trkpt lat="38.2988670" lon="-0.6186180">
        <ele>92.1</ele>
        <time>2020-12-06T08:33:30Z</time>
      </trkpt>
      <trkpt lat="38.2988370" lon="-0.6186980">
        <ele>92.1</ele>
        <time>2020-12-06T08:33:31Z</time>
      </trkpt>
      <trkpt lat="38.2988100" lon="-0.6187770">
        <ele>92.1</ele>
        <time>2020-12-06T08:33:32Z</time>
      </trkpt>
      <trkpt lat="38.2987820" lon="-0.6188530">
        <ele>93.1</ele>
        <time>2020-12-06T08:33:33Z</time>
      </trkpt>
      <trkpt lat="38.2987530" lon="-0.6189270">
        <ele>93.1</ele>
        <time>2020-12-06T08:33:34Z</time>
      </trkpt>
      <trkpt lat="38.2987250" lon="-0.6190000">
        <ele>93.1</ele>
        <time>2020-12-06T08:33:35Z</time>
      </trkpt>
      <trkpt lat="38.2986970" lon="-0.6190720">
        <ele>93.1</ele>
        <time>2020-12-06T08:33:36Z</time>
      </trkpt>
      <trkpt lat="38.2986680" lon="-0.6191450">
        <ele>93.1</ele>
        <time>2020-12-06T08:33:37Z</time>
      </trkpt>
      <trkpt lat="38.2986400" lon="-0.6192220">
        <ele>93.1</ele>
        <time>2020-12-06T08:33:38Z</time>
      </trkpt>
      <trkpt lat="38.2986130" lon="-0.6193020">
        <ele>93.1</ele>
        <time>2020-12-06T08:33:39Z</time>
      </trkpt>
      <trkpt lat="38.2985830" lon="-0.6193850">
        <ele>93.1</ele>
        <time>2020-12-06T08:33:40Z</time>
      </trkpt>
      <trkpt lat="38.2985500" lon="-0.6194650">
        <ele>93.1</ele>
        <time>2020-12-06T08:33:41Z</time>
      </trkpt>
      <trkpt lat="38.2985220" lon="-0.6195430">
        <ele>93.1</ele>
        <time>2020-12-06T08:33:42Z</time>
      </trkpt>
      <trkpt lat="38.2984950" lon="-0.6196220">
        <ele>93.1</ele>
        <time>2020-12-06T08:33:43Z</time>
      </trkpt>
      <trkpt lat="38.2984670" lon="-0.6197000">
        <ele>93.1</ele>
        <time>2020-12-06T08:33:44Z</time>
      </trkpt>
      <trkpt lat="38.2984400" lon="-0.6197770">
        <ele>93.1</ele>
        <time>2020-12-06T08:33:45Z</time>
      </trkpt>
      <trkpt lat="38.2984120" lon="-0.6198530">
        <ele>93.1</ele>
        <time>2020-12-06T08:33:46Z</time>
      </trkpt>
      <trkpt lat="38.2983830" lon="-0.6199280">
        <ele>94.0</ele>
        <time>2020-12-06T08:33:47Z</time>
      </trkpt>
      <trkpt lat="38.2983570" lon="-0.6200020">
        <ele>94.0</ele>
        <time>2020-12-06T08:33:48Z</time>
      </trkpt>
      <trkpt lat="38.2983280" lon="-0.6200770">
        <ele>94.0</ele>
        <time>2020-12-06T08:33:49Z</time>
      </trkpt>
      <trkpt lat="38.2983020" lon="-0.6201600">
        <ele>94.0</ele>
        <time>2020-12-06T08:33:50Z</time>
      </trkpt>
      <trkpt lat="38.2982720" lon="-0.6202430">
        <ele>94.0</ele>
        <time>2020-12-06T08:33:51Z</time>
      </trkpt>
      <trkpt lat="38.2982430" lon="-0.6203250">
        <ele>94.0</ele>
        <time>2020-12-06T08:33:52Z</time>
      </trkpt>
      <trkpt lat="38.2982130" lon="-0.6204070">
        <ele>94.0</ele>
        <time>2020-12-06T08:33:53Z</time>
      </trkpt>
      <trkpt lat="38.2981850" lon="-0.6204870">
        <ele>94.0</ele>
        <time>2020-12-06T08:33:54Z</time>
      </trkpt>
      <trkpt lat="38.2981580" lon="-0.6205670">
        <ele>94.0</ele>
        <time>2020-12-06T08:33:55Z</time>
      </trkpt>
      <trkpt lat="38.2981330" lon="-0.6206450">
        <ele>94.0</ele>
        <time>2020-12-06T08:33:56Z</time>
      </trkpt>
      <trkpt lat="38.2981080" lon="-0.6207230">
        <ele>95.1</ele>
        <time>2020-12-06T08:33:57Z</time>
      </trkpt>
      <trkpt lat="38.2980820" lon="-0.6208020">
        <ele>95.1</ele>
        <time>2020-12-06T08:33:58Z</time>
      </trkpt>
      <trkpt lat="38.2980570" lon="-0.6208780">
        <ele>95.1</ele>
        <time>2020-12-06T08:33:59Z</time>
      </trkpt>
      <trkpt lat="38.2980330" lon="-0.6209580">
        <ele>95.1</ele>
        <time>2020-12-06T08:34:00Z</time>
      </trkpt>
      <trkpt lat="38.2980100" lon="-0.6210370">
        <ele>95.1</ele>
        <time>2020-12-06T08:34:01Z</time>
      </trkpt>
      <trkpt lat="38.2979880" lon="-0.6211170">
        <ele>95.1</ele>
        <time>2020-12-06T08:34:02Z</time>
      </trkpt>
      <trkpt lat="38.2979630" lon="-0.6211950">
        <ele>95.1</ele>
        <time>2020-12-06T08:34:03Z</time>
      </trkpt>
      <trkpt lat="38.2979380" lon="-0.6212750">
        <ele>95.1</ele>
        <time>2020-12-06T08:34:04Z</time>
      </trkpt>
      <trkpt lat="38.2979150" lon="-0.6213550">
        <ele>95.1</ele>
        <time>2020-12-06T08:34:05Z</time>
      </trkpt>
      <trkpt lat="38.2978900" lon="-0.6214350">
        <ele>95.1</ele>
        <time>2020-12-06T08:34:06Z</time>
      </trkpt>
      <trkpt lat="38.2978670" lon="-0.6215180">
        <ele>95.1</ele>
        <time>2020-12-06T08:34:07Z</time>
      </trkpt>
      <trkpt lat="38.2978430" lon="-0.6216000">
        <ele>95.1</ele>
        <time>2020-12-06T08:34:08Z</time>
      </trkpt>
      <trkpt lat="38.2978200" lon="-0.6216900">
        <ele>95.1</ele>
        <time>2020-12-06T08:34:09Z</time>
      </trkpt>
      <trkpt lat="38.2977980" lon="-0.6217780">
        <ele>95.1</ele>
        <time>2020-12-06T08:34:10Z</time>
      </trkpt>
      <trkpt lat="38.2977730" lon="-0.6218670">
        <ele>94.0</ele>
        <time>2020-12-06T08:34:11Z</time>
      </trkpt>
      <trkpt lat="38.2977500" lon="-0.6219570">
        <ele>94.0</ele>
        <time>2020-12-06T08:34:12Z</time>
      </trkpt>
      <trkpt lat="38.2977250" lon="-0.6220480">
        <ele>94.0</ele>
        <time>2020-12-06T08:34:13Z</time>
      </trkpt>
      <trkpt lat="38.2977030" lon="-0.6221400">
        <ele>94.0</ele>
        <time>2020-12-06T08:34:14Z</time>
      </trkpt>
      <trkpt lat="38.2976830" lon="-0.6222330">
        <ele>94.0</ele>
        <time>2020-12-06T08:34:15Z</time>
      </trkpt>
      <trkpt lat="38.2976630" lon="-0.6223270">
        <ele>94.0</ele>
        <time>2020-12-06T08:34:16Z</time>
      </trkpt>
      <trkpt lat="38.2976430" lon="-0.6224220">
        <ele>94.0</ele>
        <time>2020-12-06T08:34:17Z</time>
      </trkpt>
      <trkpt lat="38.2976250" lon="-0.6225150">
        <ele>94.0</ele>
        <time>2020-12-06T08:34:18Z</time>
      </trkpt>
      <trkpt lat="38.2976030" lon="-0.6226080">
        <ele>94.0</ele>
        <time>2020-12-06T08:34:19Z</time>
      </trkpt>
      <trkpt lat="38.2975830" lon="-0.6227000">
        <ele>94.0</ele>
        <time>2020-12-06T08:34:20Z</time>
      </trkpt>
      <trkpt lat="38.2975650" lon="-0.6227920">
        <ele>94.0</ele>
        <time>2020-12-06T08:34:21Z</time>
      </trkpt>
      <trkpt lat="38.2975450" lon="-0.6228850">
        <ele>94.0</ele>
        <time>2020-12-06T08:34:22Z</time>
      </trkpt>
      <trkpt lat="38.2975270" lon="-0.6229770">
        <ele>93.1</ele>
        <time>2020-12-06T08:34:23Z</time>
      </trkpt>
      <trkpt lat="38.2975100" lon="-0.6230680">
        <ele>93.1</ele>
        <time>2020-12-06T08:34:24Z</time>
      </trkpt>
      <trkpt lat="38.2974930" lon="-0.6231620">
        <ele>93.1</ele>
        <time>2020-12-06T08:34:25Z</time>
      </trkpt>
      <trkpt lat="38.2974770" lon="-0.6232550">
        <ele>93.1</ele>
        <time>2020-12-06T08:34:26Z</time>
      </trkpt>
      <trkpt lat="38.2974600" lon="-0.6233500">
        <ele>93.1</ele>
        <time>2020-12-06T08:34:27Z</time>
      </trkpt>
      <trkpt lat="38.2974430" lon="-0.6234430">
        <ele>93.1</ele>
        <time>2020-12-06T08:34:28Z</time>
      </trkpt>
      <trkpt lat="38.2974280" lon="-0.6235370">
        <ele>93.1</ele>
        <time>2020-12-06T08:34:29Z</time>
      </trkpt>
      <trkpt lat="38.2974150" lon="-0.6236300">
        <ele>93.1</ele>
        <time>2020-12-06T08:34:30Z</time>
      </trkpt>
      <trkpt lat="38.2974000" lon="-0.6237230">
        <ele>93.1</ele>
        <time>2020-12-06T08:34:31Z</time>
      </trkpt>
      <trkpt lat="38.2973850" lon="-0.6238170">
        <ele>93.1</ele>
        <time>2020-12-06T08:34:32Z</time>
      </trkpt>
      <trkpt lat="38.2973720" lon="-0.6239100">
        <ele>93.1</ele>
        <time>2020-12-06T08:34:33Z</time>
      </trkpt>
      <trkpt lat="38.2973620" lon="-0.6240030">
        <ele>93.1</ele>
        <time>2020-12-06T08:34:34Z</time>
      </trkpt>
      <trkpt lat="38.2973500" lon="-0.6240970">
        <ele>93.1</ele>
        <time>2020-12-06T08:34:35Z</time>
      </trkpt>
      <trkpt lat="38.2973400" lon="-0.6241900">
        <ele>93.1</ele>
        <time>2020-12-06T08:34:36Z</time>
      </trkpt>
      <trkpt lat="38.2973270" lon="-0.6242830">
        <ele>93.1</ele>
        <time>2020-12-06T08:34:37Z</time>
      </trkpt>
      <trkpt lat="38.2973130" lon="-0.6243750">
        <ele>93.1</ele>
        <time>2020-12-06T08:34:38Z</time>
      </trkpt>
      <trkpt lat="38.2973000" lon="-0.6244680">
        <ele>93.1</ele>
        <time>2020-12-06T08:34:39Z</time>
      </trkpt>
      <trkpt lat="38.2972900" lon="-0.6245620">
        <ele>93.1</ele>
        <time>2020-12-06T08:34:40Z</time>
      </trkpt>
      <trkpt lat="38.2972770" lon="-0.6246550">
        <ele>93.1</ele>
        <time>2020-12-06T08:34:41Z</time>
      </trkpt>
      <trkpt lat="38.2972620" lon="-0.6247470">
        <ele>93.1</ele>
        <time>2020-12-06T08:34:42Z</time>
      </trkpt>
      <trkpt lat="38.2972450" lon="-0.6248380">
        <ele>93.1</ele>
        <time>2020-12-06T08:34:43Z</time>
      </trkpt>
      <trkpt lat="38.2972320" lon="-0.6249320">
        <ele>93.1</ele>
        <time>2020-12-06T08:34:44Z</time>
      </trkpt>
      <trkpt lat="38.2972200" lon="-0.6250250">
        <ele>93.1</ele>
        <time>2020-12-06T08:34:45Z</time>
      </trkpt>
      <trkpt lat="38.2972070" lon="-0.6251170">
        <ele>93.1</ele>
        <time>2020-12-06T08:34:46Z</time>
      </trkpt>
      <trkpt lat="38.2971950" lon="-0.6252080">
        <ele>93.1</ele>
        <time>2020-12-06T08:34:47Z</time>
      </trkpt>
      <trkpt lat="38.2971830" lon="-0.6253000">
        <ele>93.1</ele>
        <time>2020-12-06T08:34:48Z</time>
      </trkpt>
      <trkpt lat="38.2971700" lon="-0.6253930">
        <ele>93.1</ele>
        <time>2020-12-06T08:34:49Z</time>
      </trkpt>
      <trkpt lat="38.2971600" lon="-0.6254850">
        <ele>93.1</ele>
        <time>2020-12-06T08:34:50Z</time>
      </trkpt>
      <trkpt lat="38.2971480" lon="-0.6255770">
        <ele>93.1</ele>
        <time>2020-12-06T08:34:51Z</time>
      </trkpt>
      <trkpt lat="38.2971380" lon="-0.6256680">
        <ele>93.1</ele>
        <time>2020-12-06T08:34:52Z</time>
      </trkpt>
      <trkpt lat="38.2971270" lon="-0.6257600">
        <ele>93.1</ele>
        <time>2020-12-06T08:34:53Z</time>
      </trkpt>
      <trkpt lat="38.2971150" lon="-0.6258520">
        <ele>93.1</ele>
        <time>2020-12-06T08:34:54Z</time>
      </trkpt>
      <trkpt lat="38.2971050" lon="-0.6259430">
        <ele>93.1</ele>
        <time>2020-12-06T08:34:55Z</time>
      </trkpt>
      <trkpt lat="38.2970930" lon="-0.6260330">
        <ele>93.1</ele>
        <time>2020-12-06T08:34:56Z</time>
      </trkpt>
      <trkpt lat="38.2970820" lon="-0.6261230">
        <ele>92.1</ele>
        <time>2020-12-06T08:34:57Z</time>
      </trkpt>
      <trkpt lat="38.2970700" lon="-0.6262130">
        <ele>92.1</ele>
        <time>2020-12-06T08:34:58Z</time>
      </trkpt>
      <trkpt lat="38.2970580" lon="-0.6263070">
        <ele>92.1</ele>
        <time>2020-12-06T08:34:59Z</time>
      </trkpt>
      <trkpt lat="38.2970480" lon="-0.6264020">
        <ele>92.1</ele>
        <time>2020-12-06T08:35:00Z</time>
      </trkpt>
      <trkpt lat="38.2970370" lon="-0.6264950">
        <ele>91.1</ele>
        <time>2020-12-06T08:35:01Z</time>
      </trkpt>
      <trkpt lat="38.2970250" lon="-0.6265880">
        <ele>91.1</ele>
        <time>2020-12-06T08:35:02Z</time>
      </trkpt>
      <trkpt lat="38.2970130" lon="-0.6266800">
        <ele>91.1</ele>
        <time>2020-12-06T08:35:03Z</time>
      </trkpt>
      <trkpt lat="38.2970020" lon="-0.6267700">
        <ele>91.1</ele>
        <time>2020-12-06T08:35:04Z</time>
      </trkpt>
      <trkpt lat="38.2969920" lon="-0.6268620">
        <ele>91.1</ele>
        <time>2020-12-06T08:35:05Z</time>
      </trkpt>
      <trkpt lat="38.2969800" lon="-0.6269500">
        <ele>91.1</ele>
        <time>2020-12-06T08:35:06Z</time>
      </trkpt>
      <trkpt lat="38.2969670" lon="-0.6270380">
        <ele>91.1</ele>
        <time>2020-12-06T08:35:07Z</time>
      </trkpt>
      <trkpt lat="38.2969530" lon="-0.6271270">
        <ele>91.1</ele>
        <time>2020-12-06T08:35:08Z</time>
      </trkpt>
      <trkpt lat="38.2969380" lon="-0.6272150">
        <ele>93.1</ele>
        <time>2020-12-06T08:35:09Z</time>
      </trkpt>
      <trkpt lat="38.2969230" lon="-0.6273020">
        <ele>93.1</ele>
        <time>2020-12-06T08:35:10Z</time>
      </trkpt>
      <trkpt lat="38.2969150" lon="-0.6273900">
        <ele>93.1</ele>
        <time>2020-12-06T08:35:11Z</time>
      </trkpt>
      <trkpt lat="38.2969070" lon="-0.6274780">
        <ele>93.1</ele>
        <time>2020-12-06T08:35:12Z</time>
      </trkpt>
      <trkpt lat="38.2968950" lon="-0.6275630">
        <ele>93.1</ele>
        <time>2020-12-06T08:35:13Z</time>
      </trkpt>
      <trkpt lat="38.2968870" lon="-0.6276470">
        <ele>93.1</ele>
        <time>2020-12-06T08:35:14Z</time>
      </trkpt>
      <trkpt lat="38.2968770" lon="-0.6277320">
        <ele>92.1</ele>
        <time>2020-12-06T08:35:15Z</time>
      </trkpt>
      <trkpt lat="38.2968670" lon="-0.6278150">
        <ele>92.1</ele>
        <time>2020-12-06T08:35:16Z</time>
      </trkpt>
      <trkpt lat="38.2968570" lon="-0.6279000">
        <ele>92.1</ele>
        <time>2020-12-06T08:35:17Z</time>
      </trkpt>
      <trkpt lat="38.2968470" lon="-0.6279870">
        <ele>92.1</ele>
        <time>2020-12-06T08:35:18Z</time>
      </trkpt>
      <trkpt lat="38.2968330" lon="-0.6280730">
        <ele>92.1</ele>
        <time>2020-12-06T08:35:19Z</time>
      </trkpt>
      <trkpt lat="38.2968200" lon="-0.6281580">
        <ele>92.1</ele>
        <time>2020-12-06T08:35:20Z</time>
      </trkpt>
      <trkpt lat="38.2968120" lon="-0.6282420">
        <ele>92.1</ele>
        <time>2020-12-06T08:35:21Z</time>
      </trkpt>
      <trkpt lat="38.2968030" lon="-0.6283220">
        <ele>92.1</ele>
        <time>2020-12-06T08:35:22Z</time>
      </trkpt>
      <trkpt lat="38.2967930" lon="-0.6284020">
        <ele>92.1</ele>
        <time>2020-12-06T08:35:23Z</time>
      </trkpt>
      <trkpt lat="38.2967820" lon="-0.6284780">
        <ele>92.1</ele>
        <time>2020-12-06T08:35:24Z</time>
      </trkpt>
      <trkpt lat="38.2967720" lon="-0.6285550">
        <ele>92.1</ele>
        <time>2020-12-06T08:35:25Z</time>
      </trkpt>
      <trkpt lat="38.2967630" lon="-0.6286320">
        <ele>92.1</ele>
        <time>2020-12-06T08:35:26Z</time>
      </trkpt>
      <trkpt lat="38.2967520" lon="-0.6287070">
        <ele>92.1</ele>
        <time>2020-12-06T08:35:27Z</time>
      </trkpt>
      <trkpt lat="38.2967380" lon="-0.6287800">
        <ele>92.1</ele>
        <time>2020-12-06T08:35:28Z</time>
      </trkpt>
      <trkpt lat="38.2967230" lon="-0.6288530">
        <ele>93.1</ele>
        <time>2020-12-06T08:35:29Z</time>
      </trkpt>
      <trkpt lat="38.2967130" lon="-0.6289300">
        <ele>93.1</ele>
        <time>2020-12-06T08:35:30Z</time>
      </trkpt>
      <trkpt lat="38.2967020" lon="-0.6290080">
        <ele>93.1</ele>
        <time>2020-12-06T08:35:31Z</time>
      </trkpt>
      <trkpt lat="38.2966920" lon="-0.6290880">
        <ele>93.1</ele>
        <time>2020-12-06T08:35:32Z</time>
      </trkpt>
      <trkpt lat="38.2966830" lon="-0.6291670">
        <ele>93.1</ele>
        <time>2020-12-06T08:35:33Z</time>
      </trkpt>
      <trkpt lat="38.2966770" lon="-0.6292430">
        <ele>93.1</ele>
        <time>2020-12-06T08:35:34Z</time>
      </trkpt>
      <trkpt lat="38.2966680" lon="-0.6293200">
        <ele>93.1</ele>
        <time>2020-12-06T08:35:35Z</time>
      </trkpt>
      <trkpt lat="38.2966620" lon="-0.6293950">
        <ele>93.1</ele>
        <time>2020-12-06T08:35:36Z</time>
      </trkpt>
      <trkpt lat="38.2966520" lon="-0.6294720">
        <ele>93.1</ele>
        <time>2020-12-06T08:35:37Z</time>
      </trkpt>
      <trkpt lat="38.2966430" lon="-0.6295470">
        <ele>93.1</ele>
        <time>2020-12-06T08:35:38Z</time>
      </trkpt>
      <trkpt lat="38.2966300" lon="-0.6296220">
        <ele>94.0</ele>
        <time>2020-12-06T08:35:39Z</time>
      </trkpt>
      <trkpt lat="38.2966170" lon="-0.6296980">
        <ele>94.0</ele>
        <time>2020-12-06T08:35:40Z</time>
      </trkpt>
      <trkpt lat="38.2966070" lon="-0.6297750">
        <ele>94.0</ele>
        <time>2020-12-06T08:35:41Z</time>
      </trkpt>
      <trkpt lat="38.2965980" lon="-0.6298520">
        <ele>94.0</ele>
        <time>2020-12-06T08:35:42Z</time>
      </trkpt>
      <trkpt lat="38.2965920" lon="-0.6299280">
        <ele>94.0</ele>
        <time>2020-12-06T08:35:43Z</time>
      </trkpt>
      <trkpt lat="38.2965870" lon="-0.6300070">
        <ele>94.0</ele>
        <time>2020-12-06T08:35:44Z</time>
      </trkpt>
      <trkpt lat="38.2965850" lon="-0.6300830">
        <ele>94.0</ele>
        <time>2020-12-06T08:35:45Z</time>
      </trkpt>
      <trkpt lat="38.2965900" lon="-0.6301600">
        <ele>94.0</ele>
        <time>2020-12-06T08:35:46Z</time>
      </trkpt>
      <trkpt lat="38.2966030" lon="-0.6302280">
        <ele>94.0</ele>
        <time>2020-12-06T08:35:47Z</time>
      </trkpt>
      <trkpt lat="38.2966220" lon="-0.6302970">
        <ele>94.0</ele>
        <time>2020-12-06T08:35:48Z</time>
      </trkpt>
      <trkpt lat="38.2966480" lon="-0.6303620">
        <ele>94.0</ele>
        <time>2020-12-06T08:35:49Z</time>
      </trkpt>
      <trkpt lat="38.2966800" lon="-0.6304250">
        <ele>94.0</ele>
        <time>2020-12-06T08:35:50Z</time>
      </trkpt>
      <trkpt lat="38.2967130" lon="-0.6304920">
        <ele>94.0</ele>
        <time>2020-12-06T08:35:51Z</time>
      </trkpt>
      <trkpt lat="38.2967370" lon="-0.6305630">
        <ele>94.0</ele>
        <time>2020-12-06T08:35:52Z</time>
      </trkpt>
      <trkpt lat="38.2967530" lon="-0.6306380">
        <ele>94.0</ele>
        <time>2020-12-06T08:35:53Z</time>
      </trkpt>
      <trkpt lat="38.2967630" lon="-0.6307120">
        <ele>94.0</ele>
        <time>2020-12-06T08:35:54Z</time>
      </trkpt>
      <trkpt lat="38.2967680" lon="-0.6307870">
        <ele>95.1</ele>
        <time>2020-12-06T08:35:55Z</time>
      </trkpt>
      <trkpt lat="38.2967650" lon="-0.6308630">
        <ele>95.1</ele>
        <time>2020-12-06T08:35:56Z</time>
      </trkpt>
      <trkpt lat="38.2967500" lon="-0.6309350">
        <ele>95.1</ele>
        <time>2020-12-06T08:35:57Z</time>
      </trkpt>
      <trkpt lat="38.2967270" lon="-0.6310030">
        <ele>95.1</ele>
        <time>2020-12-06T08:35:58Z</time>
      </trkpt>
      <trkpt lat="38.2966950" lon="-0.6310670">
        <ele>95.1</ele>
        <time>2020-12-06T08:35:59Z</time>
      </trkpt>
      <trkpt lat="38.2966600" lon="-0.6311270">
        <ele>95.1</ele>
        <time>2020-12-06T08:36:00Z</time>
      </trkpt>
      <trkpt lat="38.2966170" lon="-0.6311780">
        <ele>96.0</ele>
        <time>2020-12-06T08:36:01Z</time>
      </trkpt>
      <trkpt lat="38.2965700" lon="-0.6312230">
        <ele>96.0</ele>
        <time>2020-12-06T08:36:02Z</time>
      </trkpt>
      <trkpt lat="38.2965200" lon="-0.6312650">
        <ele>97.1</ele>
        <time>2020-12-06T08:36:03Z</time>
      </trkpt>
      <trkpt lat="38.2964670" lon="-0.6313030">
        <ele>97.1</ele>
        <time>2020-12-06T08:36:04Z</time>
      </trkpt>
      <trkpt lat="38.2964130" lon="-0.6313420">
        <ele>97.1</ele>
        <time>2020-12-06T08:36:05Z</time>
      </trkpt>
      <trkpt lat="38.2963600" lon="-0.6313880">
        <ele>97.1</ele>
        <time>2020-12-06T08:36:06Z</time>
      </trkpt>
      <trkpt lat="38.2963120" lon="-0.6314420">
        <ele>97.1</ele>
        <time>2020-12-06T08:36:07Z</time>
      </trkpt>
      <trkpt lat="38.2962680" lon="-0.6315030">
        <ele>97.1</ele>
        <time>2020-12-06T08:36:08Z</time>
      </trkpt>
      <trkpt lat="38.2962330" lon="-0.6315700">
        <ele>97.1</ele>
        <time>2020-12-06T08:36:09Z</time>
      </trkpt>
      <trkpt lat="38.2962050" lon="-0.6316380">
        <ele>97.1</ele>
        <time>2020-12-06T08:36:10Z</time>
      </trkpt>
      <trkpt lat="38.2961820" lon="-0.6317080">
        <ele>97.1</ele>
        <time>2020-12-06T08:36:11Z</time>
      </trkpt>
      <trkpt lat="38.2961600" lon="-0.6317780">
        <ele>97.1</ele>
        <time>2020-12-06T08:36:12Z</time>
      </trkpt>
      <trkpt lat="38.2961380" lon="-0.6318480">
        <ele>97.1</ele>
        <time>2020-12-06T08:36:13Z</time>
      </trkpt>
      <trkpt lat="38.2961180" lon="-0.6319180">
        <ele>97.1</ele>
        <time>2020-12-06T08:36:14Z</time>
      </trkpt>
      <trkpt lat="38.2960950" lon="-0.6319880">
        <ele>96.0</ele>
        <time>2020-12-06T08:36:15Z</time>
      </trkpt>
      <trkpt lat="38.2960700" lon="-0.6320620">
        <ele>96.0</ele>
        <time>2020-12-06T08:36:16Z</time>
      </trkpt>
      <trkpt lat="38.2960450" lon="-0.6321350">
        <ele>96.0</ele>
        <time>2020-12-06T08:36:17Z</time>
      </trkpt>
      <trkpt lat="38.2960230" lon="-0.6322130">
        <ele>96.0</ele>
        <time>2020-12-06T08:36:18Z</time>
      </trkpt>
      <trkpt lat="38.2960030" lon="-0.6322900">
        <ele>96.0</ele>
        <time>2020-12-06T08:36:19Z</time>
      </trkpt>
      <trkpt lat="38.2959770" lon="-0.6323650">
        <ele>96.0</ele>
        <time>2020-12-06T08:36:20Z</time>
      </trkpt>
      <trkpt lat="38.2959530" lon="-0.6324380">
        <ele>96.0</ele>
        <time>2020-12-06T08:36:21Z</time>
      </trkpt>
      <trkpt lat="38.2959280" lon="-0.6325130">
        <ele>96.0</ele>
        <time>2020-12-06T08:36:22Z</time>
      </trkpt>
      <trkpt lat="38.2959050" lon="-0.6325870">
        <ele>96.0</ele>
        <time>2020-12-06T08:36:23Z</time>
      </trkpt>
      <trkpt lat="38.2958820" lon="-0.6326600">
        <ele>96.0</ele>
        <time>2020-12-06T08:36:24Z</time>
      </trkpt>
      <trkpt lat="38.2958580" lon="-0.6327330">
        <ele>96.0</ele>
        <time>2020-12-06T08:36:25Z</time>
      </trkpt>
      <trkpt lat="38.2958370" lon="-0.6328070">
        <ele>96.0</ele>
        <time>2020-12-06T08:36:26Z</time>
      </trkpt>
      <trkpt lat="38.2958130" lon="-0.6328800">
        <ele>96.0</ele>
        <time>2020-12-06T08:36:27Z</time>
      </trkpt>
      <trkpt lat="38.2957900" lon="-0.6329530">
        <ele>96.0</ele>
        <time>2020-12-06T08:36:28Z</time>
      </trkpt>
      <trkpt lat="38.2957670" lon="-0.6330250">
        <ele>97.1</ele>
        <time>2020-12-06T08:36:29Z</time>
      </trkpt>
      <trkpt lat="38.2957430" lon="-0.6330950">
        <ele>97.1</ele>
        <time>2020-12-06T08:36:30Z</time>
      </trkpt>
      <trkpt lat="38.2957220" lon="-0.6331670">
        <ele>97.1</ele>
        <time>2020-12-06T08:36:31Z</time>
      </trkpt>
      <trkpt lat="38.2957000" lon="-0.6332370">
        <ele>97.1</ele>
        <time>2020-12-06T08:36:32Z</time>
      </trkpt>
      <trkpt lat="38.2956780" lon="-0.6333070">
        <ele>97.1</ele>
        <time>2020-12-06T08:36:33Z</time>
      </trkpt>
      <trkpt lat="38.2956550" lon="-0.6333730">
        <ele>97.1</ele>
        <time>2020-12-06T08:36:34Z</time>
      </trkpt>
      <trkpt lat="38.2956300" lon="-0.6334430">
        <ele>97.1</ele>
        <time>2020-12-06T08:36:35Z</time>
      </trkpt>
      <trkpt lat="38.2956030" lon="-0.6335120">
        <ele>97.1</ele>
        <time>2020-12-06T08:36:36Z</time>
      </trkpt>
      <trkpt lat="38.2955770" lon="-0.6335850">
        <ele>97.1</ele>
        <time>2020-12-06T08:36:37Z</time>
      </trkpt>
      <trkpt lat="38.2955500" lon="-0.6336530">
        <ele>97.1</ele>
        <time>2020-12-06T08:36:38Z</time>
      </trkpt>
      <trkpt lat="38.2955270" lon="-0.6337250">
        <ele>98.1</ele>
        <time>2020-12-06T08:36:39Z</time>
      </trkpt>
      <trkpt lat="38.2955070" lon="-0.6337970">
        <ele>98.1</ele>
        <time>2020-12-06T08:36:40Z</time>
      </trkpt>
      <trkpt lat="38.2954850" lon="-0.6338680">
        <ele>98.1</ele>
        <time>2020-12-06T08:36:41Z</time>
      </trkpt>
      <trkpt lat="38.2954630" lon="-0.6339380">
        <ele>98.1</ele>
        <time>2020-12-06T08:36:42Z</time>
      </trkpt>
      <trkpt lat="38.2954420" lon="-0.6340080">
        <ele>98.1</ele>
        <time>2020-12-06T08:36:43Z</time>
      </trkpt>
      <trkpt lat="38.2954180" lon="-0.6340780">
        <ele>98.1</ele>
        <time>2020-12-06T08:36:44Z</time>
      </trkpt>
      <trkpt lat="38.2953930" lon="-0.6341480">
        <ele>98.1</ele>
        <time>2020-12-06T08:36:45Z</time>
      </trkpt>
      <trkpt lat="38.2953700" lon="-0.6342170">
        <ele>98.1</ele>
        <time>2020-12-06T08:36:46Z</time>
      </trkpt>
      <trkpt lat="38.2953470" lon="-0.6342880">
        <ele>98.1</ele>
        <time>2020-12-06T08:36:47Z</time>
      </trkpt>
      <trkpt lat="38.2953230" lon="-0.6343580">
        <ele>98.1</ele>
        <time>2020-12-06T08:36:48Z</time>
      </trkpt>
      <trkpt lat="38.2953000" lon="-0.6344280">
        <ele>98.1</ele>
        <time>2020-12-06T08:36:49Z</time>
      </trkpt>
      <trkpt lat="38.2952750" lon="-0.6344980">
        <ele>98.1</ele>
        <time>2020-12-06T08:36:50Z</time>
      </trkpt>
      <trkpt lat="38.2952480" lon="-0.6345680">
        <ele>98.1</ele>
        <time>2020-12-06T08:36:51Z</time>
      </trkpt>
      <trkpt lat="38.2952250" lon="-0.6346380">
        <ele>98.1</ele>
        <time>2020-12-06T08:36:52Z</time>
      </trkpt>
      <trkpt lat="38.2952030" lon="-0.6347100">
        <ele>98.1</ele>
        <time>2020-12-06T08:36:53Z</time>
      </trkpt>
      <trkpt lat="38.2951780" lon="-0.6347800">
        <ele>98.1</ele>
        <time>2020-12-06T08:36:54Z</time>
      </trkpt>
      <trkpt lat="38.2951530" lon="-0.6348500">
        <ele>98.1</ele>
        <time>2020-12-06T08:36:55Z</time>
      </trkpt>
      <trkpt lat="38.2951300" lon="-0.6349180">
        <ele>98.1</ele>
        <time>2020-12-06T08:36:56Z</time>
      </trkpt>
      <trkpt lat="38.2951070" lon="-0.6349880">
        <ele>99.1</ele>
        <time>2020-12-06T08:36:57Z</time>
      </trkpt>
      <trkpt lat="38.2950800" lon="-0.6350570">
        <ele>99.1</ele>
        <time>2020-12-06T08:36:58Z</time>
      </trkpt>
      <trkpt lat="38.2950520" lon="-0.6351230">
        <ele>99.1</ele>
        <time>2020-12-06T08:36:59Z</time>
      </trkpt>
      <trkpt lat="38.2950280" lon="-0.6351950">
        <ele>99.1</ele>
        <time>2020-12-06T08:37:00Z</time>
      </trkpt>
      <trkpt lat="38.2950020" lon="-0.6352670">
        <ele>99.1</ele>
        <time>2020-12-06T08:37:01Z</time>
      </trkpt>
      <trkpt lat="38.2949770" lon="-0.6353350">
        <ele>99.1</ele>
        <time>2020-12-06T08:37:02Z</time>
      </trkpt>
      <trkpt lat="38.2949500" lon="-0.6354050">
        <ele>99.1</ele>
        <time>2020-12-06T08:37:03Z</time>
      </trkpt>
      <trkpt lat="38.2949250" lon="-0.6354750">
        <ele>99.1</ele>
        <time>2020-12-06T08:37:04Z</time>
      </trkpt>
      <trkpt lat="38.2949000" lon="-0.6355420">
        <ele>99.1</ele>
        <time>2020-12-06T08:37:05Z</time>
      </trkpt>
      <trkpt lat="38.2948720" lon="-0.6356100">
        <ele>99.1</ele>
        <time>2020-12-06T08:37:06Z</time>
      </trkpt>
      <trkpt lat="38.2948470" lon="-0.6356780">
        <ele>99.1</ele>
        <time>2020-12-06T08:37:07Z</time>
      </trkpt>
      <trkpt lat="38.2948220" lon="-0.6357480">
        <ele>99.1</ele>
        <time>2020-12-06T08:37:08Z</time>
      </trkpt>
      <trkpt lat="38.2947930" lon="-0.6358150">
        <ele>100.1</ele>
        <time>2020-12-06T08:37:09Z</time>
      </trkpt>
      <trkpt lat="38.2947630" lon="-0.6358820">
        <ele>100.1</ele>
        <time>2020-12-06T08:37:10Z</time>
      </trkpt>
      <trkpt lat="38.2947330" lon="-0.6359480">
        <ele>100.1</ele>
        <time>2020-12-06T08:37:11Z</time>
      </trkpt>
      <trkpt lat="38.2947050" lon="-0.6360180">
        <ele>100.1</ele>
        <time>2020-12-06T08:37:12Z</time>
      </trkpt>
      <trkpt lat="38.2946750" lon="-0.6360930">
        <ele>100.1</ele>
        <time>2020-12-06T08:37:13Z</time>
      </trkpt>
      <trkpt lat="38.2946450" lon="-0.6361650">
        <ele>100.1</ele>
        <time>2020-12-06T08:37:14Z</time>
      </trkpt>
      <trkpt lat="38.2946150" lon="-0.6362350">
        <ele>100.1</ele>
        <time>2020-12-06T08:37:15Z</time>
      </trkpt>
      <trkpt lat="38.2945850" lon="-0.6363030">
        <ele>100.1</ele>
        <time>2020-12-06T08:37:16Z</time>
      </trkpt>
      <trkpt lat="38.2945530" lon="-0.6363720">
        <ele>100.1</ele>
        <time>2020-12-06T08:37:17Z</time>
      </trkpt>
      <trkpt lat="38.2945220" lon="-0.6364400">
        <ele>100.1</ele>
        <time>2020-12-06T08:37:18Z</time>
      </trkpt>
      <trkpt lat="38.2944900" lon="-0.6365070">
        <ele>100.1</ele>
        <time>2020-12-06T08:37:19Z</time>
      </trkpt>
      <trkpt lat="38.2944600" lon="-0.6365750">
        <ele>100.1</ele>
        <time>2020-12-06T08:37:20Z</time>
      </trkpt>
      <trkpt lat="38.2944280" lon="-0.6366430">
        <ele>101.0</ele>
        <time>2020-12-06T08:37:21Z</time>
      </trkpt>
      <trkpt lat="38.2943970" lon="-0.6367080">
        <ele>101.0</ele>
        <time>2020-12-06T08:37:22Z</time>
      </trkpt>
      <trkpt lat="38.2943630" lon="-0.6367750">
        <ele>100.1</ele>
        <time>2020-12-06T08:37:23Z</time>
      </trkpt>
      <trkpt lat="38.2943330" lon="-0.6368420">
        <ele>100.1</ele>
        <time>2020-12-06T08:37:24Z</time>
      </trkpt>
      <trkpt lat="38.2943020" lon="-0.6369080">
        <ele>100.1</ele>
        <time>2020-12-06T08:37:25Z</time>
      </trkpt>
      <trkpt lat="38.2942680" lon="-0.6369730">
        <ele>100.1</ele>
        <time>2020-12-06T08:37:26Z</time>
      </trkpt>
      <trkpt lat="38.2942330" lon="-0.6370370">
        <ele>100.1</ele>
        <time>2020-12-06T08:37:27Z</time>
      </trkpt>
      <trkpt lat="38.2942030" lon="-0.6371020">
        <ele>100.1</ele>
        <time>2020-12-06T08:37:28Z</time>
      </trkpt>
      <trkpt lat="38.2941700" lon="-0.6371650">
        <ele>100.1</ele>
        <time>2020-12-06T08:37:29Z</time>
      </trkpt>
      <trkpt lat="38.2941350" lon="-0.6372270">
        <ele>100.1</ele>
        <time>2020-12-06T08:37:30Z</time>
      </trkpt>
      <trkpt lat="38.2940980" lon="-0.6372880">
        <ele>101.0</ele>
        <time>2020-12-06T08:37:31Z</time>
      </trkpt>
      <trkpt lat="38.2940650" lon="-0.6373520">
        <ele>101.0</ele>
        <time>2020-12-06T08:37:32Z</time>
      </trkpt>
      <trkpt lat="38.2940330" lon="-0.6374180">
        <ele>101.0</ele>
        <time>2020-12-06T08:37:33Z</time>
      </trkpt>
      <trkpt lat="38.2940020" lon="-0.6374830">
        <ele>101.0</ele>
        <time>2020-12-06T08:37:34Z</time>
      </trkpt>
      <trkpt lat="38.2939680" lon="-0.6375470">
        <ele>102.1</ele>
        <time>2020-12-06T08:37:35Z</time>
      </trkpt>
      <trkpt lat="38.2939330" lon="-0.6376080">
        <ele>102.1</ele>
        <time>2020-12-06T08:37:36Z</time>
      </trkpt>
      <trkpt lat="38.2938980" lon="-0.6376720">
        <ele>102.1</ele>
        <time>2020-12-06T08:37:37Z</time>
      </trkpt>
      <trkpt lat="38.2938630" lon="-0.6377350">
        <ele>102.1</ele>
        <time>2020-12-06T08:37:38Z</time>
      </trkpt>
      <trkpt lat="38.2938270" lon="-0.6378000">
        <ele>102.1</ele>
        <time>2020-12-06T08:37:39Z</time>
      </trkpt>
      <trkpt lat="38.2937880" lon="-0.6378680">
        <ele>102.1</ele>
        <time>2020-12-06T08:37:40Z</time>
      </trkpt>
      <trkpt lat="38.2937480" lon="-0.6379400">
        <ele>102.1</ele>
        <time>2020-12-06T08:37:41Z</time>
      </trkpt>
      <trkpt lat="38.2937050" lon="-0.6380150">
        <ele>102.1</ele>
        <time>2020-12-06T08:37:42Z</time>
      </trkpt>
      <trkpt lat="38.2936650" lon="-0.6380870">
        <ele>101.0</ele>
        <time>2020-12-06T08:37:43Z</time>
      </trkpt>
      <trkpt lat="38.2936250" lon="-0.6381580">
        <ele>101.0</ele>
        <time>2020-12-06T08:37:44Z</time>
      </trkpt>
      <trkpt lat="38.2935870" lon="-0.6382300">
        <ele>101.0</ele>
        <time>2020-12-06T08:37:45Z</time>
      </trkpt>
      <trkpt lat="38.2935470" lon="-0.6383020">
        <ele>101.0</ele>
        <time>2020-12-06T08:37:46Z</time>
      </trkpt>
      <trkpt lat="38.2935080" lon="-0.6383720">
        <ele>101.0</ele>
        <time>2020-12-06T08:37:47Z</time>
      </trkpt>
      <trkpt lat="38.2934670" lon="-0.6384420">
        <ele>101.0</ele>
        <time>2020-12-06T08:37:48Z</time>
      </trkpt>
      <trkpt lat="38.2934270" lon="-0.6385100">
        <ele>101.0</ele>
        <time>2020-12-06T08:37:49Z</time>
      </trkpt>
      <trkpt lat="38.2933870" lon="-0.6385800">
        <ele>101.0</ele>
        <time>2020-12-06T08:37:50Z</time>
      </trkpt>
      <trkpt lat="38.2933480" lon="-0.6386480">
        <ele>101.0</ele>
        <time>2020-12-06T08:37:51Z</time>
      </trkpt>
      <trkpt lat="38.2933080" lon="-0.6387170">
        <ele>101.0</ele>
        <time>2020-12-06T08:37:52Z</time>
      </trkpt>
      <trkpt lat="38.2932680" lon="-0.6387850">
        <ele>101.0</ele>
        <time>2020-12-06T08:37:53Z</time>
      </trkpt>
      <trkpt lat="38.2932300" lon="-0.6388550">
        <ele>101.0</ele>
        <time>2020-12-06T08:37:54Z</time>
      </trkpt>
      <trkpt lat="38.2931900" lon="-0.6389230">
        <ele>101.0</ele>
        <time>2020-12-06T08:37:55Z</time>
      </trkpt>
      <trkpt lat="38.2931500" lon="-0.6389920">
        <ele>101.0</ele>
        <time>2020-12-06T08:37:56Z</time>
      </trkpt>
      <trkpt lat="38.2931100" lon="-0.6390620">
        <ele>101.0</ele>
        <time>2020-12-06T08:37:57Z</time>
      </trkpt>
      <trkpt lat="38.2930700" lon="-0.6391300">
        <ele>101.0</ele>
        <time>2020-12-06T08:37:58Z</time>
      </trkpt>
      <trkpt lat="38.2930280" lon="-0.6391980">
        <ele>101.0</ele>
        <time>2020-12-06T08:37:59Z</time>
      </trkpt>
      <trkpt lat="38.2929880" lon="-0.6392670">
        <ele>101.0</ele>
        <time>2020-12-06T08:38:00Z</time>
      </trkpt>
      <trkpt lat="38.2929480" lon="-0.6393350">
        <ele>101.0</ele>
        <time>2020-12-06T08:38:01Z</time>
      </trkpt>
      <trkpt lat="38.2929080" lon="-0.6394030">
        <ele>101.0</ele>
        <time>2020-12-06T08:38:02Z</time>
      </trkpt>
      <trkpt lat="38.2928700" lon="-0.6394730">
        <ele>101.0</ele>
        <time>2020-12-06T08:38:03Z</time>
      </trkpt>
      <trkpt lat="38.2928300" lon="-0.6395420">
        <ele>101.0</ele>
        <time>2020-12-06T08:38:04Z</time>
      </trkpt>
      <trkpt lat="38.2927880" lon="-0.6396130">
        <ele>101.0</ele>
        <time>2020-12-06T08:38:05Z</time>
      </trkpt>
      <trkpt lat="38.2927450" lon="-0.6396880">
        <ele>101.0</ele>
        <time>2020-12-06T08:38:06Z</time>
      </trkpt>
      <trkpt lat="38.2927020" lon="-0.6397600">
        <ele>101.0</ele>
        <time>2020-12-06T08:38:07Z</time>
      </trkpt>
      <trkpt lat="38.2926580" lon="-0.6398320">
        <ele>101.0</ele>
        <time>2020-12-06T08:38:08Z</time>
      </trkpt>
      <trkpt lat="38.2926170" lon="-0.6399030">
        <ele>102.1</ele>
        <time>2020-12-06T08:38:09Z</time>
      </trkpt>
      <trkpt lat="38.2925730" lon="-0.6399730">
        <ele>102.1</ele>
        <time>2020-12-06T08:38:10Z</time>
      </trkpt>
      <trkpt lat="38.2925300" lon="-0.6400450">
        <ele>102.1</ele>
        <time>2020-12-06T08:38:11Z</time>
      </trkpt>
      <trkpt lat="38.2924880" lon="-0.6401170">
        <ele>102.1</ele>
        <time>2020-12-06T08:38:12Z</time>
      </trkpt>
      <trkpt lat="38.2924480" lon="-0.6401900">
        <ele>102.1</ele>
        <time>2020-12-06T08:38:13Z</time>
      </trkpt>
      <trkpt lat="38.2924070" lon="-0.6402630">
        <ele>102.1</ele>
        <time>2020-12-06T08:38:14Z</time>
      </trkpt>
      <trkpt lat="38.2923670" lon="-0.6403350">
        <ele>102.1</ele>
        <time>2020-12-06T08:38:15Z</time>
      </trkpt>
      <trkpt lat="38.2923250" lon="-0.6404070">
        <ele>102.1</ele>
        <time>2020-12-06T08:38:16Z</time>
      </trkpt>
      <trkpt lat="38.2922830" lon="-0.6404780">
        <ele>102.1</ele>
        <time>2020-12-06T08:38:17Z</time>
      </trkpt>
      <trkpt lat="38.2922420" lon="-0.6405480">
        <ele>102.1</ele>
        <time>2020-12-06T08:38:18Z</time>
      </trkpt>
      <trkpt lat="38.2922000" lon="-0.6406200">
        <ele>102.1</ele>
        <time>2020-12-06T08:38:19Z</time>
      </trkpt>
      <trkpt lat="38.2921580" lon="-0.6406920">
        <ele>102.1</ele>
        <time>2020-12-06T08:38:20Z</time>
      </trkpt>
      <trkpt lat="38.2921170" lon="-0.6407650">
        <ele>101.0</ele>
        <time>2020-12-06T08:38:21Z</time>
      </trkpt>
      <trkpt lat="38.2920730" lon="-0.6408380">
        <ele>101.0</ele>
        <time>2020-12-06T08:38:22Z</time>
      </trkpt>
      <trkpt lat="38.2920320" lon="-0.6409100">
        <ele>101.0</ele>
        <time>2020-12-06T08:38:23Z</time>
      </trkpt>
      <trkpt lat="38.2919880" lon="-0.6409830">
        <ele>101.0</ele>
        <time>2020-12-06T08:38:24Z</time>
      </trkpt>
      <trkpt lat="38.2919470" lon="-0.6410570">
        <ele>101.0</ele>
        <time>2020-12-06T08:38:25Z</time>
      </trkpt>
      <trkpt lat="38.2919030" lon="-0.6411300">
        <ele>101.0</ele>
        <time>2020-12-06T08:38:26Z</time>
      </trkpt>
      <trkpt lat="38.2918600" lon="-0.6412030">
        <ele>101.0</ele>
        <time>2020-12-06T08:38:27Z</time>
      </trkpt>
      <trkpt lat="38.2918200" lon="-0.6412770">
        <ele>101.0</ele>
        <time>2020-12-06T08:38:28Z</time>
      </trkpt>
      <trkpt lat="38.2917770" lon="-0.6413480">
        <ele>100.1</ele>
        <time>2020-12-06T08:38:29Z</time>
      </trkpt>
      <trkpt lat="38.2917350" lon="-0.6414200">
        <ele>100.1</ele>
        <time>2020-12-06T08:38:30Z</time>
      </trkpt>
      <trkpt lat="38.2916930" lon="-0.6414920">
        <ele>100.1</ele>
        <time>2020-12-06T08:38:31Z</time>
      </trkpt>
      <trkpt lat="38.2916500" lon="-0.6415630">
        <ele>100.1</ele>
        <time>2020-12-06T08:38:32Z</time>
      </trkpt>
      <trkpt lat="38.2916070" lon="-0.6416330">
        <ele>101.0</ele>
        <time>2020-12-06T08:38:33Z</time>
      </trkpt>
      <trkpt lat="38.2915670" lon="-0.6417070">
        <ele>101.0</ele>
        <time>2020-12-06T08:38:34Z</time>
      </trkpt>
      <trkpt lat="38.2915270" lon="-0.6417820">
        <ele>101.0</ele>
        <time>2020-12-06T08:38:35Z</time>
      </trkpt>
      <trkpt lat="38.2914850" lon="-0.6418570">
        <ele>101.0</ele>
        <time>2020-12-06T08:38:36Z</time>
      </trkpt>
      <trkpt lat="38.2914450" lon="-0.6419320">
        <ele>101.0</ele>
        <time>2020-12-06T08:38:37Z</time>
      </trkpt>
      <trkpt lat="38.2914020" lon="-0.6420050">
        <ele>101.0</ele>
        <time>2020-12-06T08:38:38Z</time>
      </trkpt>
      <trkpt lat="38.2913600" lon="-0.6420800">
        <ele>101.0</ele>
        <time>2020-12-06T08:38:39Z</time>
      </trkpt>
      <trkpt lat="38.2913180" lon="-0.6421530">
        <ele>101.0</ele>
        <time>2020-12-06T08:38:40Z</time>
      </trkpt>
      <trkpt lat="38.2912780" lon="-0.6422300">
        <ele>101.0</ele>
        <time>2020-12-06T08:38:41Z</time>
      </trkpt>
      <trkpt lat="38.2912400" lon="-0.6423050">
        <ele>101.0</ele>
        <time>2020-12-06T08:38:42Z</time>
      </trkpt>
      <trkpt lat="38.2912000" lon="-0.6423800">
        <ele>101.0</ele>
        <time>2020-12-06T08:38:43Z</time>
      </trkpt>
      <trkpt lat="38.2911600" lon="-0.6424550">
        <ele>101.0</ele>
        <time>2020-12-06T08:38:44Z</time>
      </trkpt>
      <trkpt lat="38.2911220" lon="-0.6425300">
        <ele>101.0</ele>
        <time>2020-12-06T08:38:45Z</time>
      </trkpt>
      <trkpt lat="38.2910820" lon="-0.6426050">
        <ele>101.0</ele>
        <time>2020-12-06T08:38:46Z</time>
      </trkpt>
      <trkpt lat="38.2910450" lon="-0.6426800">
        <ele>101.0</ele>
        <time>2020-12-06T08:38:47Z</time>
      </trkpt>
      <trkpt lat="38.2910080" lon="-0.6427570">
        <ele>101.0</ele>
        <time>2020-12-06T08:38:48Z</time>
      </trkpt>
      <trkpt lat="38.2909700" lon="-0.6428300">
        <ele>102.1</ele>
        <time>2020-12-06T08:38:49Z</time>
      </trkpt>
      <trkpt lat="38.2909300" lon="-0.6429030">
        <ele>102.1</ele>
        <time>2020-12-06T08:38:50Z</time>
      </trkpt>
      <trkpt lat="38.2908950" lon="-0.6429780">
        <ele>102.1</ele>
        <time>2020-12-06T08:38:51Z</time>
      </trkpt>
      <trkpt lat="38.2908580" lon="-0.6430550">
        <ele>102.1</ele>
        <time>2020-12-06T08:38:52Z</time>
      </trkpt>
      <trkpt lat="38.2908230" lon="-0.6431320">
        <ele>102.1</ele>
        <time>2020-12-06T08:38:53Z</time>
      </trkpt>
      <trkpt lat="38.2907870" lon="-0.6432070">
        <ele>102.1</ele>
        <time>2020-12-06T08:38:54Z</time>
      </trkpt>
      <trkpt lat="38.2907500" lon="-0.6432820">
        <ele>100.1</ele>
        <time>2020-12-06T08:38:55Z</time>
      </trkpt>
      <trkpt lat="38.2907170" lon="-0.6433600">
        <ele>100.1</ele>
        <time>2020-12-06T08:38:56Z</time>
      </trkpt>
      <trkpt lat="38.2906820" lon="-0.6434370">
        <ele>100.1</ele>
        <time>2020-12-06T08:38:57Z</time>
      </trkpt>
      <trkpt lat="38.2906470" lon="-0.6435150">
        <ele>100.1</ele>
        <time>2020-12-06T08:38:58Z</time>
      </trkpt>
      <trkpt lat="38.2906120" lon="-0.6435930">
        <ele>99.1</ele>
        <time>2020-12-06T08:38:59Z</time>
      </trkpt>
      <trkpt lat="38.2905770" lon="-0.6436700">
        <ele>99.1</ele>
        <time>2020-12-06T08:39:00Z</time>
      </trkpt>
      <trkpt lat="38.2905430" lon="-0.6437480">
        <ele>99.1</ele>
        <time>2020-12-06T08:39:01Z</time>
      </trkpt>
      <trkpt lat="38.2905100" lon="-0.6438280">
        <ele>99.1</ele>
        <time>2020-12-06T08:39:02Z</time>
      </trkpt>
      <trkpt lat="38.2904780" lon="-0.6439080">
        <ele>99.1</ele>
        <time>2020-12-06T08:39:03Z</time>
      </trkpt>
      <trkpt lat="38.2904450" lon="-0.6439880">
        <ele>99.1</ele>
        <time>2020-12-06T08:39:04Z</time>
      </trkpt>
      <trkpt lat="38.2904100" lon="-0.6440730">
        <ele>99.1</ele>
        <time>2020-12-06T08:39:05Z</time>
      </trkpt>
      <trkpt lat="38.2903750" lon="-0.6441630">
        <ele>99.1</ele>
        <time>2020-12-06T08:39:06Z</time>
      </trkpt>
      <trkpt lat="38.2903380" lon="-0.6442550">
        <ele>99.1</ele>
        <time>2020-12-06T08:39:07Z</time>
      </trkpt>
      <trkpt lat="38.2903050" lon="-0.6443450">
        <ele>99.1</ele>
        <time>2020-12-06T08:39:08Z</time>
      </trkpt>
      <trkpt lat="38.2902750" lon="-0.6444330">
        <ele>99.1</ele>
        <time>2020-12-06T08:39:09Z</time>
      </trkpt>
      <trkpt lat="38.2902430" lon="-0.6445200">
        <ele>99.1</ele>
        <time>2020-12-06T08:39:10Z</time>
      </trkpt>
      <trkpt lat="38.2902120" lon="-0.6446070">
        <ele>99.1</ele>
        <time>2020-12-06T08:39:11Z</time>
      </trkpt>
      <trkpt lat="38.2901800" lon="-0.6446900">
        <ele>99.1</ele>
        <time>2020-12-06T08:39:12Z</time>
      </trkpt>
      <trkpt lat="38.2901500" lon="-0.6447750">
        <ele>99.1</ele>
        <time>2020-12-06T08:39:13Z</time>
      </trkpt>
      <trkpt lat="38.2901200" lon="-0.6448580">
        <ele>99.1</ele>
        <time>2020-12-06T08:39:14Z</time>
      </trkpt>
      <trkpt lat="38.2900920" lon="-0.6449420">
        <ele>99.1</ele>
        <time>2020-12-06T08:39:15Z</time>
      </trkpt>
      <trkpt lat="38.2900630" lon="-0.6450250">
        <ele>99.1</ele>
        <time>2020-12-06T08:39:16Z</time>
      </trkpt>
      <trkpt lat="38.2900350" lon="-0.6451080">
        <ele>99.1</ele>
        <time>2020-12-06T08:39:17Z</time>
      </trkpt>
      <trkpt lat="38.2900080" lon="-0.6451920">
        <ele>99.1</ele>
        <time>2020-12-06T08:39:18Z</time>
      </trkpt>
      <trkpt lat="38.2899820" lon="-0.6452750">
        <ele>99.1</ele>
        <time>2020-12-06T08:39:19Z</time>
      </trkpt>
      <trkpt lat="38.2899530" lon="-0.6453580">
        <ele>99.1</ele>
        <time>2020-12-06T08:39:20Z</time>
      </trkpt>
      <trkpt lat="38.2899270" lon="-0.6454420">
        <ele>99.1</ele>
        <time>2020-12-06T08:39:21Z</time>
      </trkpt>
      <trkpt lat="38.2899000" lon="-0.6455250">
        <ele>99.1</ele>
        <time>2020-12-06T08:39:22Z</time>
      </trkpt>
      <trkpt lat="38.2898730" lon="-0.6456070">
        <ele>99.1</ele>
        <time>2020-12-06T08:39:23Z</time>
      </trkpt>
      <trkpt lat="38.2898480" lon="-0.6456880">
        <ele>99.1</ele>
        <time>2020-12-06T08:39:24Z</time>
      </trkpt>
      <trkpt lat="38.2898220" lon="-0.6457720">
        <ele>99.1</ele>
        <time>2020-12-06T08:39:25Z</time>
      </trkpt>
      <trkpt lat="38.2897980" lon="-0.6458530">
        <ele>99.1</ele>
        <time>2020-12-06T08:39:26Z</time>
      </trkpt>
      <trkpt lat="38.2897750" lon="-0.6459380">
        <ele>99.1</ele>
        <time>2020-12-06T08:39:27Z</time>
      </trkpt>
      <trkpt lat="38.2897520" lon="-0.6460220">
        <ele>99.1</ele>
        <time>2020-12-06T08:39:28Z</time>
      </trkpt>
      <trkpt lat="38.2897280" lon="-0.6461050">
        <ele>99.1</ele>
        <time>2020-12-06T08:39:29Z</time>
      </trkpt>
      <trkpt lat="38.2897070" lon="-0.6461880">
        <ele>99.1</ele>
        <time>2020-12-06T08:39:30Z</time>
      </trkpt>
      <trkpt lat="38.2896870" lon="-0.6462720">
        <ele>98.1</ele>
        <time>2020-12-06T08:39:31Z</time>
      </trkpt>
      <trkpt lat="38.2896650" lon="-0.6463570">
        <ele>98.1</ele>
        <time>2020-12-06T08:39:32Z</time>
      </trkpt>
      <trkpt lat="38.2896430" lon="-0.6464420">
        <ele>98.1</ele>
        <time>2020-12-06T08:39:33Z</time>
      </trkpt>
      <trkpt lat="38.2896230" lon="-0.6465270">
        <ele>98.1</ele>
        <time>2020-12-06T08:39:34Z</time>
      </trkpt>
      <trkpt lat="38.2896050" lon="-0.6466130">
        <ele>99.1</ele>
        <time>2020-12-06T08:39:35Z</time>
      </trkpt>
      <trkpt lat="38.2895850" lon="-0.6466980">
        <ele>99.1</ele>
        <time>2020-12-06T08:39:36Z</time>
      </trkpt>
      <trkpt lat="38.2895650" lon="-0.6467830">
        <ele>99.1</ele>
        <time>2020-12-06T08:39:37Z</time>
      </trkpt>
      <trkpt lat="38.2895450" lon="-0.6468700">
        <ele>99.1</ele>
        <time>2020-12-06T08:39:38Z</time>
      </trkpt>
      <trkpt lat="38.2895250" lon="-0.6469550">
        <ele>99.1</ele>
        <time>2020-12-06T08:39:39Z</time>
      </trkpt>
      <trkpt lat="38.2895070" lon="-0.6470400">
        <ele>99.1</ele>
        <time>2020-12-06T08:39:40Z</time>
      </trkpt>
      <trkpt lat="38.2894880" lon="-0.6471280">
        <ele>99.1</ele>
        <time>2020-12-06T08:39:41Z</time>
      </trkpt>
      <trkpt lat="38.2894680" lon="-0.6472180">
        <ele>99.1</ele>
        <time>2020-12-06T08:39:42Z</time>
      </trkpt>
      <trkpt lat="38.2894480" lon="-0.6473130">
        <ele>99.1</ele>
        <time>2020-12-06T08:39:43Z</time>
      </trkpt>
      <trkpt lat="38.2894250" lon="-0.6474120">
        <ele>99.1</ele>
        <time>2020-12-06T08:39:44Z</time>
      </trkpt>
      <trkpt lat="38.2894030" lon="-0.6475070">
        <ele>99.1</ele>
        <time>2020-12-06T08:39:45Z</time>
      </trkpt>
      <trkpt lat="38.2893830" lon="-0.6475980">
        <ele>99.1</ele>
        <time>2020-12-06T08:39:46Z</time>
      </trkpt>
      <trkpt lat="38.2893630" lon="-0.6476880">
        <ele>99.1</ele>
        <time>2020-12-06T08:39:47Z</time>
      </trkpt>
      <trkpt lat="38.2893430" lon="-0.6477780">
        <ele>99.1</ele>
        <time>2020-12-06T08:39:48Z</time>
      </trkpt>
      <trkpt lat="38.2893230" lon="-0.6478670">
        <ele>99.1</ele>
        <time>2020-12-06T08:39:49Z</time>
      </trkpt>
      <trkpt lat="38.2893020" lon="-0.6479550">
        <ele>99.1</ele>
        <time>2020-12-06T08:39:50Z</time>
      </trkpt>
      <trkpt lat="38.2892820" lon="-0.6480430">
        <ele>99.1</ele>
        <time>2020-12-06T08:39:51Z</time>
      </trkpt>
      <trkpt lat="38.2892620" lon="-0.6481300">
        <ele>99.1</ele>
        <time>2020-12-06T08:39:52Z</time>
      </trkpt>
      <trkpt lat="38.2892430" lon="-0.6482180">
        <ele>99.1</ele>
        <time>2020-12-06T08:39:53Z</time>
      </trkpt>
      <trkpt lat="38.2892230" lon="-0.6483050">
        <ele>99.1</ele>
        <time>2020-12-06T08:39:54Z</time>
      </trkpt>
      <trkpt lat="38.2892050" lon="-0.6483900">
        <ele>98.1</ele>
        <time>2020-12-06T08:39:55Z</time>
      </trkpt>
      <trkpt lat="38.2891870" lon="-0.6484750">
        <ele>98.1</ele>
        <time>2020-12-06T08:39:56Z</time>
      </trkpt>
      <trkpt lat="38.2891670" lon="-0.6485630">
        <ele>98.1</ele>
        <time>2020-12-06T08:39:57Z</time>
      </trkpt>
      <trkpt lat="38.2891520" lon="-0.6486520">
        <ele>98.1</ele>
        <time>2020-12-06T08:39:58Z</time>
      </trkpt>
      <trkpt lat="38.2891450" lon="-0.6487380">
        <ele>98.1</ele>
        <time>2020-12-06T08:39:59Z</time>
      </trkpt>
      <trkpt lat="38.2891520" lon="-0.6488230">
        <ele>98.1</ele>
        <time>2020-12-06T08:40:00Z</time>
      </trkpt>
      <trkpt lat="38.2891720" lon="-0.6489030">
        <ele>98.1</ele>
        <time>2020-12-06T08:40:01Z</time>
      </trkpt>
      <trkpt lat="38.2892000" lon="-0.6489770">
        <ele>98.1</ele>
        <time>2020-12-06T08:40:02Z</time>
      </trkpt>
      <trkpt lat="38.2892300" lon="-0.6490470">
        <ele>98.1</ele>
        <time>2020-12-06T08:40:03Z</time>
      </trkpt>
      <trkpt lat="38.2892620" lon="-0.6491150">
        <ele>98.1</ele>
        <time>2020-12-06T08:40:04Z</time>
      </trkpt>
      <trkpt lat="38.2892880" lon="-0.6491870">
        <ele>98.1</ele>
        <time>2020-12-06T08:40:05Z</time>
      </trkpt>
      <trkpt lat="38.2893050" lon="-0.6492600">
        <ele>98.1</ele>
        <time>2020-12-06T08:40:06Z</time>
      </trkpt>
      <trkpt lat="38.2893130" lon="-0.6493370">
        <ele>98.1</ele>
        <time>2020-12-06T08:40:07Z</time>
      </trkpt>
      <trkpt lat="38.2893100" lon="-0.6494150">
        <ele>98.1</ele>
        <time>2020-12-06T08:40:08Z</time>
      </trkpt>
      <trkpt lat="38.2892980" lon="-0.6494920">
        <ele>98.1</ele>
        <time>2020-12-06T08:40:09Z</time>
      </trkpt>
      <trkpt lat="38.2892830" lon="-0.6495670">
        <ele>98.1</ele>
        <time>2020-12-06T08:40:10Z</time>
      </trkpt>
      <trkpt lat="38.2892580" lon="-0.6496380">
        <ele>98.1</ele>
        <time>2020-12-06T08:40:11Z</time>
      </trkpt>
      <trkpt lat="38.2892270" lon="-0.6497030">
        <ele>98.1</ele>
        <time>2020-12-06T08:40:12Z</time>
      </trkpt>
      <trkpt lat="38.2891870" lon="-0.6497630">
        <ele>99.1</ele>
        <time>2020-12-06T08:40:13Z</time>
      </trkpt>
      <trkpt lat="38.2891400" lon="-0.6498150">
        <ele>99.1</ele>
        <time>2020-12-06T08:40:14Z</time>
      </trkpt>
      <trkpt lat="38.2890920" lon="-0.6498630">
        <ele>99.1</ele>
        <time>2020-12-06T08:40:15Z</time>
      </trkpt>
      <trkpt lat="38.2890480" lon="-0.6499180">
        <ele>99.1</ele>
        <time>2020-12-06T08:40:16Z</time>
      </trkpt>
      <trkpt lat="38.2890070" lon="-0.6499780">
        <ele>99.1</ele>
        <time>2020-12-06T08:40:17Z</time>
      </trkpt>
      <trkpt lat="38.2889720" lon="-0.6500450">
        <ele>99.1</ele>
        <time>2020-12-06T08:40:18Z</time>
      </trkpt>
      <trkpt lat="38.2889430" lon="-0.6501170">
        <ele>99.1</ele>
        <time>2020-12-06T08:40:19Z</time>
      </trkpt>
      <trkpt lat="38.2889230" lon="-0.6501930">
        <ele>99.1</ele>
        <time>2020-12-06T08:40:20Z</time>
      </trkpt>
      <trkpt lat="38.2889100" lon="-0.6502720">
        <ele>99.1</ele>
        <time>2020-12-06T08:40:21Z</time>
      </trkpt>
      <trkpt lat="38.2889050" lon="-0.6503520">
        <ele>99.1</ele>
        <time>2020-12-06T08:40:22Z</time>
      </trkpt>
      <trkpt lat="38.2889030" lon="-0.6504330">
        <ele>98.1</ele>
        <time>2020-12-06T08:40:23Z</time>
      </trkpt>
      <trkpt lat="38.2889000" lon="-0.6505150">
        <ele>98.1</ele>
        <time>2020-12-06T08:40:24Z</time>
      </trkpt>
      <trkpt lat="38.2888950" lon="-0.6505980">
        <ele>98.1</ele>
        <time>2020-12-06T08:40:25Z</time>
      </trkpt>
      <trkpt lat="38.2888880" lon="-0.6506820">
        <ele>98.1</ele>
        <time>2020-12-06T08:40:26Z</time>
      </trkpt>
      <trkpt lat="38.2888820" lon="-0.6507650">
        <ele>97.1</ele>
        <time>2020-12-06T08:40:27Z</time>
      </trkpt>
      <trkpt lat="38.2888770" lon="-0.6508450">
        <ele>97.1</ele>
        <time>2020-12-06T08:40:28Z</time>
      </trkpt>
      <trkpt lat="38.2888720" lon="-0.6509270">
        <ele>97.1</ele>
        <time>2020-12-06T08:40:29Z</time>
      </trkpt>
      <trkpt lat="38.2888650" lon="-0.6510050">
        <ele>97.1</ele>
        <time>2020-12-06T08:40:30Z</time>
      </trkpt>
      <trkpt lat="38.2888600" lon="-0.6510870">
        <ele>97.1</ele>
        <time>2020-12-06T08:40:31Z</time>
      </trkpt>
      <trkpt lat="38.2888550" lon="-0.6511700">
        <ele>97.1</ele>
        <time>2020-12-06T08:40:32Z</time>
      </trkpt>
      <trkpt lat="38.2888480" lon="-0.6512570">
        <ele>97.1</ele>
        <time>2020-12-06T08:40:33Z</time>
      </trkpt>
      <trkpt lat="38.2888420" lon="-0.6513430">
        <ele>97.1</ele>
        <time>2020-12-06T08:40:34Z</time>
      </trkpt>
      <trkpt lat="38.2888370" lon="-0.6514280">
        <ele>97.1</ele>
        <time>2020-12-06T08:40:35Z</time>
      </trkpt>
      <trkpt lat="38.2888320" lon="-0.6515130">
        <ele>97.1</ele>
        <time>2020-12-06T08:40:36Z</time>
      </trkpt>
      <trkpt lat="38.2888270" lon="-0.6516000">
        <ele>97.1</ele>
        <time>2020-12-06T08:40:37Z</time>
      </trkpt>
      <trkpt lat="38.2888200" lon="-0.6516850">
        <ele>97.1</ele>
        <time>2020-12-06T08:40:38Z</time>
      </trkpt>
      <trkpt lat="38.2888130" lon="-0.6517700">
        <ele>98.1</ele>
        <time>2020-12-06T08:40:39Z</time>
      </trkpt>
      <trkpt lat="38.2888080" lon="-0.6518550">
        <ele>98.1</ele>
        <time>2020-12-06T08:40:40Z</time>
      </trkpt>
      <trkpt lat="38.2888020" lon="-0.6519380">
        <ele>98.1</ele>
        <time>2020-12-06T08:40:41Z</time>
      </trkpt>
      <trkpt lat="38.2887950" lon="-0.6520220">
        <ele>98.1</ele>
        <time>2020-12-06T08:40:42Z</time>
      </trkpt>
      <trkpt lat="38.2887900" lon="-0.6521050">
        <ele>97.1</ele>
        <time>2020-12-06T08:40:43Z</time>
      </trkpt>
      <trkpt lat="38.2887830" lon="-0.6521900">
        <ele>97.1</ele>
        <time>2020-12-06T08:40:44Z</time>
      </trkpt>
      <trkpt lat="38.2887750" lon="-0.6522720">
        <ele>97.1</ele>
        <time>2020-12-06T08:40:45Z</time>
      </trkpt>
      <trkpt lat="38.2887700" lon="-0.6523580">
        <ele>97.1</ele>
        <time>2020-12-06T08:40:46Z</time>
      </trkpt>
      <trkpt lat="38.2887630" lon="-0.6524450">
        <ele>97.1</ele>
        <time>2020-12-06T08:40:47Z</time>
      </trkpt>
      <trkpt lat="38.2887550" lon="-0.6525350">
        <ele>97.1</ele>
        <time>2020-12-06T08:40:48Z</time>
      </trkpt>
      <trkpt lat="38.2887470" lon="-0.6526250">
        <ele>97.1</ele>
        <time>2020-12-06T08:40:49Z</time>
      </trkpt>
      <trkpt lat="38.2887420" lon="-0.6527120">
        <ele>97.1</ele>
        <time>2020-12-06T08:40:50Z</time>
      </trkpt>
      <trkpt lat="38.2887380" lon="-0.6527970">
        <ele>97.1</ele>
        <time>2020-12-06T08:40:51Z</time>
      </trkpt>
      <trkpt lat="38.2887330" lon="-0.6528820">
        <ele>97.1</ele>
        <time>2020-12-06T08:40:52Z</time>
      </trkpt>
      <trkpt lat="38.2887270" lon="-0.6529650">
        <ele>97.1</ele>
        <time>2020-12-06T08:40:53Z</time>
      </trkpt>
      <trkpt lat="38.2887180" lon="-0.6530470">
        <ele>97.1</ele>
        <time>2020-12-06T08:40:54Z</time>
      </trkpt>
      <trkpt lat="38.2887150" lon="-0.6531280">
        <ele>97.1</ele>
        <time>2020-12-06T08:40:55Z</time>
      </trkpt>
      <trkpt lat="38.2887120" lon="-0.6532080">
        <ele>97.1</ele>
        <time>2020-12-06T08:40:56Z</time>
      </trkpt>
      <trkpt lat="38.2887070" lon="-0.6532880">
        <ele>97.1</ele>
        <time>2020-12-06T08:40:57Z</time>
      </trkpt>
      <trkpt lat="38.2887020" lon="-0.6533700">
        <ele>97.1</ele>
        <time>2020-12-06T08:40:58Z</time>
      </trkpt>
      <trkpt lat="38.2886950" lon="-0.6534500">
        <ele>97.1</ele>
        <time>2020-12-06T08:40:59Z</time>
      </trkpt>
      <trkpt lat="38.2886880" lon="-0.6535300">
        <ele>97.1</ele>
        <time>2020-12-06T08:41:00Z</time>
      </trkpt>
      <trkpt lat="38.2886830" lon="-0.6536100">
        <ele>98.1</ele>
        <time>2020-12-06T08:41:01Z</time>
      </trkpt>
      <trkpt lat="38.2886780" lon="-0.6536880">
        <ele>98.1</ele>
        <time>2020-12-06T08:41:02Z</time>
      </trkpt>
      <trkpt lat="38.2886730" lon="-0.6537680">
        <ele>98.1</ele>
        <time>2020-12-06T08:41:03Z</time>
      </trkpt>
      <trkpt lat="38.2886680" lon="-0.6538480">
        <ele>98.1</ele>
        <time>2020-12-06T08:41:04Z</time>
      </trkpt>
      <trkpt lat="38.2886620" lon="-0.6539280">
        <ele>97.1</ele>
        <time>2020-12-06T08:41:05Z</time>
      </trkpt>
      <trkpt lat="38.2886570" lon="-0.6540070">
        <ele>97.1</ele>
        <time>2020-12-06T08:41:06Z</time>
      </trkpt>
      <trkpt lat="38.2886520" lon="-0.6540870">
        <ele>97.1</ele>
        <time>2020-12-06T08:41:07Z</time>
      </trkpt>
      <trkpt lat="38.2886480" lon="-0.6541670">
        <ele>97.1</ele>
        <time>2020-12-06T08:41:08Z</time>
      </trkpt>
      <trkpt lat="38.2886430" lon="-0.6542470">
        <ele>97.1</ele>
        <time>2020-12-06T08:41:09Z</time>
      </trkpt>
      <trkpt lat="38.2886350" lon="-0.6543270">
        <ele>97.1</ele>
        <time>2020-12-06T08:41:10Z</time>
      </trkpt>
      <trkpt lat="38.2886280" lon="-0.6544050">
        <ele>97.1</ele>
        <time>2020-12-06T08:41:11Z</time>
      </trkpt>
      <trkpt lat="38.2886230" lon="-0.6544820">
        <ele>97.1</ele>
        <time>2020-12-06T08:41:12Z</time>
      </trkpt>
      <trkpt lat="38.2886180" lon="-0.6545600">
        <ele>97.1</ele>
        <time>2020-12-06T08:41:13Z</time>
      </trkpt>
      <trkpt lat="38.2886130" lon="-0.6546370">
        <ele>97.1</ele>
        <time>2020-12-06T08:41:14Z</time>
      </trkpt>
      <trkpt lat="38.2886100" lon="-0.6547120">
        <ele>97.1</ele>
        <time>2020-12-06T08:41:15Z</time>
      </trkpt>
      <trkpt lat="38.2886050" lon="-0.6547870">
        <ele>97.1</ele>
        <time>2020-12-06T08:41:16Z</time>
      </trkpt>
      <trkpt lat="38.2885970" lon="-0.6548650">
        <ele>97.1</ele>
        <time>2020-12-06T08:41:17Z</time>
      </trkpt>
      <trkpt lat="38.2885880" lon="-0.6549450">
        <ele>97.1</ele>
        <time>2020-12-06T08:41:18Z</time>
      </trkpt>
      <trkpt lat="38.2885820" lon="-0.6550220">
        <ele>96.0</ele>
        <time>2020-12-06T08:41:19Z</time>
      </trkpt>
      <trkpt lat="38.2885770" lon="-0.6550980">
        <ele>96.0</ele>
        <time>2020-12-06T08:41:20Z</time>
      </trkpt>
      <trkpt lat="38.2885730" lon="-0.6551730">
        <ele>96.0</ele>
        <time>2020-12-06T08:41:21Z</time>
      </trkpt>
      <trkpt lat="38.2885700" lon="-0.6552480">
        <ele>96.0</ele>
        <time>2020-12-06T08:41:22Z</time>
      </trkpt>
      <trkpt lat="38.2885650" lon="-0.6553200">
        <ele>96.0</ele>
        <time>2020-12-06T08:41:23Z</time>
      </trkpt>
      <trkpt lat="38.2885600" lon="-0.6553920">
        <ele>96.0</ele>
        <time>2020-12-06T08:41:24Z</time>
      </trkpt>
      <trkpt lat="38.2885550" lon="-0.6554620">
        <ele>97.1</ele>
        <time>2020-12-06T08:41:25Z</time>
      </trkpt>
      <trkpt lat="38.2885500" lon="-0.6555320">
        <ele>97.1</ele>
        <time>2020-12-06T08:41:26Z</time>
      </trkpt>
      <trkpt lat="38.2885450" lon="-0.6556000">
        <ele>97.1</ele>
        <time>2020-12-06T08:41:27Z</time>
      </trkpt>
      <trkpt lat="38.2885420" lon="-0.6556720">
        <ele>97.1</ele>
        <time>2020-12-06T08:41:28Z</time>
      </trkpt>
      <trkpt lat="38.2885370" lon="-0.6557430">
        <ele>97.1</ele>
        <time>2020-12-06T08:41:29Z</time>
      </trkpt>
      <trkpt lat="38.2885320" lon="-0.6558150">
        <ele>97.1</ele>
        <time>2020-12-06T08:41:30Z</time>
      </trkpt>
      <trkpt lat="38.2885270" lon="-0.6558900">
        <ele>97.1</ele>
        <time>2020-12-06T08:41:31Z</time>
      </trkpt>
      <trkpt lat="38.2885230" lon="-0.6559670">
        <ele>97.1</ele>
        <time>2020-12-06T08:41:32Z</time>
      </trkpt>
      <trkpt lat="38.2885220" lon="-0.6560420">
        <ele>97.1</ele>
        <time>2020-12-06T08:41:33Z</time>
      </trkpt>
      <trkpt lat="38.2885170" lon="-0.6561170">
        <ele>97.1</ele>
        <time>2020-12-06T08:41:34Z</time>
      </trkpt>
      <trkpt lat="38.2885080" lon="-0.6561900">
        <ele>98.1</ele>
        <time>2020-12-06T08:41:35Z</time>
      </trkpt>
      <trkpt lat="38.2885030" lon="-0.6562630">
        <ele>98.1</ele>
        <time>2020-12-06T08:41:36Z</time>
      </trkpt>
      <trkpt lat="38.2884980" lon="-0.6563380">
        <ele>98.1</ele>
        <time>2020-12-06T08:41:37Z</time>
      </trkpt>
      <trkpt lat="38.2884930" lon="-0.6564130">
        <ele>98.1</ele>
        <time>2020-12-06T08:41:38Z</time>
      </trkpt>
      <trkpt lat="38.2884880" lon="-0.6564870">
        <ele>98.1</ele>
        <time>2020-12-06T08:41:39Z</time>
      </trkpt>
      <trkpt lat="38.2884830" lon="-0.6565620">
        <ele>98.1</ele>
        <time>2020-12-06T08:41:40Z</time>
      </trkpt>
      <trkpt lat="38.2884770" lon="-0.6566330">
        <ele>98.1</ele>
        <time>2020-12-06T08:41:41Z</time>
      </trkpt>
      <trkpt lat="38.2884730" lon="-0.6567070">
        <ele>98.1</ele>
        <time>2020-12-06T08:41:42Z</time>
      </trkpt>
      <trkpt lat="38.2884670" lon="-0.6567800">
        <ele>98.1</ele>
        <time>2020-12-06T08:41:43Z</time>
      </trkpt>
      <trkpt lat="38.2884620" lon="-0.6568530">
        <ele>98.1</ele>
        <time>2020-12-06T08:41:44Z</time>
      </trkpt>
      <trkpt lat="38.2884570" lon="-0.6569280">
        <ele>98.1</ele>
        <time>2020-12-06T08:41:45Z</time>
      </trkpt>
      <trkpt lat="38.2884500" lon="-0.6570020">
        <ele>98.1</ele>
        <time>2020-12-06T08:41:46Z</time>
      </trkpt>
      <trkpt lat="38.2884450" lon="-0.6570750">
        <ele>98.1</ele>
        <time>2020-12-06T08:41:47Z</time>
      </trkpt>
      <trkpt lat="38.2884380" lon="-0.6571480">
        <ele>98.1</ele>
        <time>2020-12-06T08:41:48Z</time>
      </trkpt>
      <trkpt lat="38.2884320" lon="-0.6572200">
        <ele>98.1</ele>
        <time>2020-12-06T08:41:49Z</time>
      </trkpt>
      <trkpt lat="38.2884270" lon="-0.6572930">
        <ele>98.1</ele>
        <time>2020-12-06T08:41:50Z</time>
      </trkpt>
      <trkpt lat="38.2884220" lon="-0.6573670">
        <ele>98.1</ele>
        <time>2020-12-06T08:41:51Z</time>
      </trkpt>
      <trkpt lat="38.2884150" lon="-0.6574450">
        <ele>98.1</ele>
        <time>2020-12-06T08:41:52Z</time>
      </trkpt>
      <trkpt lat="38.2884070" lon="-0.6575230">
        <ele>98.1</ele>
        <time>2020-12-06T08:41:53Z</time>
      </trkpt>
      <trkpt lat="38.2883930" lon="-0.6575970">
        <ele>98.1</ele>
        <time>2020-12-06T08:41:54Z</time>
      </trkpt>
      <trkpt lat="38.2883830" lon="-0.6576680">
        <ele>98.1</ele>
        <time>2020-12-06T08:41:55Z</time>
      </trkpt>
      <trkpt lat="38.2883750" lon="-0.6577420">
        <ele>98.1</ele>
        <time>2020-12-06T08:41:56Z</time>
      </trkpt>
      <trkpt lat="38.2883680" lon="-0.6578130">
        <ele>98.1</ele>
        <time>2020-12-06T08:41:57Z</time>
      </trkpt>
      <trkpt lat="38.2883580" lon="-0.6578850">
        <ele>98.1</ele>
        <time>2020-12-06T08:41:58Z</time>
      </trkpt>
      <trkpt lat="38.2883480" lon="-0.6579570">
        <ele>98.1</ele>
        <time>2020-12-06T08:41:59Z</time>
      </trkpt>
      <trkpt lat="38.2883400" lon="-0.6580270">
        <ele>98.1</ele>
        <time>2020-12-06T08:42:00Z</time>
      </trkpt>
      <trkpt lat="38.2883300" lon="-0.6580970">
        <ele>98.1</ele>
        <time>2020-12-06T08:42:01Z</time>
      </trkpt>
      <trkpt lat="38.2883200" lon="-0.6581650">
        <ele>98.1</ele>
        <time>2020-12-06T08:42:02Z</time>
      </trkpt>
      <trkpt lat="38.2883100" lon="-0.6582330">
        <ele>99.1</ele>
        <time>2020-12-06T08:42:03Z</time>
      </trkpt>
      <trkpt lat="38.2882980" lon="-0.6583020">
        <ele>99.1</ele>
        <time>2020-12-06T08:42:04Z</time>
      </trkpt>
      <trkpt lat="38.2882870" lon="-0.6583700">
        <ele>99.1</ele>
        <time>2020-12-06T08:42:05Z</time>
      </trkpt>
      <trkpt lat="38.2882730" lon="-0.6584380">
        <ele>99.1</ele>
        <time>2020-12-06T08:42:06Z</time>
      </trkpt>
      <trkpt lat="38.2882580" lon="-0.6585050">
        <ele>99.1</ele>
        <time>2020-12-06T08:42:07Z</time>
      </trkpt>
      <trkpt lat="38.2882450" lon="-0.6585730">
        <ele>99.1</ele>
        <time>2020-12-06T08:42:08Z</time>
      </trkpt>
      <trkpt lat="38.2882320" lon="-0.6586420">
        <ele>100.1</ele>
        <time>2020-12-06T08:42:09Z</time>
      </trkpt>
      <trkpt lat="38.2882170" lon="-0.6587100">
        <ele>100.1</ele>
        <time>2020-12-06T08:42:10Z</time>
      </trkpt>
      <trkpt lat="38.2882000" lon="-0.6587780">
        <ele>100.1</ele>
        <time>2020-12-06T08:42:11Z</time>
      </trkpt>
      <trkpt lat="38.2881850" lon="-0.6588470">
        <ele>100.1</ele>
        <time>2020-12-06T08:42:12Z</time>
      </trkpt>
      <trkpt lat="38.2881680" lon="-0.6589150">
        <ele>101.0</ele>
        <time>2020-12-06T08:42:13Z</time>
      </trkpt>
      <trkpt lat="38.2881530" lon="-0.6589830">
        <ele>101.0</ele>
        <time>2020-12-06T08:42:14Z</time>
      </trkpt>
      <trkpt lat="38.2881370" lon="-0.6590520">
        <ele>101.0</ele>
        <time>2020-12-06T08:42:15Z</time>
      </trkpt>
      <trkpt lat="38.2881200" lon="-0.6591220">
        <ele>101.0</ele>
        <time>2020-12-06T08:42:16Z</time>
      </trkpt>
      <trkpt lat="38.2881030" lon="-0.6591900">
        <ele>101.0</ele>
        <time>2020-12-06T08:42:17Z</time>
      </trkpt>
      <trkpt lat="38.2880870" lon="-0.6592570">
        <ele>101.0</ele>
        <time>2020-12-06T08:42:18Z</time>
      </trkpt>
      <trkpt lat="38.2880700" lon="-0.6593250">
        <ele>101.0</ele>
        <time>2020-12-06T08:42:19Z</time>
      </trkpt>
      <trkpt lat="38.2880500" lon="-0.6593930">
        <ele>101.0</ele>
        <time>2020-12-06T08:42:20Z</time>
      </trkpt>
      <trkpt lat="38.2880320" lon="-0.6594620">
        <ele>100.1</ele>
        <time>2020-12-06T08:42:21Z</time>
      </trkpt>
      <trkpt lat="38.2880130" lon="-0.6595300">
        <ele>100.1</ele>
        <time>2020-12-06T08:42:22Z</time>
      </trkpt>
      <trkpt lat="38.2879930" lon="-0.6596020">
        <ele>100.1</ele>
        <time>2020-12-06T08:42:23Z</time>
      </trkpt>
      <trkpt lat="38.2879750" lon="-0.6596750">
        <ele>100.1</ele>
        <time>2020-12-06T08:42:24Z</time>
      </trkpt>
      <trkpt lat="38.2879530" lon="-0.6597470">
        <ele>100.1</ele>
        <time>2020-12-06T08:42:25Z</time>
      </trkpt>
      <trkpt lat="38.2879350" lon="-0.6598180">
        <ele>100.1</ele>
        <time>2020-12-06T08:42:26Z</time>
      </trkpt>
      <trkpt lat="38.2879150" lon="-0.6598920">
        <ele>100.1</ele>
        <time>2020-12-06T08:42:27Z</time>
      </trkpt>
      <trkpt lat="38.2878930" lon="-0.6599620">
        <ele>100.1</ele>
        <time>2020-12-06T08:42:28Z</time>
      </trkpt>
      <trkpt lat="38.2878730" lon="-0.6600330">
        <ele>100.1</ele>
        <time>2020-12-06T08:42:29Z</time>
      </trkpt>
      <trkpt lat="38.2878520" lon="-0.6601050">
        <ele>100.1</ele>
        <time>2020-12-06T08:42:30Z</time>
      </trkpt>
      <trkpt lat="38.2878320" lon="-0.6601770">
        <ele>100.1</ele>
        <time>2020-12-06T08:42:31Z</time>
      </trkpt>
      <trkpt lat="38.2878120" lon="-0.6602470">
        <ele>100.1</ele>
        <time>2020-12-06T08:42:32Z</time>
      </trkpt>
      <trkpt lat="38.2877930" lon="-0.6603180">
        <ele>100.1</ele>
        <time>2020-12-06T08:42:33Z</time>
      </trkpt>
      <trkpt lat="38.2877750" lon="-0.6603870">
        <ele>100.1</ele>
        <time>2020-12-06T08:42:34Z</time>
      </trkpt>
      <trkpt lat="38.2877550" lon="-0.6604550">
        <ele>100.1</ele>
        <time>2020-12-06T08:42:35Z</time>
      </trkpt>
      <trkpt lat="38.2877350" lon="-0.6605230">
        <ele>100.1</ele>
        <time>2020-12-06T08:42:36Z</time>
      </trkpt>
      <trkpt lat="38.2877150" lon="-0.6605920">
        <ele>100.1</ele>
        <time>2020-12-06T08:42:37Z</time>
      </trkpt>
      <trkpt lat="38.2876950" lon="-0.6606580">
        <ele>100.1</ele>
        <time>2020-12-06T08:42:38Z</time>
      </trkpt>
      <trkpt lat="38.2876750" lon="-0.6607270">
        <ele>100.1</ele>
        <time>2020-12-06T08:42:39Z</time>
      </trkpt>
      <trkpt lat="38.2876550" lon="-0.6607950">
        <ele>100.1</ele>
        <time>2020-12-06T08:42:40Z</time>
      </trkpt>
      <trkpt lat="38.2876370" lon="-0.6608650">
        <ele>100.1</ele>
        <time>2020-12-06T08:42:41Z</time>
      </trkpt>
      <trkpt lat="38.2876170" lon="-0.6609330">
        <ele>100.1</ele>
        <time>2020-12-06T08:42:42Z</time>
      </trkpt>
      <trkpt lat="38.2875970" lon="-0.6610050">
        <ele>101.0</ele>
        <time>2020-12-06T08:42:43Z</time>
      </trkpt>
      <trkpt lat="38.2875770" lon="-0.6610750">
        <ele>101.0</ele>
        <time>2020-12-06T08:42:44Z</time>
      </trkpt>
      <trkpt lat="38.2875550" lon="-0.6611520">
        <ele>101.0</ele>
        <time>2020-12-06T08:42:45Z</time>
      </trkpt>
      <trkpt lat="38.2875320" lon="-0.6612300">
        <ele>101.0</ele>
        <time>2020-12-06T08:42:46Z</time>
      </trkpt>
      <trkpt lat="38.2875100" lon="-0.6613100">
        <ele>101.0</ele>
        <time>2020-12-06T08:42:47Z</time>
      </trkpt>
      <trkpt lat="38.2874920" lon="-0.6613870">
        <ele>101.0</ele>
        <time>2020-12-06T08:42:48Z</time>
      </trkpt>
      <trkpt lat="38.2874680" lon="-0.6614630">
        <ele>101.0</ele>
        <time>2020-12-06T08:42:49Z</time>
      </trkpt>
      <trkpt lat="38.2874480" lon="-0.6615380">
        <ele>101.0</ele>
        <time>2020-12-06T08:42:50Z</time>
      </trkpt>
      <trkpt lat="38.2874280" lon="-0.6616120">
        <ele>101.0</ele>
        <time>2020-12-06T08:42:51Z</time>
      </trkpt>
      <trkpt lat="38.2874080" lon="-0.6616850">
        <ele>101.0</ele>
        <time>2020-12-06T08:42:52Z</time>
      </trkpt>
      <trkpt lat="38.2873900" lon="-0.6617570">
        <ele>101.0</ele>
        <time>2020-12-06T08:42:53Z</time>
      </trkpt>
      <trkpt lat="38.2873720" lon="-0.6618280">
        <ele>101.0</ele>
        <time>2020-12-06T08:42:54Z</time>
      </trkpt>
      <trkpt lat="38.2873520" lon="-0.6619020">
        <ele>101.0</ele>
        <time>2020-12-06T08:42:55Z</time>
      </trkpt>
      <trkpt lat="38.2873330" lon="-0.6619750">
        <ele>101.0</ele>
        <time>2020-12-06T08:42:56Z</time>
      </trkpt>
      <trkpt lat="38.2873170" lon="-0.6620480">
        <ele>101.0</ele>
        <time>2020-12-06T08:42:57Z</time>
      </trkpt>
      <trkpt lat="38.2873000" lon="-0.6621200">
        <ele>101.0</ele>
        <time>2020-12-06T08:42:58Z</time>
      </trkpt>
      <trkpt lat="38.2872820" lon="-0.6621920">
        <ele>101.0</ele>
        <time>2020-12-06T08:42:59Z</time>
      </trkpt>
      <trkpt lat="38.2872630" lon="-0.6622630">
        <ele>101.0</ele>
        <time>2020-12-06T08:43:00Z</time>
      </trkpt>
      <trkpt lat="38.2872450" lon="-0.6623350">
        <ele>101.0</ele>
        <time>2020-12-06T08:43:01Z</time>
      </trkpt>
      <trkpt lat="38.2872250" lon="-0.6624050">
        <ele>101.0</ele>
        <time>2020-12-06T08:43:02Z</time>
      </trkpt>
      <trkpt lat="38.2872100" lon="-0.6624770">
        <ele>101.0</ele>
        <time>2020-12-06T08:43:03Z</time>
      </trkpt>
      <trkpt lat="38.2871930" lon="-0.6625480">
        <ele>101.0</ele>
        <time>2020-12-06T08:43:04Z</time>
      </trkpt>
      <trkpt lat="38.2871780" lon="-0.6626220">
        <ele>101.0</ele>
        <time>2020-12-06T08:43:05Z</time>
      </trkpt>
      <trkpt lat="38.2871620" lon="-0.6626930">
        <ele>101.0</ele>
        <time>2020-12-06T08:43:06Z</time>
      </trkpt>
      <trkpt lat="38.2871430" lon="-0.6627670">
        <ele>102.1</ele>
        <time>2020-12-06T08:43:07Z</time>
      </trkpt>
      <trkpt lat="38.2871270" lon="-0.6628380">
        <ele>102.1</ele>
        <time>2020-12-06T08:43:08Z</time>
      </trkpt>
      <trkpt lat="38.2871120" lon="-0.6629120">
        <ele>102.1</ele>
        <time>2020-12-06T08:43:09Z</time>
      </trkpt>
      <trkpt lat="38.2870950" lon="-0.6629830">
        <ele>102.1</ele>
        <time>2020-12-06T08:43:10Z</time>
      </trkpt>
      <trkpt lat="38.2870800" lon="-0.6630570">
        <ele>102.1</ele>
        <time>2020-12-06T08:43:11Z</time>
      </trkpt>
      <trkpt lat="38.2870650" lon="-0.6631300">
        <ele>102.1</ele>
        <time>2020-12-06T08:43:12Z</time>
      </trkpt>
      <trkpt lat="38.2870480" lon="-0.6632020">
        <ele>102.1</ele>
        <time>2020-12-06T08:43:13Z</time>
      </trkpt>
      <trkpt lat="38.2870330" lon="-0.6632730">
        <ele>102.1</ele>
        <time>2020-12-06T08:43:14Z</time>
      </trkpt>
      <trkpt lat="38.2870200" lon="-0.6633450">
        <ele>102.1</ele>
        <time>2020-12-06T08:43:15Z</time>
      </trkpt>
      <trkpt lat="38.2870080" lon="-0.6634170">
        <ele>102.1</ele>
        <time>2020-12-06T08:43:16Z</time>
      </trkpt>
      <trkpt lat="38.2869970" lon="-0.6634900">
        <ele>102.1</ele>
        <time>2020-12-06T08:43:17Z</time>
      </trkpt>
      <trkpt lat="38.2869830" lon="-0.6635620">
        <ele>102.1</ele>
        <time>2020-12-06T08:43:18Z</time>
      </trkpt>
      <trkpt lat="38.2869720" lon="-0.6636350">
        <ele>103.0</ele>
        <time>2020-12-06T08:43:19Z</time>
      </trkpt>
      <trkpt lat="38.2869580" lon="-0.6637080">
        <ele>103.0</ele>
        <time>2020-12-06T08:43:20Z</time>
      </trkpt>
      <trkpt lat="38.2869470" lon="-0.6637800">
        <ele>103.0</ele>
        <time>2020-12-06T08:43:21Z</time>
      </trkpt>
      <trkpt lat="38.2869330" lon="-0.6638520">
        <ele>103.0</ele>
        <time>2020-12-06T08:43:22Z</time>
      </trkpt>
      <trkpt lat="38.2869220" lon="-0.6639220">
        <ele>103.0</ele>
        <time>2020-12-06T08:43:23Z</time>
      </trkpt>
      <trkpt lat="38.2869100" lon="-0.6639880">
        <ele>103.0</ele>
        <time>2020-12-06T08:43:24Z</time>
      </trkpt>
      <trkpt lat="38.2868970" lon="-0.6640600">
        <ele>103.0</ele>
        <time>2020-12-06T08:43:25Z</time>
      </trkpt>
      <trkpt lat="38.2868820" lon="-0.6641300">
        <ele>103.0</ele>
        <time>2020-12-06T08:43:26Z</time>
      </trkpt>
      <trkpt lat="38.2868680" lon="-0.6642000">
        <ele>103.0</ele>
        <time>2020-12-06T08:43:27Z</time>
      </trkpt>
      <trkpt lat="38.2868530" lon="-0.6642700">
        <ele>103.0</ele>
        <time>2020-12-06T08:43:28Z</time>
      </trkpt>
      <trkpt lat="38.2868400" lon="-0.6643380">
        <ele>103.0</ele>
        <time>2020-12-06T08:43:29Z</time>
      </trkpt>
      <trkpt lat="38.2868270" lon="-0.6644070">
        <ele>103.0</ele>
        <time>2020-12-06T08:43:30Z</time>
      </trkpt>
      <trkpt lat="38.2868150" lon="-0.6644750">
        <ele>104.1</ele>
        <time>2020-12-06T08:43:31Z</time>
      </trkpt>
      <trkpt lat="38.2868120" lon="-0.6645450">
        <ele>104.1</ele>
        <time>2020-12-06T08:43:32Z</time>
      </trkpt>
      <trkpt lat="38.2868150" lon="-0.6646130">
        <ele>104.1</ele>
        <time>2020-12-06T08:43:33Z</time>
      </trkpt>
      <trkpt lat="38.2868280" lon="-0.6646820">
        <ele>104.1</ele>
        <time>2020-12-06T08:43:34Z</time>
      </trkpt>
      <trkpt lat="38.2868480" lon="-0.6647450">
        <ele>104.1</ele>
        <time>2020-12-06T08:43:35Z</time>
      </trkpt>
      <trkpt lat="38.2868780" lon="-0.6648030">
        <ele>104.1</ele>
        <time>2020-12-06T08:43:36Z</time>
      </trkpt>
      <trkpt lat="38.2869080" lon="-0.6648580">
        <ele>105.0</ele>
        <time>2020-12-06T08:43:37Z</time>
      </trkpt>
      <trkpt lat="38.2869380" lon="-0.6649170">
        <ele>105.0</ele>
        <time>2020-12-06T08:43:38Z</time>
      </trkpt>
      <trkpt lat="38.2869670" lon="-0.6649830">
        <ele>106.1</ele>
        <time>2020-12-06T08:43:39Z</time>
      </trkpt>
      <trkpt lat="38.2869930" lon="-0.6650500">
        <ele>106.1</ele>
        <time>2020-12-06T08:43:40Z</time>
      </trkpt>
      <trkpt lat="38.2870130" lon="-0.6651180">
        <ele>106.1</ele>
        <time>2020-12-06T08:43:41Z</time>
      </trkpt>
      <trkpt lat="38.2870300" lon="-0.6651880">
        <ele>106.1</ele>
        <time>2020-12-06T08:43:42Z</time>
      </trkpt>
      <trkpt lat="38.2870430" lon="-0.6652600">
        <ele>106.1</ele>
        <time>2020-12-06T08:43:43Z</time>
      </trkpt>
      <trkpt lat="38.2870520" lon="-0.6653330">
        <ele>106.1</ele>
        <time>2020-12-06T08:43:44Z</time>
      </trkpt>
      <trkpt lat="38.2870550" lon="-0.6654050">
        <ele>106.1</ele>
        <time>2020-12-06T08:43:45Z</time>
      </trkpt>
      <trkpt lat="38.2870500" lon="-0.6654780">
        <ele>106.1</ele>
        <time>2020-12-06T08:43:46Z</time>
      </trkpt>
      <trkpt lat="38.2870370" lon="-0.6655480">
        <ele>106.1</ele>
        <time>2020-12-06T08:43:47Z</time>
      </trkpt>
      <trkpt lat="38.2870180" lon="-0.6656170">
        <ele>106.1</ele>
        <time>2020-12-06T08:43:48Z</time>
      </trkpt>
      <trkpt lat="38.2869930" lon="-0.6656850">
        <ele>106.1</ele>
        <time>2020-12-06T08:43:49Z</time>
      </trkpt>
      <trkpt lat="38.2869580" lon="-0.6657520">
        <ele>106.1</ele>
        <time>2020-12-06T08:43:50Z</time>
      </trkpt>
      <trkpt lat="38.2869170" lon="-0.6658130">
        <ele>106.1</ele>
        <time>2020-12-06T08:43:51Z</time>
      </trkpt>
      <trkpt lat="38.2868700" lon="-0.6658720">
        <ele>106.1</ele>
        <time>2020-12-06T08:43:52Z</time>
      </trkpt>
      <trkpt lat="38.2868180" lon="-0.6659220">
        <ele>106.1</ele>
        <time>2020-12-06T08:43:53Z</time>
      </trkpt>
      <trkpt lat="38.2867650" lon="-0.6659680">
        <ele>106.1</ele>
        <time>2020-12-06T08:43:54Z</time>
      </trkpt>
      <trkpt lat="38.2867080" lon="-0.6660130">
        <ele>106.1</ele>
        <time>2020-12-06T08:43:55Z</time>
      </trkpt>
      <trkpt lat="38.2866500" lon="-0.6660620">
        <ele>106.1</ele>
        <time>2020-12-06T08:43:56Z</time>
      </trkpt>
      <trkpt lat="38.2865970" lon="-0.6661170">
        <ele>106.1</ele>
        <time>2020-12-06T08:43:57Z</time>
      </trkpt>
      <trkpt lat="38.2865500" lon="-0.6661800">
        <ele>106.1</ele>
        <time>2020-12-06T08:43:58Z</time>
      </trkpt>
      <trkpt lat="38.2865100" lon="-0.6662550">
        <ele>106.1</ele>
        <time>2020-12-06T08:43:59Z</time>
      </trkpt>
      <trkpt lat="38.2864800" lon="-0.6663370">
        <ele>106.1</ele>
        <time>2020-12-06T08:44:00Z</time>
      </trkpt>
      <trkpt lat="38.2864620" lon="-0.6664200">
        <ele>106.1</ele>
        <time>2020-12-06T08:44:01Z</time>
      </trkpt>
      <trkpt lat="38.2864450" lon="-0.6665050">
        <ele>106.1</ele>
        <time>2020-12-06T08:44:02Z</time>
      </trkpt>
      <trkpt lat="38.2864300" lon="-0.6665900">
        <ele>105.0</ele>
        <time>2020-12-06T08:44:03Z</time>
      </trkpt>
      <trkpt lat="38.2864150" lon="-0.6666750">
        <ele>105.0</ele>
        <time>2020-12-06T08:44:04Z</time>
      </trkpt>
      <trkpt lat="38.2864020" lon="-0.6667600">
        <ele>105.0</ele>
        <time>2020-12-06T08:44:05Z</time>
      </trkpt>
      <trkpt lat="38.2863850" lon="-0.6668450">
        <ele>105.0</ele>
        <time>2020-12-06T08:44:06Z</time>
      </trkpt>
      <trkpt lat="38.2863700" lon="-0.6669300">
        <ele>104.1</ele>
        <time>2020-12-06T08:44:07Z</time>
      </trkpt>
      <trkpt lat="38.2863550" lon="-0.6670170">
        <ele>104.1</ele>
        <time>2020-12-06T08:44:08Z</time>
      </trkpt>
      <trkpt lat="38.2863420" lon="-0.6671030">
        <ele>104.1</ele>
        <time>2020-12-06T08:44:09Z</time>
      </trkpt>
      <trkpt lat="38.2863280" lon="-0.6671900">
        <ele>104.1</ele>
        <time>2020-12-06T08:44:10Z</time>
      </trkpt>
      <trkpt lat="38.2863130" lon="-0.6672770">
        <ele>104.1</ele>
        <time>2020-12-06T08:44:11Z</time>
      </trkpt>
      <trkpt lat="38.2863000" lon="-0.6673630">
        <ele>104.1</ele>
        <time>2020-12-06T08:44:12Z</time>
      </trkpt>
      <trkpt lat="38.2862850" lon="-0.6674500">
        <ele>104.1</ele>
        <time>2020-12-06T08:44:13Z</time>
      </trkpt>
      <trkpt lat="38.2862730" lon="-0.6675370">
        <ele>104.1</ele>
        <time>2020-12-06T08:44:14Z</time>
      </trkpt>
      <trkpt lat="38.2862580" lon="-0.6676220">
        <ele>104.1</ele>
        <time>2020-12-06T08:44:15Z</time>
      </trkpt>
      <trkpt lat="38.2862430" lon="-0.6677070">
        <ele>104.1</ele>
        <time>2020-12-06T08:44:16Z</time>
      </trkpt>
      <trkpt lat="38.2862270" lon="-0.6677920">
        <ele>104.1</ele>
        <time>2020-12-06T08:44:17Z</time>
      </trkpt>
      <trkpt lat="38.2862120" lon="-0.6678770">
        <ele>104.1</ele>
        <time>2020-12-06T08:44:18Z</time>
      </trkpt>
      <trkpt lat="38.2861970" lon="-0.6679620">
        <ele>103.0</ele>
        <time>2020-12-06T08:44:19Z</time>
      </trkpt>
      <trkpt lat="38.2861800" lon="-0.6680450">
        <ele>103.0</ele>
        <time>2020-12-06T08:44:20Z</time>
      </trkpt>
      <trkpt lat="38.2861620" lon="-0.6681250">
        <ele>103.0</ele>
        <time>2020-12-06T08:44:21Z</time>
      </trkpt>
      <trkpt lat="38.2861430" lon="-0.6682070">
        <ele>103.0</ele>
        <time>2020-12-06T08:44:22Z</time>
      </trkpt>
      <trkpt lat="38.2861250" lon="-0.6682870">
        <ele>103.0</ele>
        <time>2020-12-06T08:44:23Z</time>
      </trkpt>
      <trkpt lat="38.2861070" lon="-0.6683630">
        <ele>103.0</ele>
        <time>2020-12-06T08:44:24Z</time>
      </trkpt>
      <trkpt lat="38.2860850" lon="-0.6684430">
        <ele>103.0</ele>
        <time>2020-12-06T08:44:25Z</time>
      </trkpt>
      <trkpt lat="38.2860620" lon="-0.6685250">
        <ele>103.0</ele>
        <time>2020-12-06T08:44:26Z</time>
      </trkpt>
      <trkpt lat="38.2860370" lon="-0.6686080">
        <ele>103.0</ele>
        <time>2020-12-06T08:44:27Z</time>
      </trkpt>
      <trkpt lat="38.2860120" lon="-0.6686930">
        <ele>103.0</ele>
        <time>2020-12-06T08:44:28Z</time>
      </trkpt>
      <trkpt lat="38.2859830" lon="-0.6687770">
        <ele>103.0</ele>
        <time>2020-12-06T08:44:29Z</time>
      </trkpt>
      <trkpt lat="38.2859520" lon="-0.6688600">
        <ele>103.0</ele>
        <time>2020-12-06T08:44:30Z</time>
      </trkpt>
      <trkpt lat="38.2859200" lon="-0.6689420">
        <ele>103.0</ele>
        <time>2020-12-06T08:44:31Z</time>
      </trkpt>
      <trkpt lat="38.2858870" lon="-0.6690230">
        <ele>103.0</ele>
        <time>2020-12-06T08:44:32Z</time>
      </trkpt>
      <trkpt lat="38.2858520" lon="-0.6691030">
        <ele>103.0</ele>
        <time>2020-12-06T08:44:33Z</time>
      </trkpt>
      <trkpt lat="38.2858150" lon="-0.6691830">
        <ele>103.0</ele>
        <time>2020-12-06T08:44:34Z</time>
      </trkpt>
      <trkpt lat="38.2857780" lon="-0.6692630">
        <ele>103.0</ele>
        <time>2020-12-06T08:44:35Z</time>
      </trkpt>
      <trkpt lat="38.2857400" lon="-0.6693430">
        <ele>103.0</ele>
        <time>2020-12-06T08:44:36Z</time>
      </trkpt>
      <trkpt lat="38.2857020" lon="-0.6694220">
        <ele>103.0</ele>
        <time>2020-12-06T08:44:37Z</time>
      </trkpt>
      <trkpt lat="38.2856620" lon="-0.6695020">
        <ele>103.0</ele>
        <time>2020-12-06T08:44:38Z</time>
      </trkpt>
      <trkpt lat="38.2856220" lon="-0.6695820">
        <ele>103.0</ele>
        <time>2020-12-06T08:44:39Z</time>
      </trkpt>
      <trkpt lat="38.2855820" lon="-0.6696620">
        <ele>103.0</ele>
        <time>2020-12-06T08:44:40Z</time>
      </trkpt>
      <trkpt lat="38.2855400" lon="-0.6697420">
        <ele>102.1</ele>
        <time>2020-12-06T08:44:41Z</time>
      </trkpt>
      <trkpt lat="38.2854980" lon="-0.6698220">
        <ele>102.1</ele>
        <time>2020-12-06T08:44:42Z</time>
      </trkpt>
      <trkpt lat="38.2854570" lon="-0.6699020">
        <ele>102.1</ele>
        <time>2020-12-06T08:44:43Z</time>
      </trkpt>
      <trkpt lat="38.2854170" lon="-0.6699820">
        <ele>102.1</ele>
        <time>2020-12-06T08:44:44Z</time>
      </trkpt>
      <trkpt lat="38.2853750" lon="-0.6700620">
        <ele>102.1</ele>
        <time>2020-12-06T08:44:45Z</time>
      </trkpt>
      <trkpt lat="38.2853350" lon="-0.6701430">
        <ele>102.1</ele>
        <time>2020-12-06T08:44:46Z</time>
      </trkpt>
      <trkpt lat="38.2852930" lon="-0.6702250">
        <ele>102.1</ele>
        <time>2020-12-06T08:44:47Z</time>
      </trkpt>
      <trkpt lat="38.2852520" lon="-0.6703070">
        <ele>102.1</ele>
        <time>2020-12-06T08:44:48Z</time>
      </trkpt>
      <trkpt lat="38.2852100" lon="-0.6703870">
        <ele>102.1</ele>
        <time>2020-12-06T08:44:49Z</time>
      </trkpt>
      <trkpt lat="38.2851680" lon="-0.6704670">
        <ele>102.1</ele>
        <time>2020-12-06T08:44:50Z</time>
      </trkpt>
      <trkpt lat="38.2851270" lon="-0.6705450">
        <ele>102.1</ele>
        <time>2020-12-06T08:44:51Z</time>
      </trkpt>
      <trkpt lat="38.2850870" lon="-0.6706220">
        <ele>102.1</ele>
        <time>2020-12-06T08:44:52Z</time>
      </trkpt>
      <trkpt lat="38.2850480" lon="-0.6707020">
        <ele>102.1</ele>
        <time>2020-12-06T08:44:53Z</time>
      </trkpt>
      <trkpt lat="38.2850080" lon="-0.6707800">
        <ele>102.1</ele>
        <time>2020-12-06T08:44:54Z</time>
      </trkpt>
      <trkpt lat="38.2849680" lon="-0.6708580">
        <ele>102.1</ele>
        <time>2020-12-06T08:44:55Z</time>
      </trkpt>
      <trkpt lat="38.2849270" lon="-0.6709330">
        <ele>102.1</ele>
        <time>2020-12-06T08:44:56Z</time>
      </trkpt>
      <trkpt lat="38.2848880" lon="-0.6710100">
        <ele>102.1</ele>
        <time>2020-12-06T08:44:57Z</time>
      </trkpt>
      <trkpt lat="38.2848500" lon="-0.6710870">
        <ele>102.1</ele>
        <time>2020-12-06T08:44:58Z</time>
      </trkpt>
      <trkpt lat="38.2848120" lon="-0.6711630">
        <ele>102.1</ele>
        <time>2020-12-06T08:44:59Z</time>
      </trkpt>
      <trkpt lat="38.2847720" lon="-0.6712370">
        <ele>102.1</ele>
        <time>2020-12-06T08:45:00Z</time>
      </trkpt>
      <trkpt lat="38.2847320" lon="-0.6713130">
        <ele>102.1</ele>
        <time>2020-12-06T08:45:01Z</time>
      </trkpt>
      <trkpt lat="38.2846950" lon="-0.6713900">
        <ele>102.1</ele>
        <time>2020-12-06T08:45:02Z</time>
      </trkpt>
      <trkpt lat="38.2846600" lon="-0.6714680">
        <ele>102.1</ele>
        <time>2020-12-06T08:45:03Z</time>
      </trkpt>
      <trkpt lat="38.2846200" lon="-0.6715430">
        <ele>102.1</ele>
        <time>2020-12-06T08:45:04Z</time>
      </trkpt>
      <trkpt lat="38.2845780" lon="-0.6716170">
        <ele>102.1</ele>
        <time>2020-12-06T08:45:05Z</time>
      </trkpt>
      <trkpt lat="38.2845370" lon="-0.6716920">
        <ele>102.1</ele>
        <time>2020-12-06T08:45:06Z</time>
      </trkpt>
      <trkpt lat="38.2844950" lon="-0.6717650">
        <ele>102.1</ele>
        <time>2020-12-06T08:45:07Z</time>
      </trkpt>
      <trkpt lat="38.2844570" lon="-0.6718420">
        <ele>102.1</ele>
        <time>2020-12-06T08:45:08Z</time>
      </trkpt>
      <trkpt lat="38.2844180" lon="-0.6719180">
        <ele>101.0</ele>
        <time>2020-12-06T08:45:09Z</time>
      </trkpt>
      <trkpt lat="38.2843800" lon="-0.6719970">
        <ele>101.0</ele>
        <time>2020-12-06T08:45:10Z</time>
      </trkpt>
      <trkpt lat="38.2843380" lon="-0.6720770">
        <ele>100.1</ele>
        <time>2020-12-06T08:45:11Z</time>
      </trkpt>
      <trkpt lat="38.2842970" lon="-0.6721600">
        <ele>100.1</ele>
        <time>2020-12-06T08:45:12Z</time>
      </trkpt>
      <trkpt lat="38.2842530" lon="-0.6722380">
        <ele>100.1</ele>
        <time>2020-12-06T08:45:13Z</time>
      </trkpt>
      <trkpt lat="38.2842120" lon="-0.6723150">
        <ele>100.1</ele>
        <time>2020-12-06T08:45:14Z</time>
      </trkpt>
      <trkpt lat="38.2841700" lon="-0.6723920">
        <ele>100.1</ele>
        <time>2020-12-06T08:45:15Z</time>
      </trkpt>
      <trkpt lat="38.2841300" lon="-0.6724700">
        <ele>100.1</ele>
        <time>2020-12-06T08:45:16Z</time>
      </trkpt>
      <trkpt lat="38.2840900" lon="-0.6725480">
        <ele>100.1</ele>
        <time>2020-12-06T08:45:17Z</time>
      </trkpt>
      <trkpt lat="38.2840500" lon="-0.6726280">
        <ele>100.1</ele>
        <time>2020-12-06T08:45:18Z</time>
      </trkpt>
      <trkpt lat="38.2840130" lon="-0.6727100">
        <ele>100.1</ele>
        <time>2020-12-06T08:45:19Z</time>
      </trkpt>
      <trkpt lat="38.2839830" lon="-0.6727950">
        <ele>100.1</ele>
        <time>2020-12-06T08:45:20Z</time>
      </trkpt>
      <trkpt lat="38.2839680" lon="-0.6728830">
        <ele>100.1</ele>
        <time>2020-12-06T08:45:21Z</time>
      </trkpt>
      <trkpt lat="38.2839680" lon="-0.6729720">
        <ele>100.1</ele>
        <time>2020-12-06T08:45:22Z</time>
      </trkpt>
      <trkpt lat="38.2839780" lon="-0.6730570">
        <ele>99.1</ele>
        <time>2020-12-06T08:45:23Z</time>
      </trkpt>
      <trkpt lat="38.2839930" lon="-0.6731400">
        <ele>99.1</ele>
        <time>2020-12-06T08:45:24Z</time>
      </trkpt>
      <trkpt lat="38.2840020" lon="-0.6732250">
        <ele>99.1</ele>
        <time>2020-12-06T08:45:25Z</time>
      </trkpt>
      <trkpt lat="38.2839970" lon="-0.6733100">
        <ele>99.1</ele>
        <time>2020-12-06T08:45:26Z</time>
      </trkpt>
      <trkpt lat="38.2839830" lon="-0.6733970">
        <ele>100.1</ele>
        <time>2020-12-06T08:45:27Z</time>
      </trkpt>
      <trkpt lat="38.2839550" lon="-0.6734770">
        <ele>100.1</ele>
        <time>2020-12-06T08:45:28Z</time>
      </trkpt>
      <trkpt lat="38.2839150" lon="-0.6735480">
        <ele>100.1</ele>
        <time>2020-12-06T08:45:29Z</time>
      </trkpt>
      <trkpt lat="38.2838670" lon="-0.6736080">
        <ele>100.1</ele>
        <time>2020-12-06T08:45:30Z</time>
      </trkpt>
      <trkpt lat="38.2838080" lon="-0.6736550">
        <ele>100.1</ele>
        <time>2020-12-06T08:45:31Z</time>
      </trkpt>
      <trkpt lat="38.2837450" lon="-0.6736920">
        <ele>100.1</ele>
        <time>2020-12-06T08:45:32Z</time>
      </trkpt>
      <trkpt lat="38.2836730" lon="-0.6737230">
        <ele>100.1</ele>
        <time>2020-12-06T08:45:33Z</time>
      </trkpt>
      <trkpt lat="38.2836000" lon="-0.6737530">
        <ele>100.1</ele>
        <time>2020-12-06T08:45:34Z</time>
      </trkpt>
      <trkpt lat="38.2835280" lon="-0.6737930">
        <ele>100.1</ele>
        <time>2020-12-06T08:45:35Z</time>
      </trkpt>
      <trkpt lat="38.2834630" lon="-0.6738450">
        <ele>100.1</ele>
        <time>2020-12-06T08:45:36Z</time>
      </trkpt>
      <trkpt lat="38.2834080" lon="-0.6739120">
        <ele>100.1</ele>
        <time>2020-12-06T08:45:37Z</time>
      </trkpt>
      <trkpt lat="38.2833600" lon="-0.6739880">
        <ele>100.1</ele>
        <time>2020-12-06T08:45:38Z</time>
      </trkpt>
      <trkpt lat="38.2833170" lon="-0.6740670">
        <ele>100.1</ele>
        <time>2020-12-06T08:45:39Z</time>
      </trkpt>
      <trkpt lat="38.2832770" lon="-0.6741480">
        <ele>100.1</ele>
        <time>2020-12-06T08:45:40Z</time>
      </trkpt>
      <trkpt lat="38.2832400" lon="-0.6742300">
        <ele>100.1</ele>
        <time>2020-12-06T08:45:41Z</time>
      </trkpt>
      <trkpt lat="38.2832020" lon="-0.6743120">
        <ele>100.1</ele>
        <time>2020-12-06T08:45:42Z</time>
      </trkpt>
      <trkpt lat="38.2831620" lon="-0.6743920">
        <ele>100.1</ele>
        <time>2020-12-06T08:45:43Z</time>
      </trkpt>
      <trkpt lat="38.2831220" lon="-0.6744730">
        <ele>100.1</ele>
        <time>2020-12-06T08:45:44Z</time>
      </trkpt>
      <trkpt lat="38.2830850" lon="-0.6745550">
        <ele>100.1</ele>
        <time>2020-12-06T08:45:45Z</time>
      </trkpt>
      <trkpt lat="38.2830500" lon="-0.6746400">
        <ele>100.1</ele>
        <time>2020-12-06T08:45:46Z</time>
      </trkpt>
      <trkpt lat="38.2830170" lon="-0.6747270">
        <ele>100.1</ele>
        <time>2020-12-06T08:45:47Z</time>
      </trkpt>
      <trkpt lat="38.2829850" lon="-0.6748150">
        <ele>100.1</ele>
        <time>2020-12-06T08:45:48Z</time>
      </trkpt>
      <trkpt lat="38.2829530" lon="-0.6749080">
        <ele>99.1</ele>
        <time>2020-12-06T08:45:49Z</time>
      </trkpt>
      <trkpt lat="38.2829220" lon="-0.6749980">
        <ele>99.1</ele>
        <time>2020-12-06T08:45:50Z</time>
      </trkpt>
      <trkpt lat="38.2828880" lon="-0.6750870">
        <ele>99.1</ele>
        <time>2020-12-06T08:45:51Z</time>
      </trkpt>
      <trkpt lat="38.2828580" lon="-0.6751770">
        <ele>99.1</ele>
        <time>2020-12-06T08:45:52Z</time>
      </trkpt>
      <trkpt lat="38.2828320" lon="-0.6752670">
        <ele>99.1</ele>
        <time>2020-12-06T08:45:53Z</time>
      </trkpt>
      <trkpt lat="38.2828070" lon="-0.6753570">
        <ele>99.1</ele>
        <time>2020-12-06T08:45:54Z</time>
      </trkpt>
      <trkpt lat="38.2827830" lon="-0.6754480">
        <ele>98.1</ele>
        <time>2020-12-06T08:45:55Z</time>
      </trkpt>
      <trkpt lat="38.2827600" lon="-0.6755380">
        <ele>98.1</ele>
        <time>2020-12-06T08:45:56Z</time>
      </trkpt>
      <trkpt lat="38.2827370" lon="-0.6756280">
        <ele>98.1</ele>
        <time>2020-12-06T08:45:57Z</time>
      </trkpt>
      <trkpt lat="38.2827150" lon="-0.6757180">
        <ele>98.1</ele>
        <time>2020-12-06T08:45:58Z</time>
      </trkpt>
      <trkpt lat="38.2826950" lon="-0.6758100">
        <ele>98.1</ele>
        <time>2020-12-06T08:45:59Z</time>
      </trkpt>
      <trkpt lat="38.2826780" lon="-0.6759020">
        <ele>98.1</ele>
        <time>2020-12-06T08:46:00Z</time>
      </trkpt>
      <trkpt lat="38.2826630" lon="-0.6759920">
        <ele>98.1</ele>
        <time>2020-12-06T08:46:01Z</time>
      </trkpt>
      <trkpt lat="38.2826480" lon="-0.6760830">
        <ele>98.1</ele>
        <time>2020-12-06T08:46:02Z</time>
      </trkpt>
      <trkpt lat="38.2826350" lon="-0.6761750">
        <ele>98.1</ele>
        <time>2020-12-06T08:46:03Z</time>
      </trkpt>
      <trkpt lat="38.2826220" lon="-0.6762670">
        <ele>98.1</ele>
        <time>2020-12-06T08:46:04Z</time>
      </trkpt>
      <trkpt lat="38.2826100" lon="-0.6763570">
        <ele>98.1</ele>
        <time>2020-12-06T08:46:05Z</time>
      </trkpt>
      <trkpt lat="38.2825980" lon="-0.6764470">
        <ele>98.1</ele>
        <time>2020-12-06T08:46:06Z</time>
      </trkpt>
      <trkpt lat="38.2825900" lon="-0.6765380">
        <ele>98.1</ele>
        <time>2020-12-06T08:46:07Z</time>
      </trkpt>
      <trkpt lat="38.2825820" lon="-0.6766300">
        <ele>98.1</ele>
        <time>2020-12-06T08:46:08Z</time>
      </trkpt>
      <trkpt lat="38.2825720" lon="-0.6767220">
        <ele>98.1</ele>
        <time>2020-12-06T08:46:09Z</time>
      </trkpt>
      <trkpt lat="38.2825630" lon="-0.6768130">
        <ele>98.1</ele>
        <time>2020-12-06T08:46:10Z</time>
      </trkpt>
      <trkpt lat="38.2825530" lon="-0.6769080">
        <ele>99.1</ele>
        <time>2020-12-06T08:46:11Z</time>
      </trkpt>
      <trkpt lat="38.2825450" lon="-0.6770070">
        <ele>99.1</ele>
        <time>2020-12-06T08:46:12Z</time>
      </trkpt>
      <trkpt lat="38.2825370" lon="-0.6771080">
        <ele>99.1</ele>
        <time>2020-12-06T08:46:13Z</time>
      </trkpt>
      <trkpt lat="38.2825280" lon="-0.6772080">
        <ele>99.1</ele>
        <time>2020-12-06T08:46:14Z</time>
      </trkpt>
      <trkpt lat="38.2825180" lon="-0.6773050">
        <ele>99.1</ele>
        <time>2020-12-06T08:46:15Z</time>
      </trkpt>
      <trkpt lat="38.2825120" lon="-0.6774020">
        <ele>99.1</ele>
        <time>2020-12-06T08:46:16Z</time>
      </trkpt>
      <trkpt lat="38.2825050" lon="-0.6774970">
        <ele>99.1</ele>
        <time>2020-12-06T08:46:17Z</time>
      </trkpt>
      <trkpt lat="38.2824970" lon="-0.6775900">
        <ele>99.1</ele>
        <time>2020-12-06T08:46:18Z</time>
      </trkpt>
      <trkpt lat="38.2824900" lon="-0.6776830">
        <ele>99.1</ele>
        <time>2020-12-06T08:46:19Z</time>
      </trkpt>
      <trkpt lat="38.2824800" lon="-0.6777750">
        <ele>99.1</ele>
        <time>2020-12-06T08:46:20Z</time>
      </trkpt>
      <trkpt lat="38.2824720" lon="-0.6778670">
        <ele>98.1</ele>
        <time>2020-12-06T08:46:21Z</time>
      </trkpt>
      <trkpt lat="38.2824670" lon="-0.6779580">
        <ele>98.1</ele>
        <time>2020-12-06T08:46:22Z</time>
      </trkpt>
      <trkpt lat="38.2824600" lon="-0.6780500">
        <ele>98.1</ele>
        <time>2020-12-06T08:46:23Z</time>
      </trkpt>
      <trkpt lat="38.2824520" lon="-0.6781380">
        <ele>98.1</ele>
        <time>2020-12-06T08:46:24Z</time>
      </trkpt>
      <trkpt lat="38.2824450" lon="-0.6782270">
        <ele>97.1</ele>
        <time>2020-12-06T08:46:25Z</time>
      </trkpt>
      <trkpt lat="38.2824420" lon="-0.6783150">
        <ele>97.1</ele>
        <time>2020-12-06T08:46:26Z</time>
      </trkpt>
      <trkpt lat="38.2824400" lon="-0.6784030">
        <ele>97.1</ele>
        <time>2020-12-06T08:46:27Z</time>
      </trkpt>
      <trkpt lat="38.2824370" lon="-0.6784900">
        <ele>97.1</ele>
        <time>2020-12-06T08:46:28Z</time>
      </trkpt>
      <trkpt lat="38.2824350" lon="-0.6785780">
        <ele>96.0</ele>
        <time>2020-12-06T08:46:29Z</time>
      </trkpt>
      <trkpt lat="38.2824330" lon="-0.6786650">
        <ele>96.0</ele>
        <time>2020-12-06T08:46:30Z</time>
      </trkpt>
      <trkpt lat="38.2824330" lon="-0.6787530">
        <ele>96.0</ele>
        <time>2020-12-06T08:46:31Z</time>
      </trkpt>
      <trkpt lat="38.2824320" lon="-0.6788400">
        <ele>96.0</ele>
        <time>2020-12-06T08:46:32Z</time>
      </trkpt>
      <trkpt lat="38.2824300" lon="-0.6789270">
        <ele>96.0</ele>
        <time>2020-12-06T08:46:33Z</time>
      </trkpt>
      <trkpt lat="38.2824300" lon="-0.6790100">
        <ele>96.0</ele>
        <time>2020-12-06T08:46:34Z</time>
      </trkpt>
      <trkpt lat="38.2824320" lon="-0.6790950">
        <ele>97.1</ele>
        <time>2020-12-06T08:46:35Z</time>
      </trkpt>
      <trkpt lat="38.2824320" lon="-0.6791830">
        <ele>97.1</ele>
        <time>2020-12-06T08:46:36Z</time>
      </trkpt>
      <trkpt lat="38.2824330" lon="-0.6792750">
        <ele>97.1</ele>
        <time>2020-12-06T08:46:37Z</time>
      </trkpt>
      <trkpt lat="38.2824380" lon="-0.6793680">
        <ele>97.1</ele>
        <time>2020-12-06T08:46:38Z</time>
      </trkpt>
      <trkpt lat="38.2824420" lon="-0.6794580">
        <ele>97.1</ele>
        <time>2020-12-06T08:46:39Z</time>
      </trkpt>
      <trkpt lat="38.2824470" lon="-0.6795480">
        <ele>97.1</ele>
        <time>2020-12-06T08:46:40Z</time>
      </trkpt>
      <trkpt lat="38.2824500" lon="-0.6796380">
        <ele>97.1</ele>
        <time>2020-12-06T08:46:41Z</time>
      </trkpt>
      <trkpt lat="38.2824550" lon="-0.6797270">
        <ele>97.1</ele>
        <time>2020-12-06T08:46:42Z</time>
      </trkpt>
      <trkpt lat="38.2824580" lon="-0.6798150">
        <ele>97.1</ele>
        <time>2020-12-06T08:46:43Z</time>
      </trkpt>
      <trkpt lat="38.2824630" lon="-0.6799020">
        <ele>97.1</ele>
        <time>2020-12-06T08:46:44Z</time>
      </trkpt>
      <trkpt lat="38.2824650" lon="-0.6799880">
        <ele>97.1</ele>
        <time>2020-12-06T08:46:45Z</time>
      </trkpt>
      <trkpt lat="38.2824700" lon="-0.6800730">
        <ele>97.1</ele>
        <time>2020-12-06T08:46:46Z</time>
      </trkpt>
      <trkpt lat="38.2824780" lon="-0.6801600">
        <ele>97.1</ele>
        <time>2020-12-06T08:46:47Z</time>
      </trkpt>
      <trkpt lat="38.2824880" lon="-0.6802520">
        <ele>97.1</ele>
        <time>2020-12-06T08:46:48Z</time>
      </trkpt>
      <trkpt lat="38.2824930" lon="-0.6803450">
        <ele>97.1</ele>
        <time>2020-12-06T08:46:49Z</time>
      </trkpt>
      <trkpt lat="38.2825020" lon="-0.6804380">
        <ele>97.1</ele>
        <time>2020-12-06T08:46:50Z</time>
      </trkpt>
      <trkpt lat="38.2825080" lon="-0.6805320">
        <ele>98.1</ele>
        <time>2020-12-06T08:46:51Z</time>
      </trkpt>
      <trkpt lat="38.2825150" lon="-0.6806250">
        <ele>98.1</ele>
        <time>2020-12-06T08:46:52Z</time>
      </trkpt>
      <trkpt lat="38.2825230" lon="-0.6807180">
        <ele>98.1</ele>
        <time>2020-12-06T08:46:53Z</time>
      </trkpt>
      <trkpt lat="38.2825320" lon="-0.6808080">
        <ele>98.1</ele>
        <time>2020-12-06T08:46:54Z</time>
      </trkpt>
      <trkpt lat="38.2825380" lon="-0.6808980">
        <ele>98.1</ele>
        <time>2020-12-06T08:46:55Z</time>
      </trkpt>
      <trkpt lat="38.2825470" lon="-0.6809870">
        <ele>98.1</ele>
        <time>2020-12-06T08:46:56Z</time>
      </trkpt>
      <trkpt lat="38.2825530" lon="-0.6810730">
        <ele>98.1</ele>
        <time>2020-12-06T08:46:57Z</time>
      </trkpt>
      <trkpt lat="38.2825580" lon="-0.6811620">
        <ele>98.1</ele>
        <time>2020-12-06T08:46:58Z</time>
      </trkpt>
      <trkpt lat="38.2825650" lon="-0.6812480">
        <ele>96.0</ele>
        <time>2020-12-06T08:46:59Z</time>
      </trkpt>
      <trkpt lat="38.2825700" lon="-0.6813350">
        <ele>96.0</ele>
        <time>2020-12-06T08:47:00Z</time>
      </trkpt>
      <trkpt lat="38.2825770" lon="-0.6814220">
        <ele>96.0</ele>
        <time>2020-12-06T08:47:01Z</time>
      </trkpt>
      <trkpt lat="38.2825800" lon="-0.6815080">
        <ele>96.0</ele>
        <time>2020-12-06T08:47:02Z</time>
      </trkpt>
      <trkpt lat="38.2825820" lon="-0.6815950">
        <ele>96.0</ele>
        <time>2020-12-06T08:47:03Z</time>
      </trkpt>
      <trkpt lat="38.2825830" lon="-0.6816820">
        <ele>96.0</ele>
        <time>2020-12-06T08:47:04Z</time>
      </trkpt>
      <trkpt lat="38.2825850" lon="-0.6817680">
        <ele>96.0</ele>
        <time>2020-12-06T08:47:05Z</time>
      </trkpt>
      <trkpt lat="38.2826000" lon="-0.6818530">
        <ele>96.0</ele>
        <time>2020-12-06T08:47:06Z</time>
      </trkpt>
      <trkpt lat="38.2826320" lon="-0.6819300">
        <ele>96.0</ele>
        <time>2020-12-06T08:47:07Z</time>
      </trkpt>
      <trkpt lat="38.2826800" lon="-0.6819880">
        <ele>96.0</ele>
        <time>2020-12-06T08:47:08Z</time>
      </trkpt>
      <trkpt lat="38.2827280" lon="-0.6820470">
        <ele>96.0</ele>
        <time>2020-12-06T08:47:09Z</time>
      </trkpt>
      <trkpt lat="38.2827670" lon="-0.6821170">
        <ele>96.0</ele>
        <time>2020-12-06T08:47:10Z</time>
      </trkpt>
      <trkpt lat="38.2827950" lon="-0.6821950">
        <ele>96.0</ele>
        <time>2020-12-06T08:47:11Z</time>
      </trkpt>
      <trkpt lat="38.2828130" lon="-0.6822770">
        <ele>96.0</ele>
        <time>2020-12-06T08:47:12Z</time>
      </trkpt>
      <trkpt lat="38.2828180" lon="-0.6823620">
        <ele>96.0</ele>
        <time>2020-12-06T08:47:13Z</time>
      </trkpt>
      <trkpt lat="38.2828070" lon="-0.6824480">
        <ele>96.0</ele>
        <time>2020-12-06T08:47:14Z</time>
      </trkpt>
      <trkpt lat="38.2827800" lon="-0.6825300">
        <ele>96.0</ele>
        <time>2020-12-06T08:47:15Z</time>
      </trkpt>
      <trkpt lat="38.2827420" lon="-0.6826070">
        <ele>96.0</ele>
        <time>2020-12-06T08:47:16Z</time>
      </trkpt>
      <trkpt lat="38.2826930" lon="-0.6826780">
        <ele>96.0</ele>
        <time>2020-12-06T08:47:17Z</time>
      </trkpt>
      <trkpt lat="38.2826350" lon="-0.6827350">
        <ele>96.0</ele>
        <time>2020-12-06T08:47:18Z</time>
      </trkpt>
      <trkpt lat="38.2825650" lon="-0.6827770">
        <ele>96.0</ele>
        <time>2020-12-06T08:47:19Z</time>
      </trkpt>
      <trkpt lat="38.2824880" lon="-0.6827920">
        <ele>96.0</ele>
        <time>2020-12-06T08:47:20Z</time>
      </trkpt>
      <trkpt lat="38.2824120" lon="-0.6827820">
        <ele>96.0</ele>
        <time>2020-12-06T08:47:21Z</time>
      </trkpt>
      <trkpt lat="38.2823350" lon="-0.6827550">
        <ele>96.0</ele>
        <time>2020-12-06T08:47:22Z</time>
      </trkpt>
      <trkpt lat="38.2822600" lon="-0.6827220">
        <ele>96.0</ele>
        <time>2020-12-06T08:47:23Z</time>
      </trkpt>
      <trkpt lat="38.2821870" lon="-0.6826920">
        <ele>96.0</ele>
        <time>2020-12-06T08:47:24Z</time>
      </trkpt>
      <trkpt lat="38.2821120" lon="-0.6826700">
        <ele>96.0</ele>
        <time>2020-12-06T08:47:25Z</time>
      </trkpt>
      <trkpt lat="38.2820350" lon="-0.6826620">
        <ele>96.0</ele>
        <time>2020-12-06T08:47:26Z</time>
      </trkpt>
      <trkpt lat="38.2819600" lon="-0.6826650">
        <ele>94.0</ele>
        <time>2020-12-06T08:47:27Z</time>
      </trkpt>
      <trkpt lat="38.2818850" lon="-0.6826730">
        <ele>94.0</ele>
        <time>2020-12-06T08:47:28Z</time>
      </trkpt>
      <trkpt lat="38.2818120" lon="-0.6826920">
        <ele>94.0</ele>
        <time>2020-12-06T08:47:29Z</time>
      </trkpt>
      <trkpt lat="38.2817370" lon="-0.6827170">
        <ele>94.0</ele>
        <time>2020-12-06T08:47:30Z</time>
      </trkpt>
      <trkpt lat="38.2816600" lon="-0.6827420">
        <ele>94.0</ele>
        <time>2020-12-06T08:47:31Z</time>
      </trkpt>
      <trkpt lat="38.2815800" lon="-0.6827650">
        <ele>94.0</ele>
        <time>2020-12-06T08:47:32Z</time>
      </trkpt>
      <trkpt lat="38.2815000" lon="-0.6827870">
        <ele>92.1</ele>
        <time>2020-12-06T08:47:33Z</time>
      </trkpt>
      <trkpt lat="38.2814180" lon="-0.6828020">
        <ele>92.1</ele>
        <time>2020-12-06T08:47:34Z</time>
      </trkpt>
      <trkpt lat="38.2813370" lon="-0.6828180">
        <ele>93.1</ele>
        <time>2020-12-06T08:47:35Z</time>
      </trkpt>
      <trkpt lat="38.2812550" lon="-0.6828280">
        <ele>93.1</ele>
        <time>2020-12-06T08:47:36Z</time>
      </trkpt>
      <trkpt lat="38.2811680" lon="-0.6828320">
        <ele>93.1</ele>
        <time>2020-12-06T08:47:37Z</time>
      </trkpt>
      <trkpt lat="38.2810770" lon="-0.6828300">
        <ele>93.1</ele>
        <time>2020-12-06T08:47:38Z</time>
      </trkpt>
      <trkpt lat="38.2809850" lon="-0.6828230">
        <ele>93.1</ele>
        <time>2020-12-06T08:47:39Z</time>
      </trkpt>
      <trkpt lat="38.2808930" lon="-0.6828120">
        <ele>93.1</ele>
        <time>2020-12-06T08:47:40Z</time>
      </trkpt>
      <trkpt lat="38.2808000" lon="-0.6827950">
        <ele>93.1</ele>
        <time>2020-12-06T08:47:41Z</time>
      </trkpt>
      <trkpt lat="38.2807080" lon="-0.6827680">
        <ele>93.1</ele>
        <time>2020-12-06T08:47:42Z</time>
      </trkpt>
      <trkpt lat="38.2806180" lon="-0.6827350">
        <ele>92.1</ele>
        <time>2020-12-06T08:47:43Z</time>
      </trkpt>
      <trkpt lat="38.2805270" lon="-0.6827000">
        <ele>92.1</ele>
        <time>2020-12-06T08:47:44Z</time>
      </trkpt>
      <trkpt lat="38.2804370" lon="-0.6826650">
        <ele>92.1</ele>
        <time>2020-12-06T08:47:45Z</time>
      </trkpt>
      <trkpt lat="38.2803470" lon="-0.6826300">
        <ele>92.1</ele>
        <time>2020-12-06T08:47:46Z</time>
      </trkpt>
      <trkpt lat="38.2802580" lon="-0.6825930">
        <ele>92.1</ele>
        <time>2020-12-06T08:47:47Z</time>
      </trkpt>
      <trkpt lat="38.2801700" lon="-0.6825550">
        <ele>92.1</ele>
        <time>2020-12-06T08:47:48Z</time>
      </trkpt>
      <trkpt lat="38.2800750" lon="-0.6825180">
        <ele>92.1</ele>
        <time>2020-12-06T08:47:49Z</time>
      </trkpt>
      <trkpt lat="38.2799880" lon="-0.6824820">
        <ele>92.1</ele>
        <time>2020-12-06T08:47:50Z</time>
      </trkpt>
      <trkpt lat="38.2799020" lon="-0.6824450">
        <ele>92.1</ele>
        <time>2020-12-06T08:47:51Z</time>
      </trkpt>
      <trkpt lat="38.2798150" lon="-0.6824100">
        <ele>92.1</ele>
        <time>2020-12-06T08:47:52Z</time>
      </trkpt>
      <trkpt lat="38.2797300" lon="-0.6823770">
        <ele>91.1</ele>
        <time>2020-12-06T08:47:53Z</time>
      </trkpt>
      <trkpt lat="38.2796430" lon="-0.6823420">
        <ele>91.1</ele>
        <time>2020-12-06T08:47:54Z</time>
      </trkpt>
      <trkpt lat="38.2795570" lon="-0.6823100">
        <ele>91.1</ele>
        <time>2020-12-06T08:47:55Z</time>
      </trkpt>
      <trkpt lat="38.2794700" lon="-0.6822770">
        <ele>91.1</ele>
        <time>2020-12-06T08:47:56Z</time>
      </trkpt>
      <trkpt lat="38.2793830" lon="-0.6822400">
        <ele>91.1</ele>
        <time>2020-12-06T08:47:57Z</time>
      </trkpt>
      <trkpt lat="38.2792980" lon="-0.6822000">
        <ele>91.1</ele>
        <time>2020-12-06T08:47:58Z</time>
      </trkpt>
      <trkpt lat="38.2792120" lon="-0.6821630">
        <ele>91.1</ele>
        <time>2020-12-06T08:47:59Z</time>
      </trkpt>
      <trkpt lat="38.2791250" lon="-0.6821280">
        <ele>91.1</ele>
        <time>2020-12-06T08:48:00Z</time>
      </trkpt>
      <trkpt lat="38.2790380" lon="-0.6820970">
        <ele>91.1</ele>
        <time>2020-12-06T08:48:01Z</time>
      </trkpt>
      <trkpt lat="38.2789520" lon="-0.6820620">
        <ele>91.1</ele>
        <time>2020-12-06T08:48:02Z</time>
      </trkpt>
      <trkpt lat="38.2788680" lon="-0.6820270">
        <ele>91.1</ele>
        <time>2020-12-06T08:48:03Z</time>
      </trkpt>
      <trkpt lat="38.2787820" lon="-0.6819920">
        <ele>91.1</ele>
        <time>2020-12-06T08:48:04Z</time>
      </trkpt>
      <trkpt lat="38.2786970" lon="-0.6819580">
        <ele>91.1</ele>
        <time>2020-12-06T08:48:05Z</time>
      </trkpt>
      <trkpt lat="38.2786100" lon="-0.6819230">
        <ele>91.1</ele>
        <time>2020-12-06T08:48:06Z</time>
      </trkpt>
      <trkpt lat="38.2785250" lon="-0.6818880">
        <ele>90.1</ele>
        <time>2020-12-06T08:48:07Z</time>
      </trkpt>
      <trkpt lat="38.2784370" lon="-0.6818520">
        <ele>90.1</ele>
        <time>2020-12-06T08:48:08Z</time>
      </trkpt>
      <trkpt lat="38.2783520" lon="-0.6818170">
        <ele>90.1</ele>
        <time>2020-12-06T08:48:09Z</time>
      </trkpt>
      <trkpt lat="38.2782650" lon="-0.6817780">
        <ele>90.1</ele>
        <time>2020-12-06T08:48:10Z</time>
      </trkpt>
      <trkpt lat="38.2781780" lon="-0.6817400">
        <ele>90.1</ele>
        <time>2020-12-06T08:48:11Z</time>
      </trkpt>
      <trkpt lat="38.2780900" lon="-0.6817080">
        <ele>90.1</ele>
        <time>2020-12-06T08:48:12Z</time>
      </trkpt>
      <trkpt lat="38.2779980" lon="-0.6816980">
        <ele>90.1</ele>
        <time>2020-12-06T08:48:13Z</time>
      </trkpt>
      <trkpt lat="38.2779120" lon="-0.6817220">
        <ele>90.1</ele>
        <time>2020-12-06T08:48:14Z</time>
      </trkpt>
      <trkpt lat="38.2778230" lon="-0.6817470">
        <ele>90.1</ele>
        <time>2020-12-06T08:48:15Z</time>
      </trkpt>
      <trkpt lat="38.2777330" lon="-0.6817550">
        <ele>90.1</ele>
        <time>2020-12-06T08:48:16Z</time>
      </trkpt>
      <trkpt lat="38.2776480" lon="-0.6817280">
        <ele>89.0</ele>
        <time>2020-12-06T08:48:17Z</time>
      </trkpt>
      <trkpt lat="38.2775720" lon="-0.6816680">
        <ele>89.0</ele>
        <time>2020-12-06T08:48:18Z</time>
      </trkpt>
      <trkpt lat="38.2775170" lon="-0.6815780">
        <ele>89.0</ele>
        <time>2020-12-06T08:48:19Z</time>
      </trkpt>
      <trkpt lat="38.2774780" lon="-0.6814680">
        <ele>89.0</ele>
        <time>2020-12-06T08:48:20Z</time>
      </trkpt>
      <trkpt lat="38.2774620" lon="-0.6813500">
        <ele>88.1</ele>
        <time>2020-12-06T08:48:21Z</time>
      </trkpt>
      <trkpt lat="38.2774750" lon="-0.6812330">
        <ele>88.1</ele>
        <time>2020-12-06T08:48:22Z</time>
      </trkpt>
      <trkpt lat="38.2775080" lon="-0.6811320">
        <ele>88.1</ele>
        <time>2020-12-06T08:48:23Z</time>
      </trkpt>
      <trkpt lat="38.2775570" lon="-0.6810480">
        <ele>88.1</ele>
        <time>2020-12-06T08:48:24Z</time>
      </trkpt>
      <trkpt lat="38.2776320" lon="-0.6809900">
        <ele>88.1</ele>
        <time>2020-12-06T08:48:25Z</time>
      </trkpt>
      <trkpt lat="38.2777070" lon="-0.6809370">
        <ele>88.1</ele>
        <time>2020-12-06T08:48:26Z</time>
      </trkpt>
      <trkpt lat="38.2777750" lon="-0.6808670">
        <ele>88.1</ele>
        <time>2020-12-06T08:48:27Z</time>
      </trkpt>
      <trkpt lat="38.2778320" lon="-0.6807870">
        <ele>88.1</ele>
        <time>2020-12-06T08:48:28Z</time>
      </trkpt>
      <trkpt lat="38.2778600" lon="-0.6806900">
        <ele>88.1</ele>
        <time>2020-12-06T08:48:29Z</time>
      </trkpt>
      <trkpt lat="38.2778850" lon="-0.6805880">
        <ele>88.1</ele>
        <time>2020-12-06T08:48:30Z</time>
      </trkpt>
      <trkpt lat="38.2779150" lon="-0.6804870">
        <ele>88.1</ele>
        <time>2020-12-06T08:48:31Z</time>
      </trkpt>
      <trkpt lat="38.2779470" lon="-0.6803850">
        <ele>88.1</ele>
        <time>2020-12-06T08:48:32Z</time>
      </trkpt>
      <trkpt lat="38.2779720" lon="-0.6802870">
        <ele>88.1</ele>
        <time>2020-12-06T08:48:33Z</time>
      </trkpt>
      <trkpt lat="38.2779900" lon="-0.6801870">
        <ele>88.1</ele>
        <time>2020-12-06T08:48:34Z</time>
      </trkpt>
      <trkpt lat="38.2780070" lon="-0.6800870">
        <ele>89.0</ele>
        <time>2020-12-06T08:48:35Z</time>
      </trkpt>
      <trkpt lat="38.2780230" lon="-0.6799870">
        <ele>89.0</ele>
        <time>2020-12-06T08:48:36Z</time>
      </trkpt>
      <trkpt lat="38.2780370" lon="-0.6798870">
        <ele>89.0</ele>
        <time>2020-12-06T08:48:37Z</time>
      </trkpt>
      <trkpt lat="38.2780530" lon="-0.6797870">
        <ele>89.0</ele>
        <time>2020-12-06T08:48:38Z</time>
      </trkpt>
      <trkpt lat="38.2780670" lon="-0.6796850">
        <ele>89.0</ele>
        <time>2020-12-06T08:48:39Z</time>
      </trkpt>
      <trkpt lat="38.2780820" lon="-0.6795830">
        <ele>89.0</ele>
        <time>2020-12-06T08:48:40Z</time>
      </trkpt>
      <trkpt lat="38.2780970" lon="-0.6794800">
        <ele>89.0</ele>
        <time>2020-12-06T08:48:41Z</time>
      </trkpt>
      <trkpt lat="38.2781130" lon="-0.6793770">
        <ele>89.0</ele>
        <time>2020-12-06T08:48:42Z</time>
      </trkpt>
      <trkpt lat="38.2781320" lon="-0.6792730">
        <ele>89.0</ele>
        <time>2020-12-06T08:48:43Z</time>
      </trkpt>
      <trkpt lat="38.2781480" lon="-0.6791670">
        <ele>89.0</ele>
        <time>2020-12-06T08:48:44Z</time>
      </trkpt>
      <trkpt lat="38.2781700" lon="-0.6790600">
        <ele>89.0</ele>
        <time>2020-12-06T08:48:45Z</time>
      </trkpt>
      <trkpt lat="38.2781900" lon="-0.6789470">
        <ele>89.0</ele>
        <time>2020-12-06T08:48:46Z</time>
      </trkpt>
      <trkpt lat="38.2782080" lon="-0.6788320">
        <ele>89.0</ele>
        <time>2020-12-06T08:48:47Z</time>
      </trkpt>
      <trkpt lat="38.2782300" lon="-0.6787170">
        <ele>89.0</ele>
        <time>2020-12-06T08:48:48Z</time>
      </trkpt>
      <trkpt lat="38.2782480" lon="-0.6785980">
        <ele>89.0</ele>
        <time>2020-12-06T08:48:49Z</time>
      </trkpt>
      <trkpt lat="38.2782700" lon="-0.6784850">
        <ele>89.0</ele>
        <time>2020-12-06T08:48:50Z</time>
      </trkpt>
      <trkpt lat="38.2782900" lon="-0.6783720">
        <ele>89.0</ele>
        <time>2020-12-06T08:48:51Z</time>
      </trkpt>
      <trkpt lat="38.2783080" lon="-0.6782600">
        <ele>89.0</ele>
        <time>2020-12-06T08:48:52Z</time>
      </trkpt>
      <trkpt lat="38.2783300" lon="-0.6781480">
        <ele>89.0</ele>
        <time>2020-12-06T08:48:53Z</time>
      </trkpt>
      <trkpt lat="38.2783500" lon="-0.6780380">
        <ele>89.0</ele>
        <time>2020-12-06T08:48:54Z</time>
      </trkpt>
      <trkpt lat="38.2783680" lon="-0.6779280">
        <ele>89.0</ele>
        <time>2020-12-06T08:48:55Z</time>
      </trkpt>
      <trkpt lat="38.2783880" lon="-0.6778220">
        <ele>89.0</ele>
        <time>2020-12-06T08:48:56Z</time>
      </trkpt>
      <trkpt lat="38.2784050" lon="-0.6777130">
        <ele>89.0</ele>
        <time>2020-12-06T08:48:57Z</time>
      </trkpt>
      <trkpt lat="38.2784230" lon="-0.6776050">
        <ele>89.0</ele>
        <time>2020-12-06T08:48:58Z</time>
      </trkpt>
      <trkpt lat="38.2784400" lon="-0.6774980">
        <ele>89.0</ele>
        <time>2020-12-06T08:48:59Z</time>
      </trkpt>
      <trkpt lat="38.2784580" lon="-0.6773930">
        <ele>89.0</ele>
        <time>2020-12-06T08:49:00Z</time>
      </trkpt>
      <trkpt lat="38.2784750" lon="-0.6772900">
        <ele>89.0</ele>
        <time>2020-12-06T08:49:01Z</time>
      </trkpt>
      <trkpt lat="38.2784950" lon="-0.6771880">
        <ele>89.0</ele>
        <time>2020-12-06T08:49:02Z</time>
      </trkpt>
      <trkpt lat="38.2785130" lon="-0.6770850">
        <ele>89.0</ele>
        <time>2020-12-06T08:49:03Z</time>
      </trkpt>
      <trkpt lat="38.2785300" lon="-0.6769820">
        <ele>89.0</ele>
        <time>2020-12-06T08:49:04Z</time>
      </trkpt>
      <trkpt lat="38.2785480" lon="-0.6768780">
        <ele>89.0</ele>
        <time>2020-12-06T08:49:05Z</time>
      </trkpt>
      <trkpt lat="38.2785650" lon="-0.6767780">
        <ele>89.0</ele>
        <time>2020-12-06T08:49:06Z</time>
      </trkpt>
      <trkpt lat="38.2785800" lon="-0.6766770">
        <ele>90.1</ele>
        <time>2020-12-06T08:49:07Z</time>
      </trkpt>
      <trkpt lat="38.2785950" lon="-0.6765720">
        <ele>90.1</ele>
        <time>2020-12-06T08:49:08Z</time>
      </trkpt>
      <trkpt lat="38.2786150" lon="-0.6764720">
        <ele>90.1</ele>
        <time>2020-12-06T08:49:09Z</time>
      </trkpt>
      <trkpt lat="38.2786370" lon="-0.6763730">
        <ele>90.1</ele>
        <time>2020-12-06T08:49:10Z</time>
      </trkpt>
      <trkpt lat="38.2786530" lon="-0.6762730">
        <ele>90.1</ele>
        <time>2020-12-06T08:49:11Z</time>
      </trkpt>
      <trkpt lat="38.2786650" lon="-0.6761680">
        <ele>90.1</ele>
        <time>2020-12-06T08:49:12Z</time>
      </trkpt>
      <trkpt lat="38.2786780" lon="-0.6760630">
        <ele>90.1</ele>
        <time>2020-12-06T08:49:13Z</time>
      </trkpt>
      <trkpt lat="38.2786900" lon="-0.6759580">
        <ele>90.1</ele>
        <time>2020-12-06T08:49:14Z</time>
      </trkpt>
      <trkpt lat="38.2787080" lon="-0.6758480">
        <ele>90.1</ele>
        <time>2020-12-06T08:49:15Z</time>
      </trkpt>
      <trkpt lat="38.2787270" lon="-0.6757400">
        <ele>90.1</ele>
        <time>2020-12-06T08:49:16Z</time>
      </trkpt>
      <trkpt lat="38.2787430" lon="-0.6756320">
        <ele>90.1</ele>
        <time>2020-12-06T08:49:17Z</time>
      </trkpt>
      <trkpt lat="38.2787630" lon="-0.6755270">
        <ele>90.1</ele>
        <time>2020-12-06T08:49:18Z</time>
      </trkpt>
      <trkpt lat="38.2787830" lon="-0.6754220">
        <ele>90.1</ele>
        <time>2020-12-06T08:49:19Z</time>
      </trkpt>
      <trkpt lat="38.2788030" lon="-0.6753200">
        <ele>90.1</ele>
        <time>2020-12-06T08:49:20Z</time>
      </trkpt>
      <trkpt lat="38.2788200" lon="-0.6752170">
        <ele>90.1</ele>
        <time>2020-12-06T08:49:21Z</time>
      </trkpt>
      <trkpt lat="38.2788400" lon="-0.6751150">
        <ele>90.1</ele>
        <time>2020-12-06T08:49:22Z</time>
      </trkpt>
      <trkpt lat="38.2788550" lon="-0.6750120">
        <ele>90.1</ele>
        <time>2020-12-06T08:49:23Z</time>
      </trkpt>
      <trkpt lat="38.2788700" lon="-0.6749100">
        <ele>90.1</ele>
        <time>2020-12-06T08:49:24Z</time>
      </trkpt>
      <trkpt lat="38.2788870" lon="-0.6748050">
        <ele>91.1</ele>
        <time>2020-12-06T08:49:25Z</time>
      </trkpt>
      <trkpt lat="38.2789000" lon="-0.6747050">
        <ele>91.1</ele>
        <time>2020-12-06T08:49:26Z</time>
      </trkpt>
      <trkpt lat="38.2789150" lon="-0.6746000">
        <ele>90.1</ele>
        <time>2020-12-06T08:49:27Z</time>
      </trkpt>
      <trkpt lat="38.2789320" lon="-0.6744980">
        <ele>90.1</ele>
        <time>2020-12-06T08:49:28Z</time>
      </trkpt>
      <trkpt lat="38.2789520" lon="-0.6743980">
        <ele>90.1</ele>
        <time>2020-12-06T08:49:29Z</time>
      </trkpt>
      <trkpt lat="38.2789670" lon="-0.6742980">
        <ele>90.1</ele>
        <time>2020-12-06T08:49:30Z</time>
      </trkpt>
      <trkpt lat="38.2789850" lon="-0.6741980">
        <ele>90.1</ele>
        <time>2020-12-06T08:49:31Z</time>
      </trkpt>
      <trkpt lat="38.2790050" lon="-0.6741000">
        <ele>90.1</ele>
        <time>2020-12-06T08:49:32Z</time>
      </trkpt>
      <trkpt lat="38.2790270" lon="-0.6740020">
        <ele>90.1</ele>
        <time>2020-12-06T08:49:33Z</time>
      </trkpt>
      <trkpt lat="38.2790470" lon="-0.6739030">
        <ele>90.1</ele>
        <time>2020-12-06T08:49:34Z</time>
      </trkpt>
      <trkpt lat="38.2790630" lon="-0.6738050">
        <ele>91.1</ele>
        <time>2020-12-06T08:49:35Z</time>
      </trkpt>
      <trkpt lat="38.2790820" lon="-0.6737080">
        <ele>91.1</ele>
        <time>2020-12-06T08:49:36Z</time>
      </trkpt>
      <trkpt lat="38.2790980" lon="-0.6736080">
        <ele>91.1</ele>
        <time>2020-12-06T08:49:37Z</time>
      </trkpt>
      <trkpt lat="38.2791130" lon="-0.6735100">
        <ele>91.1</ele>
        <time>2020-12-06T08:49:38Z</time>
      </trkpt>
      <trkpt lat="38.2791250" lon="-0.6734130">
        <ele>91.1</ele>
        <time>2020-12-06T08:49:39Z</time>
      </trkpt>
      <trkpt lat="38.2791400" lon="-0.6733130">
        <ele>91.1</ele>
        <time>2020-12-06T08:49:40Z</time>
      </trkpt>
      <trkpt lat="38.2791520" lon="-0.6732120">
        <ele>91.1</ele>
        <time>2020-12-06T08:49:41Z</time>
      </trkpt>
      <trkpt lat="38.2791620" lon="-0.6731080">
        <ele>91.1</ele>
        <time>2020-12-06T08:49:42Z</time>
      </trkpt>
      <trkpt lat="38.2791780" lon="-0.6730070">
        <ele>91.1</ele>
        <time>2020-12-06T08:49:43Z</time>
      </trkpt>
      <trkpt lat="38.2791970" lon="-0.6729070">
        <ele>91.1</ele>
        <time>2020-12-06T08:49:44Z</time>
      </trkpt>
      <trkpt lat="38.2792150" lon="-0.6728050">
        <ele>91.1</ele>
        <time>2020-12-06T08:49:45Z</time>
      </trkpt>
      <trkpt lat="38.2792330" lon="-0.6727050">
        <ele>91.1</ele>
        <time>2020-12-06T08:49:46Z</time>
      </trkpt>
      <trkpt lat="38.2792520" lon="-0.6726030">
        <ele>91.1</ele>
        <time>2020-12-06T08:49:47Z</time>
      </trkpt>
      <trkpt lat="38.2792680" lon="-0.6725020">
        <ele>91.1</ele>
        <time>2020-12-06T08:49:48Z</time>
      </trkpt>
      <trkpt lat="38.2792820" lon="-0.6723980">
        <ele>90.1</ele>
        <time>2020-12-06T08:49:49Z</time>
      </trkpt>
      <trkpt lat="38.2792970" lon="-0.6722950">
        <ele>90.1</ele>
        <time>2020-12-06T08:49:50Z</time>
      </trkpt>
      <trkpt lat="38.2793130" lon="-0.6721820">
        <ele>90.1</ele>
        <time>2020-12-06T08:49:51Z</time>
      </trkpt>
      <trkpt lat="38.2793320" lon="-0.6720680">
        <ele>90.1</ele>
        <time>2020-12-06T08:49:52Z</time>
      </trkpt>
      <trkpt lat="38.2793550" lon="-0.6719520">
        <ele>90.1</ele>
        <time>2020-12-06T08:49:53Z</time>
      </trkpt>
      <trkpt lat="38.2793780" lon="-0.6718370">
        <ele>90.1</ele>
        <time>2020-12-06T08:49:54Z</time>
      </trkpt>
      <trkpt lat="38.2794000" lon="-0.6717230">
        <ele>90.1</ele>
        <time>2020-12-06T08:49:55Z</time>
      </trkpt>
      <trkpt lat="38.2794180" lon="-0.6716070">
        <ele>90.1</ele>
        <time>2020-12-06T08:49:56Z</time>
      </trkpt>
      <trkpt lat="38.2794380" lon="-0.6714920">
        <ele>90.1</ele>
        <time>2020-12-06T08:49:57Z</time>
      </trkpt>
      <trkpt lat="38.2794580" lon="-0.6713800">
        <ele>90.1</ele>
        <time>2020-12-06T08:49:58Z</time>
      </trkpt>
      <trkpt lat="38.2794800" lon="-0.6712680">
        <ele>90.1</ele>
        <time>2020-12-06T08:49:59Z</time>
      </trkpt>
      <trkpt lat="38.2794980" lon="-0.6711570">
        <ele>90.1</ele>
        <time>2020-12-06T08:50:00Z</time>
      </trkpt>
      <trkpt lat="38.2795180" lon="-0.6710450">
        <ele>90.1</ele>
        <time>2020-12-06T08:50:01Z</time>
      </trkpt>
      <trkpt lat="38.2795380" lon="-0.6709320">
        <ele>90.1</ele>
        <time>2020-12-06T08:50:02Z</time>
      </trkpt>
      <trkpt lat="38.2795570" lon="-0.6708200">
        <ele>90.1</ele>
        <time>2020-12-06T08:50:03Z</time>
      </trkpt>
      <trkpt lat="38.2795730" lon="-0.6707100">
        <ele>90.1</ele>
        <time>2020-12-06T08:50:04Z</time>
      </trkpt>
      <trkpt lat="38.2795950" lon="-0.6706000">
        <ele>90.1</ele>
        <time>2020-12-06T08:50:05Z</time>
      </trkpt>
      <trkpt lat="38.2796200" lon="-0.6704930">
        <ele>90.1</ele>
        <time>2020-12-06T08:50:06Z</time>
      </trkpt>
      <trkpt lat="38.2796400" lon="-0.6703830">
        <ele>90.1</ele>
        <time>2020-12-06T08:50:07Z</time>
      </trkpt>
      <trkpt lat="38.2796580" lon="-0.6702750">
        <ele>90.1</ele>
        <time>2020-12-06T08:50:08Z</time>
      </trkpt>
      <trkpt lat="38.2796750" lon="-0.6701670">
        <ele>90.1</ele>
        <time>2020-12-06T08:50:09Z</time>
      </trkpt>
      <trkpt lat="38.2796820" lon="-0.6700570">
        <ele>90.1</ele>
        <time>2020-12-06T08:50:10Z</time>
      </trkpt>
      <trkpt lat="38.2796780" lon="-0.6699570">
        <ele>90.1</ele>
        <time>2020-12-06T08:50:11Z</time>
      </trkpt>
      <trkpt lat="38.2796670" lon="-0.6698600">
        <ele>90.1</ele>
        <time>2020-12-06T08:50:12Z</time>
      </trkpt>
      <trkpt lat="38.2796370" lon="-0.6697650">
        <ele>90.1</ele>
        <time>2020-12-06T08:50:13Z</time>
      </trkpt>
      <trkpt lat="38.2796020" lon="-0.6696720">
        <ele>90.1</ele>
        <time>2020-12-06T08:50:14Z</time>
      </trkpt>
      <trkpt lat="38.2795680" lon="-0.6695750">
        <ele>91.1</ele>
        <time>2020-12-06T08:50:15Z</time>
      </trkpt>
      <trkpt lat="38.2795450" lon="-0.6694770">
        <ele>91.1</ele>
        <time>2020-12-06T08:50:16Z</time>
      </trkpt>
      <trkpt lat="38.2795470" lon="-0.6693770">
        <ele>91.1</ele>
        <time>2020-12-06T08:50:17Z</time>
      </trkpt>
      <trkpt lat="38.2795680" lon="-0.6692820">
        <ele>91.1</ele>
        <time>2020-12-06T08:50:18Z</time>
      </trkpt>
      <trkpt lat="38.2798880" lon="-0.6691900">
        <ele>103.0</ele>
        <time>2020-12-06T08:51:17Z</time>
      </trkpt>
      <trkpt lat="38.2798870" lon="-0.6692180">
        <ele>103.0</ele>
        <time>2020-12-06T08:51:18Z</time>
      </trkpt>
      <trkpt lat="38.2798850" lon="-0.6692470">
        <ele>103.0</ele>
        <time>2020-12-06T08:51:19Z</time>
      </trkpt>
      <trkpt lat="38.2798800" lon="-0.6692770">
        <ele>103.0</ele>
        <time>2020-12-06T08:51:20Z</time>
      </trkpt>
      <trkpt lat="38.2798730" lon="-0.6693080">
        <ele>103.0</ele>
        <time>2020-12-06T08:51:21Z</time>
      </trkpt>
      <trkpt lat="38.2798670" lon="-0.6693420">
        <ele>103.0</ele>
        <time>2020-12-06T08:51:22Z</time>
      </trkpt>
      <trkpt lat="38.2798570" lon="-0.6693780">
        <ele>103.0</ele>
        <time>2020-12-06T08:51:23Z</time>
      </trkpt>
      <trkpt lat="38.2798480" lon="-0.6694220">
        <ele>103.0</ele>
        <time>2020-12-06T08:51:24Z</time>
      </trkpt>
      <trkpt lat="38.2798380" lon="-0.6694580">
        <ele>103.0</ele>
        <time>2020-12-06T08:51:25Z</time>
      </trkpt>
      <trkpt lat="38.2798280" lon="-0.6695000">
        <ele>103.0</ele>
        <time>2020-12-06T08:51:26Z</time>
      </trkpt>
      <trkpt lat="38.2798200" lon="-0.6695400">
        <ele>103.0</ele>
        <time>2020-12-06T08:51:27Z</time>
      </trkpt>
      <trkpt lat="38.2798100" lon="-0.6695830">
        <ele>103.0</ele>
        <time>2020-12-06T08:51:28Z</time>
      </trkpt>
      <trkpt lat="38.2798130" lon="-0.6696150">
        <ele>103.0</ele>
        <time>2020-12-06T08:51:29Z</time>
      </trkpt>
      <trkpt lat="38.2798120" lon="-0.6696480">
        <ele>103.0</ele>
        <time>2020-12-06T08:51:30Z</time>
      </trkpt>
      <trkpt lat="38.2798030" lon="-0.6696830">
        <ele>103.0</ele>
        <time>2020-12-06T08:51:31Z</time>
      </trkpt>
      <trkpt lat="38.2797950" lon="-0.6697170">
        <ele>103.0</ele>
        <time>2020-12-06T08:51:32Z</time>
      </trkpt>
      <trkpt lat="38.2797870" lon="-0.6697520">
        <ele>103.0</ele>
        <time>2020-12-06T08:51:33Z</time>
      </trkpt>
      <trkpt lat="38.2797770" lon="-0.6697900">
        <ele>103.0</ele>
        <time>2020-12-06T08:51:34Z</time>
      </trkpt>
      <trkpt lat="38.2797670" lon="-0.6698280">
        <ele>103.0</ele>
        <time>2020-12-06T08:51:35Z</time>
      </trkpt>
      <trkpt lat="38.2797550" lon="-0.6698670">
        <ele>102.0</ele>
        <time>2020-12-06T08:51:36Z</time>
      </trkpt>
      <trkpt lat="38.2797470" lon="-0.6699070">
        <ele>102.0</ele>
        <time>2020-12-06T08:51:37Z</time>
      </trkpt>
      <trkpt lat="38.2797380" lon="-0.6699480">
        <ele>102.0</ele>
        <time>2020-12-06T08:51:38Z</time>
      </trkpt>
      <trkpt lat="38.2797300" lon="-0.6699920">
        <ele>102.0</ele>
        <time>2020-12-06T08:51:39Z</time>
      </trkpt>
      <trkpt lat="38.2797220" lon="-0.6700380">
        <ele>102.0</ele>
        <time>2020-12-06T08:51:40Z</time>
      </trkpt>
      <trkpt lat="38.2797130" lon="-0.6700830">
        <ele>102.0</ele>
        <time>2020-12-06T08:51:41Z</time>
      </trkpt>
      <trkpt lat="38.2797070" lon="-0.6701280">
        <ele>102.0</ele>
        <time>2020-12-06T08:51:42Z</time>
      </trkpt>
      <trkpt lat="38.2797000" lon="-0.6701730">
        <ele>102.0</ele>
        <time>2020-12-06T08:51:43Z</time>
      </trkpt>
      <trkpt lat="38.2796920" lon="-0.6702170">
        <ele>102.0</ele>
        <time>2020-12-06T08:51:44Z</time>
      </trkpt>
      <trkpt lat="38.2796830" lon="-0.6702620">
        <ele>102.0</ele>
        <time>2020-12-06T08:51:45Z</time>
      </trkpt>
      <trkpt lat="38.2796730" lon="-0.6703080">
        <ele>102.0</ele>
        <time>2020-12-06T08:51:46Z</time>
      </trkpt>
      <trkpt lat="38.2796630" lon="-0.6703530">
        <ele>102.0</ele>
        <time>2020-12-06T08:51:47Z</time>
      </trkpt>
      <trkpt lat="38.2796550" lon="-0.6703980">
        <ele>102.0</ele>
        <time>2020-12-06T08:51:48Z</time>
      </trkpt>
      <trkpt lat="38.2796450" lon="-0.6704450">
        <ele>102.0</ele>
        <time>2020-12-06T08:51:49Z</time>
      </trkpt>
      <trkpt lat="38.2796350" lon="-0.6704880">
        <ele>101.0</ele>
        <time>2020-12-06T08:51:50Z</time>
      </trkpt>
      <trkpt lat="38.2796270" lon="-0.6705350">
        <ele>101.0</ele>
        <time>2020-12-06T08:51:51Z</time>
      </trkpt>
      <trkpt lat="38.2796170" lon="-0.6705820">
        <ele>101.0</ele>
        <time>2020-12-06T08:51:52Z</time>
      </trkpt>
      <trkpt lat="38.2796070" lon="-0.6706300">
        <ele>101.0</ele>
        <time>2020-12-06T08:51:53Z</time>
      </trkpt>
      <trkpt lat="38.2795970" lon="-0.6706780">
        <ele>100.0</ele>
        <time>2020-12-06T08:51:54Z</time>
      </trkpt>
      <trkpt lat="38.2795880" lon="-0.6707270">
        <ele>100.0</ele>
        <time>2020-12-06T08:51:55Z</time>
      </trkpt>
      <trkpt lat="38.2795800" lon="-0.6707730">
        <ele>100.0</ele>
        <time>2020-12-06T08:51:56Z</time>
      </trkpt>
      <trkpt lat="38.2795720" lon="-0.6708200">
        <ele>100.0</ele>
        <time>2020-12-06T08:51:57Z</time>
      </trkpt>
      <trkpt lat="38.2795630" lon="-0.6708680">
        <ele>100.0</ele>
        <time>2020-12-06T08:51:58Z</time>
      </trkpt>
      <trkpt lat="38.2795530" lon="-0.6709130">
        <ele>100.0</ele>
        <time>2020-12-06T08:51:59Z</time>
      </trkpt>
      <trkpt lat="38.2795470" lon="-0.6709700">
        <ele>100.0</ele>
        <time>2020-12-06T08:52:00Z</time>
      </trkpt>
      <trkpt lat="38.2795430" lon="-0.6710200">
        <ele>100.0</ele>
        <time>2020-12-06T08:52:01Z</time>
      </trkpt>
      <trkpt lat="38.2795380" lon="-0.6710680">
        <ele>100.0</ele>
        <time>2020-12-06T08:52:02Z</time>
      </trkpt>
      <trkpt lat="38.2795320" lon="-0.6711220">
        <ele>100.0</ele>
        <time>2020-12-06T08:52:03Z</time>
      </trkpt>
      <trkpt lat="38.2795250" lon="-0.6711670">
        <ele>100.0</ele>
        <time>2020-12-06T08:52:04Z</time>
      </trkpt>
      <trkpt lat="38.2795180" lon="-0.6712120">
        <ele>100.0</ele>
        <time>2020-12-06T08:52:05Z</time>
      </trkpt>
      <trkpt lat="38.2795120" lon="-0.6712570">
        <ele>100.0</ele>
        <time>2020-12-06T08:52:06Z</time>
      </trkpt>
      <trkpt lat="38.2795070" lon="-0.6713030">
        <ele>100.0</ele>
        <time>2020-12-06T08:52:07Z</time>
      </trkpt>
      <trkpt lat="38.2794970" lon="-0.6713450">
        <ele>100.0</ele>
        <time>2020-12-06T08:52:08Z</time>
      </trkpt>
      <trkpt lat="38.2794850" lon="-0.6713850">
        <ele>100.0</ele>
        <time>2020-12-06T08:52:09Z</time>
      </trkpt>
      <trkpt lat="38.2794730" lon="-0.6714250">
        <ele>101.0</ele>
        <time>2020-12-06T08:52:10Z</time>
      </trkpt>
      <trkpt lat="38.2794630" lon="-0.6714620">
        <ele>101.0</ele>
        <time>2020-12-06T08:52:11Z</time>
      </trkpt>
      <trkpt lat="38.2794530" lon="-0.6715020">
        <ele>102.0</ele>
        <time>2020-12-06T08:52:12Z</time>
      </trkpt>
      <trkpt lat="38.2794470" lon="-0.6715450">
        <ele>102.0</ele>
        <time>2020-12-06T08:52:13Z</time>
      </trkpt>
      <trkpt lat="38.2794400" lon="-0.6715930">
        <ele>102.0</ele>
        <time>2020-12-06T08:52:14Z</time>
      </trkpt>
      <trkpt lat="38.2794350" lon="-0.6716420">
        <ele>102.0</ele>
        <time>2020-12-06T08:52:15Z</time>
      </trkpt>
      <trkpt lat="38.2794270" lon="-0.6716920">
        <ele>101.0</ele>
        <time>2020-12-06T08:52:16Z</time>
      </trkpt>
      <trkpt lat="38.2794170" lon="-0.6717400">
        <ele>101.0</ele>
        <time>2020-12-06T08:52:17Z</time>
      </trkpt>
      <trkpt lat="38.2794080" lon="-0.6717870">
        <ele>101.0</ele>
        <time>2020-12-06T08:52:18Z</time>
      </trkpt>
      <trkpt lat="38.2794000" lon="-0.6718330">
        <ele>101.0</ele>
        <time>2020-12-06T08:52:19Z</time>
      </trkpt>
      <trkpt lat="38.2793900" lon="-0.6718770">
        <ele>100.0</ele>
        <time>2020-12-06T08:52:20Z</time>
      </trkpt>
      <trkpt lat="38.2793800" lon="-0.6719200">
        <ele>100.0</ele>
        <time>2020-12-06T08:52:21Z</time>
      </trkpt>
      <trkpt lat="38.2793730" lon="-0.6719630">
        <ele>100.0</ele>
        <time>2020-12-06T08:52:22Z</time>
      </trkpt>
      <trkpt lat="38.2793630" lon="-0.6720070">
        <ele>100.0</ele>
        <time>2020-12-06T08:52:23Z</time>
      </trkpt>
      <trkpt lat="38.2793580" lon="-0.6720480">
        <ele>101.0</ele>
        <time>2020-12-06T08:52:24Z</time>
      </trkpt>
      <trkpt lat="38.2793530" lon="-0.6720920">
        <ele>101.0</ele>
        <time>2020-12-06T08:52:25Z</time>
      </trkpt>
      <trkpt lat="38.2793480" lon="-0.6721370">
        <ele>101.0</ele>
        <time>2020-12-06T08:52:26Z</time>
      </trkpt>
      <trkpt lat="38.2793430" lon="-0.6721800">
        <ele>101.0</ele>
        <time>2020-12-06T08:52:27Z</time>
      </trkpt>
      <trkpt lat="38.2793380" lon="-0.6722270">
        <ele>100.0</ele>
        <time>2020-12-06T08:52:28Z</time>
      </trkpt>
      <trkpt lat="38.2793350" lon="-0.6722720">
        <ele>100.0</ele>
        <time>2020-12-06T08:52:29Z</time>
      </trkpt>
      <trkpt lat="38.2793300" lon="-0.6723150">
        <ele>100.0</ele>
        <time>2020-12-06T08:52:30Z</time>
      </trkpt>
      <trkpt lat="38.2793270" lon="-0.6723550">
        <ele>100.0</ele>
        <time>2020-12-06T08:52:31Z</time>
      </trkpt>
      <trkpt lat="38.2793230" lon="-0.6723950">
        <ele>100.0</ele>
        <time>2020-12-06T08:52:32Z</time>
      </trkpt>
      <trkpt lat="38.2793180" lon="-0.6724350">
        <ele>100.0</ele>
        <time>2020-12-06T08:52:33Z</time>
      </trkpt>
      <trkpt lat="38.2793150" lon="-0.6724780">
        <ele>100.0</ele>
        <time>2020-12-06T08:52:34Z</time>
      </trkpt>
      <trkpt lat="38.2793080" lon="-0.6725200">
        <ele>100.0</ele>
        <time>2020-12-06T08:52:35Z</time>
      </trkpt>
      <trkpt lat="38.2793020" lon="-0.6725620">
        <ele>100.0</ele>
        <time>2020-12-06T08:52:36Z</time>
      </trkpt>
      <trkpt lat="38.2792920" lon="-0.6726000">
        <ele>100.0</ele>
        <time>2020-12-06T08:52:37Z</time>
      </trkpt>
      <trkpt lat="38.2792830" lon="-0.6726400">
        <ele>101.0</ele>
        <time>2020-12-06T08:52:38Z</time>
      </trkpt>
      <trkpt lat="38.2792730" lon="-0.6726820">
        <ele>101.0</ele>
        <time>2020-12-06T08:52:39Z</time>
      </trkpt>
      <trkpt lat="38.2792630" lon="-0.6727220">
        <ele>101.0</ele>
        <time>2020-12-06T08:52:40Z</time>
      </trkpt>
      <trkpt lat="38.2792530" lon="-0.6727620">
        <ele>101.0</ele>
        <time>2020-12-06T08:52:41Z</time>
      </trkpt>
      <trkpt lat="38.2792420" lon="-0.6728020">
        <ele>101.0</ele>
        <time>2020-12-06T08:52:42Z</time>
      </trkpt>
      <trkpt lat="38.2792320" lon="-0.6728430">
        <ele>101.0</ele>
        <time>2020-12-06T08:52:43Z</time>
      </trkpt>
      <trkpt lat="38.2792200" lon="-0.6728850">
        <ele>102.0</ele>
        <time>2020-12-06T08:52:44Z</time>
      </trkpt>
      <trkpt lat="38.2792120" lon="-0.6729280">
        <ele>102.0</ele>
        <time>2020-12-06T08:52:45Z</time>
      </trkpt>
      <trkpt lat="38.2792070" lon="-0.6729730">
        <ele>102.0</ele>
        <time>2020-12-06T08:52:46Z</time>
      </trkpt>
      <trkpt lat="38.2792050" lon="-0.6730200">
        <ele>102.0</ele>
        <time>2020-12-06T08:52:47Z</time>
      </trkpt>
      <trkpt lat="38.2792000" lon="-0.6730670">
        <ele>102.0</ele>
        <time>2020-12-06T08:52:48Z</time>
      </trkpt>
      <trkpt lat="38.2791900" lon="-0.6731120">
        <ele>102.0</ele>
        <time>2020-12-06T08:52:49Z</time>
      </trkpt>
      <trkpt lat="38.2791800" lon="-0.6731550">
        <ele>102.0</ele>
        <time>2020-12-06T08:52:50Z</time>
      </trkpt>
      <trkpt lat="38.2791680" lon="-0.6731950">
        <ele>102.0</ele>
        <time>2020-12-06T08:52:51Z</time>
      </trkpt>
      <trkpt lat="38.2791600" lon="-0.6732380">
        <ele>102.0</ele>
        <time>2020-12-06T08:52:52Z</time>
      </trkpt>
      <trkpt lat="38.2791530" lon="-0.6732800">
        <ele>102.0</ele>
        <time>2020-12-06T08:52:53Z</time>
      </trkpt>
      <trkpt lat="38.2791430" lon="-0.6733250">
        <ele>102.0</ele>
        <time>2020-12-06T08:52:54Z</time>
      </trkpt>
      <trkpt lat="38.2791350" lon="-0.6733680">
        <ele>102.0</ele>
        <time>2020-12-06T08:52:55Z</time>
      </trkpt>
      <trkpt lat="38.2791270" lon="-0.6734120">
        <ele>102.0</ele>
        <time>2020-12-06T08:52:56Z</time>
      </trkpt>
      <trkpt lat="38.2791200" lon="-0.6734500">
        <ele>102.0</ele>
        <time>2020-12-06T08:52:57Z</time>
      </trkpt>
      <trkpt lat="38.2791150" lon="-0.6734920">
        <ele>102.0</ele>
        <time>2020-12-06T08:52:58Z</time>
      </trkpt>
      <trkpt lat="38.2791080" lon="-0.6735300">
        <ele>102.0</ele>
        <time>2020-12-06T08:52:59Z</time>
      </trkpt>
      <trkpt lat="38.2791000" lon="-0.6735700">
        <ele>102.0</ele>
        <time>2020-12-06T08:53:00Z</time>
      </trkpt>
      <trkpt lat="38.2790930" lon="-0.6736120">
        <ele>102.0</ele>
        <time>2020-12-06T08:53:01Z</time>
      </trkpt>
      <trkpt lat="38.2790870" lon="-0.6736520">
        <ele>102.0</ele>
        <time>2020-12-06T08:53:02Z</time>
      </trkpt>
      <trkpt lat="38.2790820" lon="-0.6736920">
        <ele>102.0</ele>
        <time>2020-12-06T08:53:03Z</time>
      </trkpt>
      <trkpt lat="38.2790750" lon="-0.6737350">
        <ele>102.0</ele>
        <time>2020-12-06T08:53:04Z</time>
      </trkpt>
      <trkpt lat="38.2790700" lon="-0.6737750">
        <ele>102.0</ele>
        <time>2020-12-06T08:53:05Z</time>
      </trkpt>
      <trkpt lat="38.2790630" lon="-0.6738170">
        <ele>102.0</ele>
        <time>2020-12-06T08:53:06Z</time>
      </trkpt>
      <trkpt lat="38.2790550" lon="-0.6738580">
        <ele>101.0</ele>
        <time>2020-12-06T08:53:07Z</time>
      </trkpt>
      <trkpt lat="38.2790470" lon="-0.6738980">
        <ele>101.0</ele>
        <time>2020-12-06T08:53:08Z</time>
      </trkpt>
      <trkpt lat="38.2790380" lon="-0.6739380">
        <ele>101.0</ele>
        <time>2020-12-06T08:53:09Z</time>
      </trkpt>
      <trkpt lat="38.2790330" lon="-0.6739800">
        <ele>101.0</ele>
        <time>2020-12-06T08:53:10Z</time>
      </trkpt>
      <trkpt lat="38.2790270" lon="-0.6740230">
        <ele>101.0</ele>
        <time>2020-12-06T08:53:11Z</time>
      </trkpt>
      <trkpt lat="38.2790180" lon="-0.6740630">
        <ele>101.0</ele>
        <time>2020-12-06T08:53:12Z</time>
      </trkpt>
      <trkpt lat="38.2790120" lon="-0.6741030">
        <ele>100.0</ele>
        <time>2020-12-06T08:53:13Z</time>
      </trkpt>
      <trkpt lat="38.2790050" lon="-0.6741430">
        <ele>100.0</ele>
        <time>2020-12-06T08:53:14Z</time>
      </trkpt>
      <trkpt lat="38.2789970" lon="-0.6741820">
        <ele>100.0</ele>
        <time>2020-12-06T08:53:15Z</time>
      </trkpt>
      <trkpt lat="38.2789880" lon="-0.6742200">
        <ele>100.0</ele>
        <time>2020-12-06T08:53:16Z</time>
      </trkpt>
      <trkpt lat="38.2789770" lon="-0.6742570">
        <ele>100.0</ele>
        <time>2020-12-06T08:53:17Z</time>
      </trkpt>
      <trkpt lat="38.2789680" lon="-0.6742950">
        <ele>100.0</ele>
        <time>2020-12-06T08:53:18Z</time>
      </trkpt>
      <trkpt lat="38.2789620" lon="-0.6743330">
        <ele>101.0</ele>
        <time>2020-12-06T08:53:19Z</time>
      </trkpt>
      <trkpt lat="38.2789580" lon="-0.6743700">
        <ele>101.0</ele>
        <time>2020-12-06T08:53:20Z</time>
      </trkpt>
      <trkpt lat="38.2789530" lon="-0.6744070">
        <ele>101.0</ele>
        <time>2020-12-06T08:53:21Z</time>
      </trkpt>
      <trkpt lat="38.2789480" lon="-0.6744430">
        <ele>101.0</ele>
        <time>2020-12-06T08:53:22Z</time>
      </trkpt>
      <trkpt lat="38.2789370" lon="-0.6744820">
        <ele>101.0</ele>
        <time>2020-12-06T08:53:23Z</time>
      </trkpt>
      <trkpt lat="38.2789270" lon="-0.6745200">
        <ele>101.0</ele>
        <time>2020-12-06T08:53:24Z</time>
      </trkpt>
      <trkpt lat="38.2789150" lon="-0.6745530">
        <ele>101.0</ele>
        <time>2020-12-06T08:53:25Z</time>
      </trkpt>
      <trkpt lat="38.2789050" lon="-0.6745920">
        <ele>101.0</ele>
        <time>2020-12-06T08:53:26Z</time>
      </trkpt>
      <trkpt lat="38.2789000" lon="-0.6746300">
        <ele>101.0</ele>
        <time>2020-12-06T08:53:27Z</time>
      </trkpt>
      <trkpt lat="38.2788950" lon="-0.6746720">
        <ele>101.0</ele>
        <time>2020-12-06T08:53:28Z</time>
      </trkpt>
      <trkpt lat="38.2788870" lon="-0.6747120">
        <ele>101.0</ele>
        <time>2020-12-06T08:53:29Z</time>
      </trkpt>
      <trkpt lat="38.2788800" lon="-0.6747470">
        <ele>101.0</ele>
        <time>2020-12-06T08:53:30Z</time>
      </trkpt>
      <trkpt lat="38.2788770" lon="-0.6747820">
        <ele>101.0</ele>
        <time>2020-12-06T08:53:31Z</time>
      </trkpt>
      <trkpt lat="38.2788720" lon="-0.6748200">
        <ele>101.0</ele>
        <time>2020-12-06T08:53:32Z</time>
      </trkpt>
      <trkpt lat="38.2788700" lon="-0.6748580">
        <ele>101.0</ele>
        <time>2020-12-06T08:53:33Z</time>
      </trkpt>
      <trkpt lat="38.2788670" lon="-0.6748980">
        <ele>101.0</ele>
        <time>2020-12-06T08:53:34Z</time>
      </trkpt>
      <trkpt lat="38.2788630" lon="-0.6749400">
        <ele>101.0</ele>
        <time>2020-12-06T08:53:35Z</time>
      </trkpt>
      <trkpt lat="38.2788620" lon="-0.6749830">
        <ele>101.0</ele>
        <time>2020-12-06T08:53:36Z</time>
      </trkpt>
      <trkpt lat="38.2788570" lon="-0.6750270">
        <ele>101.0</ele>
        <time>2020-12-06T08:53:37Z</time>
      </trkpt>
      <trkpt lat="38.2788500" lon="-0.6750700">
        <ele>101.0</ele>
        <time>2020-12-06T08:53:38Z</time>
      </trkpt>
      <trkpt lat="38.2788450" lon="-0.6751130">
        <ele>101.0</ele>
        <time>2020-12-06T08:53:39Z</time>
      </trkpt>
      <trkpt lat="38.2788400" lon="-0.6751570">
        <ele>101.0</ele>
        <time>2020-12-06T08:53:40Z</time>
      </trkpt>
      <trkpt lat="38.2788330" lon="-0.6752020">
        <ele>100.0</ele>
        <time>2020-12-06T08:53:41Z</time>
      </trkpt>
      <trkpt lat="38.2788250" lon="-0.6752450">
        <ele>100.0</ele>
        <time>2020-12-06T08:53:42Z</time>
      </trkpt>
      <trkpt lat="38.2788170" lon="-0.6752900">
        <ele>100.0</ele>
        <time>2020-12-06T08:53:43Z</time>
      </trkpt>
      <trkpt lat="38.2788070" lon="-0.6753330">
        <ele>100.0</ele>
        <time>2020-12-06T08:53:44Z</time>
      </trkpt>
      <trkpt lat="38.2787980" lon="-0.6753750">
        <ele>100.0</ele>
        <time>2020-12-06T08:53:45Z</time>
      </trkpt>
      <trkpt lat="38.2787900" lon="-0.6754170">
        <ele>100.0</ele>
        <time>2020-12-06T08:53:46Z</time>
      </trkpt>
      <trkpt lat="38.2787820" lon="-0.6754580">
        <ele>100.0</ele>
        <time>2020-12-06T08:53:47Z</time>
      </trkpt>
      <trkpt lat="38.2787730" lon="-0.6755000">
        <ele>100.0</ele>
        <time>2020-12-06T08:53:48Z</time>
      </trkpt>
      <trkpt lat="38.2787650" lon="-0.6755400">
        <ele>100.0</ele>
        <time>2020-12-06T08:53:49Z</time>
      </trkpt>
      <trkpt lat="38.2787550" lon="-0.6755820">
        <ele>100.0</ele>
        <time>2020-12-06T08:53:50Z</time>
      </trkpt>
      <trkpt lat="38.2787470" lon="-0.6756180">
        <ele>101.0</ele>
        <time>2020-12-06T08:53:51Z</time>
      </trkpt>
      <trkpt lat="38.2787380" lon="-0.6756580">
        <ele>101.0</ele>
        <time>2020-12-06T08:53:52Z</time>
      </trkpt>
      <trkpt lat="38.2787330" lon="-0.6756930">
        <ele>102.0</ele>
        <time>2020-12-06T08:53:53Z</time>
      </trkpt>
      <trkpt lat="38.2787280" lon="-0.6757320">
        <ele>102.0</ele>
        <time>2020-12-06T08:53:54Z</time>
      </trkpt>
      <trkpt lat="38.2787170" lon="-0.6757720">
        <ele>102.0</ele>
        <time>2020-12-06T08:53:55Z</time>
      </trkpt>
      <trkpt lat="38.2787020" lon="-0.6758100">
        <ele>102.0</ele>
        <time>2020-12-06T08:53:56Z</time>
      </trkpt>
      <trkpt lat="38.2786880" lon="-0.6758470">
        <ele>102.0</ele>
        <time>2020-12-06T08:53:57Z</time>
      </trkpt>
      <trkpt lat="38.2786820" lon="-0.6758900">
        <ele>102.0</ele>
        <time>2020-12-06T08:53:58Z</time>
      </trkpt>
      <trkpt lat="38.2786770" lon="-0.6759280">
        <ele>101.0</ele>
        <time>2020-12-06T08:53:59Z</time>
      </trkpt>
      <trkpt lat="38.2786680" lon="-0.6759670">
        <ele>101.0</ele>
        <time>2020-12-06T08:54:00Z</time>
      </trkpt>
      <trkpt lat="38.2786620" lon="-0.6760050">
        <ele>101.0</ele>
        <time>2020-12-06T08:54:01Z</time>
      </trkpt>
      <trkpt lat="38.2786520" lon="-0.6760450">
        <ele>101.0</ele>
        <time>2020-12-06T08:54:02Z</time>
      </trkpt>
      <trkpt lat="38.2786430" lon="-0.6760850">
        <ele>101.0</ele>
        <time>2020-12-06T08:54:03Z</time>
      </trkpt>
      <trkpt lat="38.2786320" lon="-0.6761230">
        <ele>101.0</ele>
        <time>2020-12-06T08:54:04Z</time>
      </trkpt>
      <trkpt lat="38.2786220" lon="-0.6761620">
        <ele>101.0</ele>
        <time>2020-12-06T08:54:05Z</time>
      </trkpt>
      <trkpt lat="38.2786120" lon="-0.6761980">
        <ele>101.0</ele>
        <time>2020-12-06T08:54:06Z</time>
      </trkpt>
      <trkpt lat="38.2786020" lon="-0.6762380">
        <ele>101.0</ele>
        <time>2020-12-06T08:54:07Z</time>
      </trkpt>
      <trkpt lat="38.2785920" lon="-0.6762750">
        <ele>101.0</ele>
        <time>2020-12-06T08:54:08Z</time>
      </trkpt>
      <trkpt lat="38.2785800" lon="-0.6763120">
        <ele>101.0</ele>
        <time>2020-12-06T08:54:09Z</time>
      </trkpt>
      <trkpt lat="38.2785700" lon="-0.6763500">
        <ele>101.0</ele>
        <time>2020-12-06T08:54:10Z</time>
      </trkpt>
      <trkpt lat="38.2785670" lon="-0.6763930">
        <ele>101.0</ele>
        <time>2020-12-06T08:54:11Z</time>
      </trkpt>
      <trkpt lat="38.2785630" lon="-0.6764380">
        <ele>101.0</ele>
        <time>2020-12-06T08:54:12Z</time>
      </trkpt>
      <trkpt lat="38.2785580" lon="-0.6764820">
        <ele>101.0</ele>
        <time>2020-12-06T08:54:13Z</time>
      </trkpt>
      <trkpt lat="38.2785530" lon="-0.6765250">
        <ele>101.0</ele>
        <time>2020-12-06T08:54:14Z</time>
      </trkpt>
      <trkpt lat="38.2785450" lon="-0.6765720">
        <ele>101.0</ele>
        <time>2020-12-06T08:54:15Z</time>
      </trkpt>
      <trkpt lat="38.2785400" lon="-0.6766170">
        <ele>101.0</ele>
        <time>2020-12-06T08:54:16Z</time>
      </trkpt>
      <trkpt lat="38.2785350" lon="-0.6766620">
        <ele>101.0</ele>
        <time>2020-12-06T08:54:17Z</time>
      </trkpt>
      <trkpt lat="38.2785320" lon="-0.6767070">
        <ele>101.0</ele>
        <time>2020-12-06T08:54:18Z</time>
      </trkpt>
      <trkpt lat="38.2785300" lon="-0.6767520">
        <ele>101.0</ele>
        <time>2020-12-06T08:54:19Z</time>
      </trkpt>
      <trkpt lat="38.2785280" lon="-0.6767970">
        <ele>101.0</ele>
        <time>2020-12-06T08:54:20Z</time>
      </trkpt>
      <trkpt lat="38.2785250" lon="-0.6768400">
        <ele>101.0</ele>
        <time>2020-12-06T08:54:21Z</time>
      </trkpt>
      <trkpt lat="38.2785200" lon="-0.6768850">
        <ele>101.0</ele>
        <time>2020-12-06T08:54:22Z</time>
      </trkpt>
      <trkpt lat="38.2785130" lon="-0.6769270">
        <ele>101.0</ele>
        <time>2020-12-06T08:54:23Z</time>
      </trkpt>
      <trkpt lat="38.2785080" lon="-0.6769720">
        <ele>101.0</ele>
        <time>2020-12-06T08:54:24Z</time>
      </trkpt>
      <trkpt lat="38.2785020" lon="-0.6770170">
        <ele>101.0</ele>
        <time>2020-12-06T08:54:25Z</time>
      </trkpt>
      <trkpt lat="38.2784920" lon="-0.6770620">
        <ele>101.0</ele>
        <time>2020-12-06T08:54:26Z</time>
      </trkpt>
      <trkpt lat="38.2784830" lon="-0.6771030">
        <ele>100.0</ele>
        <time>2020-12-06T08:54:27Z</time>
      </trkpt>
      <trkpt lat="38.2784770" lon="-0.6771450">
        <ele>100.0</ele>
        <time>2020-12-06T08:54:28Z</time>
      </trkpt>
      <trkpt lat="38.2784700" lon="-0.6771880">
        <ele>101.0</ele>
        <time>2020-12-06T08:54:29Z</time>
      </trkpt>
      <trkpt lat="38.2784620" lon="-0.6772320">
        <ele>101.0</ele>
        <time>2020-12-06T08:54:30Z</time>
      </trkpt>
      <trkpt lat="38.2784550" lon="-0.6772770">
        <ele>101.0</ele>
        <time>2020-12-06T08:54:31Z</time>
      </trkpt>
      <trkpt lat="38.2784500" lon="-0.6773220">
        <ele>101.0</ele>
        <time>2020-12-06T08:54:32Z</time>
      </trkpt>
      <trkpt lat="38.2784420" lon="-0.6773630">
        <ele>100.0</ele>
        <time>2020-12-06T08:54:33Z</time>
      </trkpt>
      <trkpt lat="38.2784330" lon="-0.6774070">
        <ele>100.0</ele>
        <time>2020-12-06T08:54:34Z</time>
      </trkpt>
      <trkpt lat="38.2784320" lon="-0.6774520">
        <ele>100.0</ele>
        <time>2020-12-06T08:54:35Z</time>
      </trkpt>
      <trkpt lat="38.2784300" lon="-0.6774970">
        <ele>100.0</ele>
        <time>2020-12-06T08:54:36Z</time>
      </trkpt>
      <trkpt lat="38.2784270" lon="-0.6775400">
        <ele>100.0</ele>
        <time>2020-12-06T08:54:37Z</time>
      </trkpt>
      <trkpt lat="38.2784230" lon="-0.6775820">
        <ele>100.0</ele>
        <time>2020-12-06T08:54:38Z</time>
      </trkpt>
      <trkpt lat="38.2784200" lon="-0.6776200">
        <ele>100.0</ele>
        <time>2020-12-06T08:54:39Z</time>
      </trkpt>
      <trkpt lat="38.2784170" lon="-0.6776600">
        <ele>100.0</ele>
        <time>2020-12-06T08:54:40Z</time>
      </trkpt>
      <trkpt lat="38.2784130" lon="-0.6776950">
        <ele>100.0</ele>
        <time>2020-12-06T08:54:41Z</time>
      </trkpt>
      <trkpt lat="38.2784100" lon="-0.6777320">
        <ele>100.0</ele>
        <time>2020-12-06T08:54:42Z</time>
      </trkpt>
      <trkpt lat="38.2784080" lon="-0.6777700">
        <ele>98.9</ele>
        <time>2020-12-06T08:54:43Z</time>
      </trkpt>
      <trkpt lat="38.2784050" lon="-0.6778100">
        <ele>98.9</ele>
        <time>2020-12-06T08:54:44Z</time>
      </trkpt>
      <trkpt lat="38.2784020" lon="-0.6778520">
        <ele>100.0</ele>
        <time>2020-12-06T08:54:45Z</time>
      </trkpt>
      <trkpt lat="38.2783980" lon="-0.6778920">
        <ele>100.0</ele>
        <time>2020-12-06T08:54:46Z</time>
      </trkpt>
      <trkpt lat="38.2783920" lon="-0.6779300">
        <ele>100.0</ele>
        <time>2020-12-06T08:54:47Z</time>
      </trkpt>
      <trkpt lat="38.2783870" lon="-0.6779700">
        <ele>100.0</ele>
        <time>2020-12-06T08:54:48Z</time>
      </trkpt>
      <trkpt lat="38.2783820" lon="-0.6780100">
        <ele>100.0</ele>
        <time>2020-12-06T08:54:49Z</time>
      </trkpt>
      <trkpt lat="38.2783770" lon="-0.6780450">
        <ele>100.0</ele>
        <time>2020-12-06T08:54:50Z</time>
      </trkpt>
      <trkpt lat="38.2783700" lon="-0.6780830">
        <ele>100.0</ele>
        <time>2020-12-06T08:54:51Z</time>
      </trkpt>
      <trkpt lat="38.2783620" lon="-0.6781270">
        <ele>100.0</ele>
        <time>2020-12-06T08:54:52Z</time>
      </trkpt>
      <trkpt lat="38.2783530" lon="-0.6781680">
        <ele>100.0</ele>
        <time>2020-12-06T08:54:53Z</time>
      </trkpt>
      <trkpt lat="38.2783470" lon="-0.6782100">
        <ele>100.0</ele>
        <time>2020-12-06T08:54:54Z</time>
      </trkpt>
      <trkpt lat="38.2783400" lon="-0.6782500">
        <ele>100.0</ele>
        <time>2020-12-06T08:54:55Z</time>
      </trkpt>
      <trkpt lat="38.2783330" lon="-0.6782900">
        <ele>100.0</ele>
        <time>2020-12-06T08:54:56Z</time>
      </trkpt>
      <trkpt lat="38.2783280" lon="-0.6783280">
        <ele>98.9</ele>
        <time>2020-12-06T08:54:57Z</time>
      </trkpt>
      <trkpt lat="38.2783220" lon="-0.6783680">
        <ele>98.9</ele>
        <time>2020-12-06T08:54:58Z</time>
      </trkpt>
      <trkpt lat="38.2783150" lon="-0.6784070">
        <ele>98.9</ele>
        <time>2020-12-06T08:54:59Z</time>
      </trkpt>
      <trkpt lat="38.2783130" lon="-0.6784480">
        <ele>98.9</ele>
        <time>2020-12-06T08:55:00Z</time>
      </trkpt>
      <trkpt lat="38.2783100" lon="-0.6784880">
        <ele>98.9</ele>
        <time>2020-12-06T08:55:01Z</time>
      </trkpt>
      <trkpt lat="38.2783050" lon="-0.6785320">
        <ele>98.9</ele>
        <time>2020-12-06T08:55:02Z</time>
      </trkpt>
      <trkpt lat="38.2783000" lon="-0.6785730">
        <ele>98.9</ele>
        <time>2020-12-06T08:55:03Z</time>
      </trkpt>
      <trkpt lat="38.2782930" lon="-0.6786150">
        <ele>98.9</ele>
        <time>2020-12-06T08:55:04Z</time>
      </trkpt>
      <trkpt lat="38.2782870" lon="-0.6786530">
        <ele>98.9</ele>
        <time>2020-12-06T08:55:05Z</time>
      </trkpt>
      <trkpt lat="38.2782780" lon="-0.6786900">
        <ele>98.9</ele>
        <time>2020-12-06T08:55:06Z</time>
      </trkpt>
      <trkpt lat="38.2782680" lon="-0.6787220">
        <ele>98.9</ele>
        <time>2020-12-06T08:55:07Z</time>
      </trkpt>
      <trkpt lat="38.2782580" lon="-0.6787580">
        <ele>98.9</ele>
        <time>2020-12-06T08:55:08Z</time>
      </trkpt>
      <trkpt lat="38.2782480" lon="-0.6787950">
        <ele>98.9</ele>
        <time>2020-12-06T08:55:09Z</time>
      </trkpt>
      <trkpt lat="38.2782380" lon="-0.6788330">
        <ele>98.9</ele>
        <time>2020-12-06T08:55:10Z</time>
      </trkpt>
      <trkpt lat="38.2782300" lon="-0.6788700">
        <ele>98.0</ele>
        <time>2020-12-06T08:55:11Z</time>
      </trkpt>
      <trkpt lat="38.2782250" lon="-0.6789080">
        <ele>98.0</ele>
        <time>2020-12-06T08:55:12Z</time>
      </trkpt>
      <trkpt lat="38.2782180" lon="-0.6789430">
        <ele>98.0</ele>
        <time>2020-12-06T08:55:13Z</time>
      </trkpt>
      <trkpt lat="38.2782120" lon="-0.6789800">
        <ele>98.0</ele>
        <time>2020-12-06T08:55:14Z</time>
      </trkpt>
      <trkpt lat="38.2782050" lon="-0.6790170">
        <ele>98.0</ele>
        <time>2020-12-06T08:55:15Z</time>
      </trkpt>
      <trkpt lat="38.2781970" lon="-0.6790530">
        <ele>98.0</ele>
        <time>2020-12-06T08:55:16Z</time>
      </trkpt>
      <trkpt lat="38.2781870" lon="-0.6790900">
        <ele>98.0</ele>
        <time>2020-12-06T08:55:17Z</time>
      </trkpt>
      <trkpt lat="38.2781770" lon="-0.6791270">
        <ele>98.0</ele>
        <time>2020-12-06T08:55:18Z</time>
      </trkpt>
      <trkpt lat="38.2781680" lon="-0.6791670">
        <ele>98.0</ele>
        <time>2020-12-06T08:55:19Z</time>
      </trkpt>
      <trkpt lat="38.2781600" lon="-0.6792070">
        <ele>98.0</ele>
        <time>2020-12-06T08:55:20Z</time>
      </trkpt>
      <trkpt lat="38.2781520" lon="-0.6792450">
        <ele>98.0</ele>
        <time>2020-12-06T08:55:21Z</time>
      </trkpt>
      <trkpt lat="38.2781450" lon="-0.6792850">
        <ele>98.0</ele>
        <time>2020-12-06T08:55:22Z</time>
      </trkpt>
      <trkpt lat="38.2781400" lon="-0.6793250">
        <ele>98.0</ele>
        <time>2020-12-06T08:55:23Z</time>
      </trkpt>
      <trkpt lat="38.2781350" lon="-0.6793650">
        <ele>98.0</ele>
        <time>2020-12-06T08:55:24Z</time>
      </trkpt>
      <trkpt lat="38.2781280" lon="-0.6794030">
        <ele>98.0</ele>
        <time>2020-12-06T08:55:25Z</time>
      </trkpt>
      <trkpt lat="38.2781200" lon="-0.6794420">
        <ele>98.0</ele>
        <time>2020-12-06T08:55:26Z</time>
      </trkpt>
      <trkpt lat="38.2781120" lon="-0.6794800">
        <ele>98.0</ele>
        <time>2020-12-06T08:55:27Z</time>
      </trkpt>
      <trkpt lat="38.2781030" lon="-0.6795180">
        <ele>98.0</ele>
        <time>2020-12-06T08:55:28Z</time>
      </trkpt>
      <trkpt lat="38.2780950" lon="-0.6795550">
        <ele>98.0</ele>
        <time>2020-12-06T08:55:29Z</time>
      </trkpt>
      <trkpt lat="38.2780870" lon="-0.6795900">
        <ele>98.0</ele>
        <time>2020-12-06T08:55:30Z</time>
      </trkpt>
      <trkpt lat="38.2780770" lon="-0.6796250">
        <ele>98.0</ele>
        <time>2020-12-06T08:55:31Z</time>
      </trkpt>
      <trkpt lat="38.2780670" lon="-0.6796580">
        <ele>98.0</ele>
        <time>2020-12-06T08:55:32Z</time>
      </trkpt>
      <trkpt lat="38.2780580" lon="-0.6796950">
        <ele>98.0</ele>
        <time>2020-12-06T08:55:33Z</time>
      </trkpt>
      <trkpt lat="38.2780480" lon="-0.6797330">
        <ele>98.0</ele>
        <time>2020-12-06T08:55:34Z</time>
      </trkpt>
      <trkpt lat="38.2780400" lon="-0.6797700">
        <ele>98.0</ele>
        <time>2020-12-06T08:55:35Z</time>
      </trkpt>
      <trkpt lat="38.2780330" lon="-0.6798080">
        <ele>98.0</ele>
        <time>2020-12-06T08:55:36Z</time>
      </trkpt>
      <trkpt lat="38.2780230" lon="-0.6798470">
        <ele>98.0</ele>
        <time>2020-12-06T08:55:37Z</time>
      </trkpt>
      <trkpt lat="38.2780130" lon="-0.6798870">
        <ele>98.0</ele>
        <time>2020-12-06T08:55:38Z</time>
      </trkpt>
      <trkpt lat="38.2780030" lon="-0.6799250">
        <ele>98.0</ele>
        <time>2020-12-06T08:55:39Z</time>
      </trkpt>
      <trkpt lat="38.2779930" lon="-0.6799630">
        <ele>98.0</ele>
        <time>2020-12-06T08:55:40Z</time>
      </trkpt>
      <trkpt lat="38.2779870" lon="-0.6800070">
        <ele>98.0</ele>
        <time>2020-12-06T08:55:41Z</time>
      </trkpt>
      <trkpt lat="38.2779800" lon="-0.6800500">
        <ele>98.0</ele>
        <time>2020-12-06T08:55:42Z</time>
      </trkpt>
      <trkpt lat="38.2779750" lon="-0.6800900">
        <ele>98.0</ele>
        <time>2020-12-06T08:55:43Z</time>
      </trkpt>
      <trkpt lat="38.2779680" lon="-0.6801320">
        <ele>98.0</ele>
        <time>2020-12-06T08:55:44Z</time>
      </trkpt>
      <trkpt lat="38.2779630" lon="-0.6801720">
        <ele>98.9</ele>
        <time>2020-12-06T08:55:45Z</time>
      </trkpt>
      <trkpt lat="38.2779580" lon="-0.6802120">
        <ele>98.9</ele>
        <time>2020-12-06T08:55:46Z</time>
      </trkpt>
      <trkpt lat="38.2779530" lon="-0.6802520">
        <ele>98.0</ele>
        <time>2020-12-06T08:55:47Z</time>
      </trkpt>
      <trkpt lat="38.2779500" lon="-0.6802900">
        <ele>98.0</ele>
        <time>2020-12-06T08:55:48Z</time>
      </trkpt>
      <trkpt lat="38.2779450" lon="-0.6803270">
        <ele>98.0</ele>
        <time>2020-12-06T08:55:49Z</time>
      </trkpt>
      <trkpt lat="38.2779420" lon="-0.6803580">
        <ele>98.0</ele>
        <time>2020-12-06T08:55:50Z</time>
      </trkpt>
      <trkpt lat="38.2779380" lon="-0.6803850">
        <ele>98.0</ele>
        <time>2020-12-06T08:55:51Z</time>
      </trkpt>
      <trkpt lat="38.2779320" lon="-0.6804130">
        <ele>98.0</ele>
        <time>2020-12-06T08:55:52Z</time>
      </trkpt>
      <trkpt lat="38.2779330" lon="-0.6804370">
        <ele>98.0</ele>
        <time>2020-12-06T08:55:53Z</time>
      </trkpt>
      <trkpt lat="38.2779400" lon="-0.6804500">
        <ele>98.0</ele>
        <time>2020-12-06T08:55:54Z</time>
      </trkpt>
      <trkpt lat="38.2779470" lon="-0.6804550">
        <ele>98.0</ele>
        <time>2020-12-06T08:55:55Z</time>
      </trkpt>
      <trkpt lat="38.2779550" lon="-0.6804600">
        <ele>98.0</ele>
        <time>2020-12-06T08:55:56Z</time>
      </trkpt>
      <trkpt lat="38.2779650" lon="-0.6804600">
        <ele>98.0</ele>
        <time>2020-12-06T08:55:57Z</time>
      </trkpt>
      <trkpt lat="38.2779750" lon="-0.6804530">
        <ele>98.0</ele>
        <time>2020-12-06T08:55:58Z</time>
      </trkpt>
      <trkpt lat="38.2779820" lon="-0.6804420">
        <ele>98.0</ele>
        <time>2020-12-06T08:55:59Z</time>
      </trkpt>
      <trkpt lat="38.2779870" lon="-0.6804250">
        <ele>98.0</ele>
        <time>2020-12-06T08:56:00Z</time>
      </trkpt>
      <trkpt lat="38.2779920" lon="-0.6804020">
        <ele>98.0</ele>
        <time>2020-12-06T08:56:01Z</time>
      </trkpt>
      <trkpt lat="38.2779920" lon="-0.6803750">
        <ele>98.0</ele>
        <time>2020-12-06T08:56:02Z</time>
      </trkpt>
      <trkpt lat="38.2779970" lon="-0.6803450">
        <ele>98.0</ele>
        <time>2020-12-06T08:56:03Z</time>
      </trkpt>
      <trkpt lat="38.2780050" lon="-0.6803150">
        <ele>98.0</ele>
        <time>2020-12-06T08:56:04Z</time>
      </trkpt>
      <trkpt lat="38.2780130" lon="-0.6802820">
        <ele>98.0</ele>
        <time>2020-12-06T08:56:05Z</time>
      </trkpt>
      <trkpt lat="38.2780170" lon="-0.6802500">
        <ele>98.0</ele>
        <time>2020-12-06T08:56:06Z</time>
      </trkpt>
      <trkpt lat="38.2780220" lon="-0.6802170">
        <ele>98.0</ele>
        <time>2020-12-06T08:56:07Z</time>
      </trkpt>
      <trkpt lat="38.2780270" lon="-0.6801870">
        <ele>98.0</ele>
        <time>2020-12-06T08:56:08Z</time>
      </trkpt>
      <trkpt lat="38.2780350" lon="-0.6801550">
        <ele>98.0</ele>
        <time>2020-12-06T08:56:09Z</time>
      </trkpt>
      <trkpt lat="38.2780430" lon="-0.6801220">
        <ele>98.0</ele>
        <time>2020-12-06T08:56:10Z</time>
      </trkpt>
      <trkpt lat="38.2780530" lon="-0.6800850">
        <ele>98.0</ele>
        <time>2020-12-06T08:56:11Z</time>
      </trkpt>
      <trkpt lat="38.2780630" lon="-0.6800480">
        <ele>98.0</ele>
        <time>2020-12-06T08:56:12Z</time>
      </trkpt>
      <trkpt lat="38.2780730" lon="-0.6800100">
        <ele>98.0</ele>
        <time>2020-12-06T08:56:13Z</time>
      </trkpt>
      <trkpt lat="38.2780830" lon="-0.6799750">
        <ele>98.0</ele>
        <time>2020-12-06T08:56:14Z</time>
      </trkpt>
      <trkpt lat="38.2780900" lon="-0.6799350">
        <ele>98.0</ele>
        <time>2020-12-06T08:56:15Z</time>
      </trkpt>
      <trkpt lat="38.2780980" lon="-0.6798930">
        <ele>98.0</ele>
        <time>2020-12-06T08:56:16Z</time>
      </trkpt>
      <trkpt lat="38.2781070" lon="-0.6798500">
        <ele>98.0</ele>
        <time>2020-12-06T08:56:17Z</time>
      </trkpt>
      <trkpt lat="38.2781130" lon="-0.6798070">
        <ele>98.0</ele>
        <time>2020-12-06T08:56:18Z</time>
      </trkpt>
      <trkpt lat="38.2781220" lon="-0.6797600">
        <ele>98.0</ele>
        <time>2020-12-06T08:56:19Z</time>
      </trkpt>
      <trkpt lat="38.2781300" lon="-0.6797150">
        <ele>98.0</ele>
        <time>2020-12-06T08:56:20Z</time>
      </trkpt>
      <trkpt lat="38.2781380" lon="-0.6796700">
        <ele>98.0</ele>
        <time>2020-12-06T08:56:21Z</time>
      </trkpt>
      <trkpt lat="38.2781470" lon="-0.6796270">
        <ele>98.0</ele>
        <time>2020-12-06T08:56:22Z</time>
      </trkpt>
      <trkpt lat="38.2781550" lon="-0.6795850">
        <ele>98.0</ele>
        <time>2020-12-06T08:56:23Z</time>
      </trkpt>
      <trkpt lat="38.2781620" lon="-0.6795430">
        <ele>98.9</ele>
        <time>2020-12-06T08:56:24Z</time>
      </trkpt>
      <trkpt lat="38.2781700" lon="-0.6795030">
        <ele>98.9</ele>
        <time>2020-12-06T08:56:25Z</time>
      </trkpt>
      <trkpt lat="38.2781800" lon="-0.6794620">
        <ele>98.9</ele>
        <time>2020-12-06T08:56:26Z</time>
      </trkpt>
      <trkpt lat="38.2781900" lon="-0.6794230">
        <ele>98.9</ele>
        <time>2020-12-06T08:56:27Z</time>
      </trkpt>
      <trkpt lat="38.2782020" lon="-0.6793870">
        <ele>98.9</ele>
        <time>2020-12-06T08:56:28Z</time>
      </trkpt>
      <trkpt lat="38.2782080" lon="-0.6793480">
        <ele>98.9</ele>
        <time>2020-12-06T08:56:29Z</time>
      </trkpt>
      <trkpt lat="38.2782170" lon="-0.6793080">
        <ele>98.9</ele>
        <time>2020-12-06T08:56:30Z</time>
      </trkpt>
      <trkpt lat="38.2782230" lon="-0.6792680">
        <ele>98.9</ele>
        <time>2020-12-06T08:56:31Z</time>
      </trkpt>
      <trkpt lat="38.2782320" lon="-0.6792300">
        <ele>98.9</ele>
        <time>2020-12-06T08:56:32Z</time>
      </trkpt>
      <trkpt lat="38.2782380" lon="-0.6791900">
        <ele>98.9</ele>
        <time>2020-12-06T08:56:33Z</time>
      </trkpt>
      <trkpt lat="38.2782450" lon="-0.6791480">
        <ele>98.9</ele>
        <time>2020-12-06T08:56:34Z</time>
      </trkpt>
      <trkpt lat="38.2782530" lon="-0.6791080">
        <ele>98.9</ele>
        <time>2020-12-06T08:56:35Z</time>
      </trkpt>
      <trkpt lat="38.2782600" lon="-0.6790670">
        <ele>98.9</ele>
        <time>2020-12-06T08:56:36Z</time>
      </trkpt>
      <trkpt lat="38.2782680" lon="-0.6790250">
        <ele>98.9</ele>
        <time>2020-12-06T08:56:37Z</time>
      </trkpt>
      <trkpt lat="38.2782770" lon="-0.6789800">
        <ele>100.0</ele>
        <time>2020-12-06T08:56:38Z</time>
      </trkpt>
      <trkpt lat="38.2782850" lon="-0.6789350">
        <ele>100.0</ele>
        <time>2020-12-06T08:56:39Z</time>
      </trkpt>
      <trkpt lat="38.2782950" lon="-0.6788880">
        <ele>100.0</ele>
        <time>2020-12-06T08:56:40Z</time>
      </trkpt>
      <trkpt lat="38.2783070" lon="-0.6788420">
        <ele>100.0</ele>
        <time>2020-12-06T08:56:41Z</time>
      </trkpt>
      <trkpt lat="38.2783170" lon="-0.6787970">
        <ele>100.0</ele>
        <time>2020-12-06T08:56:42Z</time>
      </trkpt>
      <trkpt lat="38.2783270" lon="-0.6787530">
        <ele>100.0</ele>
        <time>2020-12-06T08:56:43Z</time>
      </trkpt>
      <trkpt lat="38.2783330" lon="-0.6787100">
        <ele>100.0</ele>
        <time>2020-12-06T08:56:44Z</time>
      </trkpt>
      <trkpt lat="38.2783400" lon="-0.6786650">
        <ele>100.0</ele>
        <time>2020-12-06T08:56:45Z</time>
      </trkpt>
      <trkpt lat="38.2783470" lon="-0.6786180">
        <ele>100.0</ele>
        <time>2020-12-06T08:56:46Z</time>
      </trkpt>
      <trkpt lat="38.2783550" lon="-0.6785730">
        <ele>100.0</ele>
        <time>2020-12-06T08:56:47Z</time>
      </trkpt>
      <trkpt lat="38.2783670" lon="-0.6785300">
        <ele>100.0</ele>
        <time>2020-12-06T08:56:48Z</time>
      </trkpt>
      <trkpt lat="38.2783780" lon="-0.6784900">
        <ele>100.0</ele>
        <time>2020-12-06T08:56:49Z</time>
      </trkpt>
      <trkpt lat="38.2783880" lon="-0.6784520">
        <ele>100.0</ele>
        <time>2020-12-06T08:56:50Z</time>
      </trkpt>
      <trkpt lat="38.2783950" lon="-0.6784100">
        <ele>100.0</ele>
        <time>2020-12-06T08:56:51Z</time>
      </trkpt>
      <trkpt lat="38.2784000" lon="-0.6783700">
        <ele>100.0</ele>
        <time>2020-12-06T08:56:52Z</time>
      </trkpt>
      <trkpt lat="38.2784030" lon="-0.6783320">
        <ele>100.0</ele>
        <time>2020-12-06T08:56:53Z</time>
      </trkpt>
      <trkpt lat="38.2784100" lon="-0.6782900">
        <ele>100.0</ele>
        <time>2020-12-06T08:56:54Z</time>
      </trkpt>
      <trkpt lat="38.2784180" lon="-0.6782530">
        <ele>100.0</ele>
        <time>2020-12-06T08:56:55Z</time>
      </trkpt>
      <trkpt lat="38.2784280" lon="-0.6782150">
        <ele>100.0</ele>
        <time>2020-12-06T08:56:56Z</time>
      </trkpt>
      <trkpt lat="38.2784380" lon="-0.6781780">
        <ele>100.0</ele>
        <time>2020-12-06T08:56:57Z</time>
      </trkpt>
      <trkpt lat="38.2784480" lon="-0.6781430">
        <ele>100.0</ele>
        <time>2020-12-06T08:56:58Z</time>
      </trkpt>
      <trkpt lat="38.2784570" lon="-0.6781080">
        <ele>100.0</ele>
        <time>2020-12-06T08:56:59Z</time>
      </trkpt>
      <trkpt lat="38.2784650" lon="-0.6780700">
        <ele>100.0</ele>
        <time>2020-12-06T08:57:00Z</time>
      </trkpt>
      <trkpt lat="38.2784720" lon="-0.6780270">
        <ele>100.0</ele>
        <time>2020-12-06T08:57:01Z</time>
      </trkpt>
      <trkpt lat="38.2784800" lon="-0.6779820">
        <ele>100.0</ele>
        <time>2020-12-06T08:57:02Z</time>
      </trkpt>
      <trkpt lat="38.2784850" lon="-0.6779380">
        <ele>100.0</ele>
        <time>2020-12-06T08:57:03Z</time>
      </trkpt>
      <trkpt lat="38.2784920" lon="-0.6778950">
        <ele>100.0</ele>
        <time>2020-12-06T08:57:04Z</time>
      </trkpt>
      <trkpt lat="38.2785000" lon="-0.6778530">
        <ele>100.0</ele>
        <time>2020-12-06T08:57:05Z</time>
      </trkpt>
      <trkpt lat="38.2785080" lon="-0.6778120">
        <ele>100.0</ele>
        <time>2020-12-06T08:57:06Z</time>
      </trkpt>
      <trkpt lat="38.2785150" lon="-0.6777700">
        <ele>100.0</ele>
        <time>2020-12-06T08:57:07Z</time>
      </trkpt>
      <trkpt lat="38.2785180" lon="-0.6777300">
        <ele>101.0</ele>
        <time>2020-12-06T08:57:08Z</time>
      </trkpt>
      <trkpt lat="38.2785220" lon="-0.6776900">
        <ele>101.0</ele>
        <time>2020-12-06T08:57:09Z</time>
      </trkpt>
      <trkpt lat="38.2785270" lon="-0.6776550">
        <ele>101.0</ele>
        <time>2020-12-06T08:57:10Z</time>
      </trkpt>
      <trkpt lat="38.2785330" lon="-0.6776200">
        <ele>101.0</ele>
        <time>2020-12-06T08:57:11Z</time>
      </trkpt>
      <trkpt lat="38.2785370" lon="-0.6775870">
        <ele>101.0</ele>
        <time>2020-12-06T08:57:12Z</time>
      </trkpt>
      <trkpt lat="38.2785400" lon="-0.6775500">
        <ele>101.0</ele>
        <time>2020-12-06T08:57:13Z</time>
      </trkpt>
      <trkpt lat="38.2785430" lon="-0.6775130">
        <ele>101.0</ele>
        <time>2020-12-06T08:57:14Z</time>
      </trkpt>
      <trkpt lat="38.2785470" lon="-0.6774770">
        <ele>101.0</ele>
        <time>2020-12-06T08:57:15Z</time>
      </trkpt>
      <trkpt lat="38.2785530" lon="-0.6774380">
        <ele>101.0</ele>
        <time>2020-12-06T08:57:16Z</time>
      </trkpt>
      <trkpt lat="38.2785600" lon="-0.6774020">
        <ele>101.0</ele>
        <time>2020-12-06T08:57:17Z</time>
      </trkpt>
      <trkpt lat="38.2785680" lon="-0.6773670">
        <ele>101.0</ele>
        <time>2020-12-06T08:57:18Z</time>
      </trkpt>
      <trkpt lat="38.2785770" lon="-0.6773330">
        <ele>101.0</ele>
        <time>2020-12-06T08:57:19Z</time>
      </trkpt>
      <trkpt lat="38.2785850" lon="-0.6773000">
        <ele>101.0</ele>
        <time>2020-12-06T08:57:20Z</time>
      </trkpt>
      <trkpt lat="38.2785920" lon="-0.6772650">
        <ele>101.0</ele>
        <time>2020-12-06T08:57:21Z</time>
      </trkpt>
      <trkpt lat="38.2785970" lon="-0.6772270">
        <ele>101.0</ele>
        <time>2020-12-06T08:57:22Z</time>
      </trkpt>
      <trkpt lat="38.2786030" lon="-0.6771920">
        <ele>101.0</ele>
        <time>2020-12-06T08:57:23Z</time>
      </trkpt>
      <trkpt lat="38.2786120" lon="-0.6771570">
        <ele>101.0</ele>
        <time>2020-12-06T08:57:24Z</time>
      </trkpt>
      <trkpt lat="38.2786150" lon="-0.6771220">
        <ele>101.0</ele>
        <time>2020-12-06T08:57:25Z</time>
      </trkpt>
      <trkpt lat="38.2786200" lon="-0.6770870">
        <ele>102.0</ele>
        <time>2020-12-06T08:57:26Z</time>
      </trkpt>
      <trkpt lat="38.2786250" lon="-0.6770550">
        <ele>102.0</ele>
        <time>2020-12-06T08:57:27Z</time>
      </trkpt>
      <trkpt lat="38.2786320" lon="-0.6770230">
        <ele>102.0</ele>
        <time>2020-12-06T08:57:28Z</time>
      </trkpt>
      <trkpt lat="38.2786370" lon="-0.6769900">
        <ele>102.0</ele>
        <time>2020-12-06T08:57:29Z</time>
      </trkpt>
      <trkpt lat="38.2786430" lon="-0.6769550">
        <ele>102.0</ele>
        <time>2020-12-06T08:57:30Z</time>
      </trkpt>
      <trkpt lat="38.2786480" lon="-0.6769200">
        <ele>102.0</ele>
        <time>2020-12-06T08:57:31Z</time>
      </trkpt>
      <trkpt lat="38.2786530" lon="-0.6768820">
        <ele>101.0</ele>
        <time>2020-12-06T08:57:32Z</time>
      </trkpt>
      <trkpt lat="38.2786570" lon="-0.6768420">
        <ele>101.0</ele>
        <time>2020-12-06T08:57:33Z</time>
      </trkpt>
      <trkpt lat="38.2786600" lon="-0.6768030">
        <ele>101.0</ele>
        <time>2020-12-06T08:57:34Z</time>
      </trkpt>
      <trkpt lat="38.2786600" lon="-0.6767620">
        <ele>101.0</ele>
        <time>2020-12-06T08:57:35Z</time>
      </trkpt>
      <trkpt lat="38.2786620" lon="-0.6767200">
        <ele>101.0</ele>
        <time>2020-12-06T08:57:36Z</time>
      </trkpt>
      <trkpt lat="38.2786680" lon="-0.6766820">
        <ele>101.0</ele>
        <time>2020-12-06T08:57:37Z</time>
      </trkpt>
      <trkpt lat="38.2786730" lon="-0.6766430">
        <ele>101.0</ele>
        <time>2020-12-06T08:57:38Z</time>
      </trkpt>
      <trkpt lat="38.2786780" lon="-0.6766070">
        <ele>101.0</ele>
        <time>2020-12-06T08:57:39Z</time>
      </trkpt>
      <trkpt lat="38.2786850" lon="-0.6765720">
        <ele>101.0</ele>
        <time>2020-12-06T08:57:40Z</time>
      </trkpt>
      <trkpt lat="38.2786920" lon="-0.6765330">
        <ele>101.0</ele>
        <time>2020-12-06T08:57:41Z</time>
      </trkpt>
      <trkpt lat="38.2786980" lon="-0.6764970">
        <ele>101.0</ele>
        <time>2020-12-06T08:57:42Z</time>
      </trkpt>
      <trkpt lat="38.2787050" lon="-0.6764600">
        <ele>101.0</ele>
        <time>2020-12-06T08:57:43Z</time>
      </trkpt>
      <trkpt lat="38.2787120" lon="-0.6764220">
        <ele>101.0</ele>
        <time>2020-12-06T08:57:44Z</time>
      </trkpt>
      <trkpt lat="38.2787180" lon="-0.6763870">
        <ele>101.0</ele>
        <time>2020-12-06T08:57:45Z</time>
      </trkpt>
      <trkpt lat="38.2787250" lon="-0.6763520">
        <ele>101.0</ele>
        <time>2020-12-06T08:57:46Z</time>
      </trkpt>
      <trkpt lat="38.2787330" lon="-0.6763200">
        <ele>101.0</ele>
        <time>2020-12-06T08:57:47Z</time>
      </trkpt>
      <trkpt lat="38.2787380" lon="-0.6762830">
        <ele>101.0</ele>
        <time>2020-12-06T08:57:48Z</time>
      </trkpt>
      <trkpt lat="38.2787450" lon="-0.6762470">
        <ele>101.0</ele>
        <time>2020-12-06T08:57:49Z</time>
      </trkpt>
      <trkpt lat="38.2787480" lon="-0.6762080">
        <ele>101.0</ele>
        <time>2020-12-06T08:57:50Z</time>
      </trkpt>
      <trkpt lat="38.2787530" lon="-0.6761720">
        <ele>101.0</ele>
        <time>2020-12-06T08:57:51Z</time>
      </trkpt>
      <trkpt lat="38.2787620" lon="-0.6761370">
        <ele>101.0</ele>
        <time>2020-12-06T08:57:52Z</time>
      </trkpt>
      <trkpt lat="38.2787680" lon="-0.6761020">
        <ele>101.0</ele>
        <time>2020-12-06T08:57:53Z</time>
      </trkpt>
      <trkpt lat="38.2787770" lon="-0.6760650">
        <ele>101.0</ele>
        <time>2020-12-06T08:57:54Z</time>
      </trkpt>
      <trkpt lat="38.2787830" lon="-0.6760250">
        <ele>101.0</ele>
        <time>2020-12-06T08:57:55Z</time>
      </trkpt>
      <trkpt lat="38.2787880" lon="-0.6759830">
        <ele>101.0</ele>
        <time>2020-12-06T08:57:56Z</time>
      </trkpt>
      <trkpt lat="38.2787950" lon="-0.6759400">
        <ele>101.0</ele>
        <time>2020-12-06T08:57:57Z</time>
      </trkpt>
      <trkpt lat="38.2788020" lon="-0.6758950">
        <ele>101.0</ele>
        <time>2020-12-06T08:57:58Z</time>
      </trkpt>
      <trkpt lat="38.2788070" lon="-0.6758520">
        <ele>101.0</ele>
        <time>2020-12-06T08:57:59Z</time>
      </trkpt>
      <trkpt lat="38.2788150" lon="-0.6758100">
        <ele>101.0</ele>
        <time>2020-12-06T08:58:00Z</time>
      </trkpt>
      <trkpt lat="38.2788230" lon="-0.6757700">
        <ele>101.0</ele>
        <time>2020-12-06T08:58:01Z</time>
      </trkpt>
      <trkpt lat="38.2788300" lon="-0.6757320">
        <ele>101.0</ele>
        <time>2020-12-06T08:58:02Z</time>
      </trkpt>
      <trkpt lat="38.2788370" lon="-0.6756930">
        <ele>101.0</ele>
        <time>2020-12-06T08:58:03Z</time>
      </trkpt>
      <trkpt lat="38.2788430" lon="-0.6756570">
        <ele>101.0</ele>
        <time>2020-12-06T08:58:04Z</time>
      </trkpt>
      <trkpt lat="38.2788480" lon="-0.6756220">
        <ele>101.0</ele>
        <time>2020-12-06T08:58:05Z</time>
      </trkpt>
      <trkpt lat="38.2788550" lon="-0.6755870">
        <ele>101.0</ele>
        <time>2020-12-06T08:58:06Z</time>
      </trkpt>
      <trkpt lat="38.2788630" lon="-0.6755500">
        <ele>101.0</ele>
        <time>2020-12-06T08:58:07Z</time>
      </trkpt>
      <trkpt lat="38.2788720" lon="-0.6755120">
        <ele>101.0</ele>
        <time>2020-12-06T08:58:08Z</time>
      </trkpt>
      <trkpt lat="38.2788800" lon="-0.6754680">
        <ele>101.0</ele>
        <time>2020-12-06T08:58:09Z</time>
      </trkpt>
      <trkpt lat="38.2788880" lon="-0.6754250">
        <ele>101.0</ele>
        <time>2020-12-06T08:58:10Z</time>
      </trkpt>
      <trkpt lat="38.2788950" lon="-0.6753820">
        <ele>101.0</ele>
        <time>2020-12-06T08:58:11Z</time>
      </trkpt>
      <trkpt lat="38.2789020" lon="-0.6753420">
        <ele>101.0</ele>
        <time>2020-12-06T08:58:12Z</time>
      </trkpt>
      <trkpt lat="38.2789080" lon="-0.6753000">
        <ele>101.0</ele>
        <time>2020-12-06T08:58:13Z</time>
      </trkpt>
      <trkpt lat="38.2789170" lon="-0.6752570">
        <ele>101.0</ele>
        <time>2020-12-06T08:58:14Z</time>
      </trkpt>
      <trkpt lat="38.2789250" lon="-0.6752120">
        <ele>101.0</ele>
        <time>2020-12-06T08:58:15Z</time>
      </trkpt>
      <trkpt lat="38.2789330" lon="-0.6751680">
        <ele>101.0</ele>
        <time>2020-12-06T08:58:16Z</time>
      </trkpt>
      <trkpt lat="38.2789400" lon="-0.6751270">
        <ele>101.0</ele>
        <time>2020-12-06T08:58:17Z</time>
      </trkpt>
      <trkpt lat="38.2789470" lon="-0.6750830">
        <ele>101.0</ele>
        <time>2020-12-06T08:58:18Z</time>
      </trkpt>
      <trkpt lat="38.2789550" lon="-0.6750400">
        <ele>101.0</ele>
        <time>2020-12-06T08:58:19Z</time>
      </trkpt>
      <trkpt lat="38.2789630" lon="-0.6749920">
        <ele>101.0</ele>
        <time>2020-12-06T08:58:20Z</time>
      </trkpt>
      <trkpt lat="38.2789700" lon="-0.6749470">
        <ele>101.0</ele>
        <time>2020-12-06T08:58:21Z</time>
      </trkpt>
      <trkpt lat="38.2789780" lon="-0.6749020">
        <ele>101.0</ele>
        <time>2020-12-06T08:58:22Z</time>
      </trkpt>
      <trkpt lat="38.2789850" lon="-0.6748570">
        <ele>101.0</ele>
        <time>2020-12-06T08:58:23Z</time>
      </trkpt>
      <trkpt lat="38.2789900" lon="-0.6748100">
        <ele>102.0</ele>
        <time>2020-12-06T08:58:24Z</time>
      </trkpt>
      <trkpt lat="38.2789970" lon="-0.6747620">
        <ele>102.0</ele>
        <time>2020-12-06T08:58:25Z</time>
      </trkpt>
      <trkpt lat="38.2790030" lon="-0.6747170">
        <ele>102.0</ele>
        <time>2020-12-06T08:58:26Z</time>
      </trkpt>
      <trkpt lat="38.2790120" lon="-0.6746680">
        <ele>102.0</ele>
        <time>2020-12-06T08:58:27Z</time>
      </trkpt>
      <trkpt lat="38.2790200" lon="-0.6746230">
        <ele>102.0</ele>
        <time>2020-12-06T08:58:28Z</time>
      </trkpt>
      <trkpt lat="38.2790280" lon="-0.6745750">
        <ele>102.0</ele>
        <time>2020-12-06T08:58:29Z</time>
      </trkpt>
      <trkpt lat="38.2790370" lon="-0.6745300">
        <ele>102.0</ele>
        <time>2020-12-06T08:58:30Z</time>
      </trkpt>
      <trkpt lat="38.2790450" lon="-0.6744850">
        <ele>102.0</ele>
        <time>2020-12-06T08:58:31Z</time>
      </trkpt>
      <trkpt lat="38.2790530" lon="-0.6744420">
        <ele>102.0</ele>
        <time>2020-12-06T08:58:32Z</time>
      </trkpt>
      <trkpt lat="38.2790600" lon="-0.6744000">
        <ele>102.0</ele>
        <time>2020-12-06T08:58:33Z</time>
      </trkpt>
      <trkpt lat="38.2790720" lon="-0.6743620">
        <ele>102.0</ele>
        <time>2020-12-06T08:58:34Z</time>
      </trkpt>
      <trkpt lat="38.2790850" lon="-0.6743250">
        <ele>102.0</ele>
        <time>2020-12-06T08:58:35Z</time>
      </trkpt>
      <trkpt lat="38.2791000" lon="-0.6742920">
        <ele>102.0</ele>
        <time>2020-12-06T08:58:36Z</time>
      </trkpt>
      <trkpt lat="38.2791100" lon="-0.6742620">
        <ele>102.0</ele>
        <time>2020-12-06T08:58:37Z</time>
      </trkpt>
      <trkpt lat="38.2791170" lon="-0.6742320">
        <ele>102.0</ele>
        <time>2020-12-06T08:58:38Z</time>
      </trkpt>
      <trkpt lat="38.2791230" lon="-0.6742020">
        <ele>102.0</ele>
        <time>2020-12-06T08:58:39Z</time>
      </trkpt>
      <trkpt lat="38.2791300" lon="-0.6741720">
        <ele>102.0</ele>
        <time>2020-12-06T08:58:40Z</time>
      </trkpt>
      <trkpt lat="38.2791370" lon="-0.6741420">
        <ele>102.0</ele>
        <time>2020-12-06T08:58:41Z</time>
      </trkpt>
      <trkpt lat="38.2791430" lon="-0.6741100">
        <ele>103.0</ele>
        <time>2020-12-06T08:58:42Z</time>
      </trkpt>
      <trkpt lat="38.2791500" lon="-0.6740750">
        <ele>103.0</ele>
        <time>2020-12-06T08:58:43Z</time>
      </trkpt>
      <trkpt lat="38.2791530" lon="-0.6740380">
        <ele>103.0</ele>
        <time>2020-12-06T08:58:44Z</time>
      </trkpt>
      <trkpt lat="38.2791570" lon="-0.6740020">
        <ele>103.0</ele>
        <time>2020-12-06T08:58:45Z</time>
      </trkpt>
      <trkpt lat="38.2791600" lon="-0.6739630">
        <ele>103.0</ele>
        <time>2020-12-06T08:58:46Z</time>
      </trkpt>
      <trkpt lat="38.2791630" lon="-0.6739280">
        <ele>103.0</ele>
        <time>2020-12-06T08:58:47Z</time>
      </trkpt>
      <trkpt lat="38.2791700" lon="-0.6738920">
        <ele>103.0</ele>
        <time>2020-12-06T08:58:48Z</time>
      </trkpt>
      <trkpt lat="38.2791750" lon="-0.6738520">
        <ele>103.0</ele>
        <time>2020-12-06T08:58:49Z</time>
      </trkpt>
      <trkpt lat="38.2791820" lon="-0.6738100">
        <ele>103.0</ele>
        <time>2020-12-06T08:58:50Z</time>
      </trkpt>
      <trkpt lat="38.2791870" lon="-0.6737680">
        <ele>103.0</ele>
        <time>2020-12-06T08:58:51Z</time>
      </trkpt>
      <trkpt lat="38.2791920" lon="-0.6737270">
        <ele>103.0</ele>
        <time>2020-12-06T08:58:52Z</time>
      </trkpt>
      <trkpt lat="38.2791980" lon="-0.6736870">
        <ele>103.0</ele>
        <time>2020-12-06T08:58:53Z</time>
      </trkpt>
      <trkpt lat="38.2792020" lon="-0.6736450">
        <ele>103.0</ele>
        <time>2020-12-06T08:58:54Z</time>
      </trkpt>
      <trkpt lat="38.2792080" lon="-0.6736050">
        <ele>103.0</ele>
        <time>2020-12-06T08:58:55Z</time>
      </trkpt>
      <trkpt lat="38.2792130" lon="-0.6735650">
        <ele>102.0</ele>
        <time>2020-12-06T08:58:56Z</time>
      </trkpt>
      <trkpt lat="38.2792200" lon="-0.6735230">
        <ele>102.0</ele>
        <time>2020-12-06T08:58:57Z</time>
      </trkpt>
      <trkpt lat="38.2792250" lon="-0.6734820">
        <ele>102.0</ele>
        <time>2020-12-06T08:58:58Z</time>
      </trkpt>
      <trkpt lat="38.2792300" lon="-0.6734380">
        <ele>102.0</ele>
        <time>2020-12-06T08:58:59Z</time>
      </trkpt>
      <trkpt lat="38.2792350" lon="-0.6733950">
        <ele>102.0</ele>
        <time>2020-12-06T08:59:00Z</time>
      </trkpt>
      <trkpt lat="38.2792430" lon="-0.6733530">
        <ele>102.0</ele>
        <time>2020-12-06T08:59:01Z</time>
      </trkpt>
      <trkpt lat="38.2792500" lon="-0.6733100">
        <ele>102.0</ele>
        <time>2020-12-06T08:59:02Z</time>
      </trkpt>
      <trkpt lat="38.2792570" lon="-0.6732680">
        <ele>102.0</ele>
        <time>2020-12-06T08:59:03Z</time>
      </trkpt>
      <trkpt lat="38.2792620" lon="-0.6732250">
        <ele>102.0</ele>
        <time>2020-12-06T08:59:04Z</time>
      </trkpt>
      <trkpt lat="38.2792680" lon="-0.6731830">
        <ele>102.0</ele>
        <time>2020-12-06T08:59:05Z</time>
      </trkpt>
      <trkpt lat="38.2792730" lon="-0.6731420">
        <ele>102.0</ele>
        <time>2020-12-06T08:59:06Z</time>
      </trkpt>
      <trkpt lat="38.2792800" lon="-0.6730980">
        <ele>102.0</ele>
        <time>2020-12-06T08:59:07Z</time>
      </trkpt>
      <trkpt lat="38.2792850" lon="-0.6730550">
        <ele>102.0</ele>
        <time>2020-12-06T08:59:08Z</time>
      </trkpt>
      <trkpt lat="38.2792920" lon="-0.6730130">
        <ele>102.0</ele>
        <time>2020-12-06T08:59:09Z</time>
      </trkpt>
      <trkpt lat="38.2792980" lon="-0.6729720">
        <ele>102.0</ele>
        <time>2020-12-06T08:59:10Z</time>
      </trkpt>
      <trkpt lat="38.2793050" lon="-0.6729320">
        <ele>102.0</ele>
        <time>2020-12-06T08:59:11Z</time>
      </trkpt>
      <trkpt lat="38.2793120" lon="-0.6728900">
        <ele>102.0</ele>
        <time>2020-12-06T08:59:12Z</time>
      </trkpt>
      <trkpt lat="38.2793170" lon="-0.6728500">
        <ele>102.0</ele>
        <time>2020-12-06T08:59:13Z</time>
      </trkpt>
      <trkpt lat="38.2793220" lon="-0.6728120">
        <ele>102.0</ele>
        <time>2020-12-06T08:59:14Z</time>
      </trkpt>
      <trkpt lat="38.2793270" lon="-0.6727720">
        <ele>102.0</ele>
        <time>2020-12-06T08:59:15Z</time>
      </trkpt>
      <trkpt lat="38.2793330" lon="-0.6727320">
        <ele>102.0</ele>
        <time>2020-12-06T08:59:16Z</time>
      </trkpt>
      <trkpt lat="38.2793400" lon="-0.6726900">
        <ele>102.0</ele>
        <time>2020-12-06T08:59:17Z</time>
      </trkpt>
      <trkpt lat="38.2793480" lon="-0.6726500">
        <ele>102.0</ele>
        <time>2020-12-06T08:59:18Z</time>
      </trkpt>
      <trkpt lat="38.2793550" lon="-0.6726120">
        <ele>102.0</ele>
        <time>2020-12-06T08:59:19Z</time>
      </trkpt>
      <trkpt lat="38.2793620" lon="-0.6725730">
        <ele>102.0</ele>
        <time>2020-12-06T08:59:20Z</time>
      </trkpt>
      <trkpt lat="38.2793700" lon="-0.6725350">
        <ele>102.0</ele>
        <time>2020-12-06T08:59:21Z</time>
      </trkpt>
      <trkpt lat="38.2793770" lon="-0.6724970">
        <ele>101.0</ele>
        <time>2020-12-06T08:59:22Z</time>
      </trkpt>
      <trkpt lat="38.2793850" lon="-0.6724600">
        <ele>101.0</ele>
        <time>2020-12-06T08:59:23Z</time>
      </trkpt>
      <trkpt lat="38.2793930" lon="-0.6724270">
        <ele>101.0</ele>
        <time>2020-12-06T08:59:24Z</time>
      </trkpt>
      <trkpt lat="38.2794020" lon="-0.6723930">
        <ele>101.0</ele>
        <time>2020-12-06T08:59:25Z</time>
      </trkpt>
      <trkpt lat="38.2794100" lon="-0.6723580">
        <ele>101.0</ele>
        <time>2020-12-06T08:59:26Z</time>
      </trkpt>
      <trkpt lat="38.2794180" lon="-0.6723200">
        <ele>101.0</ele>
        <time>2020-12-06T08:59:27Z</time>
      </trkpt>
      <trkpt lat="38.2794280" lon="-0.6722820">
        <ele>101.0</ele>
        <time>2020-12-06T08:59:28Z</time>
      </trkpt>
      <trkpt lat="38.2794380" lon="-0.6722430">
        <ele>101.0</ele>
        <time>2020-12-06T08:59:29Z</time>
      </trkpt>
      <trkpt lat="38.2794430" lon="-0.6722030">
        <ele>101.0</ele>
        <time>2020-12-06T08:59:30Z</time>
      </trkpt>
      <trkpt lat="38.2794480" lon="-0.6721650">
        <ele>101.0</ele>
        <time>2020-12-06T08:59:31Z</time>
      </trkpt>
      <trkpt lat="38.2794520" lon="-0.6721250">
        <ele>101.0</ele>
        <time>2020-12-06T08:59:32Z</time>
      </trkpt>
      <trkpt lat="38.2794550" lon="-0.6720850">
        <ele>101.0</ele>
        <time>2020-12-06T08:59:33Z</time>
      </trkpt>
      <trkpt lat="38.2794600" lon="-0.6720480">
        <ele>101.0</ele>
        <time>2020-12-06T08:59:34Z</time>
      </trkpt>
      <trkpt lat="38.2794650" lon="-0.6720120">
        <ele>101.0</ele>
        <time>2020-12-06T08:59:35Z</time>
      </trkpt>
      <trkpt lat="38.2794730" lon="-0.6719750">
        <ele>102.0</ele>
        <time>2020-12-06T08:59:36Z</time>
      </trkpt>
      <trkpt lat="38.2794800" lon="-0.6719370">
        <ele>102.0</ele>
        <time>2020-12-06T08:59:37Z</time>
      </trkpt>
      <trkpt lat="38.2794880" lon="-0.6719000">
        <ele>102.0</ele>
        <time>2020-12-06T08:59:38Z</time>
      </trkpt>
      <trkpt lat="38.2794950" lon="-0.6718620">
        <ele>102.0</ele>
        <time>2020-12-06T08:59:39Z</time>
      </trkpt>
      <trkpt lat="38.2795000" lon="-0.6718250">
        <ele>102.0</ele>
        <time>2020-12-06T08:59:40Z</time>
      </trkpt>
      <trkpt lat="38.2795070" lon="-0.6717870">
        <ele>102.0</ele>
        <time>2020-12-06T08:59:41Z</time>
      </trkpt>
      <trkpt lat="38.2795100" lon="-0.6717500">
        <ele>102.0</ele>
        <time>2020-12-06T08:59:42Z</time>
      </trkpt>
      <trkpt lat="38.2795170" lon="-0.6717130">
        <ele>102.0</ele>
        <time>2020-12-06T08:59:43Z</time>
      </trkpt>
      <trkpt lat="38.2795250" lon="-0.6716770">
        <ele>102.0</ele>
        <time>2020-12-06T08:59:44Z</time>
      </trkpt>
      <trkpt lat="38.2795320" lon="-0.6716380">
        <ele>102.0</ele>
        <time>2020-12-06T08:59:45Z</time>
      </trkpt>
      <trkpt lat="38.2795380" lon="-0.6716020">
        <ele>102.0</ele>
        <time>2020-12-06T08:59:46Z</time>
      </trkpt>
      <trkpt lat="38.2795470" lon="-0.6715630">
        <ele>102.0</ele>
        <time>2020-12-06T08:59:47Z</time>
      </trkpt>
      <trkpt lat="38.2795530" lon="-0.6715270">
        <ele>101.0</ele>
        <time>2020-12-06T08:59:48Z</time>
      </trkpt>
      <trkpt lat="38.2795600" lon="-0.6714900">
        <ele>101.0</ele>
        <time>2020-12-06T08:59:49Z</time>
      </trkpt>
      <trkpt lat="38.2795670" lon="-0.6714520">
        <ele>101.0</ele>
        <time>2020-12-06T08:59:50Z</time>
      </trkpt>
      <trkpt lat="38.2795720" lon="-0.6714120">
        <ele>101.0</ele>
        <time>2020-12-06T08:59:51Z</time>
      </trkpt>
      <trkpt lat="38.2795750" lon="-0.6713720">
        <ele>102.0</ele>
        <time>2020-12-06T08:59:52Z</time>
      </trkpt>
      <trkpt lat="38.2795820" lon="-0.6713350">
        <ele>102.0</ele>
        <time>2020-12-06T08:59:53Z</time>
      </trkpt>
      <trkpt lat="38.2795850" lon="-0.6712970">
        <ele>102.0</ele>
        <time>2020-12-06T08:59:54Z</time>
      </trkpt>
      <trkpt lat="38.2795900" lon="-0.6712580">
        <ele>102.0</ele>
        <time>2020-12-06T08:59:55Z</time>
      </trkpt>
      <trkpt lat="38.2795950" lon="-0.6712180">
        <ele>102.0</ele>
        <time>2020-12-06T08:59:56Z</time>
      </trkpt>
      <trkpt lat="38.2795970" lon="-0.6711770">
        <ele>102.0</ele>
        <time>2020-12-06T08:59:57Z</time>
      </trkpt>
      <trkpt lat="38.2796000" lon="-0.6711330">
        <ele>102.0</ele>
        <time>2020-12-06T08:59:58Z</time>
      </trkpt>
      <trkpt lat="38.2796030" lon="-0.6710880">
        <ele>102.0</ele>
        <time>2020-12-06T08:59:59Z</time>
      </trkpt>
      <trkpt lat="38.2796080" lon="-0.6710450">
        <ele>102.0</ele>
        <time>2020-12-06T09:00:00Z</time>
      </trkpt>
      <trkpt lat="38.2796150" lon="-0.6710020">
        <ele>102.0</ele>
        <time>2020-12-06T09:00:01Z</time>
      </trkpt>
      <trkpt lat="38.2796220" lon="-0.6709630">
        <ele>102.0</ele>
        <time>2020-12-06T09:00:02Z</time>
      </trkpt>
      <trkpt lat="38.2796280" lon="-0.6709280">
        <ele>102.0</ele>
        <time>2020-12-06T09:00:03Z</time>
      </trkpt>
      <trkpt lat="38.2796370" lon="-0.6708930">
        <ele>101.0</ele>
        <time>2020-12-06T09:00:04Z</time>
      </trkpt>
      <trkpt lat="38.2796430" lon="-0.6708580">
        <ele>101.0</ele>
        <time>2020-12-06T09:00:05Z</time>
      </trkpt>
      <trkpt lat="38.2796500" lon="-0.6708230">
        <ele>101.0</ele>
        <time>2020-12-06T09:00:06Z</time>
      </trkpt>
      <trkpt lat="38.2796570" lon="-0.6707880">
        <ele>101.0</ele>
        <time>2020-12-06T09:00:07Z</time>
      </trkpt>
      <trkpt lat="38.2796650" lon="-0.6707550">
        <ele>102.0</ele>
        <time>2020-12-06T09:00:08Z</time>
      </trkpt>
      <trkpt lat="38.2796730" lon="-0.6707230">
        <ele>102.0</ele>
        <time>2020-12-06T09:00:09Z</time>
      </trkpt>
      <trkpt lat="38.2796820" lon="-0.6706950">
        <ele>102.0</ele>
        <time>2020-12-06T09:00:10Z</time>
      </trkpt>
      <trkpt lat="38.2796930" lon="-0.6706650">
        <ele>102.0</ele>
        <time>2020-12-06T09:00:11Z</time>
      </trkpt>
      <trkpt lat="38.2797030" lon="-0.6706350">
        <ele>102.0</ele>
        <time>2020-12-06T09:00:12Z</time>
      </trkpt>
      <trkpt lat="38.2797150" lon="-0.6706050">
        <ele>102.0</ele>
        <time>2020-12-06T09:00:13Z</time>
      </trkpt>
      <trkpt lat="38.2797270" lon="-0.6705750">
        <ele>102.0</ele>
        <time>2020-12-06T09:00:14Z</time>
      </trkpt>
      <trkpt lat="38.2797370" lon="-0.6705450">
        <ele>102.0</ele>
        <time>2020-12-06T09:00:15Z</time>
      </trkpt>
      <trkpt lat="38.2797470" lon="-0.6705170">
        <ele>102.0</ele>
        <time>2020-12-06T09:00:16Z</time>
      </trkpt>
      <trkpt lat="38.2797570" lon="-0.6704900">
        <ele>102.0</ele>
        <time>2020-12-06T09:00:17Z</time>
      </trkpt>
      <trkpt lat="38.2797650" lon="-0.6704650">
        <ele>102.0</ele>
        <time>2020-12-06T09:00:18Z</time>
      </trkpt>
      <trkpt lat="38.2797730" lon="-0.6704420">
        <ele>102.0</ele>
        <time>2020-12-06T09:00:19Z</time>
      </trkpt>
      <trkpt lat="38.2797820" lon="-0.6704150">
        <ele>102.0</ele>
        <time>2020-12-06T09:00:20Z</time>
      </trkpt>
      <trkpt lat="38.2797920" lon="-0.6703870">
        <ele>102.0</ele>
        <time>2020-12-06T09:00:21Z</time>
      </trkpt>
      <trkpt lat="38.2797980" lon="-0.6703550">
        <ele>102.0</ele>
        <time>2020-12-06T09:00:22Z</time>
      </trkpt>
      <trkpt lat="38.2798050" lon="-0.6703180">
        <ele>102.0</ele>
        <time>2020-12-06T09:00:23Z</time>
      </trkpt>
      <trkpt lat="38.2798120" lon="-0.6702730">
        <ele>102.0</ele>
        <time>2020-12-06T09:00:24Z</time>
      </trkpt>
      <trkpt lat="38.2798180" lon="-0.6702250">
        <ele>102.0</ele>
        <time>2020-12-06T09:00:25Z</time>
      </trkpt>
      <trkpt lat="38.2798270" lon="-0.6701750">
        <ele>102.0</ele>
        <time>2020-12-06T09:00:26Z</time>
      </trkpt>
      <trkpt lat="38.2798350" lon="-0.6701250">
        <ele>102.0</ele>
        <time>2020-12-06T09:00:27Z</time>
      </trkpt>
      <trkpt lat="38.2798380" lon="-0.6700730">
        <ele>102.0</ele>
        <time>2020-12-06T09:00:28Z</time>
      </trkpt>
      <trkpt lat="38.2798430" lon="-0.6700220">
        <ele>102.0</ele>
        <time>2020-12-06T09:00:29Z</time>
      </trkpt>
      <trkpt lat="38.2798480" lon="-0.6699750">
        <ele>102.0</ele>
        <time>2020-12-06T09:00:30Z</time>
      </trkpt>
      <trkpt lat="38.2798530" lon="-0.6699250">
        <ele>102.0</ele>
        <time>2020-12-06T09:00:31Z</time>
      </trkpt>
      <trkpt lat="38.2798600" lon="-0.6698730">
        <ele>102.0</ele>
        <time>2020-12-06T09:00:32Z</time>
      </trkpt>
      <trkpt lat="38.2798670" lon="-0.6698200">
        <ele>102.0</ele>
        <time>2020-12-06T09:00:33Z</time>
      </trkpt>
      <trkpt lat="38.2798720" lon="-0.6697700">
        <ele>102.0</ele>
        <time>2020-12-06T09:00:34Z</time>
      </trkpt>
      <trkpt lat="38.2798750" lon="-0.6697200">
        <ele>102.0</ele>
        <time>2020-12-06T09:00:35Z</time>
      </trkpt>
      <trkpt lat="38.2798820" lon="-0.6696730">
        <ele>102.0</ele>
        <time>2020-12-06T09:00:36Z</time>
      </trkpt>
      <trkpt lat="38.2798880" lon="-0.6696270">
        <ele>102.0</ele>
        <time>2020-12-06T09:00:37Z</time>
      </trkpt>
      <trkpt lat="38.2798930" lon="-0.6695830">
        <ele>102.0</ele>
        <time>2020-12-06T09:00:38Z</time>
      </trkpt>
      <trkpt lat="38.2799000" lon="-0.6695400">
        <ele>102.0</ele>
        <time>2020-12-06T09:00:39Z</time>
      </trkpt>
      <trkpt lat="38.2799050" lon="-0.6694980">
        <ele>102.0</ele>
        <time>2020-12-06T09:00:40Z</time>
      </trkpt>
      <trkpt lat="38.2799080" lon="-0.6694580">
        <ele>102.0</ele>
        <time>2020-12-06T09:00:41Z</time>
      </trkpt>
      <trkpt lat="38.2799150" lon="-0.6694230">
        <ele>102.0</ele>
        <time>2020-12-06T09:00:42Z</time>
      </trkpt>
    </trkseg>
  </trk>
</gpx>
